<?xml version="1.0" encoding="UTF-8" standalone="no" ?>
<gpx xmlns="http://www.topografix.com/GPX/1/1" xmlns:xsi="http://www.w3.org/2001/XMLSchema-instance" xsi:schemaLocation="http://www.topografix.com/GPX/1/1 http://www.topografix.com/GPX/1/1/gpx.xsd" version="1.1" creator="VisuGPX - https://www.visugpx.com">
  <metadata>
    <name>83-D-Salernes-Sillans</name>
    <desc><![CDATA[83-D-Salernes-Sillans : ses cascades
2024-01-21]]></desc>
  </metadata>
  <trk>
    <name><![CDATA[2024-01-21-D-salernes]]></name>
    <extensions>
      <line xmlns="http://www.topografix.com/GPX/gpx_style/0/2">
        <width>4</width>
      </line>
    </extensions>
    <trkseg>
      <trkpt lat="43.56527" lon="6.22687">
        <ele>224.7</ele>
        <time>2024-01-21T08:29:04.000Z</time>
      </trkpt>
      <trkpt lat="43.56531" lon="6.22686">
        <ele>225.3</ele>
        <time>2024-01-21T08:32:50.000Z</time>
      </trkpt>
      <trkpt lat="43.56532" lon="6.22686">
        <ele>225.3</ele>
        <time>2024-01-21T08:32:51.000Z</time>
      </trkpt>
      <trkpt lat="43.56523" lon="6.22683">
        <ele>225.1</ele>
        <time>2024-01-21T08:34:02.000Z</time>
      </trkpt>
      <trkpt lat="43.56523" lon="6.22683">
        <ele>225.1</ele>
        <time>2024-01-21T08:34:03.000Z</time>
      </trkpt>
      <trkpt lat="43.56523" lon="6.22682">
        <ele>225.3</ele>
        <time>2024-01-21T08:34:50.000Z</time>
      </trkpt>
      <trkpt lat="43.56526" lon="6.22677">
        <ele>225.5</ele>
        <time>2024-01-21T08:35:40.000Z</time>
      </trkpt>
      <trkpt lat="43.56526" lon="6.22677">
        <ele>225.5</ele>
        <time>2024-01-21T08:35:41.000Z</time>
      </trkpt>
      <trkpt lat="43.56525" lon="6.22666">
        <ele>225.6</ele>
        <time>2024-01-21T08:36:09.000Z</time>
      </trkpt>
      <trkpt lat="43.56525" lon="6.2266">
        <ele>225.5</ele>
        <time>2024-01-21T08:36:14.000Z</time>
      </trkpt>
      <trkpt lat="43.56524" lon="6.22654">
        <ele>225.5</ele>
        <time>2024-01-21T08:36:18.000Z</time>
      </trkpt>
      <trkpt lat="43.56522" lon="6.22649">
        <ele>225.5</ele>
        <time>2024-01-21T08:36:22.000Z</time>
      </trkpt>
      <trkpt lat="43.56521" lon="6.22643">
        <ele>225.4</ele>
        <time>2024-01-21T08:36:26.000Z</time>
      </trkpt>
      <trkpt lat="43.5652" lon="6.22638">
        <ele>225.4</ele>
        <time>2024-01-21T08:36:32.000Z</time>
      </trkpt>
      <trkpt lat="43.56521" lon="6.22632">
        <ele>225.3</ele>
        <time>2024-01-21T08:36:36.000Z</time>
      </trkpt>
      <trkpt lat="43.56522" lon="6.22627">
        <ele>225.3</ele>
        <time>2024-01-21T08:36:40.000Z</time>
      </trkpt>
      <trkpt lat="43.56523" lon="6.22622">
        <ele>225.3</ele>
        <time>2024-01-21T08:36:44.000Z</time>
      </trkpt>
      <trkpt lat="43.56523" lon="6.22621">
        <ele>225.3</ele>
        <time>2024-01-21T08:36:45.000Z</time>
      </trkpt>
      <trkpt lat="43.56523" lon="6.22611">
        <ele>225.3</ele>
        <time>2024-01-21T08:36:52.000Z</time>
      </trkpt>
      <trkpt lat="43.56523" lon="6.22605">
        <ele>225.3</ele>
        <time>2024-01-21T08:36:56.000Z</time>
      </trkpt>
      <trkpt lat="43.56524" lon="6.226">
        <ele>225.3</ele>
        <time>2024-01-21T08:37:00.000Z</time>
      </trkpt>
      <trkpt lat="43.56523" lon="6.22595">
        <ele>225.3</ele>
        <time>2024-01-21T08:37:04.000Z</time>
      </trkpt>
      <trkpt lat="43.56524" lon="6.22589">
        <ele>225.4</ele>
        <time>2024-01-21T08:37:08.000Z</time>
      </trkpt>
      <trkpt lat="43.56524" lon="6.22584">
        <ele>225.4</ele>
        <time>2024-01-21T08:37:12.000Z</time>
      </trkpt>
      <trkpt lat="43.56524" lon="6.22578">
        <ele>225.4</ele>
        <time>2024-01-21T08:37:16.000Z</time>
      </trkpt>
      <trkpt lat="43.56525" lon="6.22572">
        <ele>225.4</ele>
        <time>2024-01-21T08:37:20.000Z</time>
      </trkpt>
      <trkpt lat="43.56526" lon="6.22567">
        <ele>225.4</ele>
        <time>2024-01-21T08:37:23.000Z</time>
      </trkpt>
      <trkpt lat="43.56527" lon="6.22562">
        <ele>225.4</ele>
        <time>2024-01-21T08:37:26.000Z</time>
      </trkpt>
      <trkpt lat="43.56528" lon="6.22557">
        <ele>225.5</ele>
        <time>2024-01-21T08:37:30.000Z</time>
      </trkpt>
      <trkpt lat="43.56529" lon="6.22552">
        <ele>225.5</ele>
        <time>2024-01-21T08:37:34.000Z</time>
      </trkpt>
      <trkpt lat="43.5653" lon="6.22546">
        <ele>225.5</ele>
        <time>2024-01-21T08:37:38.000Z</time>
      </trkpt>
      <trkpt lat="43.5653" lon="6.22541">
        <ele>225.5</ele>
        <time>2024-01-21T08:37:42.000Z</time>
      </trkpt>
      <trkpt lat="43.5653" lon="6.22535">
        <ele>225.5</ele>
        <time>2024-01-21T08:37:46.000Z</time>
      </trkpt>
      <trkpt lat="43.5653" lon="6.22534">
        <ele>225.5</ele>
        <time>2024-01-21T08:37:47.000Z</time>
      </trkpt>
      <trkpt lat="43.56526" lon="6.22527">
        <ele>225.6</ele>
        <time>2024-01-21T08:38:02.000Z</time>
      </trkpt>
      <trkpt lat="43.56523" lon="6.22523">
        <ele>225.7</ele>
        <time>2024-01-21T08:38:09.000Z</time>
      </trkpt>
      <trkpt lat="43.5652" lon="6.22521">
        <ele>225.8</ele>
        <time>2024-01-21T08:38:15.000Z</time>
      </trkpt>
      <trkpt lat="43.56516" lon="6.22518">
        <ele>226</ele>
        <time>2024-01-21T08:38:19.000Z</time>
      </trkpt>
      <trkpt lat="43.56514" lon="6.22513">
        <ele>226</ele>
        <time>2024-01-21T08:38:23.000Z</time>
      </trkpt>
      <trkpt lat="43.56515" lon="6.22508">
        <ele>226.1</ele>
        <time>2024-01-21T08:38:27.000Z</time>
      </trkpt>
      <trkpt lat="43.56515" lon="6.22503">
        <ele>226</ele>
        <time>2024-01-21T08:38:31.000Z</time>
      </trkpt>
      <trkpt lat="43.56517" lon="6.22498">
        <ele>225.8</ele>
        <time>2024-01-21T08:38:36.000Z</time>
      </trkpt>
      <trkpt lat="43.56518" lon="6.22492">
        <ele>225.7</ele>
        <time>2024-01-21T08:38:41.000Z</time>
      </trkpt>
      <trkpt lat="43.56518" lon="6.22486">
        <ele>225.6</ele>
        <time>2024-01-21T08:38:45.000Z</time>
      </trkpt>
      <trkpt lat="43.56519" lon="6.22481">
        <ele>225.6</ele>
        <time>2024-01-21T08:38:48.000Z</time>
      </trkpt>
      <trkpt lat="43.56519" lon="6.22479">
        <ele>225.6</ele>
        <time>2024-01-21T08:38:49.000Z</time>
      </trkpt>
      <trkpt lat="43.5652" lon="6.2247">
        <ele>225.5</ele>
        <time>2024-01-21T08:38:55.000Z</time>
      </trkpt>
      <trkpt lat="43.5652" lon="6.22464">
        <ele>225.5</ele>
        <time>2024-01-21T08:38:58.000Z</time>
      </trkpt>
      <trkpt lat="43.56519" lon="6.22459">
        <ele>225.5</ele>
        <time>2024-01-21T08:39:02.000Z</time>
      </trkpt>
      <trkpt lat="43.56516" lon="6.22456">
        <ele>225.5</ele>
        <time>2024-01-21T08:39:05.000Z</time>
      </trkpt>
      <trkpt lat="43.56512" lon="6.22454">
        <ele>225.6</ele>
        <time>2024-01-21T08:39:08.000Z</time>
      </trkpt>
      <trkpt lat="43.56509" lon="6.22451">
        <ele>225.7</ele>
        <time>2024-01-21T08:39:11.000Z</time>
      </trkpt>
      <trkpt lat="43.56505" lon="6.22448">
        <ele>225.7</ele>
        <time>2024-01-21T08:39:14.000Z</time>
      </trkpt>
      <trkpt lat="43.56501" lon="6.22446">
        <ele>225.9</ele>
        <time>2024-01-21T08:39:17.000Z</time>
      </trkpt>
      <trkpt lat="43.56498" lon="6.22444">
        <ele>226</ele>
        <time>2024-01-21T08:39:21.000Z</time>
      </trkpt>
      <trkpt lat="43.56494" lon="6.22443">
        <ele>226.2</ele>
        <time>2024-01-21T08:39:25.000Z</time>
      </trkpt>
      <trkpt lat="43.5649" lon="6.22442">
        <ele>226.5</ele>
        <time>2024-01-21T08:39:29.000Z</time>
      </trkpt>
      <trkpt lat="43.56486" lon="6.22442">
        <ele>226.8</ele>
        <time>2024-01-21T08:39:32.000Z</time>
      </trkpt>
      <trkpt lat="43.56482" lon="6.22441">
        <ele>227.3</ele>
        <time>2024-01-21T08:39:36.000Z</time>
      </trkpt>
      <trkpt lat="43.56478" lon="6.22439">
        <ele>228.7</ele>
        <time>2024-01-21T08:39:47.000Z</time>
      </trkpt>
      <trkpt lat="43.56475" lon="6.22435">
        <ele>229.3</ele>
        <time>2024-01-21T08:39:53.000Z</time>
      </trkpt>
      <trkpt lat="43.56475" lon="6.22434">
        <ele>229.4</ele>
        <time>2024-01-21T08:39:54.000Z</time>
      </trkpt>
      <trkpt lat="43.56472" lon="6.22425">
        <ele>231.4</ele>
        <time>2024-01-21T08:40:07.000Z</time>
      </trkpt>
      <trkpt lat="43.56472" lon="6.2242">
        <ele>232.1</ele>
        <time>2024-01-21T08:40:13.000Z</time>
      </trkpt>
      <trkpt lat="43.56471" lon="6.22415">
        <ele>232.6</ele>
        <time>2024-01-21T08:40:18.000Z</time>
      </trkpt>
      <trkpt lat="43.56471" lon="6.22409">
        <ele>233</ele>
        <time>2024-01-21T08:40:23.000Z</time>
      </trkpt>
      <trkpt lat="43.5647" lon="6.22404">
        <ele>233.4</ele>
        <time>2024-01-21T08:40:28.000Z</time>
      </trkpt>
      <trkpt lat="43.56469" lon="6.22398">
        <ele>233.6</ele>
        <time>2024-01-21T08:40:32.000Z</time>
      </trkpt>
      <trkpt lat="43.56468" lon="6.22393">
        <ele>233.9</ele>
        <time>2024-01-21T08:40:36.000Z</time>
      </trkpt>
      <trkpt lat="43.56466" lon="6.22388">
        <ele>234.2</ele>
        <time>2024-01-21T08:40:40.000Z</time>
      </trkpt>
      <trkpt lat="43.56465" lon="6.22382">
        <ele>234.4</ele>
        <time>2024-01-21T08:40:44.000Z</time>
      </trkpt>
      <trkpt lat="43.56463" lon="6.22377">
        <ele>234.7</ele>
        <time>2024-01-21T08:40:48.000Z</time>
      </trkpt>
      <trkpt lat="43.56461" lon="6.22373">
        <ele>235</ele>
        <time>2024-01-21T08:40:52.000Z</time>
      </trkpt>
      <trkpt lat="43.5646" lon="6.22368">
        <ele>235.2</ele>
        <time>2024-01-21T08:40:56.000Z</time>
      </trkpt>
      <trkpt lat="43.56459" lon="6.22367">
        <ele>235.2</ele>
        <time>2024-01-21T08:40:57.000Z</time>
      </trkpt>
      <trkpt lat="43.56457" lon="6.22359">
        <ele>235.7</ele>
        <time>2024-01-21T08:41:04.000Z</time>
      </trkpt>
      <trkpt lat="43.56454" lon="6.22356">
        <ele>236</ele>
        <time>2024-01-21T08:41:07.000Z</time>
      </trkpt>
      <trkpt lat="43.56451" lon="6.22353">
        <ele>236.2</ele>
        <time>2024-01-21T08:41:10.000Z</time>
      </trkpt>
      <trkpt lat="43.56449" lon="6.22348">
        <ele>236.7</ele>
        <time>2024-01-21T08:41:14.000Z</time>
      </trkpt>
      <trkpt lat="43.56447" lon="6.22344">
        <ele>237.2</ele>
        <time>2024-01-21T08:41:18.000Z</time>
      </trkpt>
      <trkpt lat="43.56444" lon="6.2234">
        <ele>237.6</ele>
        <time>2024-01-21T08:41:22.000Z</time>
      </trkpt>
      <trkpt lat="43.56441" lon="6.22336">
        <ele>238</ele>
        <time>2024-01-21T08:41:26.000Z</time>
      </trkpt>
      <trkpt lat="43.5644" lon="6.22331">
        <ele>238.4</ele>
        <time>2024-01-21T08:41:30.000Z</time>
      </trkpt>
      <trkpt lat="43.56437" lon="6.22327">
        <ele>238.7</ele>
        <time>2024-01-21T08:41:33.000Z</time>
      </trkpt>
      <trkpt lat="43.56436" lon="6.22322">
        <ele>239.2</ele>
        <time>2024-01-21T08:41:37.000Z</time>
      </trkpt>
      <trkpt lat="43.56435" lon="6.22316">
        <ele>239.6</ele>
        <time>2024-01-21T08:41:41.000Z</time>
      </trkpt>
      <trkpt lat="43.56435" lon="6.22311">
        <ele>240.2</ele>
        <time>2024-01-21T08:41:46.000Z</time>
      </trkpt>
      <trkpt lat="43.56435" lon="6.22306">
        <ele>240.6</ele>
        <time>2024-01-21T08:41:50.000Z</time>
      </trkpt>
      <trkpt lat="43.56432" lon="6.22301">
        <ele>241.2</ele>
        <time>2024-01-21T08:41:54.000Z</time>
      </trkpt>
      <trkpt lat="43.5643" lon="6.22296">
        <ele>241.8</ele>
        <time>2024-01-21T08:41:58.000Z</time>
      </trkpt>
      <trkpt lat="43.56429" lon="6.22295">
        <ele>241.9</ele>
        <time>2024-01-21T08:41:59.000Z</time>
      </trkpt>
      <trkpt lat="43.56424" lon="6.22288">
        <ele>242.5</ele>
        <time>2024-01-21T08:42:04.000Z</time>
      </trkpt>
      <trkpt lat="43.56421" lon="6.22284">
        <ele>243</ele>
        <time>2024-01-21T08:42:07.000Z</time>
      </trkpt>
      <trkpt lat="43.5642" lon="6.2228">
        <ele>243.4</ele>
        <time>2024-01-21T08:42:10.000Z</time>
      </trkpt>
      <trkpt lat="43.56419" lon="6.22274">
        <ele>243.9</ele>
        <time>2024-01-21T08:42:13.000Z</time>
      </trkpt>
      <trkpt lat="43.56418" lon="6.2227">
        <ele>244.3</ele>
        <time>2024-01-21T08:42:16.000Z</time>
      </trkpt>
      <trkpt lat="43.56417" lon="6.22265">
        <ele>244.6</ele>
        <time>2024-01-21T08:42:19.000Z</time>
      </trkpt>
      <trkpt lat="43.56417" lon="6.22259">
        <ele>245.1</ele>
        <time>2024-01-21T08:42:23.000Z</time>
      </trkpt>
      <trkpt lat="43.56417" lon="6.22253">
        <ele>245.5</ele>
        <time>2024-01-21T08:42:27.000Z</time>
      </trkpt>
      <trkpt lat="43.56418" lon="6.22247">
        <ele>246</ele>
        <time>2024-01-21T08:42:31.000Z</time>
      </trkpt>
      <trkpt lat="43.56419" lon="6.22243">
        <ele>246.3</ele>
        <time>2024-01-21T08:42:34.000Z</time>
      </trkpt>
      <trkpt lat="43.56421" lon="6.22237">
        <ele>246.7</ele>
        <time>2024-01-21T08:42:38.000Z</time>
      </trkpt>
      <trkpt lat="43.56423" lon="6.22232">
        <ele>247.2</ele>
        <time>2024-01-21T08:42:42.000Z</time>
      </trkpt>
      <trkpt lat="43.56424" lon="6.22226">
        <ele>247.6</ele>
        <time>2024-01-21T08:42:46.000Z</time>
      </trkpt>
      <trkpt lat="43.56423" lon="6.2222">
        <ele>248</ele>
        <time>2024-01-21T08:42:50.000Z</time>
      </trkpt>
      <trkpt lat="43.56423" lon="6.22215">
        <ele>248.2</ele>
        <time>2024-01-21T08:42:53.000Z</time>
      </trkpt>
      <trkpt lat="43.56423" lon="6.22209">
        <ele>248.4</ele>
        <time>2024-01-21T08:42:57.000Z</time>
      </trkpt>
      <trkpt lat="43.56422" lon="6.22204">
        <ele>248.6</ele>
        <time>2024-01-21T08:43:00.000Z</time>
      </trkpt>
      <trkpt lat="43.56422" lon="6.22202">
        <ele>248.6</ele>
        <time>2024-01-21T08:43:01.000Z</time>
      </trkpt>
      <trkpt lat="43.5642" lon="6.22193">
        <ele>248.9</ele>
        <time>2024-01-21T08:43:07.000Z</time>
      </trkpt>
      <trkpt lat="43.5642" lon="6.22187">
        <ele>249.1</ele>
        <time>2024-01-21T08:43:11.000Z</time>
      </trkpt>
      <trkpt lat="43.56419" lon="6.22181">
        <ele>249.3</ele>
        <time>2024-01-21T08:43:15.000Z</time>
      </trkpt>
      <trkpt lat="43.56418" lon="6.22175">
        <ele>249.7</ele>
        <time>2024-01-21T08:43:19.000Z</time>
      </trkpt>
      <trkpt lat="43.56417" lon="6.22171">
        <ele>250.1</ele>
        <time>2024-01-21T08:43:22.000Z</time>
      </trkpt>
      <trkpt lat="43.56415" lon="6.22165">
        <ele>250.8</ele>
        <time>2024-01-21T08:43:26.000Z</time>
      </trkpt>
      <trkpt lat="43.56415" lon="6.22159">
        <ele>251.3</ele>
        <time>2024-01-21T08:43:30.000Z</time>
      </trkpt>
      <trkpt lat="43.56415" lon="6.22154">
        <ele>251.7</ele>
        <time>2024-01-21T08:43:33.000Z</time>
      </trkpt>
      <trkpt lat="43.56414" lon="6.2215">
        <ele>252.1</ele>
        <time>2024-01-21T08:43:36.000Z</time>
      </trkpt>
      <trkpt lat="43.56414" lon="6.22145">
        <ele>252.5</ele>
        <time>2024-01-21T08:43:39.000Z</time>
      </trkpt>
      <trkpt lat="43.56413" lon="6.22139">
        <ele>253</ele>
        <time>2024-01-21T08:43:43.000Z</time>
      </trkpt>
      <trkpt lat="43.56413" lon="6.22134">
        <ele>253.4</ele>
        <time>2024-01-21T08:43:46.000Z</time>
      </trkpt>
      <trkpt lat="43.56411" lon="6.22129">
        <ele>253.7</ele>
        <time>2024-01-21T08:43:49.000Z</time>
      </trkpt>
      <trkpt lat="43.56411" lon="6.22124">
        <ele>254</ele>
        <time>2024-01-21T08:43:52.000Z</time>
      </trkpt>
      <trkpt lat="43.56411" lon="6.22119">
        <ele>254.3</ele>
        <time>2024-01-21T08:43:55.000Z</time>
      </trkpt>
      <trkpt lat="43.56411" lon="6.22114">
        <ele>254.6</ele>
        <time>2024-01-21T08:43:58.000Z</time>
      </trkpt>
      <trkpt lat="43.56412" lon="6.22109">
        <ele>254.9</ele>
        <time>2024-01-21T08:44:01.000Z</time>
      </trkpt>
      <trkpt lat="43.56412" lon="6.22108">
        <ele>255</ele>
        <time>2024-01-21T08:44:02.000Z</time>
      </trkpt>
      <trkpt lat="43.56416" lon="6.22099">
        <ele>255.5</ele>
        <time>2024-01-21T08:44:08.000Z</time>
      </trkpt>
      <trkpt lat="43.56417" lon="6.22095">
        <ele>255.7</ele>
        <time>2024-01-21T08:44:11.000Z</time>
      </trkpt>
      <trkpt lat="43.5642" lon="6.22091">
        <ele>255.9</ele>
        <time>2024-01-21T08:44:15.000Z</time>
      </trkpt>
      <trkpt lat="43.56421" lon="6.22086">
        <ele>256</ele>
        <time>2024-01-21T08:44:19.000Z</time>
      </trkpt>
      <trkpt lat="43.56423" lon="6.22081">
        <ele>256.3</ele>
        <time>2024-01-21T08:44:24.000Z</time>
      </trkpt>
      <trkpt lat="43.56424" lon="6.22076">
        <ele>256.5</ele>
        <time>2024-01-21T08:44:28.000Z</time>
      </trkpt>
      <trkpt lat="43.56425" lon="6.2207">
        <ele>256.8</ele>
        <time>2024-01-21T08:44:32.000Z</time>
      </trkpt>
      <trkpt lat="43.56427" lon="6.22065">
        <ele>257.2</ele>
        <time>2024-01-21T08:44:36.000Z</time>
      </trkpt>
      <trkpt lat="43.56426" lon="6.22059">
        <ele>257.5</ele>
        <time>2024-01-21T08:44:40.000Z</time>
      </trkpt>
      <trkpt lat="43.56427" lon="6.22054">
        <ele>257.7</ele>
        <time>2024-01-21T08:44:43.000Z</time>
      </trkpt>
      <trkpt lat="43.56426" lon="6.22049">
        <ele>258.2</ele>
        <time>2024-01-21T08:44:47.000Z</time>
      </trkpt>
      <trkpt lat="43.56425" lon="6.22043">
        <ele>258.5</ele>
        <time>2024-01-21T08:44:50.000Z</time>
      </trkpt>
      <trkpt lat="43.56423" lon="6.22038">
        <ele>258.8</ele>
        <time>2024-01-21T08:44:53.000Z</time>
      </trkpt>
      <trkpt lat="43.56422" lon="6.22032">
        <ele>259.2</ele>
        <time>2024-01-21T08:44:57.000Z</time>
      </trkpt>
      <trkpt lat="43.56421" lon="6.22027">
        <ele>259.6</ele>
        <time>2024-01-21T08:45:01.000Z</time>
      </trkpt>
      <trkpt lat="43.56419" lon="6.22022">
        <ele>259.9</ele>
        <time>2024-01-21T08:45:04.000Z</time>
      </trkpt>
      <trkpt lat="43.56419" lon="6.2202">
        <ele>260</ele>
        <time>2024-01-21T08:45:05.000Z</time>
      </trkpt>
      <trkpt lat="43.56417" lon="6.22011">
        <ele>260.8</ele>
        <time>2024-01-21T08:45:12.000Z</time>
      </trkpt>
      <trkpt lat="43.56415" lon="6.22006">
        <ele>261.3</ele>
        <time>2024-01-21T08:45:16.000Z</time>
      </trkpt>
      <trkpt lat="43.56413" lon="6.22002">
        <ele>261.6</ele>
        <time>2024-01-21T08:45:20.000Z</time>
      </trkpt>
      <trkpt lat="43.56411" lon="6.21996">
        <ele>262.3</ele>
        <time>2024-01-21T08:45:25.000Z</time>
      </trkpt>
      <trkpt lat="43.56409" lon="6.21992">
        <ele>262.8</ele>
        <time>2024-01-21T08:45:29.000Z</time>
      </trkpt>
      <trkpt lat="43.56408" lon="6.21987">
        <ele>263.4</ele>
        <time>2024-01-21T08:45:33.000Z</time>
      </trkpt>
      <trkpt lat="43.56405" lon="6.21983">
        <ele>264</ele>
        <time>2024-01-21T08:45:37.000Z</time>
      </trkpt>
      <trkpt lat="43.56402" lon="6.21979">
        <ele>264.5</ele>
        <time>2024-01-21T08:45:41.000Z</time>
      </trkpt>
      <trkpt lat="43.56399" lon="6.21975">
        <ele>265</ele>
        <time>2024-01-21T08:45:44.000Z</time>
      </trkpt>
      <trkpt lat="43.56396" lon="6.21971">
        <ele>265.6</ele>
        <time>2024-01-21T08:45:47.000Z</time>
      </trkpt>
      <trkpt lat="43.56394" lon="6.21967">
        <ele>266.3</ele>
        <time>2024-01-21T08:45:51.000Z</time>
      </trkpt>
      <trkpt lat="43.56393" lon="6.21962">
        <ele>266.9</ele>
        <time>2024-01-21T08:45:56.000Z</time>
      </trkpt>
      <trkpt lat="43.5639" lon="6.21957">
        <ele>267.7</ele>
        <time>2024-01-21T08:46:00.000Z</time>
      </trkpt>
      <trkpt lat="43.56388" lon="6.21952">
        <ele>268.6</ele>
        <time>2024-01-21T08:46:05.000Z</time>
      </trkpt>
      <trkpt lat="43.56387" lon="6.21951">
        <ele>268.7</ele>
        <time>2024-01-21T08:46:06.000Z</time>
      </trkpt>
      <trkpt lat="43.56384" lon="6.21942">
        <ele>270</ele>
        <time>2024-01-21T08:46:14.000Z</time>
      </trkpt>
      <trkpt lat="43.56383" lon="6.21937">
        <ele>271</ele>
        <time>2024-01-21T08:46:21.000Z</time>
      </trkpt>
      <trkpt lat="43.5638" lon="6.21933">
        <ele>271.6</ele>
        <time>2024-01-21T08:46:25.000Z</time>
      </trkpt>
      <trkpt lat="43.56379" lon="6.21927">
        <ele>272.1</ele>
        <time>2024-01-21T08:46:29.000Z</time>
      </trkpt>
      <trkpt lat="43.56379" lon="6.21922">
        <ele>272.7</ele>
        <time>2024-01-21T08:46:33.000Z</time>
      </trkpt>
      <trkpt lat="43.56379" lon="6.21916">
        <ele>273.3</ele>
        <time>2024-01-21T08:46:38.000Z</time>
      </trkpt>
      <trkpt lat="43.5638" lon="6.21911">
        <ele>273.7</ele>
        <time>2024-01-21T08:46:42.000Z</time>
      </trkpt>
      <trkpt lat="43.5638" lon="6.21905">
        <ele>274.1</ele>
        <time>2024-01-21T08:46:46.000Z</time>
      </trkpt>
      <trkpt lat="43.5638" lon="6.21899">
        <ele>274.4</ele>
        <time>2024-01-21T08:46:50.000Z</time>
      </trkpt>
      <trkpt lat="43.56382" lon="6.21894">
        <ele>274.6</ele>
        <time>2024-01-21T08:46:54.000Z</time>
      </trkpt>
      <trkpt lat="43.56384" lon="6.21888">
        <ele>275</ele>
        <time>2024-01-21T08:46:59.000Z</time>
      </trkpt>
      <trkpt lat="43.56386" lon="6.21884">
        <ele>275.2</ele>
        <time>2024-01-21T08:47:03.000Z</time>
      </trkpt>
      <trkpt lat="43.56389" lon="6.2188">
        <ele>275.3</ele>
        <time>2024-01-21T08:47:07.000Z</time>
      </trkpt>
      <trkpt lat="43.56389" lon="6.21879">
        <ele>275.3</ele>
        <time>2024-01-21T08:47:08.000Z</time>
      </trkpt>
      <trkpt lat="43.56393" lon="6.21871">
        <ele>275.2</ele>
        <time>2024-01-21T08:47:14.000Z</time>
      </trkpt>
      <trkpt lat="43.56395" lon="6.21867">
        <ele>274.9</ele>
        <time>2024-01-21T08:47:17.000Z</time>
      </trkpt>
      <trkpt lat="43.56396" lon="6.21861">
        <ele>274.7</ele>
        <time>2024-01-21T08:47:21.000Z</time>
      </trkpt>
      <trkpt lat="43.56398" lon="6.21856">
        <ele>274.5</ele>
        <time>2024-01-21T08:47:25.000Z</time>
      </trkpt>
      <trkpt lat="43.56401" lon="6.21851">
        <ele>274.3</ele>
        <time>2024-01-21T08:47:30.000Z</time>
      </trkpt>
      <trkpt lat="43.56403" lon="6.21847">
        <ele>274.2</ele>
        <time>2024-01-21T08:47:34.000Z</time>
      </trkpt>
      <trkpt lat="43.56405" lon="6.21842">
        <ele>274.1</ele>
        <time>2024-01-21T08:47:38.000Z</time>
      </trkpt>
      <trkpt lat="43.56407" lon="6.21837">
        <ele>274.1</ele>
        <time>2024-01-21T08:47:44.000Z</time>
      </trkpt>
      <trkpt lat="43.5641" lon="6.21833">
        <ele>274.2</ele>
        <time>2024-01-21T08:47:47.000Z</time>
      </trkpt>
      <trkpt lat="43.56412" lon="6.21829">
        <ele>274.3</ele>
        <time>2024-01-21T08:47:50.000Z</time>
      </trkpt>
      <trkpt lat="43.56415" lon="6.21825">
        <ele>274.4</ele>
        <time>2024-01-21T08:47:53.000Z</time>
      </trkpt>
      <trkpt lat="43.56417" lon="6.2182">
        <ele>274.5</ele>
        <time>2024-01-21T08:47:56.000Z</time>
      </trkpt>
      <trkpt lat="43.56419" lon="6.21816">
        <ele>274.7</ele>
        <time>2024-01-21T08:48:00.000Z</time>
      </trkpt>
      <trkpt lat="43.56421" lon="6.21811">
        <ele>274.8</ele>
        <time>2024-01-21T08:48:03.000Z</time>
      </trkpt>
      <trkpt lat="43.56422" lon="6.21807">
        <ele>275</ele>
        <time>2024-01-21T08:48:06.000Z</time>
      </trkpt>
      <trkpt lat="43.56425" lon="6.21803">
        <ele>275.2</ele>
        <time>2024-01-21T08:48:09.000Z</time>
      </trkpt>
      <trkpt lat="43.56426" lon="6.21801">
        <ele>275.3</ele>
        <time>2024-01-21T08:48:10.000Z</time>
      </trkpt>
      <trkpt lat="43.56429" lon="6.21794">
        <ele>276</ele>
        <time>2024-01-21T08:48:16.000Z</time>
      </trkpt>
      <trkpt lat="43.56431" lon="6.2179">
        <ele>276.5</ele>
        <time>2024-01-21T08:48:20.000Z</time>
      </trkpt>
      <trkpt lat="43.56434" lon="6.21786">
        <ele>276.8</ele>
        <time>2024-01-21T08:48:23.000Z</time>
      </trkpt>
      <trkpt lat="43.56437" lon="6.21783">
        <ele>277.1</ele>
        <time>2024-01-21T08:48:26.000Z</time>
      </trkpt>
      <trkpt lat="43.56439" lon="6.21779">
        <ele>277.4</ele>
        <time>2024-01-21T08:48:29.000Z</time>
      </trkpt>
      <trkpt lat="43.56441" lon="6.21775">
        <ele>277.9</ele>
        <time>2024-01-21T08:48:33.000Z</time>
      </trkpt>
      <trkpt lat="43.56442" lon="6.21769">
        <ele>278.4</ele>
        <time>2024-01-21T08:48:37.000Z</time>
      </trkpt>
      <trkpt lat="43.56444" lon="6.21764">
        <ele>278.7</ele>
        <time>2024-01-21T08:48:40.000Z</time>
      </trkpt>
      <trkpt lat="43.56445" lon="6.21759">
        <ele>279</ele>
        <time>2024-01-21T08:48:44.000Z</time>
      </trkpt>
      <trkpt lat="43.56446" lon="6.21754">
        <ele>279.3</ele>
        <time>2024-01-21T08:48:48.000Z</time>
      </trkpt>
      <trkpt lat="43.56447" lon="6.21749">
        <ele>279.5</ele>
        <time>2024-01-21T08:48:52.000Z</time>
      </trkpt>
      <trkpt lat="43.56449" lon="6.21743">
        <ele>279.8</ele>
        <time>2024-01-21T08:48:57.000Z</time>
      </trkpt>
      <trkpt lat="43.5645" lon="6.21738">
        <ele>280.1</ele>
        <time>2024-01-21T08:49:02.000Z</time>
      </trkpt>
      <trkpt lat="43.56453" lon="6.21734">
        <ele>280.4</ele>
        <time>2024-01-21T08:49:06.000Z</time>
      </trkpt>
      <trkpt lat="43.56455" lon="6.2173">
        <ele>280.7</ele>
        <time>2024-01-21T08:49:09.000Z</time>
      </trkpt>
      <trkpt lat="43.56458" lon="6.21725">
        <ele>281</ele>
        <time>2024-01-21T08:49:13.000Z</time>
      </trkpt>
      <trkpt lat="43.56459" lon="6.21724">
        <ele>281.1</ele>
        <time>2024-01-21T08:49:14.000Z</time>
      </trkpt>
      <trkpt lat="43.56461" lon="6.21715">
        <ele>281.4</ele>
        <time>2024-01-21T08:49:20.000Z</time>
      </trkpt>
      <trkpt lat="43.56463" lon="6.21711">
        <ele>281.6</ele>
        <time>2024-01-21T08:49:23.000Z</time>
      </trkpt>
      <trkpt lat="43.56465" lon="6.21707">
        <ele>281.9</ele>
        <time>2024-01-21T08:49:26.000Z</time>
      </trkpt>
      <trkpt lat="43.56468" lon="6.21704">
        <ele>282.1</ele>
        <time>2024-01-21T08:49:28.000Z</time>
      </trkpt>
      <trkpt lat="43.56471" lon="6.217">
        <ele>282.3</ele>
        <time>2024-01-21T08:49:31.000Z</time>
      </trkpt>
      <trkpt lat="43.56474" lon="6.21697">
        <ele>282.5</ele>
        <time>2024-01-21T08:49:34.000Z</time>
      </trkpt>
      <trkpt lat="43.56477" lon="6.21693">
        <ele>282.7</ele>
        <time>2024-01-21T08:49:37.000Z</time>
      </trkpt>
      <trkpt lat="43.5648" lon="6.21688">
        <ele>283.1</ele>
        <time>2024-01-21T08:49:41.000Z</time>
      </trkpt>
      <trkpt lat="43.56483" lon="6.21683">
        <ele>283.5</ele>
        <time>2024-01-21T08:49:45.000Z</time>
      </trkpt>
      <trkpt lat="43.56486" lon="6.21679">
        <ele>283.8</ele>
        <time>2024-01-21T08:49:49.000Z</time>
      </trkpt>
      <trkpt lat="43.56488" lon="6.21676">
        <ele>284</ele>
        <time>2024-01-21T08:49:51.000Z</time>
      </trkpt>
      <trkpt lat="43.56491" lon="6.21673">
        <ele>284.1</ele>
        <time>2024-01-21T08:49:53.000Z</time>
      </trkpt>
      <trkpt lat="43.56494" lon="6.21668">
        <ele>284.3</ele>
        <time>2024-01-21T08:49:56.000Z</time>
      </trkpt>
      <trkpt lat="43.56495" lon="6.21663">
        <ele>284.4</ele>
        <time>2024-01-21T08:49:59.000Z</time>
      </trkpt>
      <trkpt lat="43.56495" lon="6.21658">
        <ele>284.5</ele>
        <time>2024-01-21T08:50:02.000Z</time>
      </trkpt>
      <trkpt lat="43.56496" lon="6.21652">
        <ele>284.6</ele>
        <time>2024-01-21T08:50:06.000Z</time>
      </trkpt>
      <trkpt lat="43.56499" lon="6.21648">
        <ele>284.7</ele>
        <time>2024-01-21T08:50:09.000Z</time>
      </trkpt>
      <trkpt lat="43.56501" lon="6.21643">
        <ele>284.8</ele>
        <time>2024-01-21T08:50:12.000Z</time>
      </trkpt>
      <trkpt lat="43.56502" lon="6.21638">
        <ele>284.8</ele>
        <time>2024-01-21T08:50:15.000Z</time>
      </trkpt>
      <trkpt lat="43.56503" lon="6.21636">
        <ele>284.8</ele>
        <time>2024-01-21T08:50:16.000Z</time>
      </trkpt>
      <trkpt lat="43.56505" lon="6.21628">
        <ele>284.9</ele>
        <time>2024-01-21T08:50:20.000Z</time>
      </trkpt>
      <trkpt lat="43.56507" lon="6.21623">
        <ele>284.9</ele>
        <time>2024-01-21T08:50:23.000Z</time>
      </trkpt>
      <trkpt lat="43.56509" lon="6.21619">
        <ele>285</ele>
        <time>2024-01-21T08:50:26.000Z</time>
      </trkpt>
      <trkpt lat="43.56511" lon="6.21613">
        <ele>285.1</ele>
        <time>2024-01-21T08:50:30.000Z</time>
      </trkpt>
      <trkpt lat="43.56513" lon="6.21609">
        <ele>285.2</ele>
        <time>2024-01-21T08:50:33.000Z</time>
      </trkpt>
      <trkpt lat="43.56516" lon="6.21606">
        <ele>285.3</ele>
        <time>2024-01-21T08:50:35.000Z</time>
      </trkpt>
      <trkpt lat="43.56518" lon="6.21602">
        <ele>285.4</ele>
        <time>2024-01-21T08:50:38.000Z</time>
      </trkpt>
      <trkpt lat="43.56519" lon="6.21596">
        <ele>285.6</ele>
        <time>2024-01-21T08:50:42.000Z</time>
      </trkpt>
      <trkpt lat="43.56521" lon="6.21591">
        <ele>285.8</ele>
        <time>2024-01-21T08:50:46.000Z</time>
      </trkpt>
      <trkpt lat="43.56523" lon="6.21586">
        <ele>286</ele>
        <time>2024-01-21T08:50:50.000Z</time>
      </trkpt>
      <trkpt lat="43.56525" lon="6.21582">
        <ele>286.2</ele>
        <time>2024-01-21T08:50:53.000Z</time>
      </trkpt>
      <trkpt lat="43.56528" lon="6.21577">
        <ele>286.3</ele>
        <time>2024-01-21T08:50:56.000Z</time>
      </trkpt>
      <trkpt lat="43.5653" lon="6.21573">
        <ele>286.4</ele>
        <time>2024-01-21T08:50:59.000Z</time>
      </trkpt>
      <trkpt lat="43.56533" lon="6.21569">
        <ele>286.5</ele>
        <time>2024-01-21T08:51:02.000Z</time>
      </trkpt>
      <trkpt lat="43.56535" lon="6.21564">
        <ele>286.7</ele>
        <time>2024-01-21T08:51:05.000Z</time>
      </trkpt>
      <trkpt lat="43.56537" lon="6.2156">
        <ele>286.9</ele>
        <time>2024-01-21T08:51:08.000Z</time>
      </trkpt>
      <trkpt lat="43.56539" lon="6.21556">
        <ele>287.1</ele>
        <time>2024-01-21T08:51:11.000Z</time>
      </trkpt>
      <trkpt lat="43.56541" lon="6.21551">
        <ele>287.3</ele>
        <time>2024-01-21T08:51:14.000Z</time>
      </trkpt>
      <trkpt lat="43.56543" lon="6.21547">
        <ele>287.4</ele>
        <time>2024-01-21T08:51:17.000Z</time>
      </trkpt>
      <trkpt lat="43.56544" lon="6.21545">
        <ele>287.5</ele>
        <time>2024-01-21T08:51:18.000Z</time>
      </trkpt>
      <trkpt lat="43.56547" lon="6.21539">
        <ele>287.8</ele>
        <time>2024-01-21T08:51:23.000Z</time>
      </trkpt>
      <trkpt lat="43.56549" lon="6.21535">
        <ele>288.1</ele>
        <time>2024-01-21T08:51:26.000Z</time>
      </trkpt>
      <trkpt lat="43.56552" lon="6.2153">
        <ele>288.4</ele>
        <time>2024-01-21T08:51:30.000Z</time>
      </trkpt>
      <trkpt lat="43.56553" lon="6.21525">
        <ele>288.6</ele>
        <time>2024-01-21T08:51:33.000Z</time>
      </trkpt>
      <trkpt lat="43.56555" lon="6.2152">
        <ele>289</ele>
        <time>2024-01-21T08:51:37.000Z</time>
      </trkpt>
      <trkpt lat="43.56556" lon="6.21514">
        <ele>289.4</ele>
        <time>2024-01-21T08:51:41.000Z</time>
      </trkpt>
      <trkpt lat="43.56559" lon="6.2151">
        <ele>289.9</ele>
        <time>2024-01-21T08:51:45.000Z</time>
      </trkpt>
      <trkpt lat="43.56561" lon="6.21505">
        <ele>290.4</ele>
        <time>2024-01-21T08:51:49.000Z</time>
      </trkpt>
      <trkpt lat="43.56563" lon="6.215">
        <ele>290.8</ele>
        <time>2024-01-21T08:51:53.000Z</time>
      </trkpt>
      <trkpt lat="43.56564" lon="6.21494">
        <ele>291.4</ele>
        <time>2024-01-21T08:51:58.000Z</time>
      </trkpt>
      <trkpt lat="43.56565" lon="6.21489">
        <ele>292.5</ele>
        <time>2024-01-21T08:52:14.000Z</time>
      </trkpt>
      <trkpt lat="43.56567" lon="6.21483">
        <ele>293.2</ele>
        <time>2024-01-21T08:52:23.000Z</time>
      </trkpt>
      <trkpt lat="43.56567" lon="6.21483">
        <ele>293.3</ele>
        <time>2024-01-21T08:52:24.000Z</time>
      </trkpt>
      <trkpt lat="43.56572" lon="6.21476">
        <ele>293.7</ele>
        <time>2024-01-21T08:52:33.000Z</time>
      </trkpt>
      <trkpt lat="43.56575" lon="6.21472">
        <ele>294.2</ele>
        <time>2024-01-21T08:52:39.000Z</time>
      </trkpt>
      <trkpt lat="43.56572" lon="6.21467">
        <ele>295.1</ele>
        <time>2024-01-21T08:52:48.000Z</time>
      </trkpt>
      <trkpt lat="43.56568" lon="6.21465">
        <ele>296.3</ele>
        <time>2024-01-21T08:53:08.000Z</time>
      </trkpt>
      <trkpt lat="43.56565" lon="6.21462">
        <ele>296.8</ele>
        <time>2024-01-21T08:53:22.000Z</time>
      </trkpt>
      <trkpt lat="43.56568" lon="6.21458">
        <ele>297.4</ele>
        <time>2024-01-21T08:53:51.000Z</time>
      </trkpt>
      <trkpt lat="43.56567" lon="6.21456">
        <ele>297.4</ele>
        <time>2024-01-21T08:53:52.000Z</time>
      </trkpt>
      <trkpt lat="43.56571" lon="6.21447">
        <ele>297.8</ele>
        <time>2024-01-21T08:54:03.000Z</time>
      </trkpt>
      <trkpt lat="43.56572" lon="6.21441">
        <ele>298.4</ele>
        <time>2024-01-21T08:54:11.000Z</time>
      </trkpt>
      <trkpt lat="43.56572" lon="6.21435">
        <ele>299</ele>
        <time>2024-01-21T08:54:16.000Z</time>
      </trkpt>
      <trkpt lat="43.56573" lon="6.2143">
        <ele>299.4</ele>
        <time>2024-01-21T08:54:21.000Z</time>
      </trkpt>
      <trkpt lat="43.56575" lon="6.21426">
        <ele>300</ele>
        <time>2024-01-21T08:54:26.000Z</time>
      </trkpt>
      <trkpt lat="43.56575" lon="6.2142">
        <ele>301.1</ele>
        <time>2024-01-21T08:54:41.000Z</time>
      </trkpt>
      <trkpt lat="43.56574" lon="6.21414">
        <ele>301.8</ele>
        <time>2024-01-21T08:54:56.000Z</time>
      </trkpt>
      <trkpt lat="43.56575" lon="6.21413">
        <ele>301.8</ele>
        <time>2024-01-21T08:54:57.000Z</time>
      </trkpt>
      <trkpt lat="43.5658" lon="6.21407">
        <ele>302</ele>
        <time>2024-01-21T08:55:03.000Z</time>
      </trkpt>
      <trkpt lat="43.56583" lon="6.21403">
        <ele>302</ele>
        <time>2024-01-21T08:55:07.000Z</time>
      </trkpt>
      <trkpt lat="43.56585" lon="6.21399">
        <ele>302.1</ele>
        <time>2024-01-21T08:55:10.000Z</time>
      </trkpt>
      <trkpt lat="43.56588" lon="6.21395">
        <ele>302.2</ele>
        <time>2024-01-21T08:55:13.000Z</time>
      </trkpt>
      <trkpt lat="43.5659" lon="6.21392">
        <ele>302.3</ele>
        <time>2024-01-21T08:55:16.000Z</time>
      </trkpt>
      <trkpt lat="43.56592" lon="6.21388">
        <ele>302.5</ele>
        <time>2024-01-21T08:55:19.000Z</time>
      </trkpt>
      <trkpt lat="43.56595" lon="6.21384">
        <ele>302.6</ele>
        <time>2024-01-21T08:55:22.000Z</time>
      </trkpt>
      <trkpt lat="43.56596" lon="6.21379">
        <ele>302.8</ele>
        <time>2024-01-21T08:55:25.000Z</time>
      </trkpt>
      <trkpt lat="43.56598" lon="6.21375">
        <ele>302.9</ele>
        <time>2024-01-21T08:55:28.000Z</time>
      </trkpt>
      <trkpt lat="43.56599" lon="6.21369">
        <ele>303.1</ele>
        <time>2024-01-21T08:55:31.000Z</time>
      </trkpt>
      <trkpt lat="43.56601" lon="6.21364">
        <ele>303.3</ele>
        <time>2024-01-21T08:55:35.000Z</time>
      </trkpt>
      <trkpt lat="43.56602" lon="6.21359">
        <ele>303.6</ele>
        <time>2024-01-21T08:55:40.000Z</time>
      </trkpt>
      <trkpt lat="43.56605" lon="6.21354">
        <ele>304</ele>
        <time>2024-01-21T08:55:44.000Z</time>
      </trkpt>
      <trkpt lat="43.56607" lon="6.21349">
        <ele>304.5</ele>
        <time>2024-01-21T08:55:49.000Z</time>
      </trkpt>
      <trkpt lat="43.56608" lon="6.21345">
        <ele>304.9</ele>
        <time>2024-01-21T08:55:52.000Z</time>
      </trkpt>
      <trkpt lat="43.56609" lon="6.2134">
        <ele>305.4</ele>
        <time>2024-01-21T08:55:56.000Z</time>
      </trkpt>
      <trkpt lat="43.5661" lon="6.21335">
        <ele>305.8</ele>
        <time>2024-01-21T08:56:00.000Z</time>
      </trkpt>
      <trkpt lat="43.56611" lon="6.21334">
        <ele>305.9</ele>
        <time>2024-01-21T08:56:01.000Z</time>
      </trkpt>
      <trkpt lat="43.56615" lon="6.21326">
        <ele>306.4</ele>
        <time>2024-01-21T08:56:06.000Z</time>
      </trkpt>
      <trkpt lat="43.56616" lon="6.21321">
        <ele>306.7</ele>
        <time>2024-01-21T08:56:09.000Z</time>
      </trkpt>
      <trkpt lat="43.56614" lon="6.21315">
        <ele>307</ele>
        <time>2024-01-21T08:56:12.000Z</time>
      </trkpt>
      <trkpt lat="43.56615" lon="6.2131">
        <ele>307.2</ele>
        <time>2024-01-21T08:56:15.000Z</time>
      </trkpt>
      <trkpt lat="43.56614" lon="6.21305">
        <ele>307.6</ele>
        <time>2024-01-21T08:56:20.000Z</time>
      </trkpt>
      <trkpt lat="43.56615" lon="6.213">
        <ele>307.9</ele>
        <time>2024-01-21T08:56:23.000Z</time>
      </trkpt>
      <trkpt lat="43.56615" lon="6.21296">
        <ele>308.2</ele>
        <time>2024-01-21T08:56:26.000Z</time>
      </trkpt>
      <trkpt lat="43.56615" lon="6.2129">
        <ele>308.4</ele>
        <time>2024-01-21T08:56:29.000Z</time>
      </trkpt>
      <trkpt lat="43.56614" lon="6.21286">
        <ele>308.6</ele>
        <time>2024-01-21T08:56:32.000Z</time>
      </trkpt>
      <trkpt lat="43.56614" lon="6.21281">
        <ele>308.8</ele>
        <time>2024-01-21T08:56:36.000Z</time>
      </trkpt>
      <trkpt lat="43.56615" lon="6.21276">
        <ele>309</ele>
        <time>2024-01-21T08:56:39.000Z</time>
      </trkpt>
      <trkpt lat="43.56615" lon="6.2127">
        <ele>309.1</ele>
        <time>2024-01-21T08:56:43.000Z</time>
      </trkpt>
      <trkpt lat="43.56616" lon="6.21265">
        <ele>309.3</ele>
        <time>2024-01-21T08:56:47.000Z</time>
      </trkpt>
      <trkpt lat="43.56616" lon="6.2126">
        <ele>309.4</ele>
        <time>2024-01-21T08:56:50.000Z</time>
      </trkpt>
      <trkpt lat="43.56617" lon="6.21255">
        <ele>309.5</ele>
        <time>2024-01-21T08:56:53.000Z</time>
      </trkpt>
      <trkpt lat="43.56615" lon="6.21249">
        <ele>309.6</ele>
        <time>2024-01-21T08:56:56.000Z</time>
      </trkpt>
      <trkpt lat="43.56614" lon="6.21244">
        <ele>309.7</ele>
        <time>2024-01-21T08:57:00.000Z</time>
      </trkpt>
      <trkpt lat="43.56614" lon="6.21239">
        <ele>309.8</ele>
        <time>2024-01-21T08:57:03.000Z</time>
      </trkpt>
      <trkpt lat="43.56615" lon="6.21238">
        <ele>309.8</ele>
        <time>2024-01-21T08:57:04.000Z</time>
      </trkpt>
      <trkpt lat="43.56614" lon="6.21229">
        <ele>309.9</ele>
        <time>2024-01-21T08:57:11.000Z</time>
      </trkpt>
      <trkpt lat="43.56614" lon="6.21224">
        <ele>310</ele>
        <time>2024-01-21T08:57:14.000Z</time>
      </trkpt>
      <trkpt lat="43.56614" lon="6.2122">
        <ele>310</ele>
        <time>2024-01-21T08:57:16.000Z</time>
      </trkpt>
      <trkpt lat="43.56614" lon="6.21215">
        <ele>310.1</ele>
        <time>2024-01-21T08:57:18.000Z</time>
      </trkpt>
      <trkpt lat="43.56613" lon="6.2121">
        <ele>310.2</ele>
        <time>2024-01-21T08:57:21.000Z</time>
      </trkpt>
      <trkpt lat="43.56613" lon="6.21205">
        <ele>310.3</ele>
        <time>2024-01-21T08:57:24.000Z</time>
      </trkpt>
      <trkpt lat="43.56614" lon="6.21199">
        <ele>310.4</ele>
        <time>2024-01-21T08:57:27.000Z</time>
      </trkpt>
      <trkpt lat="43.56615" lon="6.21194">
        <ele>310.5</ele>
        <time>2024-01-21T08:57:30.000Z</time>
      </trkpt>
      <trkpt lat="43.56617" lon="6.21191">
        <ele>310.6</ele>
        <time>2024-01-21T08:57:32.000Z</time>
      </trkpt>
      <trkpt lat="43.56618" lon="6.21185">
        <ele>310.8</ele>
        <time>2024-01-21T08:57:35.000Z</time>
      </trkpt>
      <trkpt lat="43.56618" lon="6.21179">
        <ele>311.1</ele>
        <time>2024-01-21T08:57:39.000Z</time>
      </trkpt>
      <trkpt lat="43.56617" lon="6.21174">
        <ele>311.4</ele>
        <time>2024-01-21T08:57:42.000Z</time>
      </trkpt>
      <trkpt lat="43.56617" lon="6.21168">
        <ele>312</ele>
        <time>2024-01-21T08:57:47.000Z</time>
      </trkpt>
      <trkpt lat="43.56616" lon="6.21162">
        <ele>312.5</ele>
        <time>2024-01-21T08:57:52.000Z</time>
      </trkpt>
      <trkpt lat="43.56616" lon="6.21156">
        <ele>313</ele>
        <time>2024-01-21T08:57:57.000Z</time>
      </trkpt>
      <trkpt lat="43.56616" lon="6.21151">
        <ele>313.4</ele>
        <time>2024-01-21T08:58:01.000Z</time>
      </trkpt>
      <trkpt lat="43.56616" lon="6.21146">
        <ele>313.7</ele>
        <time>2024-01-21T08:58:05.000Z</time>
      </trkpt>
      <trkpt lat="43.56616" lon="6.21144">
        <ele>313.7</ele>
        <time>2024-01-21T08:58:06.000Z</time>
      </trkpt>
      <trkpt lat="43.56615" lon="6.21135">
        <ele>314.6</ele>
        <time>2024-01-21T08:58:15.000Z</time>
      </trkpt>
      <trkpt lat="43.56614" lon="6.21129">
        <ele>315</ele>
        <time>2024-01-21T08:58:20.000Z</time>
      </trkpt>
      <trkpt lat="43.56614" lon="6.21123">
        <ele>315.6</ele>
        <time>2024-01-21T08:58:25.000Z</time>
      </trkpt>
      <trkpt lat="43.56613" lon="6.21118">
        <ele>316.1</ele>
        <time>2024-01-21T08:58:30.000Z</time>
      </trkpt>
      <trkpt lat="43.56611" lon="6.21113">
        <ele>316.4</ele>
        <time>2024-01-21T08:58:33.000Z</time>
      </trkpt>
      <trkpt lat="43.5661" lon="6.21108">
        <ele>316.8</ele>
        <time>2024-01-21T08:58:37.000Z</time>
      </trkpt>
      <trkpt lat="43.56609" lon="6.21102">
        <ele>317.1</ele>
        <time>2024-01-21T08:58:41.000Z</time>
      </trkpt>
      <trkpt lat="43.56608" lon="6.21098">
        <ele>317.6</ele>
        <time>2024-01-21T08:58:45.000Z</time>
      </trkpt>
      <trkpt lat="43.56609" lon="6.21092">
        <ele>318.1</ele>
        <time>2024-01-21T08:58:50.000Z</time>
      </trkpt>
      <trkpt lat="43.56606" lon="6.21087">
        <ele>318.6</ele>
        <time>2024-01-21T08:58:54.000Z</time>
      </trkpt>
      <trkpt lat="43.56608" lon="6.21082">
        <ele>319</ele>
        <time>2024-01-21T08:58:58.000Z</time>
      </trkpt>
      <trkpt lat="43.5661" lon="6.21078">
        <ele>319.4</ele>
        <time>2024-01-21T08:59:02.000Z</time>
      </trkpt>
      <trkpt lat="43.56608" lon="6.21072">
        <ele>319.7</ele>
        <time>2024-01-21T08:59:05.000Z</time>
      </trkpt>
      <trkpt lat="43.56607" lon="6.21067">
        <ele>320.1</ele>
        <time>2024-01-21T08:59:10.000Z</time>
      </trkpt>
      <trkpt lat="43.56608" lon="6.21066">
        <ele>320.2</ele>
        <time>2024-01-21T08:59:11.000Z</time>
      </trkpt>
      <trkpt lat="43.5661" lon="6.21055">
        <ele>321.3</ele>
        <time>2024-01-21T08:59:20.000Z</time>
      </trkpt>
      <trkpt lat="43.56612" lon="6.21051">
        <ele>321.7</ele>
        <time>2024-01-21T08:59:24.000Z</time>
      </trkpt>
      <trkpt lat="43.5661" lon="6.21045">
        <ele>322.5</ele>
        <time>2024-01-21T08:59:29.000Z</time>
      </trkpt>
      <trkpt lat="43.56613" lon="6.2104">
        <ele>323</ele>
        <time>2024-01-21T08:59:33.000Z</time>
      </trkpt>
      <trkpt lat="43.56614" lon="6.21035">
        <ele>323.4</ele>
        <time>2024-01-21T08:59:36.000Z</time>
      </trkpt>
      <trkpt lat="43.56614" lon="6.2103">
        <ele>323.7</ele>
        <time>2024-01-21T08:59:39.000Z</time>
      </trkpt>
      <trkpt lat="43.56612" lon="6.21025">
        <ele>324</ele>
        <time>2024-01-21T08:59:42.000Z</time>
      </trkpt>
      <trkpt lat="43.56613" lon="6.21021">
        <ele>324.2</ele>
        <time>2024-01-21T08:59:45.000Z</time>
      </trkpt>
      <trkpt lat="43.56613" lon="6.21015">
        <ele>324.6</ele>
        <time>2024-01-21T08:59:48.000Z</time>
      </trkpt>
      <trkpt lat="43.56613" lon="6.21009">
        <ele>325.1</ele>
        <time>2024-01-21T08:59:53.000Z</time>
      </trkpt>
      <trkpt lat="43.56613" lon="6.21004">
        <ele>325.5</ele>
        <time>2024-01-21T08:59:57.000Z</time>
      </trkpt>
      <trkpt lat="43.56614" lon="6.20999">
        <ele>325.8</ele>
        <time>2024-01-21T09:00:01.000Z</time>
      </trkpt>
      <trkpt lat="43.56615" lon="6.20993">
        <ele>326.2</ele>
        <time>2024-01-21T09:00:05.000Z</time>
      </trkpt>
      <trkpt lat="43.56616" lon="6.20988">
        <ele>326.6</ele>
        <time>2024-01-21T09:00:10.000Z</time>
      </trkpt>
      <trkpt lat="43.56614" lon="6.20983">
        <ele>326.9</ele>
        <time>2024-01-21T09:00:13.000Z</time>
      </trkpt>
      <trkpt lat="43.56614" lon="6.20981">
        <ele>326.9</ele>
        <time>2024-01-21T09:00:14.000Z</time>
      </trkpt>
      <trkpt lat="43.56613" lon="6.20973">
        <ele>327.3</ele>
        <time>2024-01-21T09:00:20.000Z</time>
      </trkpt>
      <trkpt lat="43.56614" lon="6.20967">
        <ele>327.4</ele>
        <time>2024-01-21T09:00:24.000Z</time>
      </trkpt>
      <trkpt lat="43.56612" lon="6.20962">
        <ele>327.6</ele>
        <time>2024-01-21T09:00:38.000Z</time>
      </trkpt>
      <trkpt lat="43.56614" lon="6.20958">
        <ele>327.6</ele>
        <time>2024-01-21T09:00:41.000Z</time>
      </trkpt>
      <trkpt lat="43.56616" lon="6.20954">
        <ele>327.4</ele>
        <time>2024-01-21T09:00:44.000Z</time>
      </trkpt>
      <trkpt lat="43.56617" lon="6.20949">
        <ele>327.2</ele>
        <time>2024-01-21T09:00:48.000Z</time>
      </trkpt>
      <trkpt lat="43.56617" lon="6.20943">
        <ele>326.9</ele>
        <time>2024-01-21T09:00:53.000Z</time>
      </trkpt>
      <trkpt lat="43.56618" lon="6.20937">
        <ele>326.6</ele>
        <time>2024-01-21T09:00:57.000Z</time>
      </trkpt>
      <trkpt lat="43.5662" lon="6.20933">
        <ele>326.4</ele>
        <time>2024-01-21T09:00:59.000Z</time>
      </trkpt>
      <trkpt lat="43.5662" lon="6.20927">
        <ele>326</ele>
        <time>2024-01-21T09:01:02.000Z</time>
      </trkpt>
      <trkpt lat="43.5662" lon="6.20921">
        <ele>325.6</ele>
        <time>2024-01-21T09:01:06.000Z</time>
      </trkpt>
      <trkpt lat="43.5662" lon="6.20916">
        <ele>325.3</ele>
        <time>2024-01-21T09:01:10.000Z</time>
      </trkpt>
      <trkpt lat="43.56619" lon="6.20911">
        <ele>325.2</ele>
        <time>2024-01-21T09:01:13.000Z</time>
      </trkpt>
      <trkpt lat="43.56619" lon="6.20906">
        <ele>325</ele>
        <time>2024-01-21T09:01:17.000Z</time>
      </trkpt>
      <trkpt lat="43.56619" lon="6.20905">
        <ele>324.9</ele>
        <time>2024-01-21T09:01:18.000Z</time>
      </trkpt>
      <trkpt lat="43.56615" lon="6.20895">
        <ele>324.7</ele>
        <time>2024-01-21T09:01:24.000Z</time>
      </trkpt>
      <trkpt lat="43.56615" lon="6.2089">
        <ele>324.6</ele>
        <time>2024-01-21T09:01:28.000Z</time>
      </trkpt>
      <trkpt lat="43.56616" lon="6.20884">
        <ele>324.6</ele>
        <time>2024-01-21T09:01:33.000Z</time>
      </trkpt>
      <trkpt lat="43.56616" lon="6.20877">
        <ele>324.6</ele>
        <time>2024-01-21T09:01:38.000Z</time>
      </trkpt>
      <trkpt lat="43.56617" lon="6.20872">
        <ele>324.6</ele>
        <time>2024-01-21T09:01:42.000Z</time>
      </trkpt>
      <trkpt lat="43.56618" lon="6.20867">
        <ele>324.8</ele>
        <time>2024-01-21T09:01:45.000Z</time>
      </trkpt>
      <trkpt lat="43.5662" lon="6.20862">
        <ele>325.1</ele>
        <time>2024-01-21T09:01:49.000Z</time>
      </trkpt>
      <trkpt lat="43.56621" lon="6.20857">
        <ele>325.4</ele>
        <time>2024-01-21T09:01:53.000Z</time>
      </trkpt>
      <trkpt lat="43.56623" lon="6.20852">
        <ele>325.7</ele>
        <time>2024-01-21T09:01:56.000Z</time>
      </trkpt>
      <trkpt lat="43.56625" lon="6.20847">
        <ele>326.1</ele>
        <time>2024-01-21T09:02:00.000Z</time>
      </trkpt>
      <trkpt lat="43.56625" lon="6.20841">
        <ele>326.4</ele>
        <time>2024-01-21T09:02:05.000Z</time>
      </trkpt>
      <trkpt lat="43.56626" lon="6.20837">
        <ele>326.7</ele>
        <time>2024-01-21T09:02:08.000Z</time>
      </trkpt>
      <trkpt lat="43.56626" lon="6.20831">
        <ele>326.9</ele>
        <time>2024-01-21T09:02:12.000Z</time>
      </trkpt>
      <trkpt lat="43.56625" lon="6.20825">
        <ele>327.1</ele>
        <time>2024-01-21T09:02:16.000Z</time>
      </trkpt>
      <trkpt lat="43.56625" lon="6.2082">
        <ele>327.1</ele>
        <time>2024-01-21T09:02:20.000Z</time>
      </trkpt>
      <trkpt lat="43.56625" lon="6.20818">
        <ele>327.1</ele>
        <time>2024-01-21T09:02:21.000Z</time>
      </trkpt>
      <trkpt lat="43.56625" lon="6.20808">
        <ele>327.1</ele>
        <time>2024-01-21T09:02:28.000Z</time>
      </trkpt>
      <trkpt lat="43.56624" lon="6.20803">
        <ele>327</ele>
        <time>2024-01-21T09:02:32.000Z</time>
      </trkpt>
      <trkpt lat="43.56624" lon="6.20797">
        <ele>326.8</ele>
        <time>2024-01-21T09:02:36.000Z</time>
      </trkpt>
      <trkpt lat="43.56621" lon="6.20792">
        <ele>326.5</ele>
        <time>2024-01-21T09:02:40.000Z</time>
      </trkpt>
      <trkpt lat="43.56619" lon="6.20788">
        <ele>326.3</ele>
        <time>2024-01-21T09:02:43.000Z</time>
      </trkpt>
      <trkpt lat="43.56616" lon="6.20783">
        <ele>326</ele>
        <time>2024-01-21T09:02:46.000Z</time>
      </trkpt>
      <trkpt lat="43.56614" lon="6.2078">
        <ele>325.9</ele>
        <time>2024-01-21T09:02:48.000Z</time>
      </trkpt>
      <trkpt lat="43.56611" lon="6.20776">
        <ele>325.6</ele>
        <time>2024-01-21T09:02:51.000Z</time>
      </trkpt>
      <trkpt lat="43.56609" lon="6.20772">
        <ele>325.4</ele>
        <time>2024-01-21T09:02:54.000Z</time>
      </trkpt>
      <trkpt lat="43.56607" lon="6.20767">
        <ele>325.2</ele>
        <time>2024-01-21T09:02:58.000Z</time>
      </trkpt>
      <trkpt lat="43.56606" lon="6.20761">
        <ele>324.9</ele>
        <time>2024-01-21T09:03:02.000Z</time>
      </trkpt>
      <trkpt lat="43.56604" lon="6.20757">
        <ele>324.6</ele>
        <time>2024-01-21T09:03:05.000Z</time>
      </trkpt>
      <trkpt lat="43.56602" lon="6.20752">
        <ele>324.4</ele>
        <time>2024-01-21T09:03:08.000Z</time>
      </trkpt>
      <trkpt lat="43.56601" lon="6.20747">
        <ele>324.2</ele>
        <time>2024-01-21T09:03:12.000Z</time>
      </trkpt>
      <trkpt lat="43.56599" lon="6.20743">
        <ele>324.1</ele>
        <time>2024-01-21T09:03:15.000Z</time>
      </trkpt>
      <trkpt lat="43.56596" lon="6.20739">
        <ele>324</ele>
        <time>2024-01-21T09:03:18.000Z</time>
      </trkpt>
      <trkpt lat="43.56593" lon="6.20735">
        <ele>323.9</ele>
        <time>2024-01-21T09:03:22.000Z</time>
      </trkpt>
      <trkpt lat="43.56592" lon="6.20734">
        <ele>323.9</ele>
        <time>2024-01-21T09:03:23.000Z</time>
      </trkpt>
      <trkpt lat="43.56589" lon="6.20726">
        <ele>323.7</ele>
        <time>2024-01-21T09:03:31.000Z</time>
      </trkpt>
      <trkpt lat="43.56586" lon="6.20722">
        <ele>323.6</ele>
        <time>2024-01-21T09:03:34.000Z</time>
      </trkpt>
      <trkpt lat="43.56585" lon="6.20716">
        <ele>323.4</ele>
        <time>2024-01-21T09:03:39.000Z</time>
      </trkpt>
      <trkpt lat="43.56584" lon="6.20711">
        <ele>323.3</ele>
        <time>2024-01-21T09:03:43.000Z</time>
      </trkpt>
      <trkpt lat="43.56581" lon="6.20707">
        <ele>323.2</ele>
        <time>2024-01-21T09:03:46.000Z</time>
      </trkpt>
      <trkpt lat="43.5658" lon="6.20703">
        <ele>323</ele>
        <time>2024-01-21T09:03:50.000Z</time>
      </trkpt>
      <trkpt lat="43.56577" lon="6.20699">
        <ele>322.8</ele>
        <time>2024-01-21T09:03:53.000Z</time>
      </trkpt>
      <trkpt lat="43.56574" lon="6.20696">
        <ele>322.7</ele>
        <time>2024-01-21T09:03:55.000Z</time>
      </trkpt>
      <trkpt lat="43.56571" lon="6.20694">
        <ele>322.6</ele>
        <time>2024-01-21T09:03:57.000Z</time>
      </trkpt>
      <trkpt lat="43.56569" lon="6.2069">
        <ele>322.5</ele>
        <time>2024-01-21T09:04:00.000Z</time>
      </trkpt>
      <trkpt lat="43.56565" lon="6.20687">
        <ele>322.4</ele>
        <time>2024-01-21T09:04:03.000Z</time>
      </trkpt>
      <trkpt lat="43.56563" lon="6.20684">
        <ele>322.3</ele>
        <time>2024-01-21T09:04:06.000Z</time>
      </trkpt>
      <trkpt lat="43.5656" lon="6.2068">
        <ele>322.3</ele>
        <time>2024-01-21T09:04:09.000Z</time>
      </trkpt>
      <trkpt lat="43.56557" lon="6.20676">
        <ele>322.2</ele>
        <time>2024-01-21T09:04:12.000Z</time>
      </trkpt>
      <trkpt lat="43.56555" lon="6.20671">
        <ele>322</ele>
        <time>2024-01-21T09:04:16.000Z</time>
      </trkpt>
      <trkpt lat="43.56553" lon="6.20667">
        <ele>321.9</ele>
        <time>2024-01-21T09:04:19.000Z</time>
      </trkpt>
      <trkpt lat="43.56551" lon="6.20663">
        <ele>321.8</ele>
        <time>2024-01-21T09:04:22.000Z</time>
      </trkpt>
      <trkpt lat="43.56549" lon="6.20658">
        <ele>321.8</ele>
        <time>2024-01-21T09:04:25.000Z</time>
      </trkpt>
      <trkpt lat="43.56548" lon="6.20657">
        <ele>321.7</ele>
        <time>2024-01-21T09:04:26.000Z</time>
      </trkpt>
      <trkpt lat="43.56544" lon="6.2065">
        <ele>321.7</ele>
        <time>2024-01-21T09:04:31.000Z</time>
      </trkpt>
      <trkpt lat="43.56542" lon="6.20646">
        <ele>321.6</ele>
        <time>2024-01-21T09:04:34.000Z</time>
      </trkpt>
      <trkpt lat="43.56541" lon="6.20642">
        <ele>321.6</ele>
        <time>2024-01-21T09:04:37.000Z</time>
      </trkpt>
      <trkpt lat="43.5654" lon="6.20637">
        <ele>321.5</ele>
        <time>2024-01-21T09:04:41.000Z</time>
      </trkpt>
      <trkpt lat="43.5654" lon="6.20631">
        <ele>321.5</ele>
        <time>2024-01-21T09:04:46.000Z</time>
      </trkpt>
      <trkpt lat="43.56539" lon="6.20626">
        <ele>321.5</ele>
        <time>2024-01-21T09:04:50.000Z</time>
      </trkpt>
      <trkpt lat="43.56538" lon="6.2062">
        <ele>321.5</ele>
        <time>2024-01-21T09:04:54.000Z</time>
      </trkpt>
      <trkpt lat="43.56535" lon="6.20617">
        <ele>321.5</ele>
        <time>2024-01-21T09:04:57.000Z</time>
      </trkpt>
      <trkpt lat="43.56534" lon="6.20613">
        <ele>321.6</ele>
        <time>2024-01-21T09:05:00.000Z</time>
      </trkpt>
      <trkpt lat="43.56531" lon="6.20608">
        <ele>321.7</ele>
        <time>2024-01-21T09:05:04.000Z</time>
      </trkpt>
      <trkpt lat="43.56528" lon="6.20604">
        <ele>321.8</ele>
        <time>2024-01-21T09:05:07.000Z</time>
      </trkpt>
      <trkpt lat="43.56524" lon="6.20601">
        <ele>321.8</ele>
        <time>2024-01-21T09:05:10.000Z</time>
      </trkpt>
      <trkpt lat="43.56523" lon="6.20596">
        <ele>322</ele>
        <time>2024-01-21T09:05:14.000Z</time>
      </trkpt>
      <trkpt lat="43.56522" lon="6.2059">
        <ele>322.2</ele>
        <time>2024-01-21T09:05:18.000Z</time>
      </trkpt>
      <trkpt lat="43.56522" lon="6.20584">
        <ele>322.5</ele>
        <time>2024-01-21T09:05:22.000Z</time>
      </trkpt>
      <trkpt lat="43.56521" lon="6.20579">
        <ele>322.8</ele>
        <time>2024-01-21T09:05:26.000Z</time>
      </trkpt>
      <trkpt lat="43.5652" lon="6.20577">
        <ele>322.8</ele>
        <time>2024-01-21T09:05:27.000Z</time>
      </trkpt>
      <trkpt lat="43.56518" lon="6.20569">
        <ele>323.1</ele>
        <time>2024-01-21T09:05:33.000Z</time>
      </trkpt>
      <trkpt lat="43.56517" lon="6.20563">
        <ele>323.2</ele>
        <time>2024-01-21T09:05:38.000Z</time>
      </trkpt>
      <trkpt lat="43.56516" lon="6.20558">
        <ele>323.3</ele>
        <time>2024-01-21T09:05:41.000Z</time>
      </trkpt>
      <trkpt lat="43.56516" lon="6.20552">
        <ele>323.3</ele>
        <time>2024-01-21T09:05:44.000Z</time>
      </trkpt>
      <trkpt lat="43.56515" lon="6.20547">
        <ele>323.4</ele>
        <time>2024-01-21T09:05:47.000Z</time>
      </trkpt>
      <trkpt lat="43.56516" lon="6.20541">
        <ele>323.4</ele>
        <time>2024-01-21T09:05:51.000Z</time>
      </trkpt>
      <trkpt lat="43.56517" lon="6.20535">
        <ele>323.4</ele>
        <time>2024-01-21T09:05:56.000Z</time>
      </trkpt>
      <trkpt lat="43.56516" lon="6.20531">
        <ele>323.5</ele>
        <time>2024-01-21T09:05:59.000Z</time>
      </trkpt>
      <trkpt lat="43.56516" lon="6.20525">
        <ele>323.8</ele>
        <time>2024-01-21T09:06:04.000Z</time>
      </trkpt>
      <trkpt lat="43.56515" lon="6.2052">
        <ele>324.1</ele>
        <time>2024-01-21T09:06:08.000Z</time>
      </trkpt>
      <trkpt lat="43.56512" lon="6.20516">
        <ele>324.5</ele>
        <time>2024-01-21T09:06:12.000Z</time>
      </trkpt>
      <trkpt lat="43.56513" lon="6.2051">
        <ele>325.2</ele>
        <time>2024-01-21T09:06:18.000Z</time>
      </trkpt>
      <trkpt lat="43.56511" lon="6.20505">
        <ele>325.8</ele>
        <time>2024-01-21T09:06:23.000Z</time>
      </trkpt>
      <trkpt lat="43.56508" lon="6.20502">
        <ele>326.1</ele>
        <time>2024-01-21T09:06:26.000Z</time>
      </trkpt>
      <trkpt lat="43.56506" lon="6.20498">
        <ele>326.6</ele>
        <time>2024-01-21T09:06:30.000Z</time>
      </trkpt>
      <trkpt lat="43.56506" lon="6.20496">
        <ele>326.7</ele>
        <time>2024-01-21T09:06:31.000Z</time>
      </trkpt>
      <trkpt lat="43.56503" lon="6.20487">
        <ele>327.6</ele>
        <time>2024-01-21T09:06:38.000Z</time>
      </trkpt>
      <trkpt lat="43.56501" lon="6.20482">
        <ele>328</ele>
        <time>2024-01-21T09:06:41.000Z</time>
      </trkpt>
      <trkpt lat="43.565" lon="6.20477">
        <ele>328.5</ele>
        <time>2024-01-21T09:06:45.000Z</time>
      </trkpt>
      <trkpt lat="43.56498" lon="6.20471">
        <ele>329.2</ele>
        <time>2024-01-21T09:06:51.000Z</time>
      </trkpt>
      <trkpt lat="43.56495" lon="6.20467">
        <ele>329.5</ele>
        <time>2024-01-21T09:06:55.000Z</time>
      </trkpt>
      <trkpt lat="43.56493" lon="6.20463">
        <ele>329.7</ele>
        <time>2024-01-21T09:06:58.000Z</time>
      </trkpt>
      <trkpt lat="43.56491" lon="6.20458">
        <ele>329.9</ele>
        <time>2024-01-21T09:07:02.000Z</time>
      </trkpt>
      <trkpt lat="43.56489" lon="6.20453">
        <ele>329.9</ele>
        <time>2024-01-21T09:07:06.000Z</time>
      </trkpt>
      <trkpt lat="43.56489" lon="6.20447">
        <ele>329.8</ele>
        <time>2024-01-21T09:07:10.000Z</time>
      </trkpt>
      <trkpt lat="43.56488" lon="6.20442">
        <ele>329.5</ele>
        <time>2024-01-21T09:07:16.000Z</time>
      </trkpt>
      <trkpt lat="43.56485" lon="6.20437">
        <ele>329.3</ele>
        <time>2024-01-21T09:07:21.000Z</time>
      </trkpt>
      <trkpt lat="43.56485" lon="6.20432">
        <ele>329.3</ele>
        <time>2024-01-21T09:07:24.000Z</time>
      </trkpt>
      <trkpt lat="43.56485" lon="6.20427">
        <ele>329.3</ele>
        <time>2024-01-21T09:07:28.000Z</time>
      </trkpt>
      <trkpt lat="43.56482" lon="6.20423">
        <ele>329.3</ele>
        <time>2024-01-21T09:07:31.000Z</time>
      </trkpt>
      <trkpt lat="43.56482" lon="6.20421">
        <ele>329.4</ele>
        <time>2024-01-21T09:07:32.000Z</time>
      </trkpt>
      <trkpt lat="43.56477" lon="6.20412">
        <ele>329.5</ele>
        <time>2024-01-21T09:07:39.000Z</time>
      </trkpt>
      <trkpt lat="43.56476" lon="6.20407">
        <ele>330</ele>
        <time>2024-01-21T09:07:44.000Z</time>
      </trkpt>
      <trkpt lat="43.56474" lon="6.20402">
        <ele>330.4</ele>
        <time>2024-01-21T09:07:48.000Z</time>
      </trkpt>
      <trkpt lat="43.56472" lon="6.20399">
        <ele>330.8</ele>
        <time>2024-01-21T09:07:52.000Z</time>
      </trkpt>
      <trkpt lat="43.5647" lon="6.20393">
        <ele>331.4</ele>
        <time>2024-01-21T09:07:57.000Z</time>
      </trkpt>
      <trkpt lat="43.56469" lon="6.20387">
        <ele>332.2</ele>
        <time>2024-01-21T09:08:03.000Z</time>
      </trkpt>
      <trkpt lat="43.56467" lon="6.20382">
        <ele>332.7</ele>
        <time>2024-01-21T09:08:08.000Z</time>
      </trkpt>
      <trkpt lat="43.56466" lon="6.20377">
        <ele>333.1</ele>
        <time>2024-01-21T09:08:13.000Z</time>
      </trkpt>
      <trkpt lat="43.56465" lon="6.20372">
        <ele>333.4</ele>
        <time>2024-01-21T09:08:17.000Z</time>
      </trkpt>
      <trkpt lat="43.56463" lon="6.20368">
        <ele>333.6</ele>
        <time>2024-01-21T09:08:20.000Z</time>
      </trkpt>
      <trkpt lat="43.56463" lon="6.20362">
        <ele>333.9</ele>
        <time>2024-01-21T09:08:24.000Z</time>
      </trkpt>
      <trkpt lat="43.5646" lon="6.20358">
        <ele>334.1</ele>
        <time>2024-01-21T09:08:27.000Z</time>
      </trkpt>
      <trkpt lat="43.56459" lon="6.20354">
        <ele>334.3</ele>
        <time>2024-01-21T09:08:31.000Z</time>
      </trkpt>
      <trkpt lat="43.5646" lon="6.20348">
        <ele>334.8</ele>
        <time>2024-01-21T09:08:37.000Z</time>
      </trkpt>
      <trkpt lat="43.5646" lon="6.20347">
        <ele>334.9</ele>
        <time>2024-01-21T09:08:38.000Z</time>
      </trkpt>
      <trkpt lat="43.56454" lon="6.2034">
        <ele>335.4</ele>
        <time>2024-01-21T09:08:44.000Z</time>
      </trkpt>
      <trkpt lat="43.56453" lon="6.20335">
        <ele>335.7</ele>
        <time>2024-01-21T09:08:47.000Z</time>
      </trkpt>
      <trkpt lat="43.56452" lon="6.2033">
        <ele>335.9</ele>
        <time>2024-01-21T09:08:50.000Z</time>
      </trkpt>
      <trkpt lat="43.56451" lon="6.20324">
        <ele>336.1</ele>
        <time>2024-01-21T09:08:53.000Z</time>
      </trkpt>
      <trkpt lat="43.5645" lon="6.20319">
        <ele>336.2</ele>
        <time>2024-01-21T09:08:56.000Z</time>
      </trkpt>
      <trkpt lat="43.5645" lon="6.20313">
        <ele>336.4</ele>
        <time>2024-01-21T09:08:59.000Z</time>
      </trkpt>
      <trkpt lat="43.56449" lon="6.20309">
        <ele>336.5</ele>
        <time>2024-01-21T09:09:02.000Z</time>
      </trkpt>
      <trkpt lat="43.56446" lon="6.20304">
        <ele>336.6</ele>
        <time>2024-01-21T09:09:05.000Z</time>
      </trkpt>
      <trkpt lat="43.56444" lon="6.20299">
        <ele>336.7</ele>
        <time>2024-01-21T09:09:09.000Z</time>
      </trkpt>
      <trkpt lat="43.56441" lon="6.20294">
        <ele>337</ele>
        <time>2024-01-21T09:09:13.000Z</time>
      </trkpt>
      <trkpt lat="43.5644" lon="6.20289">
        <ele>337.4</ele>
        <time>2024-01-21T09:09:17.000Z</time>
      </trkpt>
      <trkpt lat="43.56438" lon="6.20283">
        <ele>337.7</ele>
        <time>2024-01-21T09:09:22.000Z</time>
      </trkpt>
      <trkpt lat="43.56436" lon="6.20279">
        <ele>337.9</ele>
        <time>2024-01-21T09:09:26.000Z</time>
      </trkpt>
      <trkpt lat="43.56433" lon="6.20275">
        <ele>338</ele>
        <time>2024-01-21T09:09:29.000Z</time>
      </trkpt>
      <trkpt lat="43.56432" lon="6.2027">
        <ele>338.1</ele>
        <time>2024-01-21T09:09:33.000Z</time>
      </trkpt>
      <trkpt lat="43.56432" lon="6.20265">
        <ele>338.2</ele>
        <time>2024-01-21T09:09:37.000Z</time>
      </trkpt>
      <trkpt lat="43.56431" lon="6.2026">
        <ele>338.3</ele>
        <time>2024-01-21T09:09:41.000Z</time>
      </trkpt>
      <trkpt lat="43.56431" lon="6.20258">
        <ele>338.3</ele>
        <time>2024-01-21T09:09:42.000Z</time>
      </trkpt>
      <trkpt lat="43.56429" lon="6.20248">
        <ele>338.4</ele>
        <time>2024-01-21T09:09:49.000Z</time>
      </trkpt>
      <trkpt lat="43.56428" lon="6.20243">
        <ele>338.4</ele>
        <time>2024-01-21T09:09:53.000Z</time>
      </trkpt>
      <trkpt lat="43.56426" lon="6.20238">
        <ele>338.4</ele>
        <time>2024-01-21T09:09:57.000Z</time>
      </trkpt>
      <trkpt lat="43.56424" lon="6.20235">
        <ele>338.5</ele>
        <time>2024-01-21T09:09:59.000Z</time>
      </trkpt>
      <trkpt lat="43.56423" lon="6.20229">
        <ele>338.5</ele>
        <time>2024-01-21T09:10:02.000Z</time>
      </trkpt>
      <trkpt lat="43.56421" lon="6.20226">
        <ele>338.5</ele>
        <time>2024-01-21T09:10:04.000Z</time>
      </trkpt>
      <trkpt lat="43.56419" lon="6.20221">
        <ele>338.6</ele>
        <time>2024-01-21T09:10:07.000Z</time>
      </trkpt>
      <trkpt lat="43.56418" lon="6.20216">
        <ele>338.6</ele>
        <time>2024-01-21T09:10:11.000Z</time>
      </trkpt>
      <trkpt lat="43.56415" lon="6.20213">
        <ele>338.6</ele>
        <time>2024-01-21T09:10:14.000Z</time>
      </trkpt>
      <trkpt lat="43.56412" lon="6.20208">
        <ele>338.9</ele>
        <time>2024-01-21T09:10:18.000Z</time>
      </trkpt>
      <trkpt lat="43.56411" lon="6.20203">
        <ele>339.1</ele>
        <time>2024-01-21T09:10:22.000Z</time>
      </trkpt>
      <trkpt lat="43.56409" lon="6.20198">
        <ele>339.4</ele>
        <time>2024-01-21T09:10:26.000Z</time>
      </trkpt>
      <trkpt lat="43.56407" lon="6.20194">
        <ele>339.6</ele>
        <time>2024-01-21T09:10:29.000Z</time>
      </trkpt>
      <trkpt lat="43.56406" lon="6.20189">
        <ele>339.7</ele>
        <time>2024-01-21T09:10:32.000Z</time>
      </trkpt>
      <trkpt lat="43.56403" lon="6.20187">
        <ele>339.8</ele>
        <time>2024-01-21T09:10:34.000Z</time>
      </trkpt>
      <trkpt lat="43.564" lon="6.20184">
        <ele>340</ele>
        <time>2024-01-21T09:10:38.000Z</time>
      </trkpt>
      <trkpt lat="43.56397" lon="6.2018">
        <ele>340.1</ele>
        <time>2024-01-21T09:10:41.000Z</time>
      </trkpt>
      <trkpt lat="43.56393" lon="6.20177">
        <ele>340.3</ele>
        <time>2024-01-21T09:10:44.000Z</time>
      </trkpt>
      <trkpt lat="43.56393" lon="6.20176">
        <ele>340.3</ele>
        <time>2024-01-21T09:10:45.000Z</time>
      </trkpt>
      <trkpt lat="43.5639" lon="6.20168">
        <ele>340.7</ele>
        <time>2024-01-21T09:10:51.000Z</time>
      </trkpt>
      <trkpt lat="43.56388" lon="6.20162">
        <ele>340.9</ele>
        <time>2024-01-21T09:10:54.000Z</time>
      </trkpt>
      <trkpt lat="43.56387" lon="6.20157">
        <ele>341</ele>
        <time>2024-01-21T09:10:57.000Z</time>
      </trkpt>
      <trkpt lat="43.56386" lon="6.20152">
        <ele>341.1</ele>
        <time>2024-01-21T09:11:00.000Z</time>
      </trkpt>
      <trkpt lat="43.56386" lon="6.20148">
        <ele>341.2</ele>
        <time>2024-01-21T09:11:03.000Z</time>
      </trkpt>
      <trkpt lat="43.56384" lon="6.20144">
        <ele>341.3</ele>
        <time>2024-01-21T09:11:06.000Z</time>
      </trkpt>
      <trkpt lat="43.56384" lon="6.20139">
        <ele>341.3</ele>
        <time>2024-01-21T09:11:09.000Z</time>
      </trkpt>
      <trkpt lat="43.56382" lon="6.20135">
        <ele>341.2</ele>
        <time>2024-01-21T09:11:12.000Z</time>
      </trkpt>
      <trkpt lat="43.56379" lon="6.20132">
        <ele>341.1</ele>
        <time>2024-01-21T09:11:15.000Z</time>
      </trkpt>
      <trkpt lat="43.56377" lon="6.20128">
        <ele>341</ele>
        <time>2024-01-21T09:11:18.000Z</time>
      </trkpt>
      <trkpt lat="43.56374" lon="6.20124">
        <ele>340.9</ele>
        <time>2024-01-21T09:11:21.000Z</time>
      </trkpt>
      <trkpt lat="43.56374" lon="6.20118">
        <ele>340.8</ele>
        <time>2024-01-21T09:11:25.000Z</time>
      </trkpt>
      <trkpt lat="43.56373" lon="6.20112">
        <ele>340.7</ele>
        <time>2024-01-21T09:11:30.000Z</time>
      </trkpt>
      <trkpt lat="43.5637" lon="6.2011">
        <ele>340.9</ele>
        <time>2024-01-21T09:11:34.000Z</time>
      </trkpt>
      <trkpt lat="43.56368" lon="6.20105">
        <ele>341.2</ele>
        <time>2024-01-21T09:11:39.000Z</time>
      </trkpt>
      <trkpt lat="43.56366" lon="6.20101">
        <ele>341.4</ele>
        <time>2024-01-21T09:11:43.000Z</time>
      </trkpt>
      <trkpt lat="43.56363" lon="6.20098">
        <ele>341</ele>
        <time>2024-01-21T09:11:45.000Z</time>
      </trkpt>
      <trkpt lat="43.5636" lon="6.20094">
        <ele>341.7</ele>
        <time>2024-01-21T09:11:49.000Z</time>
      </trkpt>
      <trkpt lat="43.56358" lon="6.20088">
        <ele>341.8</ele>
        <time>2024-01-21T09:11:53.000Z</time>
      </trkpt>
      <trkpt lat="43.56357" lon="6.20083">
        <ele>342.1</ele>
        <time>2024-01-21T09:11:58.000Z</time>
      </trkpt>
      <trkpt lat="43.56357" lon="6.20077">
        <ele>342.1</ele>
        <time>2024-01-21T09:12:02.000Z</time>
      </trkpt>
      <trkpt lat="43.56358" lon="6.20073">
        <ele>341.9</ele>
        <time>2024-01-21T09:12:05.000Z</time>
      </trkpt>
      <trkpt lat="43.56358" lon="6.20068">
        <ele>341.8</ele>
        <time>2024-01-21T09:12:10.000Z</time>
      </trkpt>
      <trkpt lat="43.56356" lon="6.20067">
        <ele>341.7</ele>
        <time>2024-01-21T09:12:11.000Z</time>
      </trkpt>
      <trkpt lat="43.56354" lon="6.20063">
        <ele>341.7</ele>
        <time>2024-01-21T09:12:13.000Z</time>
      </trkpt>
      <trkpt lat="43.56353" lon="6.20059">
        <ele>341.6</ele>
        <time>2024-01-21T09:12:16.000Z</time>
      </trkpt>
      <trkpt lat="43.56352" lon="6.20053">
        <ele>341.6</ele>
        <time>2024-01-21T09:12:19.000Z</time>
      </trkpt>
      <trkpt lat="43.56351" lon="6.20048">
        <ele>341.6</ele>
        <time>2024-01-21T09:12:22.000Z</time>
      </trkpt>
      <trkpt lat="43.56349" lon="6.20043">
        <ele>341.5</ele>
        <time>2024-01-21T09:12:25.000Z</time>
      </trkpt>
      <trkpt lat="43.56346" lon="6.20041">
        <ele>341.5</ele>
        <time>2024-01-21T09:12:27.000Z</time>
      </trkpt>
      <trkpt lat="43.56344" lon="6.20037">
        <ele>341.5</ele>
        <time>2024-01-21T09:12:30.000Z</time>
      </trkpt>
      <trkpt lat="43.5634" lon="6.20033">
        <ele>341.5</ele>
        <time>2024-01-21T09:12:33.000Z</time>
      </trkpt>
      <trkpt lat="43.56339" lon="6.20028">
        <ele>341.5</ele>
        <time>2024-01-21T09:12:37.000Z</time>
      </trkpt>
      <trkpt lat="43.56337" lon="6.20022">
        <ele>341.6</ele>
        <time>2024-01-21T09:12:41.000Z</time>
      </trkpt>
      <trkpt lat="43.56336" lon="6.20016">
        <ele>341.6</ele>
        <time>2024-01-21T09:12:45.000Z</time>
      </trkpt>
      <trkpt lat="43.56337" lon="6.20011">
        <ele>341.7</ele>
        <time>2024-01-21T09:12:50.000Z</time>
      </trkpt>
      <trkpt lat="43.56337" lon="6.20009">
        <ele>341.7</ele>
        <time>2024-01-21T09:12:51.000Z</time>
      </trkpt>
      <trkpt lat="43.56338" lon="6.2">
        <ele>341.8</ele>
        <time>2024-01-21T09:12:58.000Z</time>
      </trkpt>
      <trkpt lat="43.56337" lon="6.19995">
        <ele>341.8</ele>
        <time>2024-01-21T09:13:01.000Z</time>
      </trkpt>
      <trkpt lat="43.56336" lon="6.1999">
        <ele>341.9</ele>
        <time>2024-01-21T09:13:04.000Z</time>
      </trkpt>
      <trkpt lat="43.56334" lon="6.19986">
        <ele>341.9</ele>
        <time>2024-01-21T09:13:07.000Z</time>
      </trkpt>
      <trkpt lat="43.56332" lon="6.19982">
        <ele>341.9</ele>
        <time>2024-01-21T09:13:10.000Z</time>
      </trkpt>
      <trkpt lat="43.5633" lon="6.19977">
        <ele>342</ele>
        <time>2024-01-21T09:13:14.000Z</time>
      </trkpt>
      <trkpt lat="43.56328" lon="6.19972">
        <ele>342.1</ele>
        <time>2024-01-21T09:13:17.000Z</time>
      </trkpt>
      <trkpt lat="43.56326" lon="6.19968">
        <ele>342.2</ele>
        <time>2024-01-21T09:13:20.000Z</time>
      </trkpt>
      <trkpt lat="43.56325" lon="6.19963">
        <ele>342.3</ele>
        <time>2024-01-21T09:13:23.000Z</time>
      </trkpt>
      <trkpt lat="43.56323" lon="6.19958">
        <ele>342.4</ele>
        <time>2024-01-21T09:13:26.000Z</time>
      </trkpt>
      <trkpt lat="43.5632" lon="6.19956">
        <ele>342.4</ele>
        <time>2024-01-21T09:13:28.000Z</time>
      </trkpt>
      <trkpt lat="43.56318" lon="6.19951">
        <ele>342.5</ele>
        <time>2024-01-21T09:13:31.000Z</time>
      </trkpt>
      <trkpt lat="43.56315" lon="6.19946">
        <ele>342.5</ele>
        <time>2024-01-21T09:13:34.000Z</time>
      </trkpt>
      <trkpt lat="43.56313" lon="6.19942">
        <ele>342.6</ele>
        <time>2024-01-21T09:13:37.000Z</time>
      </trkpt>
      <trkpt lat="43.56312" lon="6.19937">
        <ele>342.6</ele>
        <time>2024-01-21T09:13:41.000Z</time>
      </trkpt>
      <trkpt lat="43.5631" lon="6.19932">
        <ele>342.6</ele>
        <time>2024-01-21T09:13:45.000Z</time>
      </trkpt>
      <trkpt lat="43.56308" lon="6.19928">
        <ele>342.7</ele>
        <time>2024-01-21T09:13:48.000Z</time>
      </trkpt>
      <trkpt lat="43.56306" lon="6.19924">
        <ele>342.7</ele>
        <time>2024-01-21T09:13:51.000Z</time>
      </trkpt>
      <trkpt lat="43.56305" lon="6.19923">
        <ele>342.7</ele>
        <time>2024-01-21T09:13:52.000Z</time>
      </trkpt>
      <trkpt lat="43.56302" lon="6.19915">
        <ele>342.7</ele>
        <time>2024-01-21T09:13:58.000Z</time>
      </trkpt>
      <trkpt lat="43.563" lon="6.1991">
        <ele>342.9</ele>
        <time>2024-01-21T09:14:02.000Z</time>
      </trkpt>
      <trkpt lat="43.56297" lon="6.19905">
        <ele>342.9</ele>
        <time>2024-01-21T09:14:06.000Z</time>
      </trkpt>
      <trkpt lat="43.56295" lon="6.19902">
        <ele>343</ele>
        <time>2024-01-21T09:14:09.000Z</time>
      </trkpt>
      <trkpt lat="43.56292" lon="6.19899">
        <ele>343</ele>
        <time>2024-01-21T09:14:12.000Z</time>
      </trkpt>
      <trkpt lat="43.56288" lon="6.19895">
        <ele>343.2</ele>
        <time>2024-01-21T09:14:16.000Z</time>
      </trkpt>
      <trkpt lat="43.56285" lon="6.19892">
        <ele>343.2</ele>
        <time>2024-01-21T09:14:19.000Z</time>
      </trkpt>
      <trkpt lat="43.56281" lon="6.1989">
        <ele>343.4</ele>
        <time>2024-01-21T09:14:22.000Z</time>
      </trkpt>
      <trkpt lat="43.56277" lon="6.19887">
        <ele>343.6</ele>
        <time>2024-01-21T09:14:25.000Z</time>
      </trkpt>
      <trkpt lat="43.56274" lon="6.19885">
        <ele>343.8</ele>
        <time>2024-01-21T09:14:28.000Z</time>
      </trkpt>
      <trkpt lat="43.5627" lon="6.19883">
        <ele>343.9</ele>
        <time>2024-01-21T09:14:31.000Z</time>
      </trkpt>
      <trkpt lat="43.56267" lon="6.19881">
        <ele>344.1</ele>
        <time>2024-01-21T09:14:34.000Z</time>
      </trkpt>
      <trkpt lat="43.56264" lon="6.19878">
        <ele>344.4</ele>
        <time>2024-01-21T09:14:38.000Z</time>
      </trkpt>
      <trkpt lat="43.5626" lon="6.19876">
        <ele>344.7</ele>
        <time>2024-01-21T09:14:42.000Z</time>
      </trkpt>
      <trkpt lat="43.56256" lon="6.19874">
        <ele>345.1</ele>
        <time>2024-01-21T09:14:47.000Z</time>
      </trkpt>
      <trkpt lat="43.56252" lon="6.19872">
        <ele>345.2</ele>
        <time>2024-01-21T09:14:51.000Z</time>
      </trkpt>
      <trkpt lat="43.56248" lon="6.1987">
        <ele>345.4</ele>
        <time>2024-01-21T09:14:55.000Z</time>
      </trkpt>
      <trkpt lat="43.56247" lon="6.19869">
        <ele>345.4</ele>
        <time>2024-01-21T09:14:56.000Z</time>
      </trkpt>
      <trkpt lat="43.56241" lon="6.19867">
        <ele>345.5</ele>
        <time>2024-01-21T09:15:00.000Z</time>
      </trkpt>
      <trkpt lat="43.56237" lon="6.19866">
        <ele>345.6</ele>
        <time>2024-01-21T09:15:03.000Z</time>
      </trkpt>
      <trkpt lat="43.56234" lon="6.19864">
        <ele>345.6</ele>
        <time>2024-01-21T09:15:06.000Z</time>
      </trkpt>
      <trkpt lat="43.5623" lon="6.19862">
        <ele>345.7</ele>
        <time>2024-01-21T09:15:10.000Z</time>
      </trkpt>
      <trkpt lat="43.56227" lon="6.19859">
        <ele>345.6</ele>
        <time>2024-01-21T09:15:14.000Z</time>
      </trkpt>
      <trkpt lat="43.56224" lon="6.19856">
        <ele>345.5</ele>
        <time>2024-01-21T09:15:19.000Z</time>
      </trkpt>
      <trkpt lat="43.56221" lon="6.19854">
        <ele>345.3</ele>
        <time>2024-01-21T09:15:22.000Z</time>
      </trkpt>
      <trkpt lat="43.56217" lon="6.19852">
        <ele>345.1</ele>
        <time>2024-01-21T09:15:25.000Z</time>
      </trkpt>
      <trkpt lat="43.56213" lon="6.19849">
        <ele>344.9</ele>
        <time>2024-01-21T09:15:29.000Z</time>
      </trkpt>
      <trkpt lat="43.5621" lon="6.19846">
        <ele>344.7</ele>
        <time>2024-01-21T09:15:32.000Z</time>
      </trkpt>
      <trkpt lat="43.56206" lon="6.19844">
        <ele>344.5</ele>
        <time>2024-01-21T09:15:36.000Z</time>
      </trkpt>
      <trkpt lat="43.56203" lon="6.19842">
        <ele>344.3</ele>
        <time>2024-01-21T09:15:40.000Z</time>
      </trkpt>
      <trkpt lat="43.56199" lon="6.1984">
        <ele>344.2</ele>
        <time>2024-01-21T09:15:43.000Z</time>
      </trkpt>
      <trkpt lat="43.56195" lon="6.19837">
        <ele>344</ele>
        <time>2024-01-21T09:15:47.000Z</time>
      </trkpt>
      <trkpt lat="43.56191" lon="6.19835">
        <ele>343.9</ele>
        <time>2024-01-21T09:15:51.000Z</time>
      </trkpt>
      <trkpt lat="43.56187" lon="6.19834">
        <ele>343.7</ele>
        <time>2024-01-21T09:15:55.000Z</time>
      </trkpt>
      <trkpt lat="43.56184" lon="6.19831">
        <ele>343.4</ele>
        <time>2024-01-21T09:16:03.000Z</time>
      </trkpt>
      <trkpt lat="43.56183" lon="6.19831">
        <ele>343.4</ele>
        <time>2024-01-21T09:16:04.000Z</time>
      </trkpt>
      <trkpt lat="43.56176" lon="6.19828">
        <ele>342.9</ele>
        <time>2024-01-21T09:16:33.000Z</time>
      </trkpt>
      <trkpt lat="43.56173" lon="6.19825">
        <ele>341.8</ele>
        <time>2024-01-21T09:16:58.000Z</time>
      </trkpt>
      <trkpt lat="43.56169" lon="6.19824">
        <ele>341.4</ele>
        <time>2024-01-21T09:17:05.000Z</time>
      </trkpt>
      <trkpt lat="43.56168" lon="6.19824">
        <ele>341.4</ele>
        <time>2024-01-21T09:17:06.000Z</time>
      </trkpt>
      <trkpt lat="43.56168" lon="6.19825">
        <ele>342.2</ele>
        <time>2024-01-21T09:18:30.000Z</time>
      </trkpt>
      <trkpt lat="43.56169" lon="6.19826">
        <ele>342.2</ele>
        <time>2024-01-21T09:18:31.000Z</time>
      </trkpt>
      <trkpt lat="43.5617" lon="6.19829">
        <ele>342.3</ele>
        <time>2024-01-21T09:19:02.000Z</time>
      </trkpt>
      <trkpt lat="43.56166" lon="6.19829">
        <ele>342.1</ele>
        <time>2024-01-21T09:19:58.000Z</time>
      </trkpt>
      <trkpt lat="43.56165" lon="6.1983">
        <ele>342.1</ele>
        <time>2024-01-21T09:19:59.000Z</time>
      </trkpt>
      <trkpt lat="43.56171" lon="6.19823">
        <ele>342.1</ele>
        <time>2024-01-21T09:22:01.000Z</time>
      </trkpt>
      <trkpt lat="43.56171" lon="6.19822">
        <ele>342</ele>
        <time>2024-01-21T09:22:02.000Z</time>
      </trkpt>
      <trkpt lat="43.56173" lon="6.19812">
        <ele>341.8</ele>
        <time>2024-01-21T09:22:10.000Z</time>
      </trkpt>
      <trkpt lat="43.56173" lon="6.19807">
        <ele>341.5</ele>
        <time>2024-01-21T09:22:14.000Z</time>
      </trkpt>
      <trkpt lat="43.56172" lon="6.19802">
        <ele>341.2</ele>
        <time>2024-01-21T09:22:18.000Z</time>
      </trkpt>
      <trkpt lat="43.56172" lon="6.19796">
        <ele>340.6</ele>
        <time>2024-01-21T09:22:23.000Z</time>
      </trkpt>
      <trkpt lat="43.56173" lon="6.1979">
        <ele>340.2</ele>
        <time>2024-01-21T09:22:27.000Z</time>
      </trkpt>
      <trkpt lat="43.56174" lon="6.19785">
        <ele>339.5</ele>
        <time>2024-01-21T09:22:31.000Z</time>
      </trkpt>
      <trkpt lat="43.56175" lon="6.1978">
        <ele>338.8</ele>
        <time>2024-01-21T09:22:35.000Z</time>
      </trkpt>
      <trkpt lat="43.56176" lon="6.19775">
        <ele>338.2</ele>
        <time>2024-01-21T09:22:39.000Z</time>
      </trkpt>
      <trkpt lat="43.56177" lon="6.1977">
        <ele>337.8</ele>
        <time>2024-01-21T09:22:43.000Z</time>
      </trkpt>
      <trkpt lat="43.56178" lon="6.19765">
        <ele>337.3</ele>
        <time>2024-01-21T09:22:47.000Z</time>
      </trkpt>
      <trkpt lat="43.5618" lon="6.19759">
        <ele>337</ele>
        <time>2024-01-21T09:22:51.000Z</time>
      </trkpt>
      <trkpt lat="43.56181" lon="6.19754">
        <ele>336.7</ele>
        <time>2024-01-21T09:22:55.000Z</time>
      </trkpt>
      <trkpt lat="43.56183" lon="6.19749">
        <ele>336.5</ele>
        <time>2024-01-21T09:22:59.000Z</time>
      </trkpt>
      <trkpt lat="43.56185" lon="6.19744">
        <ele>336.3</ele>
        <time>2024-01-21T09:23:04.000Z</time>
      </trkpt>
      <trkpt lat="43.56186" lon="6.19743">
        <ele>336.3</ele>
        <time>2024-01-21T09:23:05.000Z</time>
      </trkpt>
      <trkpt lat="43.56189" lon="6.19733">
        <ele>336.1</ele>
        <time>2024-01-21T09:23:13.000Z</time>
      </trkpt>
      <trkpt lat="43.56191" lon="6.19728">
        <ele>336.1</ele>
        <time>2024-01-21T09:23:17.000Z</time>
      </trkpt>
      <trkpt lat="43.56192" lon="6.19722">
        <ele>336.1</ele>
        <time>2024-01-21T09:23:21.000Z</time>
      </trkpt>
      <trkpt lat="43.56194" lon="6.19717">
        <ele>336.2</ele>
        <time>2024-01-21T09:23:24.000Z</time>
      </trkpt>
      <trkpt lat="43.56195" lon="6.19713">
        <ele>336.3</ele>
        <time>2024-01-21T09:23:27.000Z</time>
      </trkpt>
      <trkpt lat="43.56195" lon="6.19708">
        <ele>336.5</ele>
        <time>2024-01-21T09:23:30.000Z</time>
      </trkpt>
      <trkpt lat="43.56195" lon="6.19702">
        <ele>336.8</ele>
        <time>2024-01-21T09:23:34.000Z</time>
      </trkpt>
      <trkpt lat="43.56194" lon="6.19697">
        <ele>337.1</ele>
        <time>2024-01-21T09:23:38.000Z</time>
      </trkpt>
      <trkpt lat="43.56193" lon="6.19692">
        <ele>337.6</ele>
        <time>2024-01-21T09:23:42.000Z</time>
      </trkpt>
      <trkpt lat="43.56192" lon="6.19686">
        <ele>338.1</ele>
        <time>2024-01-21T09:23:46.000Z</time>
      </trkpt>
      <trkpt lat="43.56191" lon="6.1968">
        <ele>338.6</ele>
        <time>2024-01-21T09:23:50.000Z</time>
      </trkpt>
      <trkpt lat="43.5619" lon="6.19674">
        <ele>339.1</ele>
        <time>2024-01-21T09:23:54.000Z</time>
      </trkpt>
      <trkpt lat="43.5619" lon="6.19669">
        <ele>339.6</ele>
        <time>2024-01-21T09:23:57.000Z</time>
      </trkpt>
      <trkpt lat="43.5619" lon="6.19663">
        <ele>340.1</ele>
        <time>2024-01-21T09:24:01.000Z</time>
      </trkpt>
      <trkpt lat="43.5619" lon="6.19658">
        <ele>340.6</ele>
        <time>2024-01-21T09:24:05.000Z</time>
      </trkpt>
      <trkpt lat="43.5619" lon="6.19657">
        <ele>340.7</ele>
        <time>2024-01-21T09:24:06.000Z</time>
      </trkpt>
      <trkpt lat="43.56189" lon="6.19647">
        <ele>341.7</ele>
        <time>2024-01-21T09:24:15.000Z</time>
      </trkpt>
      <trkpt lat="43.56188" lon="6.19641">
        <ele>342.4</ele>
        <time>2024-01-21T09:24:20.000Z</time>
      </trkpt>
      <trkpt lat="43.56188" lon="6.19635">
        <ele>343</ele>
        <time>2024-01-21T09:24:24.000Z</time>
      </trkpt>
      <trkpt lat="43.56188" lon="6.1963">
        <ele>343.5</ele>
        <time>2024-01-21T09:24:28.000Z</time>
      </trkpt>
      <trkpt lat="43.56187" lon="6.19624">
        <ele>345.1</ele>
        <time>2024-01-21T09:24:41.000Z</time>
      </trkpt>
      <trkpt lat="43.56187" lon="6.19619">
        <ele>345.8</ele>
        <time>2024-01-21T09:24:50.000Z</time>
      </trkpt>
      <trkpt lat="43.56187" lon="6.19613">
        <ele>346.3</ele>
        <time>2024-01-21T09:24:58.000Z</time>
      </trkpt>
      <trkpt lat="43.56187" lon="6.19607">
        <ele>346.8</ele>
        <time>2024-01-21T09:25:04.000Z</time>
      </trkpt>
      <trkpt lat="43.56186" lon="6.19601">
        <ele>347.3</ele>
        <time>2024-01-21T09:25:12.000Z</time>
      </trkpt>
      <trkpt lat="43.56186" lon="6.19601">
        <ele>347.4</ele>
        <time>2024-01-21T09:25:13.000Z</time>
      </trkpt>
      <trkpt lat="43.56183" lon="6.19591">
        <ele>349.1</ele>
        <time>2024-01-21T09:25:37.000Z</time>
      </trkpt>
      <trkpt lat="43.56186" lon="6.19588">
        <ele>350.9</ele>
        <time>2024-01-21T09:25:55.000Z</time>
      </trkpt>
      <trkpt lat="43.56189" lon="6.19583">
        <ele>351.7</ele>
        <time>2024-01-21T09:26:02.000Z</time>
      </trkpt>
      <trkpt lat="43.5619" lon="6.19578">
        <ele>351.9</ele>
        <time>2024-01-21T09:26:07.000Z</time>
      </trkpt>
      <trkpt lat="43.56191" lon="6.19573">
        <ele>352</ele>
        <time>2024-01-21T09:26:11.000Z</time>
      </trkpt>
      <trkpt lat="43.56191" lon="6.19567">
        <ele>351.7</ele>
        <time>2024-01-21T09:26:16.000Z</time>
      </trkpt>
      <trkpt lat="43.56191" lon="6.19566">
        <ele>351.6</ele>
        <time>2024-01-21T09:26:17.000Z</time>
      </trkpt>
      <trkpt lat="43.5619" lon="6.19556">
        <ele>350.8</ele>
        <time>2024-01-21T09:26:25.000Z</time>
      </trkpt>
      <trkpt lat="43.56187" lon="6.19552">
        <ele>350.4</ele>
        <time>2024-01-21T09:26:29.000Z</time>
      </trkpt>
      <trkpt lat="43.56185" lon="6.19546">
        <ele>349.5</ele>
        <time>2024-01-21T09:26:38.000Z</time>
      </trkpt>
      <trkpt lat="43.56184" lon="6.19541">
        <ele>348.8</ele>
        <time>2024-01-21T09:26:45.000Z</time>
      </trkpt>
      <trkpt lat="43.56182" lon="6.19536">
        <ele>348.2</ele>
        <time>2024-01-21T09:26:50.000Z</time>
      </trkpt>
      <trkpt lat="43.56179" lon="6.19532">
        <ele>347.5</ele>
        <time>2024-01-21T09:26:55.000Z</time>
      </trkpt>
      <trkpt lat="43.56176" lon="6.19529">
        <ele>347</ele>
        <time>2024-01-21T09:26:58.000Z</time>
      </trkpt>
      <trkpt lat="43.56174" lon="6.19526">
        <ele>346.5</ele>
        <time>2024-01-21T09:27:01.000Z</time>
      </trkpt>
      <trkpt lat="43.5617" lon="6.19525">
        <ele>346.3</ele>
        <time>2024-01-21T09:27:03.000Z</time>
      </trkpt>
      <trkpt lat="43.56167" lon="6.19524">
        <ele>346</ele>
        <time>2024-01-21T09:27:06.000Z</time>
      </trkpt>
      <trkpt lat="43.56163" lon="6.19524">
        <ele>345.6</ele>
        <time>2024-01-21T09:27:10.000Z</time>
      </trkpt>
      <trkpt lat="43.56159" lon="6.19525">
        <ele>345.2</ele>
        <time>2024-01-21T09:27:13.000Z</time>
      </trkpt>
      <trkpt lat="43.56157" lon="6.19519">
        <ele>344.2</ele>
        <time>2024-01-21T09:27:19.000Z</time>
      </trkpt>
      <trkpt lat="43.56157" lon="6.19518">
        <ele>344.1</ele>
        <time>2024-01-21T09:27:20.000Z</time>
      </trkpt>
      <trkpt lat="43.56159" lon="6.19509">
        <ele>342.4</ele>
        <time>2024-01-21T09:27:30.000Z</time>
      </trkpt>
      <trkpt lat="43.56162" lon="6.19506">
        <ele>341</ele>
        <time>2024-01-21T09:27:39.000Z</time>
      </trkpt>
      <trkpt lat="43.56166" lon="6.19503">
        <ele>340.2</ele>
        <time>2024-01-21T09:27:44.000Z</time>
      </trkpt>
      <trkpt lat="43.5617" lon="6.19501">
        <ele>339</ele>
        <time>2024-01-21T09:27:51.000Z</time>
      </trkpt>
      <trkpt lat="43.56174" lon="6.19501">
        <ele>337.8</ele>
        <time>2024-01-21T09:27:58.000Z</time>
      </trkpt>
      <trkpt lat="43.56178" lon="6.195">
        <ele>336.9</ele>
        <time>2024-01-21T09:28:03.000Z</time>
      </trkpt>
      <trkpt lat="43.56182" lon="6.195">
        <ele>336.1</ele>
        <time>2024-01-21T09:28:08.000Z</time>
      </trkpt>
      <trkpt lat="43.56187" lon="6.19501">
        <ele>335.4</ele>
        <time>2024-01-21T09:28:13.000Z</time>
      </trkpt>
      <trkpt lat="43.56191" lon="6.19503">
        <ele>334.8</ele>
        <time>2024-01-21T09:28:17.000Z</time>
      </trkpt>
      <trkpt lat="43.56194" lon="6.19505">
        <ele>334.3</ele>
        <time>2024-01-21T09:28:21.000Z</time>
      </trkpt>
      <trkpt lat="43.56195" lon="6.19505">
        <ele>334.1</ele>
        <time>2024-01-21T09:28:22.000Z</time>
      </trkpt>
      <trkpt lat="43.56201" lon="6.19512">
        <ele>333</ele>
        <time>2024-01-21T09:28:30.000Z</time>
      </trkpt>
      <trkpt lat="43.56203" lon="6.19516">
        <ele>332.3</ele>
        <time>2024-01-21T09:28:35.000Z</time>
      </trkpt>
      <trkpt lat="43.56205" lon="6.19521">
        <ele>331.4</ele>
        <time>2024-01-21T09:28:40.000Z</time>
      </trkpt>
      <trkpt lat="43.56209" lon="6.19525">
        <ele>330.5</ele>
        <time>2024-01-21T09:28:46.000Z</time>
      </trkpt>
      <trkpt lat="43.56211" lon="6.19529">
        <ele>329.9</ele>
        <time>2024-01-21T09:28:50.000Z</time>
      </trkpt>
      <trkpt lat="43.56215" lon="6.19531">
        <ele>329.2</ele>
        <time>2024-01-21T09:28:54.000Z</time>
      </trkpt>
      <trkpt lat="43.56218" lon="6.19533">
        <ele>328.7</ele>
        <time>2024-01-21T09:28:58.000Z</time>
      </trkpt>
      <trkpt lat="43.56222" lon="6.19536">
        <ele>328</ele>
        <time>2024-01-21T09:29:03.000Z</time>
      </trkpt>
      <trkpt lat="43.56226" lon="6.19537">
        <ele>327.4</ele>
        <time>2024-01-21T09:29:07.000Z</time>
      </trkpt>
      <trkpt lat="43.5623" lon="6.1954">
        <ele>326.7</ele>
        <time>2024-01-21T09:29:12.000Z</time>
      </trkpt>
      <trkpt lat="43.56233" lon="6.19543">
        <ele>325.9</ele>
        <time>2024-01-21T09:29:17.000Z</time>
      </trkpt>
      <trkpt lat="43.56237" lon="6.19547">
        <ele>325</ele>
        <time>2024-01-21T09:29:23.000Z</time>
      </trkpt>
      <trkpt lat="43.56237" lon="6.19548">
        <ele>324.9</ele>
        <time>2024-01-21T09:29:24.000Z</time>
      </trkpt>
      <trkpt lat="43.56245" lon="6.19552">
        <ele>323.7</ele>
        <time>2024-01-21T09:29:32.000Z</time>
      </trkpt>
      <trkpt lat="43.56249" lon="6.19553">
        <ele>323</ele>
        <time>2024-01-21T09:29:36.000Z</time>
      </trkpt>
      <trkpt lat="43.56252" lon="6.19555">
        <ele>322.3</ele>
        <time>2024-01-21T09:29:40.000Z</time>
      </trkpt>
      <trkpt lat="43.56256" lon="6.19557">
        <ele>321.7</ele>
        <time>2024-01-21T09:29:44.000Z</time>
      </trkpt>
      <trkpt lat="43.56259" lon="6.19559">
        <ele>320.9</ele>
        <time>2024-01-21T09:29:48.000Z</time>
      </trkpt>
      <trkpt lat="43.56263" lon="6.19561">
        <ele>320.1</ele>
        <time>2024-01-21T09:29:53.000Z</time>
      </trkpt>
      <trkpt lat="43.56267" lon="6.19562">
        <ele>319.5</ele>
        <time>2024-01-21T09:29:58.000Z</time>
      </trkpt>
      <trkpt lat="43.56272" lon="6.19562">
        <ele>318.9</ele>
        <time>2024-01-21T09:30:03.000Z</time>
      </trkpt>
      <trkpt lat="43.56275" lon="6.19562">
        <ele>318.4</ele>
        <time>2024-01-21T09:30:08.000Z</time>
      </trkpt>
      <trkpt lat="43.56279" lon="6.19565">
        <ele>317.8</ele>
        <time>2024-01-21T09:30:14.000Z</time>
      </trkpt>
      <trkpt lat="43.56282" lon="6.19568">
        <ele>317.2</ele>
        <time>2024-01-21T09:30:18.000Z</time>
      </trkpt>
      <trkpt lat="43.56285" lon="6.19571">
        <ele>316.7</ele>
        <time>2024-01-21T09:30:22.000Z</time>
      </trkpt>
      <trkpt lat="43.56289" lon="6.19574">
        <ele>316</ele>
        <time>2024-01-21T09:30:26.000Z</time>
      </trkpt>
      <trkpt lat="43.5629" lon="6.19574">
        <ele>315.9</ele>
        <time>2024-01-21T09:30:27.000Z</time>
      </trkpt>
      <trkpt lat="43.56295" lon="6.19581">
        <ele>314.8</ele>
        <time>2024-01-21T09:30:36.000Z</time>
      </trkpt>
      <trkpt lat="43.56298" lon="6.19584">
        <ele>314.4</ele>
        <time>2024-01-21T09:30:39.000Z</time>
      </trkpt>
      <trkpt lat="43.56301" lon="6.19588">
        <ele>313.9</ele>
        <time>2024-01-21T09:30:43.000Z</time>
      </trkpt>
      <trkpt lat="43.56305" lon="6.19589">
        <ele>313.5</ele>
        <time>2024-01-21T09:30:47.000Z</time>
      </trkpt>
      <trkpt lat="43.56309" lon="6.19591">
        <ele>312.8</ele>
        <time>2024-01-21T09:30:52.000Z</time>
      </trkpt>
      <trkpt lat="43.56312" lon="6.19592">
        <ele>312.5</ele>
        <time>2024-01-21T09:30:55.000Z</time>
      </trkpt>
      <trkpt lat="43.56315" lon="6.19594">
        <ele>312.1</ele>
        <time>2024-01-21T09:30:58.000Z</time>
      </trkpt>
      <trkpt lat="43.56319" lon="6.19596">
        <ele>311.7</ele>
        <time>2024-01-21T09:31:01.000Z</time>
      </trkpt>
      <trkpt lat="43.56322" lon="6.196">
        <ele>311.3</ele>
        <time>2024-01-21T09:31:05.000Z</time>
      </trkpt>
      <trkpt lat="43.56325" lon="6.19603">
        <ele>310.8</ele>
        <time>2024-01-21T09:31:09.000Z</time>
      </trkpt>
      <trkpt lat="43.56329" lon="6.19607">
        <ele>310.3</ele>
        <time>2024-01-21T09:31:14.000Z</time>
      </trkpt>
      <trkpt lat="43.56331" lon="6.19612">
        <ele>309.7</ele>
        <time>2024-01-21T09:31:20.000Z</time>
      </trkpt>
      <trkpt lat="43.56334" lon="6.19616">
        <ele>309.4</ele>
        <time>2024-01-21T09:31:25.000Z</time>
      </trkpt>
      <trkpt lat="43.56336" lon="6.1962">
        <ele>309</ele>
        <time>2024-01-21T09:31:29.000Z</time>
      </trkpt>
      <trkpt lat="43.56337" lon="6.19621">
        <ele>308.9</ele>
        <time>2024-01-21T09:31:30.000Z</time>
      </trkpt>
      <trkpt lat="43.56343" lon="6.19627">
        <ele>307.9</ele>
        <time>2024-01-21T09:31:40.000Z</time>
      </trkpt>
      <trkpt lat="43.56346" lon="6.19631">
        <ele>307.1</ele>
        <time>2024-01-21T09:31:46.000Z</time>
      </trkpt>
      <trkpt lat="43.56349" lon="6.19635">
        <ele>306.2</ele>
        <time>2024-01-21T09:31:52.000Z</time>
      </trkpt>
      <trkpt lat="43.56351" lon="6.19641">
        <ele>305.3</ele>
        <time>2024-01-21T09:31:59.000Z</time>
      </trkpt>
      <trkpt lat="43.56354" lon="6.19645">
        <ele>304.3</ele>
        <time>2024-01-21T09:32:07.000Z</time>
      </trkpt>
      <trkpt lat="43.56357" lon="6.19648">
        <ele>303.5</ele>
        <time>2024-01-21T09:32:12.000Z</time>
      </trkpt>
      <trkpt lat="43.5636" lon="6.19652">
        <ele>302.7</ele>
        <time>2024-01-21T09:32:17.000Z</time>
      </trkpt>
      <trkpt lat="43.56363" lon="6.19655">
        <ele>302.1</ele>
        <time>2024-01-21T09:32:22.000Z</time>
      </trkpt>
      <trkpt lat="43.56367" lon="6.19658">
        <ele>301.5</ele>
        <time>2024-01-21T09:32:27.000Z</time>
      </trkpt>
      <trkpt lat="43.56366" lon="6.19664">
        <ele>300.4</ele>
        <time>2024-01-21T09:32:37.000Z</time>
      </trkpt>
      <trkpt lat="43.56366" lon="6.19665">
        <ele>300.3</ele>
        <time>2024-01-21T09:32:38.000Z</time>
      </trkpt>
      <trkpt lat="43.56374" lon="6.19669">
        <ele>299.1</ele>
        <time>2024-01-21T09:33:12.000Z</time>
      </trkpt>
      <trkpt lat="43.56378" lon="6.19668">
        <ele>299.1</ele>
        <time>2024-01-21T09:34:36.000Z</time>
      </trkpt>
      <trkpt lat="43.56378" lon="6.19668">
        <ele>299.1</ele>
        <time>2024-01-21T09:34:37.000Z</time>
      </trkpt>
      <trkpt lat="43.56382" lon="6.19659">
        <ele>297.3</ele>
        <time>2024-01-21T09:35:03.000Z</time>
      </trkpt>
      <trkpt lat="43.56383" lon="6.19653">
        <ele>296.8</ele>
        <time>2024-01-21T09:35:11.000Z</time>
      </trkpt>
      <trkpt lat="43.56383" lon="6.19648">
        <ele>296</ele>
        <time>2024-01-21T09:35:21.000Z</time>
      </trkpt>
      <trkpt lat="43.56385" lon="6.19642">
        <ele>295.2</ele>
        <time>2024-01-21T09:35:29.000Z</time>
      </trkpt>
      <trkpt lat="43.56386" lon="6.19637">
        <ele>294.5</ele>
        <time>2024-01-21T09:35:36.000Z</time>
      </trkpt>
      <trkpt lat="43.56387" lon="6.19631">
        <ele>293.8</ele>
        <time>2024-01-21T09:35:44.000Z</time>
      </trkpt>
      <trkpt lat="43.56387" lon="6.1963">
        <ele>293.7</ele>
        <time>2024-01-21T09:35:45.000Z</time>
      </trkpt>
      <trkpt lat="43.56391" lon="6.19621">
        <ele>292.1</ele>
        <time>2024-01-21T09:36:00.000Z</time>
      </trkpt>
      <trkpt lat="43.56392" lon="6.19615">
        <ele>291.3</ele>
        <time>2024-01-21T09:36:07.000Z</time>
      </trkpt>
      <trkpt lat="43.56393" lon="6.19609">
        <ele>290.6</ele>
        <time>2024-01-21T09:36:13.000Z</time>
      </trkpt>
      <trkpt lat="43.56393" lon="6.19604">
        <ele>290</ele>
        <time>2024-01-21T09:36:19.000Z</time>
      </trkpt>
      <trkpt lat="43.56395" lon="6.19599">
        <ele>289.3</ele>
        <time>2024-01-21T09:36:24.000Z</time>
      </trkpt>
      <trkpt lat="43.56394" lon="6.19593">
        <ele>288.9</ele>
        <time>2024-01-21T09:36:28.000Z</time>
      </trkpt>
      <trkpt lat="43.56395" lon="6.19588">
        <ele>288.5</ele>
        <time>2024-01-21T09:36:33.000Z</time>
      </trkpt>
      <trkpt lat="43.56397" lon="6.19583">
        <ele>288.2</ele>
        <time>2024-01-21T09:36:37.000Z</time>
      </trkpt>
      <trkpt lat="43.56398" lon="6.19578">
        <ele>287.9</ele>
        <time>2024-01-21T09:36:42.000Z</time>
      </trkpt>
      <trkpt lat="43.56401" lon="6.19573">
        <ele>287.6</ele>
        <time>2024-01-21T09:36:48.000Z</time>
      </trkpt>
      <trkpt lat="43.56402" lon="6.19572">
        <ele>287.6</ele>
        <time>2024-01-21T09:36:49.000Z</time>
      </trkpt>
      <trkpt lat="43.56407" lon="6.19565">
        <ele>287.3</ele>
        <time>2024-01-21T09:36:55.000Z</time>
      </trkpt>
      <trkpt lat="43.56409" lon="6.19561">
        <ele>287.2</ele>
        <time>2024-01-21T09:36:58.000Z</time>
      </trkpt>
      <trkpt lat="43.5641" lon="6.19557">
        <ele>287.1</ele>
        <time>2024-01-21T09:37:00.000Z</time>
      </trkpt>
      <trkpt lat="43.56411" lon="6.19551">
        <ele>287</ele>
        <time>2024-01-21T09:37:03.000Z</time>
      </trkpt>
      <trkpt lat="43.56409" lon="6.19546">
        <ele>286.7</ele>
        <time>2024-01-21T09:37:13.000Z</time>
      </trkpt>
      <trkpt lat="43.56409" lon="6.1954">
        <ele>286.6</ele>
        <time>2024-01-21T09:37:46.000Z</time>
      </trkpt>
      <trkpt lat="43.56406" lon="6.19535">
        <ele>286.6</ele>
        <time>2024-01-21T09:38:21.000Z</time>
      </trkpt>
      <trkpt lat="43.56406" lon="6.19534">
        <ele>286.6</ele>
        <time>2024-01-21T09:38:22.000Z</time>
      </trkpt>
      <trkpt lat="43.56401" lon="6.19526">
        <ele>286.2</ele>
        <time>2024-01-21T09:38:33.000Z</time>
      </trkpt>
      <trkpt lat="43.56397" lon="6.19524">
        <ele>286</ele>
        <time>2024-01-21T09:38:38.000Z</time>
      </trkpt>
      <trkpt lat="43.56394" lon="6.19522">
        <ele>285.8</ele>
        <time>2024-01-21T09:38:44.000Z</time>
      </trkpt>
      <trkpt lat="43.56389" lon="6.19521">
        <ele>285.7</ele>
        <time>2024-01-21T09:38:49.000Z</time>
      </trkpt>
      <trkpt lat="43.56386" lon="6.19517">
        <ele>285</ele>
        <time>2024-01-21T09:39:00.000Z</time>
      </trkpt>
      <trkpt lat="43.56383" lon="6.19514">
        <ele>284.6</ele>
        <time>2024-01-21T09:39:07.000Z</time>
      </trkpt>
      <trkpt lat="43.5638" lon="6.1951">
        <ele>284.2</ele>
        <time>2024-01-21T09:39:14.000Z</time>
      </trkpt>
      <trkpt lat="43.56377" lon="6.19505">
        <ele>284</ele>
        <time>2024-01-21T09:39:19.000Z</time>
      </trkpt>
      <trkpt lat="43.56375" lon="6.19501">
        <ele>283.7</ele>
        <time>2024-01-21T09:39:27.000Z</time>
      </trkpt>
      <trkpt lat="43.56375" lon="6.195">
        <ele>283.6</ele>
        <time>2024-01-21T09:39:28.000Z</time>
      </trkpt>
      <trkpt lat="43.56373" lon="6.1949">
        <ele>282.7</ele>
        <time>2024-01-21T09:39:40.000Z</time>
      </trkpt>
      <trkpt lat="43.56372" lon="6.19485">
        <ele>282.2</ele>
        <time>2024-01-21T09:39:47.000Z</time>
      </trkpt>
      <trkpt lat="43.56373" lon="6.19479">
        <ele>281.5</ele>
        <time>2024-01-21T09:39:57.000Z</time>
      </trkpt>
      <trkpt lat="43.56374" lon="6.19473">
        <ele>281.1</ele>
        <time>2024-01-21T09:40:03.000Z</time>
      </trkpt>
      <trkpt lat="43.56374" lon="6.19467">
        <ele>280.6</ele>
        <time>2024-01-21T09:40:09.000Z</time>
      </trkpt>
      <trkpt lat="43.56375" lon="6.19462">
        <ele>280</ele>
        <time>2024-01-21T09:40:15.000Z</time>
      </trkpt>
      <trkpt lat="43.56377" lon="6.19457">
        <ele>279.3</ele>
        <time>2024-01-21T09:40:24.000Z</time>
      </trkpt>
      <trkpt lat="43.56377" lon="6.19452">
        <ele>279.1</ele>
        <time>2024-01-21T09:40:29.000Z</time>
      </trkpt>
      <trkpt lat="43.56377" lon="6.19451">
        <ele>279.1</ele>
        <time>2024-01-21T09:40:30.000Z</time>
      </trkpt>
      <trkpt lat="43.5638" lon="6.19442">
        <ele>278.8</ele>
        <time>2024-01-21T09:40:37.000Z</time>
      </trkpt>
      <trkpt lat="43.5638" lon="6.19438">
        <ele>278.8</ele>
        <time>2024-01-21T09:40:40.000Z</time>
      </trkpt>
      <trkpt lat="43.56381" lon="6.19433">
        <ele>278.7</ele>
        <time>2024-01-21T09:40:43.000Z</time>
      </trkpt>
      <trkpt lat="43.56381" lon="6.19427">
        <ele>278.5</ele>
        <time>2024-01-21T09:40:47.000Z</time>
      </trkpt>
      <trkpt lat="43.56379" lon="6.19422">
        <ele>278.4</ele>
        <time>2024-01-21T09:40:51.000Z</time>
      </trkpt>
      <trkpt lat="43.56379" lon="6.19417">
        <ele>278.3</ele>
        <time>2024-01-21T09:40:55.000Z</time>
      </trkpt>
      <trkpt lat="43.56378" lon="6.19411">
        <ele>278.2</ele>
        <time>2024-01-21T09:41:00.000Z</time>
      </trkpt>
      <trkpt lat="43.56377" lon="6.19406">
        <ele>278.1</ele>
        <time>2024-01-21T09:41:05.000Z</time>
      </trkpt>
      <trkpt lat="43.56374" lon="6.19402">
        <ele>278</ele>
        <time>2024-01-21T09:41:13.000Z</time>
      </trkpt>
      <trkpt lat="43.56377" lon="6.19398">
        <ele>277.1</ele>
        <time>2024-01-21T09:41:44.000Z</time>
      </trkpt>
      <trkpt lat="43.56378" lon="6.19397">
        <ele>277.1</ele>
        <time>2024-01-21T09:41:45.000Z</time>
      </trkpt>
      <trkpt lat="43.56369" lon="6.19396">
        <ele>276.4</ele>
        <time>2024-01-21T09:42:20.000Z</time>
      </trkpt>
      <trkpt lat="43.56368" lon="6.19391">
        <ele>276.6</ele>
        <time>2024-01-21T09:42:28.000Z</time>
      </trkpt>
      <trkpt lat="43.56368" lon="6.19385">
        <ele>276.4</ele>
        <time>2024-01-21T09:42:35.000Z</time>
      </trkpt>
      <trkpt lat="43.56368" lon="6.1938">
        <ele>276.2</ele>
        <time>2024-01-21T09:42:41.000Z</time>
      </trkpt>
      <trkpt lat="43.56367" lon="6.19375">
        <ele>276</ele>
        <time>2024-01-21T09:42:47.000Z</time>
      </trkpt>
      <trkpt lat="43.56366" lon="6.19374">
        <ele>276</ele>
        <time>2024-01-21T09:42:48.000Z</time>
      </trkpt>
      <trkpt lat="43.56365" lon="6.19364">
        <ele>275.6</ele>
        <time>2024-01-21T09:43:01.000Z</time>
      </trkpt>
      <trkpt lat="43.56363" lon="6.19359">
        <ele>275.2</ele>
        <time>2024-01-21T09:43:07.000Z</time>
      </trkpt>
      <trkpt lat="43.5636" lon="6.19355">
        <ele>274.7</ele>
        <time>2024-01-21T09:43:13.000Z</time>
      </trkpt>
      <trkpt lat="43.56356" lon="6.19352">
        <ele>274.4</ele>
        <time>2024-01-21T09:43:17.000Z</time>
      </trkpt>
      <trkpt lat="43.56352" lon="6.19351">
        <ele>273.8</ele>
        <time>2024-01-21T09:43:28.000Z</time>
      </trkpt>
      <trkpt lat="43.56356" lon="6.19352">
        <ele>273.4</ele>
        <time>2024-01-21T09:43:43.000Z</time>
      </trkpt>
      <trkpt lat="43.56361" lon="6.19353">
        <ele>273.2</ele>
        <time>2024-01-21T09:43:55.000Z</time>
      </trkpt>
      <trkpt lat="43.56361" lon="6.19353">
        <ele>273.2</ele>
        <time>2024-01-21T09:43:56.000Z</time>
      </trkpt>
      <trkpt lat="43.56361" lon="6.19346">
        <ele>272.9</ele>
        <time>2024-01-21T09:44:41.000Z</time>
      </trkpt>
      <trkpt lat="43.56358" lon="6.19342">
        <ele>272.9</ele>
        <time>2024-01-21T09:44:47.000Z</time>
      </trkpt>
      <trkpt lat="43.56355" lon="6.19339">
        <ele>273.1</ele>
        <time>2024-01-21T09:44:54.000Z</time>
      </trkpt>
      <trkpt lat="43.56353" lon="6.19333">
        <ele>273.2</ele>
        <time>2024-01-21T09:45:01.000Z</time>
      </trkpt>
      <trkpt lat="43.56353" lon="6.19333">
        <ele>273.3</ele>
        <time>2024-01-21T09:45:02.000Z</time>
      </trkpt>
      <trkpt lat="43.56349" lon="6.19324">
        <ele>273.8</ele>
        <time>2024-01-21T09:45:13.000Z</time>
      </trkpt>
      <trkpt lat="43.56346" lon="6.1932">
        <ele>274.3</ele>
        <time>2024-01-21T09:45:18.000Z</time>
      </trkpt>
      <trkpt lat="43.56344" lon="6.19314">
        <ele>274.8</ele>
        <time>2024-01-21T09:45:24.000Z</time>
      </trkpt>
      <trkpt lat="43.56343" lon="6.19308">
        <ele>275.1</ele>
        <time>2024-01-21T09:45:30.000Z</time>
      </trkpt>
      <trkpt lat="43.56342" lon="6.19302">
        <ele>275.7</ele>
        <time>2024-01-21T09:45:36.000Z</time>
      </trkpt>
      <trkpt lat="43.56341" lon="6.19298">
        <ele>276.2</ele>
        <time>2024-01-21T09:45:41.000Z</time>
      </trkpt>
      <trkpt lat="43.5634" lon="6.19293">
        <ele>276.5</ele>
        <time>2024-01-21T09:45:45.000Z</time>
      </trkpt>
      <trkpt lat="43.56339" lon="6.19288">
        <ele>276.8</ele>
        <time>2024-01-21T09:45:49.000Z</time>
      </trkpt>
      <trkpt lat="43.56337" lon="6.19282">
        <ele>277.2</ele>
        <time>2024-01-21T09:45:54.000Z</time>
      </trkpt>
      <trkpt lat="43.56335" lon="6.19277">
        <ele>277.7</ele>
        <time>2024-01-21T09:46:00.000Z</time>
      </trkpt>
      <trkpt lat="43.56333" lon="6.19272">
        <ele>277.9</ele>
        <time>2024-01-21T09:46:05.000Z</time>
      </trkpt>
      <trkpt lat="43.56333" lon="6.19271">
        <ele>278</ele>
        <time>2024-01-21T09:46:06.000Z</time>
      </trkpt>
      <trkpt lat="43.56331" lon="6.19261">
        <ele>278.3</ele>
        <time>2024-01-21T09:46:15.000Z</time>
      </trkpt>
      <trkpt lat="43.56329" lon="6.19256">
        <ele>278.6</ele>
        <time>2024-01-21T09:46:20.000Z</time>
      </trkpt>
      <trkpt lat="43.56327" lon="6.19252">
        <ele>278.7</ele>
        <time>2024-01-21T09:46:24.000Z</time>
      </trkpt>
      <trkpt lat="43.56323" lon="6.19248">
        <ele>279</ele>
        <time>2024-01-21T09:46:32.000Z</time>
      </trkpt>
      <trkpt lat="43.56319" lon="6.19248">
        <ele>279.3</ele>
        <time>2024-01-21T09:46:37.000Z</time>
      </trkpt>
      <trkpt lat="43.56315" lon="6.19247">
        <ele>279.7</ele>
        <time>2024-01-21T09:46:42.000Z</time>
      </trkpt>
      <trkpt lat="43.56311" lon="6.19247">
        <ele>280.1</ele>
        <time>2024-01-21T09:46:47.000Z</time>
      </trkpt>
      <trkpt lat="43.56307" lon="6.19247">
        <ele>280.6</ele>
        <time>2024-01-21T09:46:51.000Z</time>
      </trkpt>
      <trkpt lat="43.56303" lon="6.19243">
        <ele>281.5</ele>
        <time>2024-01-21T09:46:59.000Z</time>
      </trkpt>
      <trkpt lat="43.56301" lon="6.19238">
        <ele>282.8</ele>
        <time>2024-01-21T09:47:12.000Z</time>
      </trkpt>
      <trkpt lat="43.563" lon="6.19238">
        <ele>282.8</ele>
        <time>2024-01-21T09:47:13.000Z</time>
      </trkpt>
      <trkpt lat="43.56294" lon="6.19231">
        <ele>286</ele>
        <time>2024-01-21T09:47:48.000Z</time>
      </trkpt>
      <trkpt lat="43.5629" lon="6.19233">
        <ele>287</ele>
        <time>2024-01-21T09:47:56.000Z</time>
      </trkpt>
      <trkpt lat="43.56286" lon="6.19235">
        <ele>288.1</ele>
        <time>2024-01-21T09:48:09.000Z</time>
      </trkpt>
      <trkpt lat="43.5629" lon="6.19239">
        <ele>289.7</ele>
        <time>2024-01-21T09:49:16.000Z</time>
      </trkpt>
      <trkpt lat="43.5629" lon="6.19238">
        <ele>289.6</ele>
        <time>2024-01-21T09:49:17.000Z</time>
      </trkpt>
      <trkpt lat="43.56296" lon="6.1923">
        <ele>286.7</ele>
        <time>2024-01-21T09:50:38.000Z</time>
      </trkpt>
      <trkpt lat="43.56296" lon="6.1923">
        <ele>286.6</ele>
        <time>2024-01-21T09:50:39.000Z</time>
      </trkpt>
      <trkpt lat="43.56297" lon="6.19219">
        <ele>286.5</ele>
        <time>2024-01-21T09:50:54.000Z</time>
      </trkpt>
      <trkpt lat="43.56298" lon="6.19213">
        <ele>286.4</ele>
        <time>2024-01-21T09:51:00.000Z</time>
      </trkpt>
      <trkpt lat="43.56296" lon="6.19207">
        <ele>286.4</ele>
        <time>2024-01-21T09:51:08.000Z</time>
      </trkpt>
      <trkpt lat="43.56294" lon="6.19202">
        <ele>286.3</ele>
        <time>2024-01-21T09:51:13.000Z</time>
      </trkpt>
      <trkpt lat="43.56293" lon="6.19197">
        <ele>286.3</ele>
        <time>2024-01-21T09:51:19.000Z</time>
      </trkpt>
      <trkpt lat="43.56292" lon="6.19191">
        <ele>286.2</ele>
        <time>2024-01-21T09:51:25.000Z</time>
      </trkpt>
      <trkpt lat="43.56292" lon="6.19185">
        <ele>285.9</ele>
        <time>2024-01-21T09:51:42.000Z</time>
      </trkpt>
      <trkpt lat="43.56293" lon="6.19185">
        <ele>285.9</ele>
        <time>2024-01-21T09:51:43.000Z</time>
      </trkpt>
      <trkpt lat="43.5629" lon="6.19186">
        <ele>285.2</ele>
        <time>2024-01-21T09:53:04.000Z</time>
      </trkpt>
      <trkpt lat="43.5629" lon="6.19186">
        <ele>285.2</ele>
        <time>2024-01-21T09:53:05.000Z</time>
      </trkpt>
      <trkpt lat="43.56286" lon="6.19184">
        <ele>284.9</ele>
        <time>2024-01-21T09:55:20.000Z</time>
      </trkpt>
      <trkpt lat="43.56286" lon="6.19184">
        <ele>284.9</ele>
        <time>2024-01-21T09:55:21.000Z</time>
      </trkpt>
      <trkpt lat="43.5629" lon="6.19187">
        <ele>285.1</ele>
        <time>2024-01-21T09:56:28.000Z</time>
      </trkpt>
      <trkpt lat="43.56293" lon="6.1918">
        <ele>285</ele>
        <time>2024-01-21T09:57:12.000Z</time>
      </trkpt>
      <trkpt lat="43.5629" lon="6.19176">
        <ele>285</ele>
        <time>2024-01-21T09:57:18.000Z</time>
      </trkpt>
      <trkpt lat="43.56286" lon="6.19173">
        <ele>285</ele>
        <time>2024-01-21T09:57:28.000Z</time>
      </trkpt>
      <trkpt lat="43.56283" lon="6.19169">
        <ele>285</ele>
        <time>2024-01-21T09:57:38.000Z</time>
      </trkpt>
      <trkpt lat="43.56282" lon="6.19168">
        <ele>285</ele>
        <time>2024-01-21T09:57:39.000Z</time>
      </trkpt>
      <trkpt lat="43.56276" lon="6.19162">
        <ele>285.4</ele>
        <time>2024-01-21T09:57:52.000Z</time>
      </trkpt>
      <trkpt lat="43.56272" lon="6.19159">
        <ele>286.3</ele>
        <time>2024-01-21T09:58:21.000Z</time>
      </trkpt>
      <trkpt lat="43.56268" lon="6.19157">
        <ele>286.2</ele>
        <time>2024-01-21T09:59:04.000Z</time>
      </trkpt>
      <trkpt lat="43.56268" lon="6.19156">
        <ele>286.1</ele>
        <time>2024-01-21T09:59:05.000Z</time>
      </trkpt>
      <trkpt lat="43.56265" lon="6.19146">
        <ele>283.6</ele>
        <time>2024-01-21T10:00:49.000Z</time>
      </trkpt>
      <trkpt lat="43.56265" lon="6.19145">
        <ele>283.6</ele>
        <time>2024-01-21T10:00:50.000Z</time>
      </trkpt>
      <trkpt lat="43.56259" lon="6.19139">
        <ele>285.2</ele>
        <time>2024-01-21T10:01:21.000Z</time>
      </trkpt>
      <trkpt lat="43.56254" lon="6.19137">
        <ele>286</ele>
        <time>2024-01-21T10:01:30.000Z</time>
      </trkpt>
      <trkpt lat="43.5625" lon="6.19138">
        <ele>287.1</ele>
        <time>2024-01-21T10:01:39.000Z</time>
      </trkpt>
      <trkpt lat="43.56247" lon="6.19133">
        <ele>290.7</ele>
        <time>2024-01-21T10:02:52.000Z</time>
      </trkpt>
      <trkpt lat="43.56247" lon="6.19133">
        <ele>290.7</ele>
        <time>2024-01-21T10:02:53.000Z</time>
      </trkpt>
      <trkpt lat="43.56243" lon="6.19123">
        <ele>289.3</ele>
        <time>2024-01-21T10:03:15.000Z</time>
      </trkpt>
      <trkpt lat="43.5624" lon="6.19119">
        <ele>289.4</ele>
        <time>2024-01-21T10:03:50.000Z</time>
      </trkpt>
      <trkpt lat="43.56239" lon="6.19113">
        <ele>288.8</ele>
        <time>2024-01-21T10:04:19.000Z</time>
      </trkpt>
      <trkpt lat="43.56239" lon="6.19112">
        <ele>288.8</ele>
        <time>2024-01-21T10:04:20.000Z</time>
      </trkpt>
      <trkpt lat="43.56239" lon="6.19102">
        <ele>288.4</ele>
        <time>2024-01-21T10:05:14.000Z</time>
      </trkpt>
      <trkpt lat="43.56236" lon="6.19097">
        <ele>291.7</ele>
        <time>2024-01-21T10:06:23.000Z</time>
      </trkpt>
      <trkpt lat="43.56236" lon="6.19097">
        <ele>291.8</ele>
        <time>2024-01-21T10:06:24.000Z</time>
      </trkpt>
      <trkpt lat="43.56233" lon="6.19087">
        <ele>292.6</ele>
        <time>2024-01-21T10:06:38.000Z</time>
      </trkpt>
      <trkpt lat="43.56232" lon="6.19082">
        <ele>293.1</ele>
        <time>2024-01-21T10:06:47.000Z</time>
      </trkpt>
      <trkpt lat="43.56233" lon="6.19076">
        <ele>293.7</ele>
        <time>2024-01-21T10:07:03.000Z</time>
      </trkpt>
      <trkpt lat="43.56231" lon="6.1907">
        <ele>294</ele>
        <time>2024-01-21T10:07:22.000Z</time>
      </trkpt>
      <trkpt lat="43.56229" lon="6.19065">
        <ele>294.9</ele>
        <time>2024-01-21T10:07:40.000Z</time>
      </trkpt>
      <trkpt lat="43.56229" lon="6.19065">
        <ele>294.9</ele>
        <time>2024-01-21T10:07:41.000Z</time>
      </trkpt>
      <trkpt lat="43.56231" lon="6.19054">
        <ele>295.3</ele>
        <time>2024-01-21T10:08:11.000Z</time>
      </trkpt>
      <trkpt lat="43.56232" lon="6.19048">
        <ele>295.3</ele>
        <time>2024-01-21T10:08:16.000Z</time>
      </trkpt>
      <trkpt lat="43.56231" lon="6.19042">
        <ele>294.3</ele>
        <time>2024-01-21T10:08:38.000Z</time>
      </trkpt>
      <trkpt lat="43.56229" lon="6.19037">
        <ele>294.5</ele>
        <time>2024-01-21T10:09:08.000Z</time>
      </trkpt>
      <trkpt lat="43.56229" lon="6.19037">
        <ele>294.5</ele>
        <time>2024-01-21T10:09:09.000Z</time>
      </trkpt>
      <trkpt lat="43.56229" lon="6.1904">
        <ele>294.4</ele>
        <time>2024-01-21T10:11:03.000Z</time>
      </trkpt>
      <trkpt lat="43.56229" lon="6.1904">
        <ele>294.4</ele>
        <time>2024-01-21T10:11:04.000Z</time>
      </trkpt>
      <trkpt lat="43.56237" lon="6.19042">
        <ele>294.4</ele>
        <time>2024-01-21T10:11:44.000Z</time>
      </trkpt>
      <trkpt lat="43.56233" lon="6.19039">
        <ele>294.4</ele>
        <time>2024-01-21T10:12:04.000Z</time>
      </trkpt>
      <trkpt lat="43.56233" lon="6.19038">
        <ele>294.4</ele>
        <time>2024-01-21T10:12:05.000Z</time>
      </trkpt>
      <trkpt lat="43.56236" lon="6.19034">
        <ele>294.6</ele>
        <time>2024-01-21T10:14:19.000Z</time>
      </trkpt>
      <trkpt lat="43.56236" lon="6.19033">
        <ele>294.6</ele>
        <time>2024-01-21T10:14:20.000Z</time>
      </trkpt>
      <trkpt lat="43.56238" lon="6.19024">
        <ele>296</ele>
        <time>2024-01-21T10:14:58.000Z</time>
      </trkpt>
      <trkpt lat="43.56235" lon="6.19019">
        <ele>296.8</ele>
        <time>2024-01-21T10:15:30.000Z</time>
      </trkpt>
      <trkpt lat="43.56235" lon="6.19019">
        <ele>296.8</ele>
        <time>2024-01-21T10:15:31.000Z</time>
      </trkpt>
      <trkpt lat="43.56235" lon="6.1901">
        <ele>297.4</ele>
        <time>2024-01-21T10:15:59.000Z</time>
      </trkpt>
      <trkpt lat="43.56237" lon="6.19005">
        <ele>297.8</ele>
        <time>2024-01-21T10:16:06.000Z</time>
      </trkpt>
      <trkpt lat="43.56241" lon="6.19001">
        <ele>298.3</ele>
        <time>2024-01-21T10:16:13.000Z</time>
      </trkpt>
      <trkpt lat="43.56243" lon="6.18997">
        <ele>298.5</ele>
        <time>2024-01-21T10:16:18.000Z</time>
      </trkpt>
      <trkpt lat="43.56243" lon="6.18992">
        <ele>298.7</ele>
        <time>2024-01-21T10:16:22.000Z</time>
      </trkpt>
      <trkpt lat="43.56242" lon="6.18986">
        <ele>298.8</ele>
        <time>2024-01-21T10:16:27.000Z</time>
      </trkpt>
      <trkpt lat="43.56241" lon="6.18981">
        <ele>299</ele>
        <time>2024-01-21T10:16:32.000Z</time>
      </trkpt>
      <trkpt lat="43.56241" lon="6.1898">
        <ele>299.1</ele>
        <time>2024-01-21T10:16:33.000Z</time>
      </trkpt>
      <trkpt lat="43.56239" lon="6.1897">
        <ele>299.7</ele>
        <time>2024-01-21T10:16:42.000Z</time>
      </trkpt>
      <trkpt lat="43.56236" lon="6.18966">
        <ele>300.1</ele>
        <time>2024-01-21T10:16:47.000Z</time>
      </trkpt>
      <trkpt lat="43.56235" lon="6.1896">
        <ele>300.8</ele>
        <time>2024-01-21T10:16:55.000Z</time>
      </trkpt>
      <trkpt lat="43.56237" lon="6.18955">
        <ele>302</ele>
        <time>2024-01-21T10:17:13.000Z</time>
      </trkpt>
      <trkpt lat="43.56235" lon="6.1895">
        <ele>302.4</ele>
        <time>2024-01-21T10:17:18.000Z</time>
      </trkpt>
      <trkpt lat="43.56234" lon="6.18944">
        <ele>302.8</ele>
        <time>2024-01-21T10:17:24.000Z</time>
      </trkpt>
      <trkpt lat="43.56233" lon="6.18939">
        <ele>303</ele>
        <time>2024-01-21T10:17:29.000Z</time>
      </trkpt>
      <trkpt lat="43.56233" lon="6.18933">
        <ele>303.3</ele>
        <time>2024-01-21T10:17:35.000Z</time>
      </trkpt>
      <trkpt lat="43.56233" lon="6.18932">
        <ele>303.3</ele>
        <time>2024-01-21T10:17:36.000Z</time>
      </trkpt>
      <trkpt lat="43.56228" lon="6.18922">
        <ele>305.3</ele>
        <time>2024-01-21T10:18:02.000Z</time>
      </trkpt>
      <trkpt lat="43.56228" lon="6.18917">
        <ele>305.5</ele>
        <time>2024-01-21T10:18:10.000Z</time>
      </trkpt>
      <trkpt lat="43.56227" lon="6.18911">
        <ele>305</ele>
        <time>2024-01-21T10:18:20.000Z</time>
      </trkpt>
      <trkpt lat="43.56224" lon="6.18906">
        <ele>303.9</ele>
        <time>2024-01-21T10:19:07.000Z</time>
      </trkpt>
      <trkpt lat="43.56224" lon="6.18906">
        <ele>303.9</ele>
        <time>2024-01-21T10:19:08.000Z</time>
      </trkpt>
      <trkpt lat="43.56216" lon="6.18905">
        <ele>303.7</ele>
        <time>2024-01-21T10:19:33.000Z</time>
      </trkpt>
      <trkpt lat="43.56216" lon="6.18912">
        <ele>303.9</ele>
        <time>2024-01-21T10:20:02.000Z</time>
      </trkpt>
      <trkpt lat="43.56215" lon="6.18917">
        <ele>305.8</ele>
        <time>2024-01-21T10:20:49.000Z</time>
      </trkpt>
      <trkpt lat="43.56215" lon="6.18918">
        <ele>305.8</ele>
        <time>2024-01-21T10:20:50.000Z</time>
      </trkpt>
      <trkpt lat="43.56211" lon="6.18924">
        <ele>307.8</ele>
        <time>2024-01-21T10:21:57.000Z</time>
      </trkpt>
      <trkpt lat="43.56211" lon="6.18924">
        <ele>307.9</ele>
        <time>2024-01-21T10:21:58.000Z</time>
      </trkpt>
      <trkpt lat="43.56208" lon="6.18927">
        <ele>308.7</ele>
        <time>2024-01-21T10:23:47.000Z</time>
      </trkpt>
      <trkpt lat="43.56208" lon="6.18927">
        <ele>308.7</ele>
        <time>2024-01-21T10:23:48.000Z</time>
      </trkpt>
      <trkpt lat="43.56201" lon="6.18924">
        <ele>312.3</ele>
        <time>2024-01-21T10:24:42.000Z</time>
      </trkpt>
      <trkpt lat="43.56199" lon="6.18918">
        <ele>313.8</ele>
        <time>2024-01-21T10:24:55.000Z</time>
      </trkpt>
      <trkpt lat="43.56199" lon="6.18918">
        <ele>313.9</ele>
        <time>2024-01-21T10:24:56.000Z</time>
      </trkpt>
      <trkpt lat="43.56196" lon="6.18907">
        <ele>317.6</ele>
        <time>2024-01-21T10:25:25.000Z</time>
      </trkpt>
      <trkpt lat="43.56194" lon="6.18902">
        <ele>319.2</ele>
        <time>2024-01-21T10:25:40.000Z</time>
      </trkpt>
      <trkpt lat="43.5619" lon="6.189">
        <ele>321.4</ele>
        <time>2024-01-21T10:26:01.000Z</time>
      </trkpt>
      <trkpt lat="43.5619" lon="6.189">
        <ele>321.5</ele>
        <time>2024-01-21T10:26:02.000Z</time>
      </trkpt>
      <trkpt lat="43.56182" lon="6.18897">
        <ele>324.4</ele>
        <time>2024-01-21T10:26:35.000Z</time>
      </trkpt>
      <trkpt lat="43.56178" lon="6.18898">
        <ele>325.3</ele>
        <time>2024-01-21T10:26:45.000Z</time>
      </trkpt>
      <trkpt lat="43.56175" lon="6.18894">
        <ele>325.8</ele>
        <time>2024-01-21T10:26:53.000Z</time>
      </trkpt>
      <trkpt lat="43.56171" lon="6.18891">
        <ele>326.3</ele>
        <time>2024-01-21T10:27:00.000Z</time>
      </trkpt>
      <trkpt lat="43.56167" lon="6.18888">
        <ele>327.1</ele>
        <time>2024-01-21T10:27:13.000Z</time>
      </trkpt>
      <trkpt lat="43.56167" lon="6.18887">
        <ele>327.2</ele>
        <time>2024-01-21T10:27:14.000Z</time>
      </trkpt>
      <trkpt lat="43.56162" lon="6.18878">
        <ele>328.5</ele>
        <time>2024-01-21T10:27:36.000Z</time>
      </trkpt>
      <trkpt lat="43.56158" lon="6.18878">
        <ele>329.4</ele>
        <time>2024-01-21T10:27:52.000Z</time>
      </trkpt>
      <trkpt lat="43.56155" lon="6.18874">
        <ele>329.8</ele>
        <time>2024-01-21T10:28:03.000Z</time>
      </trkpt>
      <trkpt lat="43.56152" lon="6.1887">
        <ele>330.7</ele>
        <time>2024-01-21T10:28:16.000Z</time>
      </trkpt>
      <trkpt lat="43.56152" lon="6.18869">
        <ele>330.7</ele>
        <time>2024-01-21T10:28:17.000Z</time>
      </trkpt>
      <trkpt lat="43.56146" lon="6.18862">
        <ele>331.5</ele>
        <time>2024-01-21T10:28:37.000Z</time>
      </trkpt>
      <trkpt lat="43.56143" lon="6.1886">
        <ele>331.9</ele>
        <time>2024-01-21T10:28:43.000Z</time>
      </trkpt>
      <trkpt lat="43.56139" lon="6.18856">
        <ele>332.8</ele>
        <time>2024-01-21T10:29:02.000Z</time>
      </trkpt>
      <trkpt lat="43.5614" lon="6.1885">
        <ele>333.1</ele>
        <time>2024-01-21T10:29:16.000Z</time>
      </trkpt>
      <trkpt lat="43.56139" lon="6.18844">
        <ele>333.3</ele>
        <time>2024-01-21T10:29:24.000Z</time>
      </trkpt>
      <trkpt lat="43.5614" lon="6.18843">
        <ele>333.4</ele>
        <time>2024-01-21T10:29:25.000Z</time>
      </trkpt>
      <trkpt lat="43.56143" lon="6.18832">
        <ele>334.4</ele>
        <time>2024-01-21T10:30:08.000Z</time>
      </trkpt>
      <trkpt lat="43.56145" lon="6.18829">
        <ele>334.4</ele>
        <time>2024-01-21T10:30:13.000Z</time>
      </trkpt>
      <trkpt lat="43.56149" lon="6.18824">
        <ele>334.4</ele>
        <time>2024-01-21T10:30:20.000Z</time>
      </trkpt>
      <trkpt lat="43.56152" lon="6.1882">
        <ele>333.6</ele>
        <time>2024-01-21T10:30:35.000Z</time>
      </trkpt>
      <trkpt lat="43.56152" lon="6.18821">
        <ele>333.5</ele>
        <time>2024-01-21T10:30:36.000Z</time>
      </trkpt>
      <trkpt lat="43.56156" lon="6.18818">
        <ele>331.4</ele>
        <time>2024-01-21T10:31:54.000Z</time>
      </trkpt>
      <trkpt lat="43.56163" lon="6.18821">
        <ele>330.6</ele>
        <time>2024-01-21T10:32:12.000Z</time>
      </trkpt>
      <trkpt lat="43.56167" lon="6.18822">
        <ele>330.5</ele>
        <time>2024-01-21T10:32:16.000Z</time>
      </trkpt>
      <trkpt lat="43.56171" lon="6.18819">
        <ele>330.4</ele>
        <time>2024-01-21T10:32:21.000Z</time>
      </trkpt>
      <trkpt lat="43.56173" lon="6.18815">
        <ele>330.3</ele>
        <time>2024-01-21T10:32:25.000Z</time>
      </trkpt>
      <trkpt lat="43.56176" lon="6.18812">
        <ele>330.3</ele>
        <time>2024-01-21T10:32:30.000Z</time>
      </trkpt>
      <trkpt lat="43.56179" lon="6.18808">
        <ele>330.2</ele>
        <time>2024-01-21T10:32:35.000Z</time>
      </trkpt>
      <trkpt lat="43.56182" lon="6.18804">
        <ele>330.2</ele>
        <time>2024-01-21T10:32:41.000Z</time>
      </trkpt>
      <trkpt lat="43.56186" lon="6.18806">
        <ele>330.2</ele>
        <time>2024-01-21T10:32:47.000Z</time>
      </trkpt>
      <trkpt lat="43.56185" lon="6.188">
        <ele>330</ele>
        <time>2024-01-21T10:34:06.000Z</time>
      </trkpt>
      <trkpt lat="43.56185" lon="6.188">
        <ele>330</ele>
        <time>2024-01-21T10:34:07.000Z</time>
      </trkpt>
      <trkpt lat="43.56189" lon="6.18797">
        <ele>329.8</ele>
        <time>2024-01-21T10:35:49.000Z</time>
      </trkpt>
      <trkpt lat="43.5619" lon="6.18796">
        <ele>329.8</ele>
        <time>2024-01-21T10:35:50.000Z</time>
      </trkpt>
      <trkpt lat="43.56189" lon="6.18786">
        <ele>330.7</ele>
        <time>2024-01-21T10:36:51.000Z</time>
      </trkpt>
      <trkpt lat="43.56189" lon="6.18785">
        <ele>330.7</ele>
        <time>2024-01-21T10:36:52.000Z</time>
      </trkpt>
      <trkpt lat="43.5619" lon="6.18775">
        <ele>330.6</ele>
        <time>2024-01-21T10:37:14.000Z</time>
      </trkpt>
      <trkpt lat="43.56189" lon="6.18769">
        <ele>330.8</ele>
        <time>2024-01-21T10:37:32.000Z</time>
      </trkpt>
      <trkpt lat="43.56187" lon="6.18763">
        <ele>331.6</ele>
        <time>2024-01-21T10:37:51.000Z</time>
      </trkpt>
      <trkpt lat="43.5619" lon="6.1876">
        <ele>331.8</ele>
        <time>2024-01-21T10:37:56.000Z</time>
      </trkpt>
      <trkpt lat="43.56191" lon="6.18759">
        <ele>331.9</ele>
        <time>2024-01-21T10:37:57.000Z</time>
      </trkpt>
      <trkpt lat="43.56197" lon="6.18752">
        <ele>332.9</ele>
        <time>2024-01-21T10:38:14.000Z</time>
      </trkpt>
      <trkpt lat="43.56199" lon="6.18747">
        <ele>333.2</ele>
        <time>2024-01-21T10:38:21.000Z</time>
      </trkpt>
      <trkpt lat="43.56201" lon="6.18741">
        <ele>333.3</ele>
        <time>2024-01-21T10:38:28.000Z</time>
      </trkpt>
      <trkpt lat="43.56201" lon="6.18736">
        <ele>333.4</ele>
        <time>2024-01-21T10:38:34.000Z</time>
      </trkpt>
      <trkpt lat="43.56201" lon="6.1873">
        <ele>333.5</ele>
        <time>2024-01-21T10:38:40.000Z</time>
      </trkpt>
      <trkpt lat="43.562" lon="6.18725">
        <ele>333.6</ele>
        <time>2024-01-21T10:38:45.000Z</time>
      </trkpt>
      <trkpt lat="43.56199" lon="6.1872">
        <ele>334</ele>
        <time>2024-01-21T10:38:51.000Z</time>
      </trkpt>
      <trkpt lat="43.56198" lon="6.18714">
        <ele>334.6</ele>
        <time>2024-01-21T10:38:58.000Z</time>
      </trkpt>
      <trkpt lat="43.56198" lon="6.18713">
        <ele>334.7</ele>
        <time>2024-01-21T10:38:59.000Z</time>
      </trkpt>
      <trkpt lat="43.56197" lon="6.18702">
        <ele>336.2</ele>
        <time>2024-01-21T10:39:14.000Z</time>
      </trkpt>
      <trkpt lat="43.562" lon="6.18698">
        <ele>337.3</ele>
        <time>2024-01-21T10:39:23.000Z</time>
      </trkpt>
      <trkpt lat="43.56199" lon="6.18692">
        <ele>341</ele>
        <time>2024-01-21T10:40:28.000Z</time>
      </trkpt>
      <trkpt lat="43.56199" lon="6.18691">
        <ele>341</ele>
        <time>2024-01-21T10:40:29.000Z</time>
      </trkpt>
      <trkpt lat="43.562" lon="6.1868">
        <ele>341.8</ele>
        <time>2024-01-21T10:40:43.000Z</time>
      </trkpt>
      <trkpt lat="43.56199" lon="6.18675">
        <ele>342.3</ele>
        <time>2024-01-21T10:40:49.000Z</time>
      </trkpt>
      <trkpt lat="43.56199" lon="6.18669">
        <ele>343.2</ele>
        <time>2024-01-21T10:40:57.000Z</time>
      </trkpt>
      <trkpt lat="43.562" lon="6.18663">
        <ele>344.2</ele>
        <time>2024-01-21T10:41:05.000Z</time>
      </trkpt>
      <trkpt lat="43.56197" lon="6.18658">
        <ele>345.4</ele>
        <time>2024-01-21T10:41:17.000Z</time>
      </trkpt>
      <trkpt lat="43.56195" lon="6.18653">
        <ele>346.7</ele>
        <time>2024-01-21T10:41:37.000Z</time>
      </trkpt>
      <trkpt lat="43.56195" lon="6.18652">
        <ele>346.8</ele>
        <time>2024-01-21T10:41:38.000Z</time>
      </trkpt>
      <trkpt lat="43.56198" lon="6.18643">
        <ele>347</ele>
        <time>2024-01-21T10:41:48.000Z</time>
      </trkpt>
      <trkpt lat="43.562" lon="6.18638">
        <ele>347.1</ele>
        <time>2024-01-21T10:41:52.000Z</time>
      </trkpt>
      <trkpt lat="43.56202" lon="6.18632">
        <ele>347.2</ele>
        <time>2024-01-21T10:41:56.000Z</time>
      </trkpt>
      <trkpt lat="43.56204" lon="6.18628">
        <ele>347.2</ele>
        <time>2024-01-21T10:41:59.000Z</time>
      </trkpt>
      <trkpt lat="43.56206" lon="6.18622">
        <ele>347.2</ele>
        <time>2024-01-21T10:42:03.000Z</time>
      </trkpt>
      <trkpt lat="43.56207" lon="6.18616">
        <ele>347.1</ele>
        <time>2024-01-21T10:42:08.000Z</time>
      </trkpt>
      <trkpt lat="43.56209" lon="6.18611">
        <ele>347</ele>
        <time>2024-01-21T10:42:12.000Z</time>
      </trkpt>
      <trkpt lat="43.56211" lon="6.18606">
        <ele>346.9</ele>
        <time>2024-01-21T10:42:16.000Z</time>
      </trkpt>
      <trkpt lat="43.56213" lon="6.18602">
        <ele>346.6</ele>
        <time>2024-01-21T10:42:20.000Z</time>
      </trkpt>
      <trkpt lat="43.56215" lon="6.18597">
        <ele>346.3</ele>
        <time>2024-01-21T10:42:24.000Z</time>
      </trkpt>
      <trkpt lat="43.56218" lon="6.18592">
        <ele>346.1</ele>
        <time>2024-01-21T10:42:29.000Z</time>
      </trkpt>
      <trkpt lat="43.56221" lon="6.18587">
        <ele>345.9</ele>
        <time>2024-01-21T10:42:35.000Z</time>
      </trkpt>
      <trkpt lat="43.56223" lon="6.18583">
        <ele>345.7</ele>
        <time>2024-01-21T10:42:41.000Z</time>
      </trkpt>
      <trkpt lat="43.56223" lon="6.18581">
        <ele>345.6</ele>
        <time>2024-01-21T10:42:42.000Z</time>
      </trkpt>
      <trkpt lat="43.56227" lon="6.18574">
        <ele>345.3</ele>
        <time>2024-01-21T10:42:49.000Z</time>
      </trkpt>
      <trkpt lat="43.56228" lon="6.18569">
        <ele>345.1</ele>
        <time>2024-01-21T10:42:53.000Z</time>
      </trkpt>
      <trkpt lat="43.5623" lon="6.18563">
        <ele>344.9</ele>
        <time>2024-01-21T10:42:57.000Z</time>
      </trkpt>
      <trkpt lat="43.56232" lon="6.18559">
        <ele>344.8</ele>
        <time>2024-01-21T10:43:00.000Z</time>
      </trkpt>
      <trkpt lat="43.56234" lon="6.18553">
        <ele>344.6</ele>
        <time>2024-01-21T10:43:04.000Z</time>
      </trkpt>
      <trkpt lat="43.56235" lon="6.18548">
        <ele>344.4</ele>
        <time>2024-01-21T10:43:08.000Z</time>
      </trkpt>
      <trkpt lat="43.56235" lon="6.18542">
        <ele>344.3</ele>
        <time>2024-01-21T10:43:12.000Z</time>
      </trkpt>
      <trkpt lat="43.56234" lon="6.18537">
        <ele>344.2</ele>
        <time>2024-01-21T10:43:16.000Z</time>
      </trkpt>
      <trkpt lat="43.56234" lon="6.18532">
        <ele>344.1</ele>
        <time>2024-01-21T10:43:21.000Z</time>
      </trkpt>
      <trkpt lat="43.56235" lon="6.18527">
        <ele>344.1</ele>
        <time>2024-01-21T10:43:27.000Z</time>
      </trkpt>
      <trkpt lat="43.56237" lon="6.18521">
        <ele>344</ele>
        <time>2024-01-21T10:43:37.000Z</time>
      </trkpt>
      <trkpt lat="43.5624" lon="6.18518">
        <ele>344</ele>
        <time>2024-01-21T10:43:43.000Z</time>
      </trkpt>
      <trkpt lat="43.56241" lon="6.18517">
        <ele>344</ele>
        <time>2024-01-21T10:43:44.000Z</time>
      </trkpt>
      <trkpt lat="43.56245" lon="6.18509">
        <ele>344</ele>
        <time>2024-01-21T10:43:53.000Z</time>
      </trkpt>
      <trkpt lat="43.56247" lon="6.18504">
        <ele>344</ele>
        <time>2024-01-21T10:43:57.000Z</time>
      </trkpt>
      <trkpt lat="43.56249" lon="6.18501">
        <ele>344</ele>
        <time>2024-01-21T10:43:59.000Z</time>
      </trkpt>
      <trkpt lat="43.5625" lon="6.18496">
        <ele>344</ele>
        <time>2024-01-21T10:44:02.000Z</time>
      </trkpt>
      <trkpt lat="43.56252" lon="6.18491">
        <ele>344.1</ele>
        <time>2024-01-21T10:44:05.000Z</time>
      </trkpt>
      <trkpt lat="43.56253" lon="6.18485">
        <ele>344.2</ele>
        <time>2024-01-21T10:44:08.000Z</time>
      </trkpt>
      <trkpt lat="43.56253" lon="6.1848">
        <ele>344.3</ele>
        <time>2024-01-21T10:44:11.000Z</time>
      </trkpt>
      <trkpt lat="43.56255" lon="6.18475">
        <ele>344.4</ele>
        <time>2024-01-21T10:44:15.000Z</time>
      </trkpt>
      <trkpt lat="43.56257" lon="6.1847">
        <ele>344.6</ele>
        <time>2024-01-21T10:44:19.000Z</time>
      </trkpt>
      <trkpt lat="43.56258" lon="6.18465">
        <ele>344.8</ele>
        <time>2024-01-21T10:44:23.000Z</time>
      </trkpt>
      <trkpt lat="43.56259" lon="6.18459">
        <ele>345.3</ele>
        <time>2024-01-21T10:44:34.000Z</time>
      </trkpt>
      <trkpt lat="43.56258" lon="6.18453">
        <ele>345.8</ele>
        <time>2024-01-21T10:44:44.000Z</time>
      </trkpt>
      <trkpt lat="43.56259" lon="6.18453">
        <ele>345.9</ele>
        <time>2024-01-21T10:44:45.000Z</time>
      </trkpt>
      <trkpt lat="43.56266" lon="6.18449">
        <ele>346.5</ele>
        <time>2024-01-21T10:45:35.000Z</time>
      </trkpt>
      <trkpt lat="43.56268" lon="6.18444">
        <ele>346.1</ele>
        <time>2024-01-21T10:45:45.000Z</time>
      </trkpt>
      <trkpt lat="43.56268" lon="6.18444">
        <ele>346</ele>
        <time>2024-01-21T10:45:46.000Z</time>
      </trkpt>
      <trkpt lat="43.56275" lon="6.18446">
        <ele>344.7</ele>
        <time>2024-01-21T10:46:11.000Z</time>
      </trkpt>
      <trkpt lat="43.56275" lon="6.18452">
        <ele>344.1</ele>
        <time>2024-01-21T10:46:19.000Z</time>
      </trkpt>
      <trkpt lat="43.56273" lon="6.18457">
        <ele>342.6</ele>
        <time>2024-01-21T10:46:31.000Z</time>
      </trkpt>
      <trkpt lat="43.56275" lon="6.18463">
        <ele>341</ele>
        <time>2024-01-21T10:46:43.000Z</time>
      </trkpt>
      <trkpt lat="43.56279" lon="6.18461">
        <ele>339.8</ele>
        <time>2024-01-21T10:46:50.000Z</time>
      </trkpt>
      <trkpt lat="43.5628" lon="6.18461">
        <ele>339.6</ele>
        <time>2024-01-21T10:46:51.000Z</time>
      </trkpt>
      <trkpt lat="43.56286" lon="6.18464">
        <ele>336.1</ele>
        <time>2024-01-21T10:47:14.000Z</time>
      </trkpt>
      <trkpt lat="43.56289" lon="6.18469">
        <ele>333</ele>
        <time>2024-01-21T10:47:37.000Z</time>
      </trkpt>
      <trkpt lat="43.56293" lon="6.18472">
        <ele>330.6</ele>
        <time>2024-01-21T10:47:58.000Z</time>
      </trkpt>
      <trkpt lat="43.56293" lon="6.18472">
        <ele>330.5</ele>
        <time>2024-01-21T10:47:59.000Z</time>
      </trkpt>
      <trkpt lat="43.56299" lon="6.18476">
        <ele>327.8</ele>
        <time>2024-01-21T10:48:27.000Z</time>
      </trkpt>
      <trkpt lat="43.56303" lon="6.18476">
        <ele>326</ele>
        <time>2024-01-21T10:49:04.000Z</time>
      </trkpt>
      <trkpt lat="43.56304" lon="6.18475">
        <ele>326.1</ele>
        <time>2024-01-21T10:49:05.000Z</time>
      </trkpt>
      <trkpt lat="43.56299" lon="6.18473">
        <ele>327.1</ele>
        <time>2024-01-21T10:50:14.000Z</time>
      </trkpt>
      <trkpt lat="43.56306" lon="6.1848">
        <ele>326.1</ele>
        <time>2024-01-21T10:51:05.000Z</time>
      </trkpt>
      <trkpt lat="43.5631" lon="6.18481">
        <ele>325.9</ele>
        <time>2024-01-21T10:51:17.000Z</time>
      </trkpt>
      <trkpt lat="43.5631" lon="6.1848">
        <ele>325.9</ele>
        <time>2024-01-21T10:51:18.000Z</time>
      </trkpt>
      <trkpt lat="43.56305" lon="6.18479">
        <ele>325.8</ele>
        <time>2024-01-21T10:52:29.000Z</time>
      </trkpt>
      <trkpt lat="43.56297" lon="6.18482">
        <ele>326.1</ele>
        <time>2024-01-21T10:52:48.000Z</time>
      </trkpt>
      <trkpt lat="43.56296" lon="6.18488">
        <ele>326.2</ele>
        <time>2024-01-21T10:53:29.000Z</time>
      </trkpt>
      <trkpt lat="43.56295" lon="6.18489">
        <ele>326.2</ele>
        <time>2024-01-21T10:53:30.000Z</time>
      </trkpt>
      <trkpt lat="43.56292" lon="6.18496">
        <ele>326.2</ele>
        <time>2024-01-21T10:53:37.000Z</time>
      </trkpt>
      <trkpt lat="43.56291" lon="6.18502">
        <ele>326.2</ele>
        <time>2024-01-21T10:53:42.000Z</time>
      </trkpt>
      <trkpt lat="43.5629" lon="6.18507">
        <ele>326.1</ele>
        <time>2024-01-21T10:53:47.000Z</time>
      </trkpt>
      <trkpt lat="43.56287" lon="6.18512">
        <ele>326</ele>
        <time>2024-01-21T10:53:54.000Z</time>
      </trkpt>
      <trkpt lat="43.56286" lon="6.18517">
        <ele>325.8</ele>
        <time>2024-01-21T10:54:00.000Z</time>
      </trkpt>
      <trkpt lat="43.56283" lon="6.18521">
        <ele>325.5</ele>
        <time>2024-01-21T10:54:07.000Z</time>
      </trkpt>
      <trkpt lat="43.56282" lon="6.18527">
        <ele>325.3</ele>
        <time>2024-01-21T10:54:13.000Z</time>
      </trkpt>
      <trkpt lat="43.5628" lon="6.18532">
        <ele>324.9</ele>
        <time>2024-01-21T10:54:22.000Z</time>
      </trkpt>
      <trkpt lat="43.56277" lon="6.18536">
        <ele>324.8</ele>
        <time>2024-01-21T10:54:36.000Z</time>
      </trkpt>
      <trkpt lat="43.56276" lon="6.18537">
        <ele>324.8</ele>
        <time>2024-01-21T10:54:37.000Z</time>
      </trkpt>
      <trkpt lat="43.56278" lon="6.18542">
        <ele>324.4</ele>
        <time>2024-01-21T10:55:39.000Z</time>
      </trkpt>
      <trkpt lat="43.56282" lon="6.1855">
        <ele>322.9</ele>
        <time>2024-01-21T10:56:34.000Z</time>
      </trkpt>
      <trkpt lat="43.56286" lon="6.18549">
        <ele>322.8</ele>
        <time>2024-01-21T10:56:38.000Z</time>
      </trkpt>
      <trkpt lat="43.56285" lon="6.18543">
        <ele>322.4</ele>
        <time>2024-01-21T10:57:10.000Z</time>
      </trkpt>
      <trkpt lat="43.56284" lon="6.18543">
        <ele>322.4</ele>
        <time>2024-01-21T10:57:11.000Z</time>
      </trkpt>
      <trkpt lat="43.56288" lon="6.18549">
        <ele>322</ele>
        <time>2024-01-21T10:58:20.000Z</time>
      </trkpt>
      <trkpt lat="43.56287" lon="6.18549">
        <ele>322</ele>
        <time>2024-01-21T10:58:21.000Z</time>
      </trkpt>
      <trkpt lat="43.56284" lon="6.18545">
        <ele>322.2</ele>
        <time>2024-01-21T10:59:12.000Z</time>
      </trkpt>
      <trkpt lat="43.56284" lon="6.18539">
        <ele>324.3</ele>
        <time>2024-01-21T11:02:41.000Z</time>
      </trkpt>
      <trkpt lat="43.56284" lon="6.18538">
        <ele>324.3</ele>
        <time>2024-01-21T11:02:42.000Z</time>
      </trkpt>
      <trkpt lat="43.56286" lon="6.18528">
        <ele>324.9</ele>
        <time>2024-01-21T11:03:07.000Z</time>
      </trkpt>
      <trkpt lat="43.56289" lon="6.18523">
        <ele>325.3</ele>
        <time>2024-01-21T11:03:18.000Z</time>
      </trkpt>
      <trkpt lat="43.56291" lon="6.18518">
        <ele>325.5</ele>
        <time>2024-01-21T11:03:26.000Z</time>
      </trkpt>
      <trkpt lat="43.56292" lon="6.18512">
        <ele>325.6</ele>
        <time>2024-01-21T11:03:37.000Z</time>
      </trkpt>
      <trkpt lat="43.56294" lon="6.18508">
        <ele>325.8</ele>
        <time>2024-01-21T11:03:46.000Z</time>
      </trkpt>
      <trkpt lat="43.56294" lon="6.18506">
        <ele>325.8</ele>
        <time>2024-01-21T11:03:47.000Z</time>
      </trkpt>
      <trkpt lat="43.56296" lon="6.18498">
        <ele>325.9</ele>
        <time>2024-01-21T11:03:57.000Z</time>
      </trkpt>
      <trkpt lat="43.56295" lon="6.18493">
        <ele>326.1</ele>
        <time>2024-01-21T11:04:01.000Z</time>
      </trkpt>
      <trkpt lat="43.56295" lon="6.18487">
        <ele>326.4</ele>
        <time>2024-01-21T11:04:06.000Z</time>
      </trkpt>
      <trkpt lat="43.56295" lon="6.18481">
        <ele>327.1</ele>
        <time>2024-01-21T11:04:15.000Z</time>
      </trkpt>
      <trkpt lat="43.56295" lon="6.18475">
        <ele>327.9</ele>
        <time>2024-01-21T11:04:22.000Z</time>
      </trkpt>
      <trkpt lat="43.56295" lon="6.18469">
        <ele>328.7</ele>
        <time>2024-01-21T11:04:30.000Z</time>
      </trkpt>
      <trkpt lat="43.56295" lon="6.18463">
        <ele>329.6</ele>
        <time>2024-01-21T11:04:37.000Z</time>
      </trkpt>
      <trkpt lat="43.56297" lon="6.18458">
        <ele>330.1</ele>
        <time>2024-01-21T11:04:42.000Z</time>
      </trkpt>
      <trkpt lat="43.56298" lon="6.18453">
        <ele>330.5</ele>
        <time>2024-01-21T11:04:47.000Z</time>
      </trkpt>
      <trkpt lat="43.56298" lon="6.18452">
        <ele>330.6</ele>
        <time>2024-01-21T11:04:48.000Z</time>
      </trkpt>
      <trkpt lat="43.56301" lon="6.18443">
        <ele>331.2</ele>
        <time>2024-01-21T11:04:57.000Z</time>
      </trkpt>
      <trkpt lat="43.56303" lon="6.18438">
        <ele>331.8</ele>
        <time>2024-01-21T11:05:04.000Z</time>
      </trkpt>
      <trkpt lat="43.56301" lon="6.18434">
        <ele>332.2</ele>
        <time>2024-01-21T11:05:13.000Z</time>
      </trkpt>
      <trkpt lat="43.56299" lon="6.18429">
        <ele>332.6</ele>
        <time>2024-01-21T11:05:19.000Z</time>
      </trkpt>
      <trkpt lat="43.56296" lon="6.18427">
        <ele>332.9</ele>
        <time>2024-01-21T11:05:25.000Z</time>
      </trkpt>
      <trkpt lat="43.56293" lon="6.18422">
        <ele>334.2</ele>
        <time>2024-01-21T11:05:38.000Z</time>
      </trkpt>
      <trkpt lat="43.5629" lon="6.18419">
        <ele>334.9</ele>
        <time>2024-01-21T11:05:45.000Z</time>
      </trkpt>
      <trkpt lat="43.56285" lon="6.1842">
        <ele>336</ele>
        <time>2024-01-21T11:05:55.000Z</time>
      </trkpt>
      <trkpt lat="43.56285" lon="6.18421">
        <ele>336.1</ele>
        <time>2024-01-21T11:05:56.000Z</time>
      </trkpt>
      <trkpt lat="43.56281" lon="6.1843">
        <ele>338.6</ele>
        <time>2024-01-21T11:06:12.000Z</time>
      </trkpt>
      <trkpt lat="43.56277" lon="6.18429">
        <ele>340.7</ele>
        <time>2024-01-21T11:06:23.000Z</time>
      </trkpt>
      <trkpt lat="43.56274" lon="6.18433">
        <ele>342</ele>
        <time>2024-01-21T11:06:30.000Z</time>
      </trkpt>
      <trkpt lat="43.5627" lon="6.18436">
        <ele>343.3</ele>
        <time>2024-01-21T11:06:38.000Z</time>
      </trkpt>
      <trkpt lat="43.56268" lon="6.18441">
        <ele>344.3</ele>
        <time>2024-01-21T11:06:44.000Z</time>
      </trkpt>
      <trkpt lat="43.56265" lon="6.18444">
        <ele>345.4</ele>
        <time>2024-01-21T11:06:51.000Z</time>
      </trkpt>
      <trkpt lat="43.56264" lon="6.18439">
        <ele>346.6</ele>
        <time>2024-01-21T11:07:04.000Z</time>
      </trkpt>
      <trkpt lat="43.56264" lon="6.18438">
        <ele>346.7</ele>
        <time>2024-01-21T11:07:05.000Z</time>
      </trkpt>
      <trkpt lat="43.56261" lon="6.18428">
        <ele>347.8</ele>
        <time>2024-01-21T11:07:18.000Z</time>
      </trkpt>
      <trkpt lat="43.56258" lon="6.18424">
        <ele>348.1</ele>
        <time>2024-01-21T11:07:24.000Z</time>
      </trkpt>
      <trkpt lat="43.56255" lon="6.18421">
        <ele>348.3</ele>
        <time>2024-01-21T11:07:29.000Z</time>
      </trkpt>
      <trkpt lat="43.56253" lon="6.18416">
        <ele>348.6</ele>
        <time>2024-01-21T11:07:35.000Z</time>
      </trkpt>
      <trkpt lat="43.56251" lon="6.1841">
        <ele>349</ele>
        <time>2024-01-21T11:07:40.000Z</time>
      </trkpt>
      <trkpt lat="43.56249" lon="6.18406">
        <ele>349.2</ele>
        <time>2024-01-21T11:07:44.000Z</time>
      </trkpt>
      <trkpt lat="43.56248" lon="6.18401">
        <ele>349.3</ele>
        <time>2024-01-21T11:07:48.000Z</time>
      </trkpt>
      <trkpt lat="43.56247" lon="6.18395">
        <ele>349.4</ele>
        <time>2024-01-21T11:07:52.000Z</time>
      </trkpt>
      <trkpt lat="43.56245" lon="6.1839">
        <ele>349.5</ele>
        <time>2024-01-21T11:07:57.000Z</time>
      </trkpt>
      <trkpt lat="43.56246" lon="6.18384">
        <ele>349.6</ele>
        <time>2024-01-21T11:08:02.000Z</time>
      </trkpt>
      <trkpt lat="43.56247" lon="6.18379">
        <ele>349.7</ele>
        <time>2024-01-21T11:08:10.000Z</time>
      </trkpt>
      <trkpt lat="43.56248" lon="6.18378">
        <ele>349.7</ele>
        <time>2024-01-21T11:08:11.000Z</time>
      </trkpt>
      <trkpt lat="43.56255" lon="6.18375">
        <ele>349.6</ele>
        <time>2024-01-21T11:08:19.000Z</time>
      </trkpt>
      <trkpt lat="43.56258" lon="6.18373">
        <ele>349.6</ele>
        <time>2024-01-21T11:08:24.000Z</time>
      </trkpt>
      <trkpt lat="43.56263" lon="6.18371">
        <ele>349.5</ele>
        <time>2024-01-21T11:08:29.000Z</time>
      </trkpt>
      <trkpt lat="43.56267" lon="6.18369">
        <ele>349.4</ele>
        <time>2024-01-21T11:08:34.000Z</time>
      </trkpt>
      <trkpt lat="43.56271" lon="6.18369">
        <ele>349.2</ele>
        <time>2024-01-21T11:08:39.000Z</time>
      </trkpt>
      <trkpt lat="43.56275" lon="6.18371">
        <ele>349</ele>
        <time>2024-01-21T11:08:45.000Z</time>
      </trkpt>
      <trkpt lat="43.56279" lon="6.18372">
        <ele>348.9</ele>
        <time>2024-01-21T11:08:50.000Z</time>
      </trkpt>
      <trkpt lat="43.56283" lon="6.18372">
        <ele>348.9</ele>
        <time>2024-01-21T11:08:55.000Z</time>
      </trkpt>
      <trkpt lat="43.56286" lon="6.18372">
        <ele>348.9</ele>
        <time>2024-01-21T11:09:00.000Z</time>
      </trkpt>
      <trkpt lat="43.56291" lon="6.18371">
        <ele>348.9</ele>
        <time>2024-01-21T11:09:06.000Z</time>
      </trkpt>
      <trkpt lat="43.56292" lon="6.18366">
        <ele>349.5</ele>
        <time>2024-01-21T11:09:18.000Z</time>
      </trkpt>
      <trkpt lat="43.56292" lon="6.18365">
        <ele>349.6</ele>
        <time>2024-01-21T11:09:19.000Z</time>
      </trkpt>
      <trkpt lat="43.56293" lon="6.18354">
        <ele>350.8</ele>
        <time>2024-01-21T11:09:29.000Z</time>
      </trkpt>
      <trkpt lat="43.56295" lon="6.18349">
        <ele>351.7</ele>
        <time>2024-01-21T11:09:36.000Z</time>
      </trkpt>
      <trkpt lat="43.56298" lon="6.18345">
        <ele>352.5</ele>
        <time>2024-01-21T11:09:41.000Z</time>
      </trkpt>
      <trkpt lat="43.56301" lon="6.18341">
        <ele>353.3</ele>
        <time>2024-01-21T11:09:47.000Z</time>
      </trkpt>
      <trkpt lat="43.56304" lon="6.18336">
        <ele>354.3</ele>
        <time>2024-01-21T11:09:54.000Z</time>
      </trkpt>
      <trkpt lat="43.56306" lon="6.18332">
        <ele>355</ele>
        <time>2024-01-21T11:09:59.000Z</time>
      </trkpt>
      <trkpt lat="43.56308" lon="6.18326">
        <ele>355.6</ele>
        <time>2024-01-21T11:10:04.000Z</time>
      </trkpt>
      <trkpt lat="43.5631" lon="6.18322">
        <ele>356.4</ele>
        <time>2024-01-21T11:10:09.000Z</time>
      </trkpt>
      <trkpt lat="43.56312" lon="6.18317">
        <ele>357.2</ele>
        <time>2024-01-21T11:10:14.000Z</time>
      </trkpt>
      <trkpt lat="43.56314" lon="6.18311">
        <ele>358</ele>
        <time>2024-01-21T11:10:20.000Z</time>
      </trkpt>
      <trkpt lat="43.56314" lon="6.18311">
        <ele>358.2</ele>
        <time>2024-01-21T11:10:21.000Z</time>
      </trkpt>
      <trkpt lat="43.56316" lon="6.183">
        <ele>359.5</ele>
        <time>2024-01-21T11:10:32.000Z</time>
      </trkpt>
      <trkpt lat="43.56317" lon="6.18294">
        <ele>360.2</ele>
        <time>2024-01-21T11:10:38.000Z</time>
      </trkpt>
      <trkpt lat="43.5632" lon="6.1829">
        <ele>360.9</ele>
        <time>2024-01-21T11:10:44.000Z</time>
      </trkpt>
      <trkpt lat="43.56322" lon="6.18286">
        <ele>361.7</ele>
        <time>2024-01-21T11:10:49.000Z</time>
      </trkpt>
      <trkpt lat="43.56325" lon="6.18282">
        <ele>362.5</ele>
        <time>2024-01-21T11:10:55.000Z</time>
      </trkpt>
      <trkpt lat="43.56329" lon="6.18278">
        <ele>363.1</ele>
        <time>2024-01-21T11:11:01.000Z</time>
      </trkpt>
      <trkpt lat="43.56332" lon="6.18274">
        <ele>363.8</ele>
        <time>2024-01-21T11:11:08.000Z</time>
      </trkpt>
      <trkpt lat="43.56334" lon="6.1827">
        <ele>364.7</ele>
        <time>2024-01-21T11:11:16.000Z</time>
      </trkpt>
      <trkpt lat="43.56336" lon="6.18265">
        <ele>365.3</ele>
        <time>2024-01-21T11:11:21.000Z</time>
      </trkpt>
      <trkpt lat="43.56336" lon="6.18264">
        <ele>365.4</ele>
        <time>2024-01-21T11:11:22.000Z</time>
      </trkpt>
      <trkpt lat="43.56338" lon="6.18255">
        <ele>366.4</ele>
        <time>2024-01-21T11:11:30.000Z</time>
      </trkpt>
      <trkpt lat="43.5634" lon="6.18251">
        <ele>367.3</ele>
        <time>2024-01-21T11:11:36.000Z</time>
      </trkpt>
      <trkpt lat="43.56343" lon="6.18246">
        <ele>367.9</ele>
        <time>2024-01-21T11:11:41.000Z</time>
      </trkpt>
      <trkpt lat="43.56345" lon="6.18242">
        <ele>368.3</ele>
        <time>2024-01-21T11:11:45.000Z</time>
      </trkpt>
      <trkpt lat="43.56349" lon="6.18239">
        <ele>368.8</ele>
        <time>2024-01-21T11:11:50.000Z</time>
      </trkpt>
      <trkpt lat="43.56352" lon="6.18236">
        <ele>369.3</ele>
        <time>2024-01-21T11:11:56.000Z</time>
      </trkpt>
      <trkpt lat="43.56356" lon="6.18233">
        <ele>369.5</ele>
        <time>2024-01-21T11:12:01.000Z</time>
      </trkpt>
      <trkpt lat="43.56359" lon="6.1823">
        <ele>369.8</ele>
        <time>2024-01-21T11:12:06.000Z</time>
      </trkpt>
      <trkpt lat="43.56363" lon="6.18227">
        <ele>369.9</ele>
        <time>2024-01-21T11:12:11.000Z</time>
      </trkpt>
      <trkpt lat="43.56367" lon="6.18225">
        <ele>370.4</ele>
        <time>2024-01-21T11:12:17.000Z</time>
      </trkpt>
      <trkpt lat="43.56371" lon="6.18224">
        <ele>371.2</ele>
        <time>2024-01-21T11:12:23.000Z</time>
      </trkpt>
      <trkpt lat="43.56372" lon="6.18224">
        <ele>371.3</ele>
        <time>2024-01-21T11:12:24.000Z</time>
      </trkpt>
      <trkpt lat="43.5638" lon="6.18223">
        <ele>372.2</ele>
        <time>2024-01-21T11:12:34.000Z</time>
      </trkpt>
      <trkpt lat="43.56384" lon="6.18223">
        <ele>372.5</ele>
        <time>2024-01-21T11:12:39.000Z</time>
      </trkpt>
      <trkpt lat="43.56388" lon="6.18222">
        <ele>372.7</ele>
        <time>2024-01-21T11:12:44.000Z</time>
      </trkpt>
      <trkpt lat="43.56392" lon="6.18221">
        <ele>373</ele>
        <time>2024-01-21T11:12:48.000Z</time>
      </trkpt>
      <trkpt lat="43.56395" lon="6.18219">
        <ele>373.3</ele>
        <time>2024-01-21T11:12:52.000Z</time>
      </trkpt>
      <trkpt lat="43.56398" lon="6.18216">
        <ele>373.5</ele>
        <time>2024-01-21T11:12:56.000Z</time>
      </trkpt>
      <trkpt lat="43.56402" lon="6.18212">
        <ele>373.8</ele>
        <time>2024-01-21T11:13:01.000Z</time>
      </trkpt>
      <trkpt lat="43.56404" lon="6.18209">
        <ele>373.9</ele>
        <time>2024-01-21T11:13:04.000Z</time>
      </trkpt>
      <trkpt lat="43.56407" lon="6.18205">
        <ele>374</ele>
        <time>2024-01-21T11:13:09.000Z</time>
      </trkpt>
      <trkpt lat="43.5641" lon="6.18201">
        <ele>374.1</ele>
        <time>2024-01-21T11:13:13.000Z</time>
      </trkpt>
      <trkpt lat="43.56413" lon="6.18196">
        <ele>374.2</ele>
        <time>2024-01-21T11:13:16.000Z</time>
      </trkpt>
      <trkpt lat="43.56414" lon="6.18192">
        <ele>374.3</ele>
        <time>2024-01-21T11:13:19.000Z</time>
      </trkpt>
      <trkpt lat="43.56416" lon="6.18187">
        <ele>374.4</ele>
        <time>2024-01-21T11:13:23.000Z</time>
      </trkpt>
      <trkpt lat="43.5642" lon="6.18183">
        <ele>374.5</ele>
        <time>2024-01-21T11:13:28.000Z</time>
      </trkpt>
      <trkpt lat="43.56421" lon="6.18182">
        <ele>374.5</ele>
        <time>2024-01-21T11:13:29.000Z</time>
      </trkpt>
      <trkpt lat="43.56427" lon="6.18184">
        <ele>374.6</ele>
        <time>2024-01-21T11:13:37.000Z</time>
      </trkpt>
      <trkpt lat="43.5643" lon="6.18189">
        <ele>374.6</ele>
        <time>2024-01-21T11:13:44.000Z</time>
      </trkpt>
      <trkpt lat="43.5643" lon="6.18195">
        <ele>374.7</ele>
        <time>2024-01-21T11:13:50.000Z</time>
      </trkpt>
      <trkpt lat="43.56429" lon="6.182">
        <ele>374.7</ele>
        <time>2024-01-21T11:13:55.000Z</time>
      </trkpt>
      <trkpt lat="43.56429" lon="6.18206">
        <ele>374.8</ele>
        <time>2024-01-21T11:14:00.000Z</time>
      </trkpt>
      <trkpt lat="43.56429" lon="6.18212">
        <ele>374.9</ele>
        <time>2024-01-21T11:14:05.000Z</time>
      </trkpt>
      <trkpt lat="43.5643" lon="6.18218">
        <ele>374.9</ele>
        <time>2024-01-21T11:14:10.000Z</time>
      </trkpt>
      <trkpt lat="43.56429" lon="6.18224">
        <ele>375.1</ele>
        <time>2024-01-21T11:14:14.000Z</time>
      </trkpt>
      <trkpt lat="43.56429" lon="6.18229">
        <ele>375.3</ele>
        <time>2024-01-21T11:14:18.000Z</time>
      </trkpt>
      <trkpt lat="43.5643" lon="6.18234">
        <ele>375.4</ele>
        <time>2024-01-21T11:14:21.000Z</time>
      </trkpt>
      <trkpt lat="43.5643" lon="6.18239">
        <ele>375.4</ele>
        <time>2024-01-21T11:14:24.000Z</time>
      </trkpt>
      <trkpt lat="43.56431" lon="6.18244">
        <ele>375.5</ele>
        <time>2024-01-21T11:14:27.000Z</time>
      </trkpt>
      <trkpt lat="43.56431" lon="6.18249">
        <ele>375.5</ele>
        <time>2024-01-21T11:14:30.000Z</time>
      </trkpt>
      <trkpt lat="43.56431" lon="6.1825">
        <ele>375.5</ele>
        <time>2024-01-21T11:14:31.000Z</time>
      </trkpt>
      <trkpt lat="43.56431" lon="6.18259">
        <ele>375.6</ele>
        <time>2024-01-21T11:14:37.000Z</time>
      </trkpt>
      <trkpt lat="43.56431" lon="6.18265">
        <ele>375.6</ele>
        <time>2024-01-21T11:14:41.000Z</time>
      </trkpt>
      <trkpt lat="43.56431" lon="6.1827">
        <ele>375.7</ele>
        <time>2024-01-21T11:14:45.000Z</time>
      </trkpt>
      <trkpt lat="43.56431" lon="6.18276">
        <ele>375.7</ele>
        <time>2024-01-21T11:14:49.000Z</time>
      </trkpt>
      <trkpt lat="43.56433" lon="6.1828">
        <ele>375.7</ele>
        <time>2024-01-21T11:14:52.000Z</time>
      </trkpt>
      <trkpt lat="43.56436" lon="6.18285">
        <ele>375.7</ele>
        <time>2024-01-21T11:14:56.000Z</time>
      </trkpt>
      <trkpt lat="43.5644" lon="6.18286">
        <ele>375.7</ele>
        <time>2024-01-21T11:15:00.000Z</time>
      </trkpt>
      <trkpt lat="43.56444" lon="6.18284">
        <ele>375.7</ele>
        <time>2024-01-21T11:15:04.000Z</time>
      </trkpt>
      <trkpt lat="43.56447" lon="6.18279">
        <ele>375.7</ele>
        <time>2024-01-21T11:15:17.000Z</time>
      </trkpt>
      <trkpt lat="43.56446" lon="6.18273">
        <ele>375.8</ele>
        <time>2024-01-21T11:15:24.000Z</time>
      </trkpt>
      <trkpt lat="43.56448" lon="6.18269">
        <ele>376.2</ele>
        <time>2024-01-21T11:15:30.000Z</time>
      </trkpt>
      <trkpt lat="43.56449" lon="6.18263">
        <ele>376.5</ele>
        <time>2024-01-21T11:15:35.000Z</time>
      </trkpt>
      <trkpt lat="43.56449" lon="6.18261">
        <ele>376.6</ele>
        <time>2024-01-21T11:15:36.000Z</time>
      </trkpt>
      <trkpt lat="43.56453" lon="6.18253">
        <ele>376.8</ele>
        <time>2024-01-21T11:15:42.000Z</time>
      </trkpt>
      <trkpt lat="43.56456" lon="6.18249">
        <ele>376.8</ele>
        <time>2024-01-21T11:15:46.000Z</time>
      </trkpt>
      <trkpt lat="43.56459" lon="6.18247">
        <ele>376.8</ele>
        <time>2024-01-21T11:15:51.000Z</time>
      </trkpt>
      <trkpt lat="43.56463" lon="6.18244">
        <ele>377.1</ele>
        <time>2024-01-21T11:15:57.000Z</time>
      </trkpt>
      <trkpt lat="43.56465" lon="6.1824">
        <ele>377.6</ele>
        <time>2024-01-21T11:16:03.000Z</time>
      </trkpt>
      <trkpt lat="43.56467" lon="6.18234">
        <ele>378</ele>
        <time>2024-01-21T11:16:09.000Z</time>
      </trkpt>
      <trkpt lat="43.56469" lon="6.18229">
        <ele>378.4</ele>
        <time>2024-01-21T11:16:13.000Z</time>
      </trkpt>
      <trkpt lat="43.56471" lon="6.18224">
        <ele>378.6</ele>
        <time>2024-01-21T11:16:16.000Z</time>
      </trkpt>
      <trkpt lat="43.56472" lon="6.18219">
        <ele>378.8</ele>
        <time>2024-01-21T11:16:19.000Z</time>
      </trkpt>
      <trkpt lat="43.56474" lon="6.18214">
        <ele>379.1</ele>
        <time>2024-01-21T11:16:23.000Z</time>
      </trkpt>
      <trkpt lat="43.56475" lon="6.18209">
        <ele>379.2</ele>
        <time>2024-01-21T11:16:27.000Z</time>
      </trkpt>
      <trkpt lat="43.56477" lon="6.18203">
        <ele>379.4</ele>
        <time>2024-01-21T11:16:31.000Z</time>
      </trkpt>
      <trkpt lat="43.56478" lon="6.18198">
        <ele>379.4</ele>
        <time>2024-01-21T11:16:36.000Z</time>
      </trkpt>
      <trkpt lat="43.56479" lon="6.18196">
        <ele>379.4</ele>
        <time>2024-01-21T11:16:37.000Z</time>
      </trkpt>
      <trkpt lat="43.56481" lon="6.18188">
        <ele>379.5</ele>
        <time>2024-01-21T11:16:43.000Z</time>
      </trkpt>
      <trkpt lat="43.56482" lon="6.18182">
        <ele>379.5</ele>
        <time>2024-01-21T11:16:47.000Z</time>
      </trkpt>
      <trkpt lat="43.56483" lon="6.18177">
        <ele>379.5</ele>
        <time>2024-01-21T11:16:50.000Z</time>
      </trkpt>
      <trkpt lat="43.56484" lon="6.18173">
        <ele>379.5</ele>
        <time>2024-01-21T11:16:53.000Z</time>
      </trkpt>
      <trkpt lat="43.56485" lon="6.18168">
        <ele>379.4</ele>
        <time>2024-01-21T11:16:56.000Z</time>
      </trkpt>
      <trkpt lat="43.56486" lon="6.18163">
        <ele>379.4</ele>
        <time>2024-01-21T11:16:59.000Z</time>
      </trkpt>
      <trkpt lat="43.56487" lon="6.18158">
        <ele>379.3</ele>
        <time>2024-01-21T11:17:02.000Z</time>
      </trkpt>
      <trkpt lat="43.56488" lon="6.18154">
        <ele>379.3</ele>
        <time>2024-01-21T11:17:05.000Z</time>
      </trkpt>
      <trkpt lat="43.5649" lon="6.18148">
        <ele>379.3</ele>
        <time>2024-01-21T11:17:09.000Z</time>
      </trkpt>
      <trkpt lat="43.5649" lon="6.18142">
        <ele>379.4</ele>
        <time>2024-01-21T11:17:13.000Z</time>
      </trkpt>
      <trkpt lat="43.56491" lon="6.18136">
        <ele>379.4</ele>
        <time>2024-01-21T11:17:17.000Z</time>
      </trkpt>
      <trkpt lat="43.56492" lon="6.1813">
        <ele>379.4</ele>
        <time>2024-01-21T11:17:21.000Z</time>
      </trkpt>
      <trkpt lat="43.56493" lon="6.18125">
        <ele>379.4</ele>
        <time>2024-01-21T11:17:25.000Z</time>
      </trkpt>
      <trkpt lat="43.56494" lon="6.18119">
        <ele>379.4</ele>
        <time>2024-01-21T11:17:29.000Z</time>
      </trkpt>
      <trkpt lat="43.56495" lon="6.18113">
        <ele>379.4</ele>
        <time>2024-01-21T11:17:33.000Z</time>
      </trkpt>
      <trkpt lat="43.56496" lon="6.18108">
        <ele>379.4</ele>
        <time>2024-01-21T11:17:36.000Z</time>
      </trkpt>
      <trkpt lat="43.56497" lon="6.18103">
        <ele>379.4</ele>
        <time>2024-01-21T11:17:40.000Z</time>
      </trkpt>
      <trkpt lat="43.56498" lon="6.18101">
        <ele>379.4</ele>
        <time>2024-01-21T11:17:41.000Z</time>
      </trkpt>
      <trkpt lat="43.56499" lon="6.18093">
        <ele>379.3</ele>
        <time>2024-01-21T11:17:46.000Z</time>
      </trkpt>
      <trkpt lat="43.56499" lon="6.18087">
        <ele>379.1</ele>
        <time>2024-01-21T11:17:50.000Z</time>
      </trkpt>
      <trkpt lat="43.56501" lon="6.18082">
        <ele>379</ele>
        <time>2024-01-21T11:17:55.000Z</time>
      </trkpt>
      <trkpt lat="43.56502" lon="6.18076">
        <ele>378.9</ele>
        <time>2024-01-21T11:18:00.000Z</time>
      </trkpt>
      <trkpt lat="43.56504" lon="6.18071">
        <ele>378.9</ele>
        <time>2024-01-21T11:18:05.000Z</time>
      </trkpt>
      <trkpt lat="43.56505" lon="6.18066">
        <ele>378.9</ele>
        <time>2024-01-21T11:18:09.000Z</time>
      </trkpt>
      <trkpt lat="43.56506" lon="6.1806">
        <ele>378.8</ele>
        <time>2024-01-21T11:18:14.000Z</time>
      </trkpt>
      <trkpt lat="43.56508" lon="6.18054">
        <ele>378.8</ele>
        <time>2024-01-21T11:18:19.000Z</time>
      </trkpt>
      <trkpt lat="43.56509" lon="6.18049">
        <ele>378.8</ele>
        <time>2024-01-21T11:18:25.000Z</time>
      </trkpt>
      <trkpt lat="43.56511" lon="6.18044">
        <ele>379</ele>
        <time>2024-01-21T11:19:39.000Z</time>
      </trkpt>
      <trkpt lat="43.56512" lon="6.18044">
        <ele>379</ele>
        <time>2024-01-21T11:19:40.000Z</time>
      </trkpt>
      <trkpt lat="43.56519" lon="6.18041">
        <ele>379</ele>
        <time>2024-01-21T11:19:49.000Z</time>
      </trkpt>
      <trkpt lat="43.56523" lon="6.18038">
        <ele>379</ele>
        <time>2024-01-21T11:19:54.000Z</time>
      </trkpt>
      <trkpt lat="43.56527" lon="6.18035">
        <ele>379</ele>
        <time>2024-01-21T11:19:59.000Z</time>
      </trkpt>
      <trkpt lat="43.5653" lon="6.18032">
        <ele>379</ele>
        <time>2024-01-21T11:20:04.000Z</time>
      </trkpt>
      <trkpt lat="43.56534" lon="6.18029">
        <ele>379</ele>
        <time>2024-01-21T11:20:09.000Z</time>
      </trkpt>
      <trkpt lat="43.56537" lon="6.18027">
        <ele>379</ele>
        <time>2024-01-21T11:20:14.000Z</time>
      </trkpt>
      <trkpt lat="43.5654" lon="6.18023">
        <ele>379.2</ele>
        <time>2024-01-21T11:20:18.000Z</time>
      </trkpt>
      <trkpt lat="43.56544" lon="6.18022">
        <ele>379.4</ele>
        <time>2024-01-21T11:20:24.000Z</time>
      </trkpt>
      <trkpt lat="43.56547" lon="6.18018">
        <ele>379.5</ele>
        <time>2024-01-21T11:20:28.000Z</time>
      </trkpt>
      <trkpt lat="43.56551" lon="6.18015">
        <ele>379.6</ele>
        <time>2024-01-21T11:20:32.000Z</time>
      </trkpt>
      <trkpt lat="43.56555" lon="6.18013">
        <ele>379.6</ele>
        <time>2024-01-21T11:20:36.000Z</time>
      </trkpt>
      <trkpt lat="43.56558" lon="6.18011">
        <ele>379.7</ele>
        <time>2024-01-21T11:20:39.000Z</time>
      </trkpt>
      <trkpt lat="43.56563" lon="6.1801">
        <ele>379.8</ele>
        <time>2024-01-21T11:20:43.000Z</time>
      </trkpt>
      <trkpt lat="43.56564" lon="6.1801">
        <ele>379.8</ele>
        <time>2024-01-21T11:20:44.000Z</time>
      </trkpt>
      <trkpt lat="43.56571" lon="6.18009">
        <ele>379.9</ele>
        <time>2024-01-21T11:20:51.000Z</time>
      </trkpt>
      <trkpt lat="43.56575" lon="6.18008">
        <ele>380</ele>
        <time>2024-01-21T11:20:55.000Z</time>
      </trkpt>
      <trkpt lat="43.56579" lon="6.18007">
        <ele>380</ele>
        <time>2024-01-21T11:20:59.000Z</time>
      </trkpt>
      <trkpt lat="43.56583" lon="6.18006">
        <ele>380.1</ele>
        <time>2024-01-21T11:21:03.000Z</time>
      </trkpt>
      <trkpt lat="43.56588" lon="6.18005">
        <ele>380.2</ele>
        <time>2024-01-21T11:21:07.000Z</time>
      </trkpt>
      <trkpt lat="43.56591" lon="6.18004">
        <ele>380.2</ele>
        <time>2024-01-21T11:21:11.000Z</time>
      </trkpt>
      <trkpt lat="43.56595" lon="6.18003">
        <ele>380.3</ele>
        <time>2024-01-21T11:21:15.000Z</time>
      </trkpt>
      <trkpt lat="43.56599" lon="6.18003">
        <ele>380.4</ele>
        <time>2024-01-21T11:21:19.000Z</time>
      </trkpt>
      <trkpt lat="43.56603" lon="6.18002">
        <ele>380.7</ele>
        <time>2024-01-21T11:21:23.000Z</time>
      </trkpt>
      <trkpt lat="43.56607" lon="6.18001">
        <ele>380.9</ele>
        <time>2024-01-21T11:21:27.000Z</time>
      </trkpt>
      <trkpt lat="43.5661" lon="6.18">
        <ele>381</ele>
        <time>2024-01-21T11:21:31.000Z</time>
      </trkpt>
      <trkpt lat="43.56614" lon="6.18">
        <ele>381.3</ele>
        <time>2024-01-21T11:21:35.000Z</time>
      </trkpt>
      <trkpt lat="43.56618" lon="6.17999">
        <ele>381.6</ele>
        <time>2024-01-21T11:21:39.000Z</time>
      </trkpt>
      <trkpt lat="43.56622" lon="6.17999">
        <ele>381.8</ele>
        <time>2024-01-21T11:21:43.000Z</time>
      </trkpt>
      <trkpt lat="43.56625" lon="6.17998">
        <ele>382</ele>
        <time>2024-01-21T11:21:47.000Z</time>
      </trkpt>
      <trkpt lat="43.56626" lon="6.17998">
        <ele>382.1</ele>
        <time>2024-01-21T11:21:48.000Z</time>
      </trkpt>
      <trkpt lat="43.56633" lon="6.17998">
        <ele>382.2</ele>
        <time>2024-01-21T11:21:55.000Z</time>
      </trkpt>
      <trkpt lat="43.56636" lon="6.17998">
        <ele>382.2</ele>
        <time>2024-01-21T11:21:59.000Z</time>
      </trkpt>
      <trkpt lat="43.5664" lon="6.17998">
        <ele>382.2</ele>
        <time>2024-01-21T11:22:03.000Z</time>
      </trkpt>
      <trkpt lat="43.56644" lon="6.17998">
        <ele>382.2</ele>
        <time>2024-01-21T11:22:07.000Z</time>
      </trkpt>
      <trkpt lat="43.56648" lon="6.17997">
        <ele>382.3</ele>
        <time>2024-01-21T11:22:12.000Z</time>
      </trkpt>
      <trkpt lat="43.56652" lon="6.17997">
        <ele>382.4</ele>
        <time>2024-01-21T11:22:16.000Z</time>
      </trkpt>
      <trkpt lat="43.56656" lon="6.17996">
        <ele>382.6</ele>
        <time>2024-01-21T11:22:21.000Z</time>
      </trkpt>
      <trkpt lat="43.56661" lon="6.17996">
        <ele>382.9</ele>
        <time>2024-01-21T11:22:26.000Z</time>
      </trkpt>
      <trkpt lat="43.56665" lon="6.17996">
        <ele>383.4</ele>
        <time>2024-01-21T11:22:32.000Z</time>
      </trkpt>
      <trkpt lat="43.56669" lon="6.17996">
        <ele>383.9</ele>
        <time>2024-01-21T11:22:42.000Z</time>
      </trkpt>
      <trkpt lat="43.56673" lon="6.17999">
        <ele>384.1</ele>
        <time>2024-01-21T11:22:47.000Z</time>
      </trkpt>
      <trkpt lat="43.56674" lon="6.18005">
        <ele>384.3</ele>
        <time>2024-01-21T11:22:52.000Z</time>
      </trkpt>
      <trkpt lat="43.56675" lon="6.18006">
        <ele>384.4</ele>
        <time>2024-01-21T11:22:53.000Z</time>
      </trkpt>
      <trkpt lat="43.56676" lon="6.18016">
        <ele>384.7</ele>
        <time>2024-01-21T11:23:03.000Z</time>
      </trkpt>
      <trkpt lat="43.56678" lon="6.18021">
        <ele>384.9</ele>
        <time>2024-01-21T11:23:08.000Z</time>
      </trkpt>
      <trkpt lat="43.56682" lon="6.18023">
        <ele>385.7</ele>
        <time>2024-01-21T11:23:19.000Z</time>
      </trkpt>
      <trkpt lat="43.56684" lon="6.18027">
        <ele>386.3</ele>
        <time>2024-01-21T11:23:25.000Z</time>
      </trkpt>
      <trkpt lat="43.56686" lon="6.18032">
        <ele>386.9</ele>
        <time>2024-01-21T11:23:34.000Z</time>
      </trkpt>
      <trkpt lat="43.5669" lon="6.18033">
        <ele>387.2</ele>
        <time>2024-01-21T11:23:40.000Z</time>
      </trkpt>
      <trkpt lat="43.56694" lon="6.1803">
        <ele>387.4</ele>
        <time>2024-01-21T11:23:46.000Z</time>
      </trkpt>
      <trkpt lat="43.56698" lon="6.18027">
        <ele>387.7</ele>
        <time>2024-01-21T11:23:58.000Z</time>
      </trkpt>
      <trkpt lat="43.56698" lon="6.18026">
        <ele>387.7</ele>
        <time>2024-01-21T11:23:59.000Z</time>
      </trkpt>
      <trkpt lat="43.56704" lon="6.18023">
        <ele>388.3</ele>
        <time>2024-01-21T11:24:23.000Z</time>
      </trkpt>
      <trkpt lat="43.56705" lon="6.18017">
        <ele>388.8</ele>
        <time>2024-01-21T11:24:31.000Z</time>
      </trkpt>
      <trkpt lat="43.56707" lon="6.18012">
        <ele>389.4</ele>
        <time>2024-01-21T11:24:39.000Z</time>
      </trkpt>
      <trkpt lat="43.56709" lon="6.18008">
        <ele>390.1</ele>
        <time>2024-01-21T11:24:48.000Z</time>
      </trkpt>
      <trkpt lat="43.56711" lon="6.18002">
        <ele>390.7</ele>
        <time>2024-01-21T11:24:56.000Z</time>
      </trkpt>
      <trkpt lat="43.56713" lon="6.17997">
        <ele>391.4</ele>
        <time>2024-01-21T11:25:02.000Z</time>
      </trkpt>
      <trkpt lat="43.56713" lon="6.17997">
        <ele>391.5</ele>
        <time>2024-01-21T11:25:03.000Z</time>
      </trkpt>
      <trkpt lat="43.56717" lon="6.17988">
        <ele>393.1</ele>
        <time>2024-01-21T11:25:16.000Z</time>
      </trkpt>
      <trkpt lat="43.56719" lon="6.17982">
        <ele>393.8</ele>
        <time>2024-01-21T11:25:23.000Z</time>
      </trkpt>
      <trkpt lat="43.5672" lon="6.17977">
        <ele>394.1</ele>
        <time>2024-01-21T11:25:29.000Z</time>
      </trkpt>
      <trkpt lat="43.56723" lon="6.17973">
        <ele>394.4</ele>
        <time>2024-01-21T11:25:34.000Z</time>
      </trkpt>
      <trkpt lat="43.56726" lon="6.17969">
        <ele>394.9</ele>
        <time>2024-01-21T11:25:40.000Z</time>
      </trkpt>
      <trkpt lat="43.56729" lon="6.17965">
        <ele>395.1</ele>
        <time>2024-01-21T11:25:45.000Z</time>
      </trkpt>
      <trkpt lat="43.56732" lon="6.17961">
        <ele>395.2</ele>
        <time>2024-01-21T11:25:48.000Z</time>
      </trkpt>
      <trkpt lat="43.56734" lon="6.17957">
        <ele>395.4</ele>
        <time>2024-01-21T11:25:53.000Z</time>
      </trkpt>
      <trkpt lat="43.56738" lon="6.17953">
        <ele>396.1</ele>
        <time>2024-01-21T11:26:02.000Z</time>
      </trkpt>
      <trkpt lat="43.5674" lon="6.17949">
        <ele>396.5</ele>
        <time>2024-01-21T11:26:10.000Z</time>
      </trkpt>
      <trkpt lat="43.56741" lon="6.17948">
        <ele>396.6</ele>
        <time>2024-01-21T11:26:11.000Z</time>
      </trkpt>
      <trkpt lat="43.56748" lon="6.17949">
        <ele>397</ele>
        <time>2024-01-21T11:26:22.000Z</time>
      </trkpt>
      <trkpt lat="43.56751" lon="6.17952">
        <ele>397</ele>
        <time>2024-01-21T11:26:27.000Z</time>
      </trkpt>
      <trkpt lat="43.56753" lon="6.17955">
        <ele>397</ele>
        <time>2024-01-21T11:26:31.000Z</time>
      </trkpt>
      <trkpt lat="43.56757" lon="6.17959">
        <ele>396.8</ele>
        <time>2024-01-21T11:26:37.000Z</time>
      </trkpt>
      <trkpt lat="43.5676" lon="6.17958">
        <ele>396.6</ele>
        <time>2024-01-21T11:26:40.000Z</time>
      </trkpt>
      <trkpt lat="43.56764" lon="6.17959">
        <ele>396.4</ele>
        <time>2024-01-21T11:26:44.000Z</time>
      </trkpt>
      <trkpt lat="43.56767" lon="6.17963">
        <ele>396.1</ele>
        <time>2024-01-21T11:26:49.000Z</time>
      </trkpt>
      <trkpt lat="43.5677" lon="6.17967">
        <ele>395.8</ele>
        <time>2024-01-21T11:26:54.000Z</time>
      </trkpt>
      <trkpt lat="43.56767" lon="6.17972">
        <ele>395</ele>
        <time>2024-01-21T11:26:56.000Z</time>
      </trkpt>
      <trkpt lat="43.56771" lon="6.17971">
        <ele>394.8</ele>
        <time>2024-01-21T11:27:09.000Z</time>
      </trkpt>
      <trkpt lat="43.56775" lon="6.17969">
        <ele>394.5</ele>
        <time>2024-01-21T11:27:17.000Z</time>
      </trkpt>
      <trkpt lat="43.56775" lon="6.17968">
        <ele>394.4</ele>
        <time>2024-01-21T11:27:18.000Z</time>
      </trkpt>
      <trkpt lat="43.56773" lon="6.17979">
        <ele>393.5</ele>
        <time>2024-01-21T11:27:59.000Z</time>
      </trkpt>
      <trkpt lat="43.56775" lon="6.17984">
        <ele>393.4</ele>
        <time>2024-01-21T11:28:12.000Z</time>
      </trkpt>
      <trkpt lat="43.56778" lon="6.17987">
        <ele>393.4</ele>
        <time>2024-01-21T11:28:16.000Z</time>
      </trkpt>
      <trkpt lat="43.56781" lon="6.1799">
        <ele>393.3</ele>
        <time>2024-01-21T11:28:19.000Z</time>
      </trkpt>
      <trkpt lat="43.56782" lon="6.17991">
        <ele>393.3</ele>
        <time>2024-01-21T11:28:20.000Z</time>
      </trkpt>
      <trkpt lat="43.56789" lon="6.17995">
        <ele>393.3</ele>
        <time>2024-01-21T11:28:27.000Z</time>
      </trkpt>
      <trkpt lat="43.56793" lon="6.17998">
        <ele>393.1</ele>
        <time>2024-01-21T11:28:34.000Z</time>
      </trkpt>
      <trkpt lat="43.56791" lon="6.18003">
        <ele>392.9</ele>
        <time>2024-01-21T11:28:42.000Z</time>
      </trkpt>
      <trkpt lat="43.56792" lon="6.18007">
        <ele>392</ele>
        <time>2024-01-21T11:28:45.000Z</time>
      </trkpt>
      <trkpt lat="43.56794" lon="6.1801">
        <ele>392.4</ele>
        <time>2024-01-21T11:28:49.000Z</time>
      </trkpt>
      <trkpt lat="43.56797" lon="6.18012">
        <ele>392</ele>
        <time>2024-01-21T11:28:51.000Z</time>
      </trkpt>
      <trkpt lat="43.568" lon="6.18014">
        <ele>391</ele>
        <time>2024-01-21T11:28:55.000Z</time>
      </trkpt>
      <trkpt lat="43.56799" lon="6.1802">
        <ele>391.4</ele>
        <time>2024-01-21T11:28:59.000Z</time>
      </trkpt>
      <trkpt lat="43.56796" lon="6.18025">
        <ele>391.1</ele>
        <time>2024-01-21T11:29:02.000Z</time>
      </trkpt>
      <trkpt lat="43.56794" lon="6.18029">
        <ele>390.8</ele>
        <time>2024-01-21T11:29:05.000Z</time>
      </trkpt>
      <trkpt lat="43.56793" lon="6.18035">
        <ele>390.4</ele>
        <time>2024-01-21T11:29:09.000Z</time>
      </trkpt>
      <trkpt lat="43.56793" lon="6.1804">
        <ele>390.1</ele>
        <time>2024-01-21T11:29:12.000Z</time>
      </trkpt>
      <trkpt lat="43.56795" lon="6.18045">
        <ele>389.1</ele>
        <time>2024-01-21T11:29:19.000Z</time>
      </trkpt>
      <trkpt lat="43.56798" lon="6.18048">
        <ele>387.8</ele>
        <time>2024-01-21T11:29:30.000Z</time>
      </trkpt>
      <trkpt lat="43.56799" lon="6.18048">
        <ele>387.7</ele>
        <time>2024-01-21T11:29:31.000Z</time>
      </trkpt>
      <trkpt lat="43.56805" lon="6.18053">
        <ele>386.4</ele>
        <time>2024-01-21T11:29:40.000Z</time>
      </trkpt>
      <trkpt lat="43.5681" lon="6.18054">
        <ele>385.2</ele>
        <time>2024-01-21T11:29:47.000Z</time>
      </trkpt>
      <trkpt lat="43.56814" lon="6.18056">
        <ele>384.2</ele>
        <time>2024-01-21T11:29:53.000Z</time>
      </trkpt>
      <trkpt lat="43.56818" lon="6.18058">
        <ele>383.4</ele>
        <time>2024-01-21T11:30:00.000Z</time>
      </trkpt>
      <trkpt lat="43.56821" lon="6.18062">
        <ele>382.9</ele>
        <time>2024-01-21T11:30:06.000Z</time>
      </trkpt>
      <trkpt lat="43.56823" lon="6.18065">
        <ele>382.6</ele>
        <time>2024-01-21T11:30:11.000Z</time>
      </trkpt>
      <trkpt lat="43.56826" lon="6.1807">
        <ele>382.4</ele>
        <time>2024-01-21T11:30:16.000Z</time>
      </trkpt>
      <trkpt lat="43.56828" lon="6.18075">
        <ele>382.1</ele>
        <time>2024-01-21T11:30:22.000Z</time>
      </trkpt>
      <trkpt lat="43.56829" lon="6.1808">
        <ele>381.9</ele>
        <time>2024-01-21T11:30:28.000Z</time>
      </trkpt>
      <trkpt lat="43.5683" lon="6.18086">
        <ele>381.7</ele>
        <time>2024-01-21T11:30:34.000Z</time>
      </trkpt>
      <trkpt lat="43.5683" lon="6.18087">
        <ele>381.7</ele>
        <time>2024-01-21T11:30:35.000Z</time>
      </trkpt>
      <trkpt lat="43.56832" lon="6.18096">
        <ele>381.4</ele>
        <time>2024-01-21T11:30:43.000Z</time>
      </trkpt>
      <trkpt lat="43.56833" lon="6.18101">
        <ele>381.2</ele>
        <time>2024-01-21T11:30:47.000Z</time>
      </trkpt>
      <trkpt lat="43.56834" lon="6.18107">
        <ele>381.1</ele>
        <time>2024-01-21T11:30:52.000Z</time>
      </trkpt>
      <trkpt lat="43.56833" lon="6.18113">
        <ele>381</ele>
        <time>2024-01-21T11:30:57.000Z</time>
      </trkpt>
      <trkpt lat="43.56834" lon="6.18118">
        <ele>380.9</ele>
        <time>2024-01-21T11:31:02.000Z</time>
      </trkpt>
      <trkpt lat="43.56835" lon="6.18123">
        <ele>380.8</ele>
        <time>2024-01-21T11:31:07.000Z</time>
      </trkpt>
      <trkpt lat="43.56835" lon="6.18128">
        <ele>380.8</ele>
        <time>2024-01-21T11:31:11.000Z</time>
      </trkpt>
      <trkpt lat="43.56836" lon="6.18133">
        <ele>380.7</ele>
        <time>2024-01-21T11:31:14.000Z</time>
      </trkpt>
      <trkpt lat="43.56836" lon="6.18138">
        <ele>380.6</ele>
        <time>2024-01-21T11:31:18.000Z</time>
      </trkpt>
      <trkpt lat="43.56837" lon="6.18144">
        <ele>380.5</ele>
        <time>2024-01-21T11:31:24.000Z</time>
      </trkpt>
      <trkpt lat="43.56839" lon="6.18149">
        <ele>380.4</ele>
        <time>2024-01-21T11:31:30.000Z</time>
      </trkpt>
      <trkpt lat="43.56841" lon="6.18153">
        <ele>380.3</ele>
        <time>2024-01-21T11:31:38.000Z</time>
      </trkpt>
      <trkpt lat="43.56842" lon="6.18154">
        <ele>380.2</ele>
        <time>2024-01-21T11:31:39.000Z</time>
      </trkpt>
      <trkpt lat="43.56849" lon="6.18156">
        <ele>379.9</ele>
        <time>2024-01-21T11:31:52.000Z</time>
      </trkpt>
      <trkpt lat="43.56852" lon="6.18153">
        <ele>379.8</ele>
        <time>2024-01-21T11:31:57.000Z</time>
      </trkpt>
      <trkpt lat="43.56855" lon="6.18149">
        <ele>379.4</ele>
        <time>2024-01-21T11:32:02.000Z</time>
      </trkpt>
      <trkpt lat="43.56859" lon="6.18145">
        <ele>379</ele>
        <time>2024-01-21T11:32:09.000Z</time>
      </trkpt>
      <trkpt lat="43.56862" lon="6.18142">
        <ele>378.8</ele>
        <time>2024-01-21T11:32:15.000Z</time>
      </trkpt>
      <trkpt lat="43.56865" lon="6.18138">
        <ele>378.6</ele>
        <time>2024-01-21T11:32:21.000Z</time>
      </trkpt>
      <trkpt lat="43.56868" lon="6.18135">
        <ele>378.5</ele>
        <time>2024-01-21T11:32:25.000Z</time>
      </trkpt>
      <trkpt lat="43.56872" lon="6.18131">
        <ele>378.5</ele>
        <time>2024-01-21T11:32:29.000Z</time>
      </trkpt>
      <trkpt lat="43.56875" lon="6.18127">
        <ele>378.4</ele>
        <time>2024-01-21T11:32:33.000Z</time>
      </trkpt>
      <trkpt lat="43.56878" lon="6.18124">
        <ele>378.4</ele>
        <time>2024-01-21T11:32:38.000Z</time>
      </trkpt>
      <trkpt lat="43.56881" lon="6.18119">
        <ele>378.6</ele>
        <time>2024-01-21T11:32:47.000Z</time>
      </trkpt>
      <trkpt lat="43.56881" lon="6.18118">
        <ele>378.6</ele>
        <time>2024-01-21T11:32:48.000Z</time>
      </trkpt>
      <trkpt lat="43.56883" lon="6.18109">
        <ele>378.5</ele>
        <time>2024-01-21T11:32:55.000Z</time>
      </trkpt>
      <trkpt lat="43.56885" lon="6.18104">
        <ele>378.4</ele>
        <time>2024-01-21T11:33:00.000Z</time>
      </trkpt>
      <trkpt lat="43.56886" lon="6.18098">
        <ele>378.3</ele>
        <time>2024-01-21T11:33:04.000Z</time>
      </trkpt>
      <trkpt lat="43.56886" lon="6.18093">
        <ele>378.3</ele>
        <time>2024-01-21T11:33:07.000Z</time>
      </trkpt>
      <trkpt lat="43.56888" lon="6.18088">
        <ele>378.2</ele>
        <time>2024-01-21T11:33:10.000Z</time>
      </trkpt>
      <trkpt lat="43.56889" lon="6.18083">
        <ele>378.2</ele>
        <time>2024-01-21T11:33:13.000Z</time>
      </trkpt>
      <trkpt lat="43.56891" lon="6.18078">
        <ele>378.1</ele>
        <time>2024-01-21T11:33:17.000Z</time>
      </trkpt>
      <trkpt lat="43.56892" lon="6.18073">
        <ele>378</ele>
        <time>2024-01-21T11:33:21.000Z</time>
      </trkpt>
      <trkpt lat="43.56893" lon="6.18068">
        <ele>378</ele>
        <time>2024-01-21T11:33:24.000Z</time>
      </trkpt>
      <trkpt lat="43.56894" lon="6.18064">
        <ele>378</ele>
        <time>2024-01-21T11:33:27.000Z</time>
      </trkpt>
      <trkpt lat="43.56896" lon="6.18059">
        <ele>378</ele>
        <time>2024-01-21T11:33:30.000Z</time>
      </trkpt>
      <trkpt lat="43.56897" lon="6.18054">
        <ele>377.9</ele>
        <time>2024-01-21T11:33:33.000Z</time>
      </trkpt>
      <trkpt lat="43.56898" lon="6.18049">
        <ele>378</ele>
        <time>2024-01-21T11:33:36.000Z</time>
      </trkpt>
      <trkpt lat="43.56899" lon="6.18045">
        <ele>378</ele>
        <time>2024-01-21T11:33:39.000Z</time>
      </trkpt>
      <trkpt lat="43.56901" lon="6.18039">
        <ele>378.1</ele>
        <time>2024-01-21T11:33:43.000Z</time>
      </trkpt>
      <trkpt lat="43.56902" lon="6.18034">
        <ele>378.1</ele>
        <time>2024-01-21T11:33:46.000Z</time>
      </trkpt>
      <trkpt lat="43.56903" lon="6.18029">
        <ele>378.2</ele>
        <time>2024-01-21T11:33:50.000Z</time>
      </trkpt>
      <trkpt lat="43.56904" lon="6.18028">
        <ele>378.2</ele>
        <time>2024-01-21T11:33:51.000Z</time>
      </trkpt>
      <trkpt lat="43.56907" lon="6.18019">
        <ele>378.4</ele>
        <time>2024-01-21T11:33:59.000Z</time>
      </trkpt>
      <trkpt lat="43.5691" lon="6.18015">
        <ele>378.6</ele>
        <time>2024-01-21T11:34:07.000Z</time>
      </trkpt>
      <trkpt lat="43.5691" lon="6.18021">
        <ele>378.4</ele>
        <time>2024-01-21T11:34:43.000Z</time>
      </trkpt>
      <trkpt lat="43.56906" lon="6.18021">
        <ele>379.2</ele>
        <time>2024-01-21T11:34:57.000Z</time>
      </trkpt>
      <trkpt lat="43.56905" lon="6.1802">
        <ele>379.1</ele>
        <time>2024-01-21T11:34:58.000Z</time>
      </trkpt>
      <trkpt lat="43.56914" lon="6.18019">
        <ele>379.2</ele>
        <time>2024-01-21T11:36:23.000Z</time>
      </trkpt>
      <trkpt lat="43.56914" lon="6.18019">
        <ele>379.2</ele>
        <time>2024-01-21T11:36:24.000Z</time>
      </trkpt>
      <trkpt lat="43.56907" lon="6.18026">
        <ele>378.9</ele>
        <time>2024-01-21T11:37:05.000Z</time>
      </trkpt>
      <trkpt lat="43.5691" lon="6.18022">
        <ele>377.9</ele>
        <time>2024-01-21T11:37:38.000Z</time>
      </trkpt>
      <trkpt lat="43.56911" lon="6.18022">
        <ele>377.9</ele>
        <time>2024-01-21T11:37:39.000Z</time>
      </trkpt>
      <trkpt lat="43.56909" lon="6.18019">
        <ele>377.5</ele>
        <time>2024-01-21T11:38:53.000Z</time>
      </trkpt>
      <trkpt lat="43.56909" lon="6.18019">
        <ele>377.5</ele>
        <time>2024-01-21T11:38:54.000Z</time>
      </trkpt>
      <trkpt lat="43.56904" lon="6.18011">
        <ele>378</ele>
        <time>2024-01-21T11:40:44.000Z</time>
      </trkpt>
      <trkpt lat="43.56903" lon="6.18011">
        <ele>378</ele>
        <time>2024-01-21T11:40:45.000Z</time>
      </trkpt>
      <trkpt lat="43.56899" lon="6.1801">
        <ele>377.8</ele>
        <time>2024-01-21T11:41:39.000Z</time>
      </trkpt>
      <trkpt lat="43.56899" lon="6.18015">
        <ele>377.8</ele>
        <time>2024-01-21T11:41:54.000Z</time>
      </trkpt>
      <trkpt lat="43.569" lon="6.18016">
        <ele>377.8</ele>
        <time>2024-01-21T11:41:55.000Z</time>
      </trkpt>
      <trkpt lat="43.56907" lon="6.18018">
        <ele>377.8</ele>
        <time>2024-01-21T11:42:10.000Z</time>
      </trkpt>
      <trkpt lat="43.56911" lon="6.18018">
        <ele>378.6</ele>
        <time>2024-01-21T11:43:39.000Z</time>
      </trkpt>
      <trkpt lat="43.56912" lon="6.18019">
        <ele>378.6</ele>
        <time>2024-01-21T11:43:40.000Z</time>
      </trkpt>
      <trkpt lat="43.56912" lon="6.18021">
        <ele>378.3</ele>
        <time>2024-01-21T11:44:48.000Z</time>
      </trkpt>
      <trkpt lat="43.56912" lon="6.18021">
        <ele>378.3</ele>
        <time>2024-01-21T11:44:49.000Z</time>
      </trkpt>
      <trkpt lat="43.56907" lon="6.18024">
        <ele>378.5</ele>
        <time>2024-01-21T11:46:10.000Z</time>
      </trkpt>
      <trkpt lat="43.56909" lon="6.18025">
        <ele>378.5</ele>
        <time>2024-01-21T11:46:48.000Z</time>
      </trkpt>
      <trkpt lat="43.56911" lon="6.1802">
        <ele>378.7</ele>
        <time>2024-01-21T11:47:48.000Z</time>
      </trkpt>
      <trkpt lat="43.56912" lon="6.1802">
        <ele>378.7</ele>
        <time>2024-01-21T11:47:49.000Z</time>
      </trkpt>
      <trkpt lat="43.5692" lon="6.18017">
        <ele>378.7</ele>
        <time>2024-01-21T11:48:09.000Z</time>
      </trkpt>
      <trkpt lat="43.56916" lon="6.1802">
        <ele>378.7</ele>
        <time>2024-01-21T11:48:29.000Z</time>
      </trkpt>
      <trkpt lat="43.56912" lon="6.18022">
        <ele>378.7</ele>
        <time>2024-01-21T11:48:41.000Z</time>
      </trkpt>
      <trkpt lat="43.56909" lon="6.18026">
        <ele>378.7</ele>
        <time>2024-01-21T11:49:05.000Z</time>
      </trkpt>
      <trkpt lat="43.56909" lon="6.18027">
        <ele>378.7</ele>
        <time>2024-01-21T11:49:06.000Z</time>
      </trkpt>
      <trkpt lat="43.56907" lon="6.18028">
        <ele>378.9</ele>
        <time>2024-01-21T11:50:08.000Z</time>
      </trkpt>
      <trkpt lat="43.56908" lon="6.18028">
        <ele>378.9</ele>
        <time>2024-01-21T11:50:09.000Z</time>
      </trkpt>
      <trkpt lat="43.56911" lon="6.1802">
        <ele>379.3</ele>
        <time>2024-01-21T11:51:07.000Z</time>
      </trkpt>
      <trkpt lat="43.56907" lon="6.18024">
        <ele>378.8</ele>
        <time>2024-01-21T11:54:06.000Z</time>
      </trkpt>
      <trkpt lat="43.56908" lon="6.18024">
        <ele>378.8</ele>
        <time>2024-01-21T11:54:07.000Z</time>
      </trkpt>
      <trkpt lat="43.56908" lon="6.18023">
        <ele>379.8</ele>
        <time>2024-01-21T11:55:10.000Z</time>
      </trkpt>
      <trkpt lat="43.56908" lon="6.18022">
        <ele>379.8</ele>
        <time>2024-01-21T11:55:11.000Z</time>
      </trkpt>
      <trkpt lat="43.56911" lon="6.1803">
        <ele>379.4</ele>
        <time>2024-01-21T11:55:37.000Z</time>
      </trkpt>
      <trkpt lat="43.56908" lon="6.18034">
        <ele>379.4</ele>
        <time>2024-01-21T11:55:43.000Z</time>
      </trkpt>
      <trkpt lat="43.56909" lon="6.18029">
        <ele>379.2</ele>
        <time>2024-01-21T11:56:14.000Z</time>
      </trkpt>
      <trkpt lat="43.56909" lon="6.18028">
        <ele>379.2</ele>
        <time>2024-01-21T11:56:15.000Z</time>
      </trkpt>
      <trkpt lat="43.56914" lon="6.18021">
        <ele>379.2</ele>
        <time>2024-01-21T11:56:23.000Z</time>
      </trkpt>
      <trkpt lat="43.56916" lon="6.18016">
        <ele>379.2</ele>
        <time>2024-01-21T11:56:28.000Z</time>
      </trkpt>
      <trkpt lat="43.56913" lon="6.18018">
        <ele>379.5</ele>
        <time>2024-01-21T11:56:57.000Z</time>
      </trkpt>
      <trkpt lat="43.56917" lon="6.18016">
        <ele>379.8</ele>
        <time>2024-01-21T11:57:36.000Z</time>
      </trkpt>
      <trkpt lat="43.56917" lon="6.18015">
        <ele>379.8</ele>
        <time>2024-01-21T11:57:37.000Z</time>
      </trkpt>
      <trkpt lat="43.56919" lon="6.18017">
        <ele>379.6</ele>
        <time>2024-01-21T11:58:15.000Z</time>
      </trkpt>
      <trkpt lat="43.56914" lon="6.18016">
        <ele>379.6</ele>
        <time>2024-01-21T11:58:27.000Z</time>
      </trkpt>
      <trkpt lat="43.56911" lon="6.18015">
        <ele>379.6</ele>
        <time>2024-01-21T11:58:31.000Z</time>
      </trkpt>
      <trkpt lat="43.56907" lon="6.18013">
        <ele>379.6</ele>
        <time>2024-01-21T11:58:45.000Z</time>
      </trkpt>
      <trkpt lat="43.56906" lon="6.18013">
        <ele>379.6</ele>
        <time>2024-01-21T11:58:46.000Z</time>
      </trkpt>
      <trkpt lat="43.56899" lon="6.18009">
        <ele>379.8</ele>
        <time>2024-01-21T11:59:06.000Z</time>
      </trkpt>
      <trkpt lat="43.56897" lon="6.18004">
        <ele>379.9</ele>
        <time>2024-01-21T11:59:13.000Z</time>
      </trkpt>
      <trkpt lat="43.56897" lon="6.18011">
        <ele>379.7</ele>
        <time>2024-01-21T11:59:45.000Z</time>
      </trkpt>
      <trkpt lat="43.56901" lon="6.18014">
        <ele>379.8</ele>
        <time>2024-01-21T11:59:58.000Z</time>
      </trkpt>
      <trkpt lat="43.56901" lon="6.18014">
        <ele>379.8</ele>
        <time>2024-01-21T11:59:59.000Z</time>
      </trkpt>
      <trkpt lat="43.569" lon="6.18025">
        <ele>380</ele>
        <time>2024-01-21T12:00:46.000Z</time>
      </trkpt>
      <trkpt lat="43.56897" lon="6.18029">
        <ele>380.1</ele>
        <time>2024-01-21T12:01:04.000Z</time>
      </trkpt>
      <trkpt lat="43.56897" lon="6.1803">
        <ele>380.1</ele>
        <time>2024-01-21T12:01:05.000Z</time>
      </trkpt>
      <trkpt lat="43.56904" lon="6.18024">
        <ele>380.1</ele>
        <time>2024-01-21T12:01:28.000Z</time>
      </trkpt>
      <trkpt lat="43.56909" lon="6.18025">
        <ele>380.1</ele>
        <time>2024-01-21T12:01:51.000Z</time>
      </trkpt>
      <trkpt lat="43.56905" lon="6.18022">
        <ele>380.3</ele>
        <time>2024-01-21T12:02:49.000Z</time>
      </trkpt>
      <trkpt lat="43.56904" lon="6.18022">
        <ele>380.3</ele>
        <time>2024-01-21T12:02:50.000Z</time>
      </trkpt>
      <trkpt lat="43.56905" lon="6.18021">
        <ele>380.4</ele>
        <time>2024-01-21T12:03:11.000Z</time>
      </trkpt>
      <trkpt lat="43.56909" lon="6.18022">
        <ele>380.4</ele>
        <time>2024-01-21T12:03:18.000Z</time>
      </trkpt>
      <trkpt lat="43.56908" lon="6.18027">
        <ele>380.3</ele>
        <time>2024-01-21T12:03:29.000Z</time>
      </trkpt>
      <trkpt lat="43.56912" lon="6.18024">
        <ele>380.1</ele>
        <time>2024-01-21T12:04:54.000Z</time>
      </trkpt>
      <trkpt lat="43.56912" lon="6.18024">
        <ele>380</ele>
        <time>2024-01-21T12:04:55.000Z</time>
      </trkpt>
      <trkpt lat="43.56911" lon="6.18021">
        <ele>380</ele>
        <time>2024-01-21T12:06:04.000Z</time>
      </trkpt>
      <trkpt lat="43.56911" lon="6.18021">
        <ele>380</ele>
        <time>2024-01-21T12:06:05.000Z</time>
      </trkpt>
      <trkpt lat="43.56916" lon="6.18026">
        <ele>380.1</ele>
        <time>2024-01-21T12:07:16.000Z</time>
      </trkpt>
      <trkpt lat="43.56916" lon="6.18027">
        <ele>380.1</ele>
        <time>2024-01-21T12:07:17.000Z</time>
      </trkpt>
      <trkpt lat="43.56915" lon="6.18034">
        <ele>380</ele>
        <time>2024-01-21T12:08:08.000Z</time>
      </trkpt>
      <trkpt lat="43.56918" lon="6.1803">
        <ele>380.1</ele>
        <time>2024-01-21T12:08:22.000Z</time>
      </trkpt>
      <trkpt lat="43.56918" lon="6.18029">
        <ele>380.1</ele>
        <time>2024-01-21T12:08:23.000Z</time>
      </trkpt>
      <trkpt lat="43.56919" lon="6.1802">
        <ele>380.4</ele>
        <time>2024-01-21T12:08:37.000Z</time>
      </trkpt>
      <trkpt lat="43.56917" lon="6.18014">
        <ele>380.3</ele>
        <time>2024-01-21T12:08:41.000Z</time>
      </trkpt>
      <trkpt lat="43.56919" lon="6.18019">
        <ele>380.1</ele>
        <time>2024-01-21T12:09:09.000Z</time>
      </trkpt>
      <trkpt lat="43.5692" lon="6.18025">
        <ele>380.1</ele>
        <time>2024-01-21T12:09:17.000Z</time>
      </trkpt>
      <trkpt lat="43.56924" lon="6.18029">
        <ele>380</ele>
        <time>2024-01-21T12:09:22.000Z</time>
      </trkpt>
      <trkpt lat="43.56924" lon="6.18023">
        <ele>380.4</ele>
        <time>2024-01-21T12:09:41.000Z</time>
      </trkpt>
      <trkpt lat="43.56924" lon="6.18022">
        <ele>380.5</ele>
        <time>2024-01-21T12:09:42.000Z</time>
      </trkpt>
      <trkpt lat="43.5692" lon="6.18013">
        <ele>380.2</ele>
        <time>2024-01-21T12:10:41.000Z</time>
      </trkpt>
      <trkpt lat="43.56917" lon="6.18009">
        <ele>380.9</ele>
        <time>2024-01-21T12:11:06.000Z</time>
      </trkpt>
      <trkpt lat="43.56917" lon="6.18008">
        <ele>380.7</ele>
        <time>2024-01-21T12:11:07.000Z</time>
      </trkpt>
      <trkpt lat="43.5692" lon="6.18003">
        <ele>380.8</ele>
        <time>2024-01-21T12:12:36.000Z</time>
      </trkpt>
      <trkpt lat="43.56911" lon="6.18003">
        <ele>381.2</ele>
        <time>2024-01-21T12:13:32.000Z</time>
      </trkpt>
      <trkpt lat="43.56908" lon="6.18001">
        <ele>381.4</ele>
        <time>2024-01-21T12:14:01.000Z</time>
      </trkpt>
      <trkpt lat="43.56907" lon="6.18">
        <ele>381.4</ele>
        <time>2024-01-21T12:14:02.000Z</time>
      </trkpt>
      <trkpt lat="43.56913" lon="6.18009">
        <ele>381.9</ele>
        <time>2024-01-21T12:14:29.000Z</time>
      </trkpt>
      <trkpt lat="43.56916" lon="6.18013">
        <ele>381.9</ele>
        <time>2024-01-21T12:14:43.000Z</time>
      </trkpt>
      <trkpt lat="43.5692" lon="6.18016">
        <ele>381.7</ele>
        <time>2024-01-21T12:15:18.000Z</time>
      </trkpt>
      <trkpt lat="43.5692" lon="6.18016">
        <ele>381.7</ele>
        <time>2024-01-21T12:15:19.000Z</time>
      </trkpt>
      <trkpt lat="43.5692" lon="6.18017">
        <ele>382.2</ele>
        <time>2024-01-21T12:15:59.000Z</time>
      </trkpt>
      <trkpt lat="43.56916" lon="6.18016">
        <ele>382.2</ele>
        <time>2024-01-21T12:16:03.000Z</time>
      </trkpt>
      <trkpt lat="43.56912" lon="6.18014">
        <ele>382.3</ele>
        <time>2024-01-21T12:16:11.000Z</time>
      </trkpt>
      <trkpt lat="43.56911" lon="6.1802">
        <ele>382.3</ele>
        <time>2024-01-21T12:16:19.000Z</time>
      </trkpt>
      <trkpt lat="43.56911" lon="6.18021">
        <ele>382.3</ele>
        <time>2024-01-21T12:16:20.000Z</time>
      </trkpt>
      <trkpt lat="43.5691" lon="6.18031">
        <ele>382.3</ele>
        <time>2024-01-21T12:16:28.000Z</time>
      </trkpt>
      <trkpt lat="43.56909" lon="6.18025">
        <ele>382.3</ele>
        <time>2024-01-21T12:16:35.000Z</time>
      </trkpt>
      <trkpt lat="43.56908" lon="6.18019">
        <ele>382.2</ele>
        <time>2024-01-21T12:16:46.000Z</time>
      </trkpt>
      <trkpt lat="43.5691" lon="6.18013">
        <ele>382.3</ele>
        <time>2024-01-21T12:17:09.000Z</time>
      </trkpt>
      <trkpt lat="43.56907" lon="6.18009">
        <ele>382.3</ele>
        <time>2024-01-21T12:17:47.000Z</time>
      </trkpt>
      <trkpt lat="43.56906" lon="6.18008">
        <ele>382.3</ele>
        <time>2024-01-21T12:17:48.000Z</time>
      </trkpt>
      <trkpt lat="43.56913" lon="6.18004">
        <ele>382.5</ele>
        <time>2024-01-21T12:18:24.000Z</time>
      </trkpt>
      <trkpt lat="43.56918" lon="6.18003">
        <ele>383.1</ele>
        <time>2024-01-21T12:18:32.000Z</time>
      </trkpt>
      <trkpt lat="43.56921" lon="6.18001">
        <ele>384</ele>
        <time>2024-01-21T12:18:42.000Z</time>
      </trkpt>
      <trkpt lat="43.56924" lon="6.17997">
        <ele>384.6</ele>
        <time>2024-01-21T12:18:48.000Z</time>
      </trkpt>
      <trkpt lat="43.56924" lon="6.17995">
        <ele>384.7</ele>
        <time>2024-01-21T12:18:49.000Z</time>
      </trkpt>
      <trkpt lat="43.56926" lon="6.17985">
        <ele>385.3</ele>
        <time>2024-01-21T12:19:00.000Z</time>
      </trkpt>
      <trkpt lat="43.56926" lon="6.1798">
        <ele>385.4</ele>
        <time>2024-01-21T12:19:04.000Z</time>
      </trkpt>
      <trkpt lat="43.56925" lon="6.17974">
        <ele>385.6</ele>
        <time>2024-01-21T12:19:10.000Z</time>
      </trkpt>
      <trkpt lat="43.56926" lon="6.17968">
        <ele>385.6</ele>
        <time>2024-01-21T12:19:15.000Z</time>
      </trkpt>
      <trkpt lat="43.56927" lon="6.17962">
        <ele>385.7</ele>
        <time>2024-01-21T12:19:23.000Z</time>
      </trkpt>
      <trkpt lat="43.56927" lon="6.17956">
        <ele>385.8</ele>
        <time>2024-01-21T12:19:43.000Z</time>
      </trkpt>
      <trkpt lat="43.56926" lon="6.17952">
        <ele>385.8</ele>
        <time>2024-01-21T12:19:48.000Z</time>
      </trkpt>
      <trkpt lat="43.56926" lon="6.17946">
        <ele>385.9</ele>
        <time>2024-01-21T12:19:58.000Z</time>
      </trkpt>
      <trkpt lat="43.56926" lon="6.17945">
        <ele>385.9</ele>
        <time>2024-01-21T12:19:59.000Z</time>
      </trkpt>
      <trkpt lat="43.56926" lon="6.17936">
        <ele>385.9</ele>
        <time>2024-01-21T12:20:08.000Z</time>
      </trkpt>
      <trkpt lat="43.56926" lon="6.1793">
        <ele>385.9</ele>
        <time>2024-01-21T12:20:11.000Z</time>
      </trkpt>
      <trkpt lat="43.56926" lon="6.17925">
        <ele>385.9</ele>
        <time>2024-01-21T12:20:14.000Z</time>
      </trkpt>
      <trkpt lat="43.56925" lon="6.1792">
        <ele>385.9</ele>
        <time>2024-01-21T12:20:17.000Z</time>
      </trkpt>
      <trkpt lat="43.56925" lon="6.17914">
        <ele>386</ele>
        <time>2024-01-21T12:20:21.000Z</time>
      </trkpt>
      <trkpt lat="43.56924" lon="6.17908">
        <ele>386.2</ele>
        <time>2024-01-21T12:20:26.000Z</time>
      </trkpt>
      <trkpt lat="43.56923" lon="6.17902">
        <ele>386.4</ele>
        <time>2024-01-21T12:20:31.000Z</time>
      </trkpt>
      <trkpt lat="43.56922" lon="6.17897">
        <ele>386.5</ele>
        <time>2024-01-21T12:20:35.000Z</time>
      </trkpt>
      <trkpt lat="43.56922" lon="6.17891">
        <ele>386.6</ele>
        <time>2024-01-21T12:20:40.000Z</time>
      </trkpt>
      <trkpt lat="43.56922" lon="6.17886">
        <ele>386.6</ele>
        <time>2024-01-21T12:20:44.000Z</time>
      </trkpt>
      <trkpt lat="43.5692" lon="6.17881">
        <ele>386.7</ele>
        <time>2024-01-21T12:20:49.000Z</time>
      </trkpt>
      <trkpt lat="43.56918" lon="6.17876">
        <ele>386.7</ele>
        <time>2024-01-21T12:20:54.000Z</time>
      </trkpt>
      <trkpt lat="43.56916" lon="6.17871">
        <ele>386.7</ele>
        <time>2024-01-21T12:20:58.000Z</time>
      </trkpt>
      <trkpt lat="43.56914" lon="6.17866">
        <ele>386.7</ele>
        <time>2024-01-21T12:21:01.000Z</time>
      </trkpt>
      <trkpt lat="43.56914" lon="6.17864">
        <ele>386.7</ele>
        <time>2024-01-21T12:21:02.000Z</time>
      </trkpt>
      <trkpt lat="43.56912" lon="6.17855">
        <ele>386.8</ele>
        <time>2024-01-21T12:21:08.000Z</time>
      </trkpt>
      <trkpt lat="43.5691" lon="6.17851">
        <ele>386.8</ele>
        <time>2024-01-21T12:21:11.000Z</time>
      </trkpt>
      <trkpt lat="43.56908" lon="6.17846">
        <ele>386.8</ele>
        <time>2024-01-21T12:21:15.000Z</time>
      </trkpt>
      <trkpt lat="43.56906" lon="6.17841">
        <ele>386.9</ele>
        <time>2024-01-21T12:21:18.000Z</time>
      </trkpt>
      <trkpt lat="43.56904" lon="6.17837">
        <ele>386.9</ele>
        <time>2024-01-21T12:21:21.000Z</time>
      </trkpt>
      <trkpt lat="43.56902" lon="6.17833">
        <ele>387</ele>
        <time>2024-01-21T12:21:24.000Z</time>
      </trkpt>
      <trkpt lat="43.56901" lon="6.17829">
        <ele>387</ele>
        <time>2024-01-21T12:21:27.000Z</time>
      </trkpt>
      <trkpt lat="43.56899" lon="6.17824">
        <ele>387</ele>
        <time>2024-01-21T12:21:31.000Z</time>
      </trkpt>
      <trkpt lat="43.56897" lon="6.17819">
        <ele>387.1</ele>
        <time>2024-01-21T12:21:35.000Z</time>
      </trkpt>
      <trkpt lat="43.56895" lon="6.17814">
        <ele>387.2</ele>
        <time>2024-01-21T12:21:39.000Z</time>
      </trkpt>
      <trkpt lat="43.56893" lon="6.17809">
        <ele>387.3</ele>
        <time>2024-01-21T12:21:45.000Z</time>
      </trkpt>
      <trkpt lat="43.56889" lon="6.17805">
        <ele>387.4</ele>
        <time>2024-01-21T12:21:49.000Z</time>
      </trkpt>
      <trkpt lat="43.56888" lon="6.17801">
        <ele>387.4</ele>
        <time>2024-01-21T12:21:52.000Z</time>
      </trkpt>
      <trkpt lat="43.56885" lon="6.17797">
        <ele>387.5</ele>
        <time>2024-01-21T12:21:55.000Z</time>
      </trkpt>
      <trkpt lat="43.56884" lon="6.17792">
        <ele>387.5</ele>
        <time>2024-01-21T12:21:58.000Z</time>
      </trkpt>
      <trkpt lat="43.56881" lon="6.17788">
        <ele>387.5</ele>
        <time>2024-01-21T12:22:01.000Z</time>
      </trkpt>
      <trkpt lat="43.5688" lon="6.17783">
        <ele>387.5</ele>
        <time>2024-01-21T12:22:04.000Z</time>
      </trkpt>
      <trkpt lat="43.5688" lon="6.17781">
        <ele>387.6</ele>
        <time>2024-01-21T12:22:05.000Z</time>
      </trkpt>
      <trkpt lat="43.56877" lon="6.17773">
        <ele>387.8</ele>
        <time>2024-01-21T12:22:12.000Z</time>
      </trkpt>
      <trkpt lat="43.56875" lon="6.17769">
        <ele>387.8</ele>
        <time>2024-01-21T12:22:15.000Z</time>
      </trkpt>
      <trkpt lat="43.56873" lon="6.17764">
        <ele>387.9</ele>
        <time>2024-01-21T12:22:18.000Z</time>
      </trkpt>
      <trkpt lat="43.56872" lon="6.17759">
        <ele>388</ele>
        <time>2024-01-21T12:22:21.000Z</time>
      </trkpt>
      <trkpt lat="43.5687" lon="6.17755">
        <ele>388</ele>
        <time>2024-01-21T12:22:24.000Z</time>
      </trkpt>
      <trkpt lat="43.56868" lon="6.17749">
        <ele>388</ele>
        <time>2024-01-21T12:22:28.000Z</time>
      </trkpt>
      <trkpt lat="43.56865" lon="6.17745">
        <ele>388.1</ele>
        <time>2024-01-21T12:22:31.000Z</time>
      </trkpt>
      <trkpt lat="43.56863" lon="6.17742">
        <ele>388.1</ele>
        <time>2024-01-21T12:22:34.000Z</time>
      </trkpt>
      <trkpt lat="43.56861" lon="6.17738">
        <ele>388.1</ele>
        <time>2024-01-21T12:22:37.000Z</time>
      </trkpt>
      <trkpt lat="43.56859" lon="6.17732">
        <ele>388.3</ele>
        <time>2024-01-21T12:22:41.000Z</time>
      </trkpt>
      <trkpt lat="43.56857" lon="6.17727">
        <ele>388.4</ele>
        <time>2024-01-21T12:22:45.000Z</time>
      </trkpt>
      <trkpt lat="43.56856" lon="6.17722">
        <ele>388.6</ele>
        <time>2024-01-21T12:22:49.000Z</time>
      </trkpt>
      <trkpt lat="43.56855" lon="6.17716">
        <ele>388.7</ele>
        <time>2024-01-21T12:22:54.000Z</time>
      </trkpt>
      <trkpt lat="43.56853" lon="6.17711">
        <ele>388.8</ele>
        <time>2024-01-21T12:22:58.000Z</time>
      </trkpt>
      <trkpt lat="43.56851" lon="6.17707">
        <ele>388.9</ele>
        <time>2024-01-21T12:23:01.000Z</time>
      </trkpt>
      <trkpt lat="43.56849" lon="6.17702">
        <ele>388.9</ele>
        <time>2024-01-21T12:23:07.000Z</time>
      </trkpt>
      <trkpt lat="43.56849" lon="6.17701">
        <ele>388.9</ele>
        <time>2024-01-21T12:23:08.000Z</time>
      </trkpt>
      <trkpt lat="43.56847" lon="6.17695">
        <ele>389</ele>
        <time>2024-01-21T12:23:11.000Z</time>
      </trkpt>
      <trkpt lat="43.56844" lon="6.1769">
        <ele>389</ele>
        <time>2024-01-21T12:23:14.000Z</time>
      </trkpt>
      <trkpt lat="43.56844" lon="6.17685">
        <ele>389</ele>
        <time>2024-01-21T12:23:18.000Z</time>
      </trkpt>
      <trkpt lat="43.56843" lon="6.17681">
        <ele>389</ele>
        <time>2024-01-21T12:23:23.000Z</time>
      </trkpt>
      <trkpt lat="43.56844" lon="6.17675">
        <ele>389.1</ele>
        <time>2024-01-21T12:23:27.000Z</time>
      </trkpt>
      <trkpt lat="43.56842" lon="6.17669">
        <ele>389.1</ele>
        <time>2024-01-21T12:23:35.000Z</time>
      </trkpt>
      <trkpt lat="43.56841" lon="6.17663">
        <ele>389.5</ele>
        <time>2024-01-21T12:23:56.000Z</time>
      </trkpt>
      <trkpt lat="43.56838" lon="6.17665">
        <ele>389.6</ele>
        <time>2024-01-21T12:24:26.000Z</time>
      </trkpt>
      <trkpt lat="43.56837" lon="6.17665">
        <ele>389.6</ele>
        <time>2024-01-21T12:24:27.000Z</time>
      </trkpt>
      <trkpt lat="43.56831" lon="6.1767">
        <ele>390</ele>
        <time>2024-01-21T12:24:43.000Z</time>
      </trkpt>
      <trkpt lat="43.56828" lon="6.17674">
        <ele>390.2</ele>
        <time>2024-01-21T12:24:48.000Z</time>
      </trkpt>
      <trkpt lat="43.56825" lon="6.17678">
        <ele>390.3</ele>
        <time>2024-01-21T12:24:52.000Z</time>
      </trkpt>
      <trkpt lat="43.56822" lon="6.17682">
        <ele>390.4</ele>
        <time>2024-01-21T12:24:57.000Z</time>
      </trkpt>
      <trkpt lat="43.5682" lon="6.17687">
        <ele>390.6</ele>
        <time>2024-01-21T12:25:03.000Z</time>
      </trkpt>
      <trkpt lat="43.56818" lon="6.17691">
        <ele>390.7</ele>
        <time>2024-01-21T12:25:08.000Z</time>
      </trkpt>
      <trkpt lat="43.56816" lon="6.17695">
        <ele>390.8</ele>
        <time>2024-01-21T12:25:12.000Z</time>
      </trkpt>
      <trkpt lat="43.56813" lon="6.17699">
        <ele>390.9</ele>
        <time>2024-01-21T12:25:16.000Z</time>
      </trkpt>
      <trkpt lat="43.5681" lon="6.17702">
        <ele>391</ele>
        <time>2024-01-21T12:25:19.000Z</time>
      </trkpt>
      <trkpt lat="43.56807" lon="6.17705">
        <ele>391.1</ele>
        <time>2024-01-21T12:25:23.000Z</time>
      </trkpt>
      <trkpt lat="43.56804" lon="6.17709">
        <ele>391.2</ele>
        <time>2024-01-21T12:25:26.000Z</time>
      </trkpt>
      <trkpt lat="43.56801" lon="6.17713">
        <ele>391.2</ele>
        <time>2024-01-21T12:25:29.000Z</time>
      </trkpt>
      <trkpt lat="43.56801" lon="6.17714">
        <ele>391.2</ele>
        <time>2024-01-21T12:25:30.000Z</time>
      </trkpt>
      <trkpt lat="43.56796" lon="6.17719">
        <ele>391.2</ele>
        <time>2024-01-21T12:25:35.000Z</time>
      </trkpt>
      <trkpt lat="43.56793" lon="6.17722">
        <ele>391.2</ele>
        <time>2024-01-21T12:25:38.000Z</time>
      </trkpt>
      <trkpt lat="43.5679" lon="6.17726">
        <ele>391.3</ele>
        <time>2024-01-21T12:25:42.000Z</time>
      </trkpt>
      <trkpt lat="43.56787" lon="6.1773">
        <ele>391.3</ele>
        <time>2024-01-21T12:25:46.000Z</time>
      </trkpt>
      <trkpt lat="43.56784" lon="6.17734">
        <ele>391.4</ele>
        <time>2024-01-21T12:25:50.000Z</time>
      </trkpt>
      <trkpt lat="43.56781" lon="6.17738">
        <ele>391.5</ele>
        <time>2024-01-21T12:25:54.000Z</time>
      </trkpt>
      <trkpt lat="43.56778" lon="6.17742">
        <ele>391.7</ele>
        <time>2024-01-21T12:25:59.000Z</time>
      </trkpt>
      <trkpt lat="43.56775" lon="6.17745">
        <ele>392</ele>
        <time>2024-01-21T12:26:03.000Z</time>
      </trkpt>
      <trkpt lat="43.56772" lon="6.17749">
        <ele>392.2</ele>
        <time>2024-01-21T12:26:07.000Z</time>
      </trkpt>
      <trkpt lat="43.56768" lon="6.17753">
        <ele>392.4</ele>
        <time>2024-01-21T12:26:11.000Z</time>
      </trkpt>
      <trkpt lat="43.56766" lon="6.17757">
        <ele>392.6</ele>
        <time>2024-01-21T12:26:15.000Z</time>
      </trkpt>
      <trkpt lat="43.56763" lon="6.1776">
        <ele>392.9</ele>
        <time>2024-01-21T12:26:19.000Z</time>
      </trkpt>
      <trkpt lat="43.5676" lon="6.17764">
        <ele>393.5</ele>
        <time>2024-01-21T12:26:25.000Z</time>
      </trkpt>
      <trkpt lat="43.56757" lon="6.17768">
        <ele>394.2</ele>
        <time>2024-01-21T12:26:31.000Z</time>
      </trkpt>
      <trkpt lat="43.56757" lon="6.17769">
        <ele>394.3</ele>
        <time>2024-01-21T12:26:32.000Z</time>
      </trkpt>
      <trkpt lat="43.56751" lon="6.17776">
        <ele>395.1</ele>
        <time>2024-01-21T12:26:41.000Z</time>
      </trkpt>
      <trkpt lat="43.56748" lon="6.17779">
        <ele>395.7</ele>
        <time>2024-01-21T12:26:47.000Z</time>
      </trkpt>
      <trkpt lat="43.56744" lon="6.1778">
        <ele>396.3</ele>
        <time>2024-01-21T12:26:52.000Z</time>
      </trkpt>
      <trkpt lat="43.56741" lon="6.1778">
        <ele>396.5</ele>
        <time>2024-01-21T12:26:54.000Z</time>
      </trkpt>
      <trkpt lat="43.56738" lon="6.17779">
        <ele>396.7</ele>
        <time>2024-01-21T12:26:56.000Z</time>
      </trkpt>
      <trkpt lat="43.56734" lon="6.17778">
        <ele>397</ele>
        <time>2024-01-21T12:26:59.000Z</time>
      </trkpt>
      <trkpt lat="43.5673" lon="6.17775">
        <ele>397.4</ele>
        <time>2024-01-21T12:27:03.000Z</time>
      </trkpt>
      <trkpt lat="43.56726" lon="6.17773">
        <ele>398</ele>
        <time>2024-01-21T12:27:09.000Z</time>
      </trkpt>
      <trkpt lat="43.56722" lon="6.17773">
        <ele>399.6</ele>
        <time>2024-01-21T12:27:31.000Z</time>
      </trkpt>
      <trkpt lat="43.56719" lon="6.1777">
        <ele>399.9</ele>
        <time>2024-01-21T12:27:56.000Z</time>
      </trkpt>
      <trkpt lat="43.56718" lon="6.17769">
        <ele>399.9</ele>
        <time>2024-01-21T12:27:57.000Z</time>
      </trkpt>
      <trkpt lat="43.56712" lon="6.17771">
        <ele>400.8</ele>
        <time>2024-01-21T12:28:30.000Z</time>
      </trkpt>
      <trkpt lat="43.56708" lon="6.1777">
        <ele>401.1</ele>
        <time>2024-01-21T12:28:36.000Z</time>
      </trkpt>
      <trkpt lat="43.56704" lon="6.17771">
        <ele>401.3</ele>
        <time>2024-01-21T12:28:41.000Z</time>
      </trkpt>
      <trkpt lat="43.567" lon="6.17771">
        <ele>401.6</ele>
        <time>2024-01-21T12:28:47.000Z</time>
      </trkpt>
      <trkpt lat="43.56696" lon="6.17769">
        <ele>402.2</ele>
        <time>2024-01-21T12:28:53.000Z</time>
      </trkpt>
      <trkpt lat="43.56692" lon="6.17768">
        <ele>402.7</ele>
        <time>2024-01-21T12:28:58.000Z</time>
      </trkpt>
      <trkpt lat="43.56691" lon="6.17768">
        <ele>402.8</ele>
        <time>2024-01-21T12:28:59.000Z</time>
      </trkpt>
      <trkpt lat="43.56685" lon="6.17769">
        <ele>403.5</ele>
        <time>2024-01-21T12:29:08.000Z</time>
      </trkpt>
      <trkpt lat="43.56681" lon="6.1777">
        <ele>403.7</ele>
        <time>2024-01-21T12:29:12.000Z</time>
      </trkpt>
      <trkpt lat="43.56677" lon="6.17771">
        <ele>404</ele>
        <time>2024-01-21T12:29:16.000Z</time>
      </trkpt>
      <trkpt lat="43.56673" lon="6.17772">
        <ele>404.4</ele>
        <time>2024-01-21T12:29:20.000Z</time>
      </trkpt>
      <trkpt lat="43.56669" lon="6.17774">
        <ele>404.8</ele>
        <time>2024-01-21T12:29:24.000Z</time>
      </trkpt>
      <trkpt lat="43.56665" lon="6.17775">
        <ele>405.1</ele>
        <time>2024-01-21T12:29:28.000Z</time>
      </trkpt>
      <trkpt lat="43.56661" lon="6.17776">
        <ele>405.5</ele>
        <time>2024-01-21T12:29:32.000Z</time>
      </trkpt>
      <trkpt lat="43.56658" lon="6.17777">
        <ele>405.8</ele>
        <time>2024-01-21T12:29:35.000Z</time>
      </trkpt>
      <trkpt lat="43.56653" lon="6.17777">
        <ele>406.4</ele>
        <time>2024-01-21T12:29:41.000Z</time>
      </trkpt>
      <trkpt lat="43.56649" lon="6.17777">
        <ele>406.8</ele>
        <time>2024-01-21T12:29:47.000Z</time>
      </trkpt>
      <trkpt lat="43.56646" lon="6.17773">
        <ele>407.1</ele>
        <time>2024-01-21T12:29:53.000Z</time>
      </trkpt>
      <trkpt lat="43.56649" lon="6.17769">
        <ele>408.1</ele>
        <time>2024-01-21T12:30:17.000Z</time>
      </trkpt>
      <trkpt lat="43.56649" lon="6.17769">
        <ele>408.2</ele>
        <time>2024-01-21T12:30:18.000Z</time>
      </trkpt>
      <trkpt lat="43.56657" lon="6.17767">
        <ele>409.7</ele>
        <time>2024-01-21T12:30:36.000Z</time>
      </trkpt>
      <trkpt lat="43.56659" lon="6.17762">
        <ele>410.4</ele>
        <time>2024-01-21T12:30:43.000Z</time>
      </trkpt>
      <trkpt lat="43.56658" lon="6.17757">
        <ele>410.8</ele>
        <time>2024-01-21T12:30:46.000Z</time>
      </trkpt>
      <trkpt lat="43.56655" lon="6.17753">
        <ele>411.2</ele>
        <time>2024-01-21T12:30:51.000Z</time>
      </trkpt>
      <trkpt lat="43.56652" lon="6.17749">
        <ele>411.8</ele>
        <time>2024-01-21T12:30:57.000Z</time>
      </trkpt>
      <trkpt lat="43.56648" lon="6.17745">
        <ele>412.5</ele>
        <time>2024-01-21T12:31:03.000Z</time>
      </trkpt>
      <trkpt lat="43.56644" lon="6.17743">
        <ele>413.6</ele>
        <time>2024-01-21T12:31:10.000Z</time>
      </trkpt>
      <trkpt lat="43.5664" lon="6.17741">
        <ele>414.4</ele>
        <time>2024-01-21T12:31:16.000Z</time>
      </trkpt>
      <trkpt lat="43.56636" lon="6.17739">
        <ele>415.5</ele>
        <time>2024-01-21T12:31:25.000Z</time>
      </trkpt>
      <trkpt lat="43.56636" lon="6.17739">
        <ele>415.6</ele>
        <time>2024-01-21T12:31:26.000Z</time>
      </trkpt>
      <trkpt lat="43.56628" lon="6.17738">
        <ele>417.5</ele>
        <time>2024-01-21T12:31:39.000Z</time>
      </trkpt>
      <trkpt lat="43.56625" lon="6.17739">
        <ele>418.3</ele>
        <time>2024-01-21T12:31:45.000Z</time>
      </trkpt>
      <trkpt lat="43.56621" lon="6.17739">
        <ele>419.1</ele>
        <time>2024-01-21T12:31:50.000Z</time>
      </trkpt>
      <trkpt lat="43.56617" lon="6.17739">
        <ele>419.9</ele>
        <time>2024-01-21T12:31:56.000Z</time>
      </trkpt>
      <trkpt lat="43.56613" lon="6.17739">
        <ele>420.6</ele>
        <time>2024-01-21T12:32:02.000Z</time>
      </trkpt>
      <trkpt lat="43.56609" lon="6.17738">
        <ele>421.6</ele>
        <time>2024-01-21T12:32:08.000Z</time>
      </trkpt>
      <trkpt lat="43.56605" lon="6.17737">
        <ele>422.7</ele>
        <time>2024-01-21T12:32:15.000Z</time>
      </trkpt>
      <trkpt lat="43.56601" lon="6.17737">
        <ele>423.3</ele>
        <time>2024-01-21T12:32:20.000Z</time>
      </trkpt>
      <trkpt lat="43.56597" lon="6.17737">
        <ele>424</ele>
        <time>2024-01-21T12:32:26.000Z</time>
      </trkpt>
      <trkpt lat="43.56596" lon="6.17737">
        <ele>424.1</ele>
        <time>2024-01-21T12:32:27.000Z</time>
      </trkpt>
      <trkpt lat="43.56588" lon="6.17738">
        <ele>424.9</ele>
        <time>2024-01-21T12:32:39.000Z</time>
      </trkpt>
      <trkpt lat="43.56584" lon="6.17738">
        <ele>425.4</ele>
        <time>2024-01-21T12:32:47.000Z</time>
      </trkpt>
      <trkpt lat="43.5658" lon="6.17739">
        <ele>426.2</ele>
        <time>2024-01-21T12:32:55.000Z</time>
      </trkpt>
      <trkpt lat="43.56576" lon="6.17739">
        <ele>426.8</ele>
        <time>2024-01-21T12:33:03.000Z</time>
      </trkpt>
      <trkpt lat="43.56571" lon="6.17739">
        <ele>427.5</ele>
        <time>2024-01-21T12:33:10.000Z</time>
      </trkpt>
      <trkpt lat="43.56567" lon="6.17739">
        <ele>428.2</ele>
        <time>2024-01-21T12:33:16.000Z</time>
      </trkpt>
      <trkpt lat="43.56563" lon="6.17739">
        <ele>428.9</ele>
        <time>2024-01-21T12:33:23.000Z</time>
      </trkpt>
      <trkpt lat="43.56559" lon="6.1774">
        <ele>429.5</ele>
        <time>2024-01-21T12:33:31.000Z</time>
      </trkpt>
      <trkpt lat="43.56558" lon="6.17739">
        <ele>429.6</ele>
        <time>2024-01-21T12:33:32.000Z</time>
      </trkpt>
      <trkpt lat="43.56551" lon="6.17738">
        <ele>431.1</ele>
        <time>2024-01-21T12:33:46.000Z</time>
      </trkpt>
      <trkpt lat="43.56547" lon="6.17739">
        <ele>431.8</ele>
        <time>2024-01-21T12:33:53.000Z</time>
      </trkpt>
      <trkpt lat="43.56542" lon="6.17737">
        <ele>432.6</ele>
        <time>2024-01-21T12:33:59.000Z</time>
      </trkpt>
      <trkpt lat="43.56539" lon="6.17737">
        <ele>433.2</ele>
        <time>2024-01-21T12:34:05.000Z</time>
      </trkpt>
      <trkpt lat="43.56535" lon="6.17736">
        <ele>433.7</ele>
        <time>2024-01-21T12:34:11.000Z</time>
      </trkpt>
      <trkpt lat="43.56538" lon="6.17732">
        <ele>435.6</ele>
        <time>2024-01-21T12:34:30.000Z</time>
      </trkpt>
      <trkpt lat="43.56542" lon="6.17731">
        <ele>436.6</ele>
        <time>2024-01-21T12:34:38.000Z</time>
      </trkpt>
      <trkpt lat="43.56543" lon="6.17731">
        <ele>436.7</ele>
        <time>2024-01-21T12:34:39.000Z</time>
      </trkpt>
      <trkpt lat="43.5655" lon="6.17727">
        <ele>439.2</ele>
        <time>2024-01-21T12:34:55.000Z</time>
      </trkpt>
      <trkpt lat="43.56547" lon="6.17722">
        <ele>440.5</ele>
        <time>2024-01-21T12:35:04.000Z</time>
      </trkpt>
      <trkpt lat="43.56544" lon="6.17718">
        <ele>441</ele>
        <time>2024-01-21T12:35:08.000Z</time>
      </trkpt>
      <trkpt lat="43.56541" lon="6.17716">
        <ele>441.9</ele>
        <time>2024-01-21T12:35:15.000Z</time>
      </trkpt>
      <trkpt lat="43.56543" lon="6.17711">
        <ele>444.9</ele>
        <time>2024-01-21T12:35:39.000Z</time>
      </trkpt>
      <trkpt lat="43.56543" lon="6.17711">
        <ele>445</ele>
        <time>2024-01-21T12:35:40.000Z</time>
      </trkpt>
      <trkpt lat="43.56547" lon="6.17704">
        <ele>447.3</ele>
        <time>2024-01-21T12:35:59.000Z</time>
      </trkpt>
      <trkpt lat="43.56551" lon="6.17701">
        <ele>448.3</ele>
        <time>2024-01-21T12:36:08.000Z</time>
      </trkpt>
      <trkpt lat="43.56555" lon="6.177">
        <ele>449.4</ele>
        <time>2024-01-21T12:36:17.000Z</time>
      </trkpt>
      <trkpt lat="43.56558" lon="6.17699">
        <ele>450.4</ele>
        <time>2024-01-21T12:36:24.000Z</time>
      </trkpt>
      <trkpt lat="43.56562" lon="6.17697">
        <ele>451.3</ele>
        <time>2024-01-21T12:36:32.000Z</time>
      </trkpt>
      <trkpt lat="43.56566" lon="6.17696">
        <ele>452.1</ele>
        <time>2024-01-21T12:36:38.000Z</time>
      </trkpt>
      <trkpt lat="43.56571" lon="6.17696">
        <ele>453</ele>
        <time>2024-01-21T12:36:45.000Z</time>
      </trkpt>
      <trkpt lat="43.56571" lon="6.17696">
        <ele>453.2</ele>
        <time>2024-01-21T12:36:46.000Z</time>
      </trkpt>
      <trkpt lat="43.56578" lon="6.17693">
        <ele>455.4</ele>
        <time>2024-01-21T12:37:02.000Z</time>
      </trkpt>
      <trkpt lat="43.56582" lon="6.17689">
        <ele>456.4</ele>
        <time>2024-01-21T12:37:10.000Z</time>
      </trkpt>
      <trkpt lat="43.56583" lon="6.17684">
        <ele>457.2</ele>
        <time>2024-01-21T12:37:15.000Z</time>
      </trkpt>
      <trkpt lat="43.56583" lon="6.17679">
        <ele>457.6</ele>
        <time>2024-01-21T12:37:18.000Z</time>
      </trkpt>
      <trkpt lat="43.56583" lon="6.17673">
        <ele>458.2</ele>
        <time>2024-01-21T12:37:22.000Z</time>
      </trkpt>
      <trkpt lat="43.56584" lon="6.17668">
        <ele>459</ele>
        <time>2024-01-21T12:37:27.000Z</time>
      </trkpt>
      <trkpt lat="43.56587" lon="6.17664">
        <ele>460.5</ele>
        <time>2024-01-21T12:37:37.000Z</time>
      </trkpt>
      <trkpt lat="43.56591" lon="6.17661">
        <ele>461.6</ele>
        <time>2024-01-21T12:37:45.000Z</time>
      </trkpt>
      <trkpt lat="43.56594" lon="6.17658">
        <ele>462.4</ele>
        <time>2024-01-21T12:37:53.000Z</time>
      </trkpt>
      <trkpt lat="43.56595" lon="6.17658">
        <ele>462.5</ele>
        <time>2024-01-21T12:37:54.000Z</time>
      </trkpt>
      <trkpt lat="43.56602" lon="6.17653">
        <ele>464.1</ele>
        <time>2024-01-21T12:38:07.000Z</time>
      </trkpt>
      <trkpt lat="43.56604" lon="6.17648">
        <ele>465.1</ele>
        <time>2024-01-21T12:38:15.000Z</time>
      </trkpt>
      <trkpt lat="43.56605" lon="6.17643">
        <ele>465.5</ele>
        <time>2024-01-21T12:38:21.000Z</time>
      </trkpt>
      <trkpt lat="43.56607" lon="6.17638">
        <ele>465.8</ele>
        <time>2024-01-21T12:38:25.000Z</time>
      </trkpt>
      <trkpt lat="43.56606" lon="6.17632">
        <ele>466</ele>
        <time>2024-01-21T12:38:31.000Z</time>
      </trkpt>
      <trkpt lat="43.56603" lon="6.17628">
        <ele>466.1</ele>
        <time>2024-01-21T12:38:35.000Z</time>
      </trkpt>
      <trkpt lat="43.56605" lon="6.17632">
        <ele>466.4</ele>
        <time>2024-01-21T12:39:01.000Z</time>
      </trkpt>
      <trkpt lat="43.56605" lon="6.17633">
        <ele>466.4</ele>
        <time>2024-01-21T12:39:02.000Z</time>
      </trkpt>
      <trkpt lat="43.56604" lon="6.17635">
        <ele>466.3</ele>
        <time>2024-01-21T12:40:51.000Z</time>
      </trkpt>
      <trkpt lat="43.56603" lon="6.17634">
        <ele>466.3</ele>
        <time>2024-01-21T12:40:52.000Z</time>
      </trkpt>
      <trkpt lat="43.56611" lon="6.1764">
        <ele>466.4</ele>
        <time>2024-01-21T12:41:28.000Z</time>
      </trkpt>
      <trkpt lat="43.56614" lon="6.17644">
        <ele>466.2</ele>
        <time>2024-01-21T12:42:04.000Z</time>
      </trkpt>
      <trkpt lat="43.56614" lon="6.17645">
        <ele>466.2</ele>
        <time>2024-01-21T12:42:05.000Z</time>
      </trkpt>
      <trkpt lat="43.56613" lon="6.17638">
        <ele>466</ele>
        <time>2024-01-21T12:43:22.000Z</time>
      </trkpt>
      <trkpt lat="43.56612" lon="6.17631">
        <ele>466.1</ele>
        <time>2024-01-21T12:44:35.000Z</time>
      </trkpt>
      <trkpt lat="43.56612" lon="6.17631">
        <ele>466.1</ele>
        <time>2024-01-21T12:44:36.000Z</time>
      </trkpt>
      <trkpt lat="43.56605" lon="6.17634">
        <ele>465.9</ele>
        <time>2024-01-21T12:45:25.000Z</time>
      </trkpt>
      <trkpt lat="43.56603" lon="6.1764">
        <ele>465.5</ele>
        <time>2024-01-21T12:45:35.000Z</time>
      </trkpt>
      <trkpt lat="43.56602" lon="6.17645">
        <ele>464.6</ele>
        <time>2024-01-21T12:45:44.000Z</time>
      </trkpt>
      <trkpt lat="43.56601" lon="6.17646">
        <ele>464.5</ele>
        <time>2024-01-21T12:45:45.000Z</time>
      </trkpt>
      <trkpt lat="43.56595" lon="6.17652">
        <ele>463.4</ele>
        <time>2024-01-21T12:45:55.000Z</time>
      </trkpt>
      <trkpt lat="43.56592" lon="6.17655">
        <ele>462.9</ele>
        <time>2024-01-21T12:45:59.000Z</time>
      </trkpt>
      <trkpt lat="43.56589" lon="6.17659">
        <ele>462.3</ele>
        <time>2024-01-21T12:46:04.000Z</time>
      </trkpt>
      <trkpt lat="43.56586" lon="6.17664">
        <ele>461</ele>
        <time>2024-01-21T12:46:12.000Z</time>
      </trkpt>
      <trkpt lat="43.56584" lon="6.1767">
        <ele>458.7</ele>
        <time>2024-01-21T12:46:27.000Z</time>
      </trkpt>
      <trkpt lat="43.56581" lon="6.17675">
        <ele>457.8</ele>
        <time>2024-01-21T12:46:35.000Z</time>
      </trkpt>
      <trkpt lat="43.56579" lon="6.1768">
        <ele>456.2</ele>
        <time>2024-01-21T12:46:46.000Z</time>
      </trkpt>
      <trkpt lat="43.56579" lon="6.1768">
        <ele>456.1</ele>
        <time>2024-01-21T12:46:47.000Z</time>
      </trkpt>
      <trkpt lat="43.56573" lon="6.17687">
        <ele>454.8</ele>
        <time>2024-01-21T12:46:58.000Z</time>
      </trkpt>
      <trkpt lat="43.5657" lon="6.17691">
        <ele>453.3</ele>
        <time>2024-01-21T12:47:07.000Z</time>
      </trkpt>
      <trkpt lat="43.56567" lon="6.17694">
        <ele>452.3</ele>
        <time>2024-01-21T12:47:13.000Z</time>
      </trkpt>
      <trkpt lat="43.56563" lon="6.17697">
        <ele>451.4</ele>
        <time>2024-01-21T12:47:19.000Z</time>
      </trkpt>
      <trkpt lat="43.5656" lon="6.177">
        <ele>450.7</ele>
        <time>2024-01-21T12:47:24.000Z</time>
      </trkpt>
      <trkpt lat="43.56556" lon="6.17702">
        <ele>449.6</ele>
        <time>2024-01-21T12:47:32.000Z</time>
      </trkpt>
      <trkpt lat="43.56552" lon="6.17704">
        <ele>448.5</ele>
        <time>2024-01-21T12:47:40.000Z</time>
      </trkpt>
      <trkpt lat="43.56549" lon="6.17708">
        <ele>447.1</ele>
        <time>2024-01-21T12:47:49.000Z</time>
      </trkpt>
      <trkpt lat="43.56548" lon="6.17709">
        <ele>447</ele>
        <time>2024-01-21T12:47:50.000Z</time>
      </trkpt>
      <trkpt lat="43.56544" lon="6.17716">
        <ele>442.4</ele>
        <time>2024-01-21T12:48:25.000Z</time>
      </trkpt>
      <trkpt lat="43.56543" lon="6.17722">
        <ele>441.6</ele>
        <time>2024-01-21T12:48:31.000Z</time>
      </trkpt>
      <trkpt lat="43.5654" lon="6.17726">
        <ele>440.4</ele>
        <time>2024-01-21T12:48:43.000Z</time>
      </trkpt>
      <trkpt lat="43.56537" lon="6.17731">
        <ele>440.1</ele>
        <time>2024-01-21T12:48:49.000Z</time>
      </trkpt>
      <trkpt lat="43.56538" lon="6.17737">
        <ele>437.9</ele>
        <time>2024-01-21T12:49:08.000Z</time>
      </trkpt>
      <trkpt lat="43.56539" lon="6.17737">
        <ele>437.8</ele>
        <time>2024-01-21T12:49:09.000Z</time>
      </trkpt>
      <trkpt lat="43.56547" lon="6.17739">
        <ele>436.2</ele>
        <time>2024-01-21T12:49:24.000Z</time>
      </trkpt>
      <trkpt lat="43.56551" lon="6.17738">
        <ele>435.6</ele>
        <time>2024-01-21T12:49:31.000Z</time>
      </trkpt>
      <trkpt lat="43.56554" lon="6.17739">
        <ele>434.9</ele>
        <time>2024-01-21T12:49:36.000Z</time>
      </trkpt>
      <trkpt lat="43.56559" lon="6.17738">
        <ele>434.1</ele>
        <time>2024-01-21T12:49:42.000Z</time>
      </trkpt>
      <trkpt lat="43.56563" lon="6.17738">
        <ele>433.5</ele>
        <time>2024-01-21T12:49:47.000Z</time>
      </trkpt>
      <trkpt lat="43.56567" lon="6.17738">
        <ele>433</ele>
        <time>2024-01-21T12:49:51.000Z</time>
      </trkpt>
      <trkpt lat="43.56571" lon="6.17737">
        <ele>432.4</ele>
        <time>2024-01-21T12:49:56.000Z</time>
      </trkpt>
      <trkpt lat="43.56575" lon="6.17738">
        <ele>431.7</ele>
        <time>2024-01-21T12:50:01.000Z</time>
      </trkpt>
      <trkpt lat="43.56579" lon="6.17738">
        <ele>431.2</ele>
        <time>2024-01-21T12:50:05.000Z</time>
      </trkpt>
      <trkpt lat="43.56582" lon="6.17738">
        <ele>430.6</ele>
        <time>2024-01-21T12:50:09.000Z</time>
      </trkpt>
      <trkpt lat="43.56583" lon="6.17737">
        <ele>430.5</ele>
        <time>2024-01-21T12:50:10.000Z</time>
      </trkpt>
      <trkpt lat="43.56591" lon="6.17738">
        <ele>429.4</ele>
        <time>2024-01-21T12:50:17.000Z</time>
      </trkpt>
      <trkpt lat="43.56595" lon="6.17739">
        <ele>428.7</ele>
        <time>2024-01-21T12:50:22.000Z</time>
      </trkpt>
      <trkpt lat="43.56599" lon="6.17739">
        <ele>427.5</ele>
        <time>2024-01-21T12:50:30.000Z</time>
      </trkpt>
      <trkpt lat="43.56604" lon="6.1774">
        <ele>426.7</ele>
        <time>2024-01-21T12:50:35.000Z</time>
      </trkpt>
      <trkpt lat="43.56608" lon="6.1774">
        <ele>425.9</ele>
        <time>2024-01-21T12:50:41.000Z</time>
      </trkpt>
      <trkpt lat="43.56612" lon="6.17738">
        <ele>425</ele>
        <time>2024-01-21T12:50:48.000Z</time>
      </trkpt>
      <trkpt lat="43.56615" lon="6.17738">
        <ele>424.3</ele>
        <time>2024-01-21T12:50:52.000Z</time>
      </trkpt>
      <trkpt lat="43.56619" lon="6.17737">
        <ele>423.4</ele>
        <time>2024-01-21T12:50:57.000Z</time>
      </trkpt>
      <trkpt lat="43.56623" lon="6.17736">
        <ele>422.7</ele>
        <time>2024-01-21T12:51:02.000Z</time>
      </trkpt>
      <trkpt lat="43.56627" lon="6.17736">
        <ele>421.4</ele>
        <time>2024-01-21T12:51:10.000Z</time>
      </trkpt>
      <trkpt lat="43.56628" lon="6.17736">
        <ele>421.3</ele>
        <time>2024-01-21T12:51:11.000Z</time>
      </trkpt>
      <trkpt lat="43.56636" lon="6.17738">
        <ele>418.3</ele>
        <time>2024-01-21T12:51:30.000Z</time>
      </trkpt>
      <trkpt lat="43.56639" lon="6.1774">
        <ele>418</ele>
        <time>2024-01-21T12:51:32.000Z</time>
      </trkpt>
      <trkpt lat="43.56643" lon="6.17741">
        <ele>417.4</ele>
        <time>2024-01-21T12:51:36.000Z</time>
      </trkpt>
      <trkpt lat="43.56647" lon="6.17742">
        <ele>416.5</ele>
        <time>2024-01-21T12:51:43.000Z</time>
      </trkpt>
      <trkpt lat="43.56652" lon="6.17744">
        <ele>415.6</ele>
        <time>2024-01-21T12:51:49.000Z</time>
      </trkpt>
      <trkpt lat="43.56656" lon="6.17745">
        <ele>414.6</ele>
        <time>2024-01-21T12:52:02.000Z</time>
      </trkpt>
      <trkpt lat="43.56659" lon="6.17749">
        <ele>413.8</ele>
        <time>2024-01-21T12:52:21.000Z</time>
      </trkpt>
      <trkpt lat="43.56659" lon="6.17749">
        <ele>413.8</ele>
        <time>2024-01-21T12:52:22.000Z</time>
      </trkpt>
      <trkpt lat="43.56667" lon="6.17746">
        <ele>413.4</ele>
        <time>2024-01-21T12:52:59.000Z</time>
      </trkpt>
      <trkpt lat="43.56666" lon="6.17751">
        <ele>412.9</ele>
        <time>2024-01-21T12:53:53.000Z</time>
      </trkpt>
      <trkpt lat="43.56665" lon="6.17752">
        <ele>412.8</ele>
        <time>2024-01-21T12:53:54.000Z</time>
      </trkpt>
      <trkpt lat="43.56662" lon="6.1776">
        <ele>412</ele>
        <time>2024-01-21T12:54:02.000Z</time>
      </trkpt>
      <trkpt lat="43.56658" lon="6.17763">
        <ele>411.5</ele>
        <time>2024-01-21T12:54:08.000Z</time>
      </trkpt>
      <trkpt lat="43.56655" lon="6.17765">
        <ele>411.2</ele>
        <time>2024-01-21T12:54:12.000Z</time>
      </trkpt>
      <trkpt lat="43.56651" lon="6.17767">
        <ele>410.8</ele>
        <time>2024-01-21T12:54:16.000Z</time>
      </trkpt>
      <trkpt lat="43.56648" lon="6.17772">
        <ele>410.3</ele>
        <time>2024-01-21T12:54:21.000Z</time>
      </trkpt>
      <trkpt lat="43.56648" lon="6.17777">
        <ele>408</ele>
        <time>2024-01-21T12:54:43.000Z</time>
      </trkpt>
      <trkpt lat="43.56651" lon="6.17781">
        <ele>406.7</ele>
        <time>2024-01-21T12:54:54.000Z</time>
      </trkpt>
      <trkpt lat="43.56652" lon="6.17782">
        <ele>406.6</ele>
        <time>2024-01-21T12:54:55.000Z</time>
      </trkpt>
      <trkpt lat="43.56659" lon="6.17783">
        <ele>405.7</ele>
        <time>2024-01-21T12:55:03.000Z</time>
      </trkpt>
      <trkpt lat="43.56663" lon="6.17784">
        <ele>405.1</ele>
        <time>2024-01-21T12:55:09.000Z</time>
      </trkpt>
      <trkpt lat="43.56668" lon="6.17786">
        <ele>403.7</ele>
        <time>2024-01-21T12:55:21.000Z</time>
      </trkpt>
      <trkpt lat="43.56672" lon="6.17787">
        <ele>403.2</ele>
        <time>2024-01-21T12:55:25.000Z</time>
      </trkpt>
      <trkpt lat="43.56675" lon="6.1779">
        <ele>402.7</ele>
        <time>2024-01-21T12:55:30.000Z</time>
      </trkpt>
      <trkpt lat="43.56678" lon="6.17794">
        <ele>402.2</ele>
        <time>2024-01-21T12:55:34.000Z</time>
      </trkpt>
      <trkpt lat="43.5668" lon="6.17799">
        <ele>401.7</ele>
        <time>2024-01-21T12:55:38.000Z</time>
      </trkpt>
      <trkpt lat="43.56679" lon="6.17804">
        <ele>401.3</ele>
        <time>2024-01-21T12:55:42.000Z</time>
      </trkpt>
      <trkpt lat="43.56679" lon="6.17809">
        <ele>401</ele>
        <time>2024-01-21T12:55:45.000Z</time>
      </trkpt>
      <trkpt lat="43.56678" lon="6.17814">
        <ele>400.7</ele>
        <time>2024-01-21T12:55:50.000Z</time>
      </trkpt>
      <trkpt lat="43.56676" lon="6.17818">
        <ele>400.5</ele>
        <time>2024-01-21T12:55:53.000Z</time>
      </trkpt>
      <trkpt lat="43.56673" lon="6.17822">
        <ele>400.1</ele>
        <time>2024-01-21T12:56:02.000Z</time>
      </trkpt>
      <trkpt lat="43.56673" lon="6.17824">
        <ele>400</ele>
        <time>2024-01-21T12:56:03.000Z</time>
      </trkpt>
      <trkpt lat="43.5667" lon="6.17833">
        <ele>399.5</ele>
        <time>2024-01-21T12:56:11.000Z</time>
      </trkpt>
      <trkpt lat="43.56671" lon="6.17838">
        <ele>399.3</ele>
        <time>2024-01-21T12:56:14.000Z</time>
      </trkpt>
      <trkpt lat="43.56671" lon="6.17843">
        <ele>399</ele>
        <time>2024-01-21T12:56:18.000Z</time>
      </trkpt>
      <trkpt lat="43.56671" lon="6.17849">
        <ele>398.6</ele>
        <time>2024-01-21T12:56:23.000Z</time>
      </trkpt>
      <trkpt lat="43.56671" lon="6.17855">
        <ele>398.3</ele>
        <time>2024-01-21T12:56:27.000Z</time>
      </trkpt>
      <trkpt lat="43.56673" lon="6.17859">
        <ele>398.1</ele>
        <time>2024-01-21T12:56:30.000Z</time>
      </trkpt>
      <trkpt lat="43.56675" lon="6.17864">
        <ele>397.9</ele>
        <time>2024-01-21T12:56:33.000Z</time>
      </trkpt>
      <trkpt lat="43.56677" lon="6.17868">
        <ele>397.8</ele>
        <time>2024-01-21T12:56:36.000Z</time>
      </trkpt>
      <trkpt lat="43.56679" lon="6.17872">
        <ele>397.7</ele>
        <time>2024-01-21T12:56:39.000Z</time>
      </trkpt>
      <trkpt lat="43.56681" lon="6.17877">
        <ele>397.6</ele>
        <time>2024-01-21T12:56:42.000Z</time>
      </trkpt>
      <trkpt lat="43.56684" lon="6.17881">
        <ele>397.5</ele>
        <time>2024-01-21T12:56:46.000Z</time>
      </trkpt>
      <trkpt lat="43.56688" lon="6.17883">
        <ele>397.4</ele>
        <time>2024-01-21T12:56:50.000Z</time>
      </trkpt>
      <trkpt lat="43.5669" lon="6.17888">
        <ele>397.4</ele>
        <time>2024-01-21T12:56:55.000Z</time>
      </trkpt>
      <trkpt lat="43.56694" lon="6.1789">
        <ele>397.6</ele>
        <time>2024-01-21T12:57:00.000Z</time>
      </trkpt>
      <trkpt lat="43.56695" lon="6.17895">
        <ele>397.8</ele>
        <time>2024-01-21T12:57:05.000Z</time>
      </trkpt>
      <trkpt lat="43.56695" lon="6.17896">
        <ele>397.8</ele>
        <time>2024-01-21T12:57:06.000Z</time>
      </trkpt>
      <trkpt lat="43.56692" lon="6.17905">
        <ele>398.3</ele>
        <time>2024-01-21T12:57:20.000Z</time>
      </trkpt>
      <trkpt lat="43.56691" lon="6.1791">
        <ele>398.6</ele>
        <time>2024-01-21T12:57:24.000Z</time>
      </trkpt>
      <trkpt lat="43.56692" lon="6.17916">
        <ele>398.9</ele>
        <time>2024-01-21T12:57:29.000Z</time>
      </trkpt>
      <trkpt lat="43.56694" lon="6.17921">
        <ele>399.2</ele>
        <time>2024-01-21T12:57:34.000Z</time>
      </trkpt>
      <trkpt lat="43.56698" lon="6.17924">
        <ele>399.5</ele>
        <time>2024-01-21T12:57:37.000Z</time>
      </trkpt>
      <trkpt lat="43.56701" lon="6.17927">
        <ele>400</ele>
        <time>2024-01-21T12:57:41.000Z</time>
      </trkpt>
      <trkpt lat="43.56704" lon="6.1793">
        <ele>400.5</ele>
        <time>2024-01-21T12:57:45.000Z</time>
      </trkpt>
      <trkpt lat="43.56708" lon="6.17932">
        <ele>400.9</ele>
        <time>2024-01-21T12:57:49.000Z</time>
      </trkpt>
      <trkpt lat="43.56712" lon="6.17934">
        <ele>401.2</ele>
        <time>2024-01-21T12:57:52.000Z</time>
      </trkpt>
      <trkpt lat="43.56715" lon="6.17936">
        <ele>401.5</ele>
        <time>2024-01-21T12:57:56.000Z</time>
      </trkpt>
      <trkpt lat="43.56718" lon="6.17938">
        <ele>401.8</ele>
        <time>2024-01-21T12:58:00.000Z</time>
      </trkpt>
      <trkpt lat="43.56722" lon="6.17939">
        <ele>402.1</ele>
        <time>2024-01-21T12:58:03.000Z</time>
      </trkpt>
      <trkpt lat="43.56726" lon="6.1794">
        <ele>402.5</ele>
        <time>2024-01-21T12:58:07.000Z</time>
      </trkpt>
      <trkpt lat="43.56727" lon="6.17941">
        <ele>402.6</ele>
        <time>2024-01-21T12:58:08.000Z</time>
      </trkpt>
      <trkpt lat="43.56732" lon="6.17947">
        <ele>403.8</ele>
        <time>2024-01-21T12:58:27.000Z</time>
      </trkpt>
      <trkpt lat="43.56736" lon="6.17946">
        <ele>403.8</ele>
        <time>2024-01-21T12:58:41.000Z</time>
      </trkpt>
      <trkpt lat="43.56739" lon="6.17942">
        <ele>403.8</ele>
        <time>2024-01-21T12:58:47.000Z</time>
      </trkpt>
      <trkpt lat="43.56742" lon="6.17939">
        <ele>403.8</ele>
        <time>2024-01-21T12:58:50.000Z</time>
      </trkpt>
      <trkpt lat="43.56745" lon="6.17937">
        <ele>403.8</ele>
        <time>2024-01-21T12:58:52.000Z</time>
      </trkpt>
      <trkpt lat="43.56748" lon="6.17933">
        <ele>403.8</ele>
        <time>2024-01-21T12:58:55.000Z</time>
      </trkpt>
      <trkpt lat="43.56749" lon="6.17928">
        <ele>403.9</ele>
        <time>2024-01-21T12:58:58.000Z</time>
      </trkpt>
      <trkpt lat="43.5675" lon="6.17923">
        <ele>404</ele>
        <time>2024-01-21T12:59:01.000Z</time>
      </trkpt>
      <trkpt lat="43.56752" lon="6.17917">
        <ele>404.3</ele>
        <time>2024-01-21T12:59:05.000Z</time>
      </trkpt>
      <trkpt lat="43.56753" lon="6.17912">
        <ele>404.5</ele>
        <time>2024-01-21T12:59:10.000Z</time>
      </trkpt>
      <trkpt lat="43.56753" lon="6.17911">
        <ele>404.6</ele>
        <time>2024-01-21T12:59:11.000Z</time>
      </trkpt>
      <trkpt lat="43.56759" lon="6.17904">
        <ele>404.6</ele>
        <time>2024-01-21T12:59:27.000Z</time>
      </trkpt>
      <trkpt lat="43.56761" lon="6.179">
        <ele>404.6</ele>
        <time>2024-01-21T12:59:40.000Z</time>
      </trkpt>
      <trkpt lat="43.56765" lon="6.179">
        <ele>404.5</ele>
        <time>2024-01-21T12:59:43.000Z</time>
      </trkpt>
      <trkpt lat="43.56769" lon="6.17902">
        <ele>404.4</ele>
        <time>2024-01-21T13:00:17.000Z</time>
      </trkpt>
      <trkpt lat="43.5677" lon="6.17902">
        <ele>404.4</ele>
        <time>2024-01-21T13:00:18.000Z</time>
      </trkpt>
      <trkpt lat="43.56775" lon="6.1791">
        <ele>403.4</ele>
        <time>2024-01-21T13:01:12.000Z</time>
      </trkpt>
      <trkpt lat="43.56779" lon="6.17911">
        <ele>403.6</ele>
        <time>2024-01-21T13:01:39.000Z</time>
      </trkpt>
      <trkpt lat="43.56779" lon="6.1791">
        <ele>403.6</ele>
        <time>2024-01-21T13:01:40.000Z</time>
      </trkpt>
      <trkpt lat="43.56788" lon="6.17911">
        <ele>402.3</ele>
        <time>2024-01-21T13:02:29.000Z</time>
      </trkpt>
      <trkpt lat="43.56792" lon="6.17913">
        <ele>401.8</ele>
        <time>2024-01-21T13:02:41.000Z</time>
      </trkpt>
      <trkpt lat="43.56792" lon="6.17913">
        <ele>401.7</ele>
        <time>2024-01-21T13:02:42.000Z</time>
      </trkpt>
      <trkpt lat="43.56792" lon="6.17922">
        <ele>400.7</ele>
        <time>2024-01-21T13:03:01.000Z</time>
      </trkpt>
      <trkpt lat="43.56795" lon="6.17925">
        <ele>400.6</ele>
        <time>2024-01-21T13:03:04.000Z</time>
      </trkpt>
      <trkpt lat="43.56798" lon="6.17929">
        <ele>400.5</ele>
        <time>2024-01-21T13:03:09.000Z</time>
      </trkpt>
      <trkpt lat="43.56798" lon="6.17935">
        <ele>400.2</ele>
        <time>2024-01-21T13:03:36.000Z</time>
      </trkpt>
      <trkpt lat="43.56799" lon="6.1794">
        <ele>400.3</ele>
        <time>2024-01-21T13:04:23.000Z</time>
      </trkpt>
      <trkpt lat="43.568" lon="6.17942">
        <ele>400.3</ele>
        <time>2024-01-21T13:04:24.000Z</time>
      </trkpt>
      <trkpt lat="43.56805" lon="6.17947">
        <ele>399.6</ele>
        <time>2024-01-21T13:05:12.000Z</time>
      </trkpt>
      <trkpt lat="43.56804" lon="6.17951">
        <ele>398.9</ele>
        <time>2024-01-21T13:05:21.000Z</time>
      </trkpt>
      <trkpt lat="43.56803" lon="6.17957">
        <ele>398.6</ele>
        <time>2024-01-21T13:05:25.000Z</time>
      </trkpt>
      <trkpt lat="43.56804" lon="6.17958">
        <ele>398.6</ele>
        <time>2024-01-21T13:05:26.000Z</time>
      </trkpt>
      <trkpt lat="43.56808" lon="6.17961">
        <ele>398.3</ele>
        <time>2024-01-21T13:05:32.000Z</time>
      </trkpt>
      <trkpt lat="43.56812" lon="6.17964">
        <ele>398.2</ele>
        <time>2024-01-21T13:05:36.000Z</time>
      </trkpt>
      <trkpt lat="43.56809" lon="6.17969">
        <ele>397.6</ele>
        <time>2024-01-21T13:05:49.000Z</time>
      </trkpt>
      <trkpt lat="43.56807" lon="6.17973">
        <ele>396.7</ele>
        <time>2024-01-21T13:05:59.000Z</time>
      </trkpt>
      <trkpt lat="43.56806" lon="6.17979">
        <ele>396.1</ele>
        <time>2024-01-21T13:06:08.000Z</time>
      </trkpt>
      <trkpt lat="43.56807" lon="6.17984">
        <ele>395.8</ele>
        <time>2024-01-21T13:06:14.000Z</time>
      </trkpt>
      <trkpt lat="43.56808" lon="6.17989">
        <ele>395.3</ele>
        <time>2024-01-21T13:06:22.000Z</time>
      </trkpt>
      <trkpt lat="43.5681" lon="6.17992">
        <ele>394.9</ele>
        <time>2024-01-21T13:06:26.000Z</time>
      </trkpt>
      <trkpt lat="43.56812" lon="6.17993">
        <ele>394.8</ele>
        <time>2024-01-21T13:06:27.000Z</time>
      </trkpt>
      <trkpt lat="43.56814" lon="6.18001">
        <ele>393.9</ele>
        <time>2024-01-21T13:06:36.000Z</time>
      </trkpt>
      <trkpt lat="43.56816" lon="6.18005">
        <ele>393.4</ele>
        <time>2024-01-21T13:06:40.000Z</time>
      </trkpt>
      <trkpt lat="43.5682" lon="6.18007">
        <ele>393.1</ele>
        <time>2024-01-21T13:06:43.000Z</time>
      </trkpt>
      <trkpt lat="43.56823" lon="6.18011">
        <ele>392.5</ele>
        <time>2024-01-21T13:06:48.000Z</time>
      </trkpt>
      <trkpt lat="43.56824" lon="6.18017">
        <ele>389.5</ele>
        <time>2024-01-21T13:07:13.000Z</time>
      </trkpt>
      <trkpt lat="43.56825" lon="6.18023">
        <ele>389.1</ele>
        <time>2024-01-21T13:07:20.000Z</time>
      </trkpt>
      <trkpt lat="43.56823" lon="6.18029">
        <ele>388.8</ele>
        <time>2024-01-21T13:07:25.000Z</time>
      </trkpt>
      <trkpt lat="43.5682" lon="6.18033">
        <ele>388.6</ele>
        <time>2024-01-21T13:07:32.000Z</time>
      </trkpt>
      <trkpt lat="43.5682" lon="6.18034">
        <ele>388.5</ele>
        <time>2024-01-21T13:07:33.000Z</time>
      </trkpt>
      <trkpt lat="43.56817" lon="6.18042">
        <ele>388.4</ele>
        <time>2024-01-21T13:07:38.000Z</time>
      </trkpt>
      <trkpt lat="43.56817" lon="6.18048">
        <ele>388.3</ele>
        <time>2024-01-21T13:07:42.000Z</time>
      </trkpt>
      <trkpt lat="43.56818" lon="6.18053">
        <ele>388.2</ele>
        <time>2024-01-21T13:07:46.000Z</time>
      </trkpt>
      <trkpt lat="43.56819" lon="6.18058">
        <ele>388.1</ele>
        <time>2024-01-21T13:07:50.000Z</time>
      </trkpt>
      <trkpt lat="43.5682" lon="6.18064">
        <ele>388</ele>
        <time>2024-01-21T13:07:54.000Z</time>
      </trkpt>
      <trkpt lat="43.56821" lon="6.18069">
        <ele>387.9</ele>
        <time>2024-01-21T13:07:59.000Z</time>
      </trkpt>
      <trkpt lat="43.56823" lon="6.18074">
        <ele>387.9</ele>
        <time>2024-01-21T13:08:03.000Z</time>
      </trkpt>
      <trkpt lat="43.56823" lon="6.18079">
        <ele>387.8</ele>
        <time>2024-01-21T13:08:08.000Z</time>
      </trkpt>
      <trkpt lat="43.56821" lon="6.18085">
        <ele>387.8</ele>
        <time>2024-01-21T13:08:11.000Z</time>
      </trkpt>
      <trkpt lat="43.56823" lon="6.18089">
        <ele>387.7</ele>
        <time>2024-01-21T13:08:14.000Z</time>
      </trkpt>
      <trkpt lat="43.56825" lon="6.18095">
        <ele>387.6</ele>
        <time>2024-01-21T13:08:17.000Z</time>
      </trkpt>
      <trkpt lat="43.56828" lon="6.18098">
        <ele>387.3</ele>
        <time>2024-01-21T13:08:22.000Z</time>
      </trkpt>
      <trkpt lat="43.56829" lon="6.18104">
        <ele>387.1</ele>
        <time>2024-01-21T13:08:28.000Z</time>
      </trkpt>
      <trkpt lat="43.56829" lon="6.1811">
        <ele>387</ele>
        <time>2024-01-21T13:08:31.000Z</time>
      </trkpt>
      <trkpt lat="43.56828" lon="6.18114">
        <ele>386.9</ele>
        <time>2024-01-21T13:08:33.000Z</time>
      </trkpt>
      <trkpt lat="43.56829" lon="6.18117">
        <ele>386.9</ele>
        <time>2024-01-21T13:08:34.000Z</time>
      </trkpt>
      <trkpt lat="43.56828" lon="6.18123">
        <ele>386.8</ele>
        <time>2024-01-21T13:08:38.000Z</time>
      </trkpt>
      <trkpt lat="43.56826" lon="6.18128">
        <ele>386.7</ele>
        <time>2024-01-21T13:08:41.000Z</time>
      </trkpt>
      <trkpt lat="43.56825" lon="6.18134">
        <ele>386.7</ele>
        <time>2024-01-21T13:08:44.000Z</time>
      </trkpt>
      <trkpt lat="43.56824" lon="6.18139">
        <ele>386.6</ele>
        <time>2024-01-21T13:08:47.000Z</time>
      </trkpt>
      <trkpt lat="43.56822" lon="6.18144">
        <ele>386.4</ele>
        <time>2024-01-21T13:08:51.000Z</time>
      </trkpt>
      <trkpt lat="43.5682" lon="6.18148">
        <ele>386.3</ele>
        <time>2024-01-21T13:08:55.000Z</time>
      </trkpt>
      <trkpt lat="43.56817" lon="6.18152">
        <ele>386.2</ele>
        <time>2024-01-21T13:08:59.000Z</time>
      </trkpt>
      <trkpt lat="43.56815" lon="6.18157">
        <ele>386.1</ele>
        <time>2024-01-21T13:09:03.000Z</time>
      </trkpt>
      <trkpt lat="43.56812" lon="6.18161">
        <ele>386</ele>
        <time>2024-01-21T13:09:07.000Z</time>
      </trkpt>
      <trkpt lat="43.56808" lon="6.18164">
        <ele>386</ele>
        <time>2024-01-21T13:09:11.000Z</time>
      </trkpt>
      <trkpt lat="43.56805" lon="6.18167">
        <ele>386</ele>
        <time>2024-01-21T13:09:15.000Z</time>
      </trkpt>
      <trkpt lat="43.56802" lon="6.1817">
        <ele>386</ele>
        <time>2024-01-21T13:09:20.000Z</time>
      </trkpt>
      <trkpt lat="43.56798" lon="6.18171">
        <ele>386.1</ele>
        <time>2024-01-21T13:09:33.000Z</time>
      </trkpt>
      <trkpt lat="43.56794" lon="6.18174">
        <ele>386.1</ele>
        <time>2024-01-21T13:09:39.000Z</time>
      </trkpt>
      <trkpt lat="43.56793" lon="6.18174">
        <ele>386.1</ele>
        <time>2024-01-21T13:09:40.000Z</time>
      </trkpt>
      <trkpt lat="43.56786" lon="6.18172">
        <ele>386.2</ele>
        <time>2024-01-21T13:09:49.000Z</time>
      </trkpt>
      <trkpt lat="43.56782" lon="6.18174">
        <ele>386.2</ele>
        <time>2024-01-21T13:09:55.000Z</time>
      </trkpt>
      <trkpt lat="43.56779" lon="6.18176">
        <ele>386.2</ele>
        <time>2024-01-21T13:10:00.000Z</time>
      </trkpt>
      <trkpt lat="43.56775" lon="6.18178">
        <ele>386.2</ele>
        <time>2024-01-21T13:10:03.000Z</time>
      </trkpt>
      <trkpt lat="43.56772" lon="6.18181">
        <ele>386.2</ele>
        <time>2024-01-21T13:10:09.000Z</time>
      </trkpt>
      <trkpt lat="43.56768" lon="6.18183">
        <ele>386.2</ele>
        <time>2024-01-21T13:10:14.000Z</time>
      </trkpt>
      <trkpt lat="43.56764" lon="6.18185">
        <ele>386.2</ele>
        <time>2024-01-21T13:10:17.000Z</time>
      </trkpt>
      <trkpt lat="43.5676" lon="6.18185">
        <ele>386.2</ele>
        <time>2024-01-21T13:10:19.000Z</time>
      </trkpt>
      <trkpt lat="43.56757" lon="6.18186">
        <ele>386.2</ele>
        <time>2024-01-21T13:10:22.000Z</time>
      </trkpt>
      <trkpt lat="43.56753" lon="6.18188">
        <ele>386.1</ele>
        <time>2024-01-21T13:10:25.000Z</time>
      </trkpt>
      <trkpt lat="43.56751" lon="6.18193">
        <ele>386.1</ele>
        <time>2024-01-21T13:10:29.000Z</time>
      </trkpt>
      <trkpt lat="43.56749" lon="6.18198">
        <ele>386.1</ele>
        <time>2024-01-21T13:10:32.000Z</time>
      </trkpt>
      <trkpt lat="43.56748" lon="6.18203">
        <ele>386</ele>
        <time>2024-01-21T13:10:35.000Z</time>
      </trkpt>
      <trkpt lat="43.56746" lon="6.18208">
        <ele>386</ele>
        <time>2024-01-21T13:10:39.000Z</time>
      </trkpt>
      <trkpt lat="43.56744" lon="6.18212">
        <ele>386</ele>
        <time>2024-01-21T13:10:42.000Z</time>
      </trkpt>
      <trkpt lat="43.56743" lon="6.18213">
        <ele>386</ele>
        <time>2024-01-21T13:10:43.000Z</time>
      </trkpt>
      <trkpt lat="43.5674" lon="6.1822">
        <ele>386.2</ele>
        <time>2024-01-21T13:10:49.000Z</time>
      </trkpt>
      <trkpt lat="43.56739" lon="6.18226">
        <ele>386.2</ele>
        <time>2024-01-21T13:10:55.000Z</time>
      </trkpt>
      <trkpt lat="43.56734" lon="6.18228">
        <ele>386.2</ele>
        <time>2024-01-21T13:10:59.000Z</time>
      </trkpt>
      <trkpt lat="43.56732" lon="6.18233">
        <ele>386.2</ele>
        <time>2024-01-21T13:11:03.000Z</time>
      </trkpt>
      <trkpt lat="43.56729" lon="6.18236">
        <ele>386.2</ele>
        <time>2024-01-21T13:11:07.000Z</time>
      </trkpt>
      <trkpt lat="43.56726" lon="6.18241">
        <ele>386.2</ele>
        <time>2024-01-21T13:11:11.000Z</time>
      </trkpt>
      <trkpt lat="43.56722" lon="6.18244">
        <ele>386.2</ele>
        <time>2024-01-21T13:11:16.000Z</time>
      </trkpt>
      <trkpt lat="43.56718" lon="6.18245">
        <ele>386.2</ele>
        <time>2024-01-21T13:11:19.000Z</time>
      </trkpt>
      <trkpt lat="43.56715" lon="6.18248">
        <ele>386.2</ele>
        <time>2024-01-21T13:11:23.000Z</time>
      </trkpt>
      <trkpt lat="43.56711" lon="6.18249">
        <ele>386.1</ele>
        <time>2024-01-21T13:11:26.000Z</time>
      </trkpt>
      <trkpt lat="43.56707" lon="6.18251">
        <ele>386.1</ele>
        <time>2024-01-21T13:11:29.000Z</time>
      </trkpt>
      <trkpt lat="43.56704" lon="6.18255">
        <ele>386.1</ele>
        <time>2024-01-21T13:11:35.000Z</time>
      </trkpt>
      <trkpt lat="43.56701" lon="6.1826">
        <ele>386.1</ele>
        <time>2024-01-21T13:11:41.000Z</time>
      </trkpt>
      <trkpt lat="43.56698" lon="6.18262">
        <ele>386.1</ele>
        <time>2024-01-21T13:11:44.000Z</time>
      </trkpt>
      <trkpt lat="43.56697" lon="6.18263">
        <ele>386.2</ele>
        <time>2024-01-21T13:11:45.000Z</time>
      </trkpt>
      <trkpt lat="43.5669" lon="6.18267">
        <ele>386.2</ele>
        <time>2024-01-21T13:11:51.000Z</time>
      </trkpt>
      <trkpt lat="43.56687" lon="6.1827">
        <ele>386.1</ele>
        <time>2024-01-21T13:11:54.000Z</time>
      </trkpt>
      <trkpt lat="43.56683" lon="6.18272">
        <ele>386.1</ele>
        <time>2024-01-21T13:11:57.000Z</time>
      </trkpt>
      <trkpt lat="43.5668" lon="6.18273">
        <ele>386.1</ele>
        <time>2024-01-21T13:11:59.000Z</time>
      </trkpt>
      <trkpt lat="43.56676" lon="6.18276">
        <ele>386</ele>
        <time>2024-01-21T13:12:02.000Z</time>
      </trkpt>
      <trkpt lat="43.56673" lon="6.18279">
        <ele>385.9</ele>
        <time>2024-01-21T13:12:06.000Z</time>
      </trkpt>
      <trkpt lat="43.5667" lon="6.18281">
        <ele>385.9</ele>
        <time>2024-01-21T13:12:09.000Z</time>
      </trkpt>
      <trkpt lat="43.56667" lon="6.18282">
        <ele>385.9</ele>
        <time>2024-01-21T13:12:11.000Z</time>
      </trkpt>
      <trkpt lat="43.56663" lon="6.18282">
        <ele>385.9</ele>
        <time>2024-01-21T13:12:13.000Z</time>
      </trkpt>
      <trkpt lat="43.5666" lon="6.18283">
        <ele>385.9</ele>
        <time>2024-01-21T13:12:16.000Z</time>
      </trkpt>
      <trkpt lat="43.56656" lon="6.18285">
        <ele>386</ele>
        <time>2024-01-21T13:12:20.000Z</time>
      </trkpt>
      <trkpt lat="43.56652" lon="6.18287">
        <ele>386.1</ele>
        <time>2024-01-21T13:12:26.000Z</time>
      </trkpt>
      <trkpt lat="43.56648" lon="6.18289">
        <ele>386.1</ele>
        <time>2024-01-21T13:12:29.000Z</time>
      </trkpt>
      <trkpt lat="43.56644" lon="6.18291">
        <ele>386.1</ele>
        <time>2024-01-21T13:12:33.000Z</time>
      </trkpt>
      <trkpt lat="43.56641" lon="6.18293">
        <ele>386.1</ele>
        <time>2024-01-21T13:12:35.000Z</time>
      </trkpt>
      <trkpt lat="43.56638" lon="6.18294">
        <ele>386.1</ele>
        <time>2024-01-21T13:12:37.000Z</time>
      </trkpt>
      <trkpt lat="43.56635" lon="6.18296">
        <ele>386.1</ele>
        <time>2024-01-21T13:12:39.000Z</time>
      </trkpt>
      <trkpt lat="43.56631" lon="6.18299">
        <ele>386</ele>
        <time>2024-01-21T13:12:42.000Z</time>
      </trkpt>
      <trkpt lat="43.56628" lon="6.18301">
        <ele>386</ele>
        <time>2024-01-21T13:12:45.000Z</time>
      </trkpt>
      <trkpt lat="43.56627" lon="6.18302">
        <ele>386</ele>
        <time>2024-01-21T13:12:46.000Z</time>
      </trkpt>
      <trkpt lat="43.56621" lon="6.18305">
        <ele>385.9</ele>
        <time>2024-01-21T13:12:51.000Z</time>
      </trkpt>
      <trkpt lat="43.56617" lon="6.18306">
        <ele>385.9</ele>
        <time>2024-01-21T13:12:54.000Z</time>
      </trkpt>
      <trkpt lat="43.56613" lon="6.18307">
        <ele>385.8</ele>
        <time>2024-01-21T13:12:57.000Z</time>
      </trkpt>
      <trkpt lat="43.5661" lon="6.18308">
        <ele>385.7</ele>
        <time>2024-01-21T13:13:00.000Z</time>
      </trkpt>
      <trkpt lat="43.56606" lon="6.18308">
        <ele>385.5</ele>
        <time>2024-01-21T13:13:04.000Z</time>
      </trkpt>
      <trkpt lat="43.56601" lon="6.1831">
        <ele>385.2</ele>
        <time>2024-01-21T13:13:10.000Z</time>
      </trkpt>
      <trkpt lat="43.56598" lon="6.1831">
        <ele>385.1</ele>
        <time>2024-01-21T13:13:14.000Z</time>
      </trkpt>
      <trkpt lat="43.56595" lon="6.1831">
        <ele>385</ele>
        <time>2024-01-21T13:13:16.000Z</time>
      </trkpt>
      <trkpt lat="43.56591" lon="6.1831">
        <ele>384.9</ele>
        <time>2024-01-21T13:13:18.000Z</time>
      </trkpt>
      <trkpt lat="43.56588" lon="6.18311">
        <ele>384.9</ele>
        <time>2024-01-21T13:13:21.000Z</time>
      </trkpt>
      <trkpt lat="43.56584" lon="6.18313">
        <ele>384.8</ele>
        <time>2024-01-21T13:13:25.000Z</time>
      </trkpt>
      <trkpt lat="43.5658" lon="6.18315">
        <ele>384.7</ele>
        <time>2024-01-21T13:13:28.000Z</time>
      </trkpt>
      <trkpt lat="43.56577" lon="6.18317">
        <ele>384.7</ele>
        <time>2024-01-21T13:13:31.000Z</time>
      </trkpt>
      <trkpt lat="43.56573" lon="6.18319">
        <ele>384.6</ele>
        <time>2024-01-21T13:13:34.000Z</time>
      </trkpt>
      <trkpt lat="43.56569" lon="6.18321">
        <ele>384.6</ele>
        <time>2024-01-21T13:13:38.000Z</time>
      </trkpt>
      <trkpt lat="43.56565" lon="6.18323">
        <ele>384.5</ele>
        <time>2024-01-21T13:13:41.000Z</time>
      </trkpt>
      <trkpt lat="43.56561" lon="6.18326">
        <ele>384.4</ele>
        <time>2024-01-21T13:13:44.000Z</time>
      </trkpt>
      <trkpt lat="43.56558" lon="6.1833">
        <ele>384.3</ele>
        <time>2024-01-21T13:13:48.000Z</time>
      </trkpt>
      <trkpt lat="43.56558" lon="6.18331">
        <ele>384.3</ele>
        <time>2024-01-21T13:13:49.000Z</time>
      </trkpt>
      <trkpt lat="43.56551" lon="6.18335">
        <ele>384.2</ele>
        <time>2024-01-21T13:13:54.000Z</time>
      </trkpt>
      <trkpt lat="43.56549" lon="6.18336">
        <ele>384.1</ele>
        <time>2024-01-21T13:13:56.000Z</time>
      </trkpt>
      <trkpt lat="43.56546" lon="6.18338">
        <ele>384</ele>
        <time>2024-01-21T13:13:58.000Z</time>
      </trkpt>
      <trkpt lat="43.56542" lon="6.18341">
        <ele>383.9</ele>
        <time>2024-01-21T13:14:01.000Z</time>
      </trkpt>
      <trkpt lat="43.56541" lon="6.18346">
        <ele>383.8</ele>
        <time>2024-01-21T13:14:05.000Z</time>
      </trkpt>
      <trkpt lat="43.56539" lon="6.18351">
        <ele>383.7</ele>
        <time>2024-01-21T13:14:09.000Z</time>
      </trkpt>
      <trkpt lat="43.56539" lon="6.18356">
        <ele>383.7</ele>
        <time>2024-01-21T13:14:12.000Z</time>
      </trkpt>
      <trkpt lat="43.56538" lon="6.18361">
        <ele>383.6</ele>
        <time>2024-01-21T13:14:16.000Z</time>
      </trkpt>
      <trkpt lat="43.56536" lon="6.18366">
        <ele>383.5</ele>
        <time>2024-01-21T13:14:19.000Z</time>
      </trkpt>
      <trkpt lat="43.56534" lon="6.18371">
        <ele>383.5</ele>
        <time>2024-01-21T13:14:23.000Z</time>
      </trkpt>
      <trkpt lat="43.56534" lon="6.18377">
        <ele>383.3</ele>
        <time>2024-01-21T13:14:27.000Z</time>
      </trkpt>
      <trkpt lat="43.56535" lon="6.18381">
        <ele>383.2</ele>
        <time>2024-01-21T13:14:29.000Z</time>
      </trkpt>
      <trkpt lat="43.56535" lon="6.18387">
        <ele>383</ele>
        <time>2024-01-21T13:14:32.000Z</time>
      </trkpt>
      <trkpt lat="43.56533" lon="6.18392">
        <ele>382.9</ele>
        <time>2024-01-21T13:14:36.000Z</time>
      </trkpt>
      <trkpt lat="43.56529" lon="6.18394">
        <ele>382.8</ele>
        <time>2024-01-21T13:14:39.000Z</time>
      </trkpt>
      <trkpt lat="43.56526" lon="6.18396">
        <ele>382.7</ele>
        <time>2024-01-21T13:14:41.000Z</time>
      </trkpt>
      <trkpt lat="43.56524" lon="6.18401">
        <ele>382.6</ele>
        <time>2024-01-21T13:14:45.000Z</time>
      </trkpt>
      <trkpt lat="43.56523" lon="6.18406">
        <ele>382.6</ele>
        <time>2024-01-21T13:14:49.000Z</time>
      </trkpt>
      <trkpt lat="43.56522" lon="6.18407">
        <ele>382.6</ele>
        <time>2024-01-21T13:14:50.000Z</time>
      </trkpt>
      <trkpt lat="43.56516" lon="6.18412">
        <ele>382.5</ele>
        <time>2024-01-21T13:14:57.000Z</time>
      </trkpt>
      <trkpt lat="43.56514" lon="6.18413">
        <ele>382.5</ele>
        <time>2024-01-21T13:14:59.000Z</time>
      </trkpt>
      <trkpt lat="43.5651" lon="6.18415">
        <ele>382.4</ele>
        <time>2024-01-21T13:15:02.000Z</time>
      </trkpt>
      <trkpt lat="43.56507" lon="6.18418">
        <ele>382.4</ele>
        <time>2024-01-21T13:15:05.000Z</time>
      </trkpt>
      <trkpt lat="43.56504" lon="6.18422">
        <ele>382.5</ele>
        <time>2024-01-21T13:15:09.000Z</time>
      </trkpt>
      <trkpt lat="43.56502" lon="6.18428">
        <ele>382.5</ele>
        <time>2024-01-21T13:15:14.000Z</time>
      </trkpt>
      <trkpt lat="43.56499" lon="6.18431">
        <ele>382.6</ele>
        <time>2024-01-21T13:15:18.000Z</time>
      </trkpt>
      <trkpt lat="43.56496" lon="6.18433">
        <ele>382.6</ele>
        <time>2024-01-21T13:15:21.000Z</time>
      </trkpt>
      <trkpt lat="43.56493" lon="6.18437">
        <ele>382.6</ele>
        <time>2024-01-21T13:15:25.000Z</time>
      </trkpt>
      <trkpt lat="43.56491" lon="6.18441">
        <ele>382.6</ele>
        <time>2024-01-21T13:15:29.000Z</time>
      </trkpt>
      <trkpt lat="43.56489" lon="6.18445">
        <ele>382.6</ele>
        <time>2024-01-21T13:15:33.000Z</time>
      </trkpt>
      <trkpt lat="43.56486" lon="6.18448">
        <ele>382.6</ele>
        <time>2024-01-21T13:15:37.000Z</time>
      </trkpt>
      <trkpt lat="43.56486" lon="6.18453">
        <ele>382.6</ele>
        <time>2024-01-21T13:15:44.000Z</time>
      </trkpt>
      <trkpt lat="43.56486" lon="6.18459">
        <ele>382.6</ele>
        <time>2024-01-21T13:15:49.000Z</time>
      </trkpt>
      <trkpt lat="43.56484" lon="6.18464">
        <ele>382.6</ele>
        <time>2024-01-21T13:15:55.000Z</time>
      </trkpt>
      <trkpt lat="43.56484" lon="6.18466">
        <ele>382.6</ele>
        <time>2024-01-21T13:15:56.000Z</time>
      </trkpt>
      <trkpt lat="43.56482" lon="6.18474">
        <ele>382.6</ele>
        <time>2024-01-21T13:16:04.000Z</time>
      </trkpt>
      <trkpt lat="43.56482" lon="6.18479">
        <ele>382.6</ele>
        <time>2024-01-21T13:16:10.000Z</time>
      </trkpt>
      <trkpt lat="43.56483" lon="6.18484">
        <ele>382.6</ele>
        <time>2024-01-21T13:16:14.000Z</time>
      </trkpt>
      <trkpt lat="43.56484" lon="6.1849">
        <ele>382.5</ele>
        <time>2024-01-21T13:16:19.000Z</time>
      </trkpt>
      <trkpt lat="43.56484" lon="6.18495">
        <ele>382.5</ele>
        <time>2024-01-21T13:16:23.000Z</time>
      </trkpt>
      <trkpt lat="43.56484" lon="6.18501">
        <ele>382.4</ele>
        <time>2024-01-21T13:16:29.000Z</time>
      </trkpt>
      <trkpt lat="43.56485" lon="6.18507">
        <ele>382.2</ele>
        <time>2024-01-21T13:16:33.000Z</time>
      </trkpt>
      <trkpt lat="43.56485" lon="6.18513">
        <ele>382</ele>
        <time>2024-01-21T13:16:38.000Z</time>
      </trkpt>
      <trkpt lat="43.56488" lon="6.18516">
        <ele>381.9</ele>
        <time>2024-01-21T13:16:41.000Z</time>
      </trkpt>
      <trkpt lat="43.5649" lon="6.18521">
        <ele>381.8</ele>
        <time>2024-01-21T13:16:44.000Z</time>
      </trkpt>
      <trkpt lat="43.56491" lon="6.18525">
        <ele>381.7</ele>
        <time>2024-01-21T13:16:46.000Z</time>
      </trkpt>
      <trkpt lat="43.56493" lon="6.1853">
        <ele>381.6</ele>
        <time>2024-01-21T13:16:49.000Z</time>
      </trkpt>
      <trkpt lat="43.56495" lon="6.18534">
        <ele>381.5</ele>
        <time>2024-01-21T13:16:51.000Z</time>
      </trkpt>
      <trkpt lat="43.56496" lon="6.18539">
        <ele>381.4</ele>
        <time>2024-01-21T13:16:54.000Z</time>
      </trkpt>
      <trkpt lat="43.56498" lon="6.18545">
        <ele>381.3</ele>
        <time>2024-01-21T13:16:57.000Z</time>
      </trkpt>
      <trkpt lat="43.56499" lon="6.18547">
        <ele>381.3</ele>
        <time>2024-01-21T13:16:58.000Z</time>
      </trkpt>
      <trkpt lat="43.565" lon="6.18554">
        <ele>381.2</ele>
        <time>2024-01-21T13:17:02.000Z</time>
      </trkpt>
      <trkpt lat="43.56502" lon="6.1856">
        <ele>381.1</ele>
        <time>2024-01-21T13:17:06.000Z</time>
      </trkpt>
      <trkpt lat="43.56502" lon="6.18565">
        <ele>380.9</ele>
        <time>2024-01-21T13:17:09.000Z</time>
      </trkpt>
      <trkpt lat="43.56502" lon="6.18571">
        <ele>380.6</ele>
        <time>2024-01-21T13:17:13.000Z</time>
      </trkpt>
      <trkpt lat="43.565" lon="6.18575">
        <ele>380.4</ele>
        <time>2024-01-21T13:17:16.000Z</time>
      </trkpt>
      <trkpt lat="43.56498" lon="6.18579">
        <ele>380.2</ele>
        <time>2024-01-21T13:17:19.000Z</time>
      </trkpt>
      <trkpt lat="43.56495" lon="6.18581">
        <ele>380.3</ele>
        <time>2024-01-21T13:17:24.000Z</time>
      </trkpt>
      <trkpt lat="43.56491" lon="6.18581">
        <ele>380.4</ele>
        <time>2024-01-21T13:17:30.000Z</time>
      </trkpt>
      <trkpt lat="43.56487" lon="6.18582">
        <ele>380.4</ele>
        <time>2024-01-21T13:17:34.000Z</time>
      </trkpt>
      <trkpt lat="43.56484" lon="6.18582">
        <ele>380.5</ele>
        <time>2024-01-21T13:17:37.000Z</time>
      </trkpt>
      <trkpt lat="43.56479" lon="6.18582">
        <ele>380.5</ele>
        <time>2024-01-21T13:17:40.000Z</time>
      </trkpt>
      <trkpt lat="43.56476" lon="6.18581">
        <ele>380.5</ele>
        <time>2024-01-21T13:17:42.000Z</time>
      </trkpt>
      <trkpt lat="43.56472" lon="6.18581">
        <ele>380.2</ele>
        <time>2024-01-21T13:17:46.000Z</time>
      </trkpt>
      <trkpt lat="43.56468" lon="6.18579">
        <ele>380.1</ele>
        <time>2024-01-21T13:17:50.000Z</time>
      </trkpt>
      <trkpt lat="43.56464" lon="6.18581">
        <ele>380.1</ele>
        <time>2024-01-21T13:17:53.000Z</time>
      </trkpt>
      <trkpt lat="43.56462" lon="6.18586">
        <ele>379.6</ele>
        <time>2024-01-21T13:18:02.000Z</time>
      </trkpt>
      <trkpt lat="43.56462" lon="6.18586">
        <ele>379.6</ele>
        <time>2024-01-21T13:18:03.000Z</time>
      </trkpt>
      <trkpt lat="43.5646" lon="6.18595">
        <ele>379.3</ele>
        <time>2024-01-21T13:18:09.000Z</time>
      </trkpt>
      <trkpt lat="43.56459" lon="6.186">
        <ele>379.1</ele>
        <time>2024-01-21T13:18:14.000Z</time>
      </trkpt>
      <trkpt lat="43.5646" lon="6.18606">
        <ele>378.9</ele>
        <time>2024-01-21T13:18:20.000Z</time>
      </trkpt>
      <trkpt lat="43.56459" lon="6.18612">
        <ele>378.6</ele>
        <time>2024-01-21T13:18:25.000Z</time>
      </trkpt>
      <trkpt lat="43.56457" lon="6.18616">
        <ele>378.2</ele>
        <time>2024-01-21T13:18:29.000Z</time>
      </trkpt>
      <trkpt lat="43.56452" lon="6.18618">
        <ele>377.2</ele>
        <time>2024-01-21T13:18:38.000Z</time>
      </trkpt>
      <trkpt lat="43.56448" lon="6.18619">
        <ele>376.3</ele>
        <time>2024-01-21T13:18:44.000Z</time>
      </trkpt>
      <trkpt lat="43.56444" lon="6.1862">
        <ele>375.7</ele>
        <time>2024-01-21T13:18:47.000Z</time>
      </trkpt>
      <trkpt lat="43.5644" lon="6.18618">
        <ele>374.8</ele>
        <time>2024-01-21T13:18:52.000Z</time>
      </trkpt>
      <trkpt lat="43.56437" lon="6.18613">
        <ele>373.1</ele>
        <time>2024-01-21T13:19:01.000Z</time>
      </trkpt>
      <trkpt lat="43.56434" lon="6.18612">
        <ele>372.5</ele>
        <time>2024-01-21T13:19:04.000Z</time>
      </trkpt>
      <trkpt lat="43.56433" lon="6.18611">
        <ele>372.4</ele>
        <time>2024-01-21T13:19:05.000Z</time>
      </trkpt>
      <trkpt lat="43.56427" lon="6.18605">
        <ele>370.1</ele>
        <time>2024-01-21T13:19:16.000Z</time>
      </trkpt>
      <trkpt lat="43.56423" lon="6.18604">
        <ele>368.1</ele>
        <time>2024-01-21T13:19:28.000Z</time>
      </trkpt>
      <trkpt lat="43.56418" lon="6.18605">
        <ele>366</ele>
        <time>2024-01-21T13:19:40.000Z</time>
      </trkpt>
      <trkpt lat="43.56418" lon="6.18611">
        <ele>364.6</ele>
        <time>2024-01-21T13:19:47.000Z</time>
      </trkpt>
      <trkpt lat="43.56419" lon="6.18616">
        <ele>363.5</ele>
        <time>2024-01-21T13:19:52.000Z</time>
      </trkpt>
      <trkpt lat="43.5642" lon="6.18622">
        <ele>361</ele>
        <time>2024-01-21T13:20:05.000Z</time>
      </trkpt>
      <trkpt lat="43.5642" lon="6.18622">
        <ele>360.8</ele>
        <time>2024-01-21T13:20:06.000Z</time>
      </trkpt>
      <trkpt lat="43.56412" lon="6.18626">
        <ele>357.5</ele>
        <time>2024-01-21T13:20:22.000Z</time>
      </trkpt>
      <trkpt lat="43.56408" lon="6.18628">
        <ele>356.1</ele>
        <time>2024-01-21T13:20:28.000Z</time>
      </trkpt>
      <trkpt lat="43.56404" lon="6.18628">
        <ele>355.7</ele>
        <time>2024-01-21T13:20:30.000Z</time>
      </trkpt>
      <trkpt lat="43.564" lon="6.18627">
        <ele>355.2</ele>
        <time>2024-01-21T13:20:33.000Z</time>
      </trkpt>
      <trkpt lat="43.56396" lon="6.18629">
        <ele>354.5</ele>
        <time>2024-01-21T13:20:37.000Z</time>
      </trkpt>
      <trkpt lat="43.56392" lon="6.18625">
        <ele>353.6</ele>
        <time>2024-01-21T13:20:44.000Z</time>
      </trkpt>
      <trkpt lat="43.56392" lon="6.1862">
        <ele>353.3</ele>
        <time>2024-01-21T13:20:48.000Z</time>
      </trkpt>
      <trkpt lat="43.5639" lon="6.18616">
        <ele>353.2</ele>
        <time>2024-01-21T13:20:50.000Z</time>
      </trkpt>
      <trkpt lat="43.56387" lon="6.18612">
        <ele>353.1</ele>
        <time>2024-01-21T13:20:53.000Z</time>
      </trkpt>
      <trkpt lat="43.56385" lon="6.18607">
        <ele>353.2</ele>
        <time>2024-01-21T13:20:57.000Z</time>
      </trkpt>
      <trkpt lat="43.56383" lon="6.18603">
        <ele>353.2</ele>
        <time>2024-01-21T13:21:03.000Z</time>
      </trkpt>
      <trkpt lat="43.56381" lon="6.18601">
        <ele>353.2</ele>
        <time>2024-01-21T13:21:05.000Z</time>
      </trkpt>
      <trkpt lat="43.56378" lon="6.186">
        <ele>353.2</ele>
        <time>2024-01-21T13:21:06.000Z</time>
      </trkpt>
      <trkpt lat="43.56377" lon="6.18599">
        <ele>353.2</ele>
        <time>2024-01-21T13:21:07.000Z</time>
      </trkpt>
      <trkpt lat="43.56372" lon="6.18593">
        <ele>353.2</ele>
        <time>2024-01-21T13:21:16.000Z</time>
      </trkpt>
      <trkpt lat="43.56369" lon="6.1859">
        <ele>353.2</ele>
        <time>2024-01-21T13:21:20.000Z</time>
      </trkpt>
      <trkpt lat="43.56365" lon="6.18587">
        <ele>353.3</ele>
        <time>2024-01-21T13:21:24.000Z</time>
      </trkpt>
      <trkpt lat="43.56362" lon="6.18584">
        <ele>353.4</ele>
        <time>2024-01-21T13:21:29.000Z</time>
      </trkpt>
      <trkpt lat="43.5636" lon="6.1858">
        <ele>353.5</ele>
        <time>2024-01-21T13:21:32.000Z</time>
      </trkpt>
      <trkpt lat="43.56359" lon="6.18574">
        <ele>353.6</ele>
        <time>2024-01-21T13:21:35.000Z</time>
      </trkpt>
      <trkpt lat="43.56356" lon="6.1857">
        <ele>353.7</ele>
        <time>2024-01-21T13:21:39.000Z</time>
      </trkpt>
      <trkpt lat="43.56353" lon="6.18566">
        <ele>353.8</ele>
        <time>2024-01-21T13:21:42.000Z</time>
      </trkpt>
      <trkpt lat="43.56351" lon="6.18562">
        <ele>353.9</ele>
        <time>2024-01-21T13:21:45.000Z</time>
      </trkpt>
      <trkpt lat="43.5635" lon="6.18556">
        <ele>354.1</ele>
        <time>2024-01-21T13:21:50.000Z</time>
      </trkpt>
      <trkpt lat="43.56349" lon="6.1855">
        <ele>354.5</ele>
        <time>2024-01-21T13:21:56.000Z</time>
      </trkpt>
      <trkpt lat="43.56347" lon="6.18545">
        <ele>355</ele>
        <time>2024-01-21T13:22:02.000Z</time>
      </trkpt>
      <trkpt lat="43.56345" lon="6.18539">
        <ele>355.2</ele>
        <time>2024-01-21T13:22:06.000Z</time>
      </trkpt>
      <trkpt lat="43.56347" lon="6.18534">
        <ele>355.4</ele>
        <time>2024-01-21T13:22:10.000Z</time>
      </trkpt>
      <trkpt lat="43.56347" lon="6.18533">
        <ele>355.4</ele>
        <time>2024-01-21T13:22:11.000Z</time>
      </trkpt>
      <trkpt lat="43.56349" lon="6.18524">
        <ele>355.6</ele>
        <time>2024-01-21T13:22:24.000Z</time>
      </trkpt>
      <trkpt lat="43.56351" lon="6.1852">
        <ele>355.6</ele>
        <time>2024-01-21T13:22:28.000Z</time>
      </trkpt>
      <trkpt lat="43.56354" lon="6.18516">
        <ele>355.6</ele>
        <time>2024-01-21T13:22:33.000Z</time>
      </trkpt>
      <trkpt lat="43.56357" lon="6.18512">
        <ele>355.6</ele>
        <time>2024-01-21T13:22:42.000Z</time>
      </trkpt>
      <trkpt lat="43.5636" lon="6.18508">
        <ele>355.6</ele>
        <time>2024-01-21T13:22:58.000Z</time>
      </trkpt>
      <trkpt lat="43.56364" lon="6.18507">
        <ele>355.5</ele>
        <time>2024-01-21T13:23:14.000Z</time>
      </trkpt>
      <trkpt lat="43.56365" lon="6.18507">
        <ele>355.5</ele>
        <time>2024-01-21T13:23:15.000Z</time>
      </trkpt>
      <trkpt lat="43.56364" lon="6.18508">
        <ele>355.5</ele>
        <time>2024-01-21T13:23:25.000Z</time>
      </trkpt>
      <trkpt lat="43.5636" lon="6.18511">
        <ele>355.5</ele>
        <time>2024-01-21T13:23:53.000Z</time>
      </trkpt>
      <trkpt lat="43.56356" lon="6.18509">
        <ele>355.4</ele>
        <time>2024-01-21T13:24:03.000Z</time>
      </trkpt>
      <trkpt lat="43.56353" lon="6.18506">
        <ele>355</ele>
        <time>2024-01-21T13:24:22.000Z</time>
      </trkpt>
      <trkpt lat="43.56352" lon="6.18505">
        <ele>354.9</ele>
        <time>2024-01-21T13:24:23.000Z</time>
      </trkpt>
      <trkpt lat="43.56353" lon="6.18502">
        <ele>354.4</ele>
        <time>2024-01-21T13:26:58.000Z</time>
      </trkpt>
      <trkpt lat="43.56352" lon="6.18501">
        <ele>354.4</ele>
        <time>2024-01-21T13:26:59.000Z</time>
      </trkpt>
      <trkpt lat="43.56357" lon="6.18501">
        <ele>354</ele>
        <time>2024-01-21T13:28:18.000Z</time>
      </trkpt>
      <trkpt lat="43.56349" lon="6.18499">
        <ele>353.7</ele>
        <time>2024-01-21T13:29:02.000Z</time>
      </trkpt>
      <trkpt lat="43.56352" lon="6.18494">
        <ele>353.7</ele>
        <time>2024-01-21T13:30:10.000Z</time>
      </trkpt>
      <trkpt lat="43.56352" lon="6.18493">
        <ele>353.7</ele>
        <time>2024-01-21T13:30:11.000Z</time>
      </trkpt>
      <trkpt lat="43.56349" lon="6.18502">
        <ele>354.3</ele>
        <time>2024-01-21T13:31:04.000Z</time>
      </trkpt>
      <trkpt lat="43.56349" lon="6.18508">
        <ele>354.6</ele>
        <time>2024-01-21T13:31:13.000Z</time>
      </trkpt>
      <trkpt lat="43.56349" lon="6.18509">
        <ele>354.6</ele>
        <time>2024-01-21T13:31:14.000Z</time>
      </trkpt>
      <trkpt lat="43.56349" lon="6.18517">
        <ele>355</ele>
        <time>2024-01-21T13:31:24.000Z</time>
      </trkpt>
      <trkpt lat="43.56349" lon="6.18524">
        <ele>355.2</ele>
        <time>2024-01-21T13:31:29.000Z</time>
      </trkpt>
      <trkpt lat="43.56348" lon="6.18528">
        <ele>355.3</ele>
        <time>2024-01-21T13:31:34.000Z</time>
      </trkpt>
      <trkpt lat="43.56349" lon="6.18534">
        <ele>355.1</ele>
        <time>2024-01-21T13:31:40.000Z</time>
      </trkpt>
      <trkpt lat="43.5635" lon="6.1854">
        <ele>354.9</ele>
        <time>2024-01-21T13:31:45.000Z</time>
      </trkpt>
      <trkpt lat="43.56353" lon="6.18543">
        <ele>354.7</ele>
        <time>2024-01-21T13:31:49.000Z</time>
      </trkpt>
      <trkpt lat="43.56355" lon="6.18547">
        <ele>354.5</ele>
        <time>2024-01-21T13:31:53.000Z</time>
      </trkpt>
      <trkpt lat="43.56357" lon="6.18553">
        <ele>354.4</ele>
        <time>2024-01-21T13:31:57.000Z</time>
      </trkpt>
      <trkpt lat="43.56357" lon="6.18557">
        <ele>354.3</ele>
        <time>2024-01-21T13:31:59.000Z</time>
      </trkpt>
      <trkpt lat="43.56358" lon="6.18562">
        <ele>354.2</ele>
        <time>2024-01-21T13:32:03.000Z</time>
      </trkpt>
      <trkpt lat="43.56359" lon="6.18567">
        <ele>354</ele>
        <time>2024-01-21T13:32:06.000Z</time>
      </trkpt>
      <trkpt lat="43.5636" lon="6.18572">
        <ele>353.8</ele>
        <time>2024-01-21T13:32:11.000Z</time>
      </trkpt>
      <trkpt lat="43.56362" lon="6.18577">
        <ele>353.6</ele>
        <time>2024-01-21T13:32:15.000Z</time>
      </trkpt>
      <trkpt lat="43.56363" lon="6.18577">
        <ele>353.6</ele>
        <time>2024-01-21T13:32:16.000Z</time>
      </trkpt>
      <trkpt lat="43.56367" lon="6.18584">
        <ele>353.4</ele>
        <time>2024-01-21T13:32:22.000Z</time>
      </trkpt>
      <trkpt lat="43.56371" lon="6.18588">
        <ele>353.3</ele>
        <time>2024-01-21T13:32:27.000Z</time>
      </trkpt>
      <trkpt lat="43.56372" lon="6.18593">
        <ele>353.2</ele>
        <time>2024-01-21T13:32:31.000Z</time>
      </trkpt>
      <trkpt lat="43.56374" lon="6.18598">
        <ele>353.1</ele>
        <time>2024-01-21T13:32:35.000Z</time>
      </trkpt>
      <trkpt lat="43.56377" lon="6.18601">
        <ele>353</ele>
        <time>2024-01-21T13:32:39.000Z</time>
      </trkpt>
      <trkpt lat="43.5638" lon="6.18604">
        <ele>352.8</ele>
        <time>2024-01-21T13:32:44.000Z</time>
      </trkpt>
      <trkpt lat="43.56381" lon="6.1861">
        <ele>352.7</ele>
        <time>2024-01-21T13:32:47.000Z</time>
      </trkpt>
      <trkpt lat="43.56385" lon="6.18614">
        <ele>352.5</ele>
        <time>2024-01-21T13:32:51.000Z</time>
      </trkpt>
      <trkpt lat="43.56388" lon="6.18617">
        <ele>352.4</ele>
        <time>2024-01-21T13:32:55.000Z</time>
      </trkpt>
      <trkpt lat="43.56392" lon="6.1862">
        <ele>352.3</ele>
        <time>2024-01-21T13:32:59.000Z</time>
      </trkpt>
      <trkpt lat="43.56395" lon="6.18623">
        <ele>352.5</ele>
        <time>2024-01-21T13:33:07.000Z</time>
      </trkpt>
      <trkpt lat="43.56397" lon="6.18627">
        <ele>352.8</ele>
        <time>2024-01-21T13:33:12.000Z</time>
      </trkpt>
      <trkpt lat="43.56401" lon="6.18631">
        <ele>353.5</ele>
        <time>2024-01-21T13:33:20.000Z</time>
      </trkpt>
      <trkpt lat="43.56402" lon="6.18631">
        <ele>353.6</ele>
        <time>2024-01-21T13:33:21.000Z</time>
      </trkpt>
      <trkpt lat="43.56409" lon="6.1863">
        <ele>355.6</ele>
        <time>2024-01-21T13:33:36.000Z</time>
      </trkpt>
      <trkpt lat="43.56412" lon="6.18626">
        <ele>357.3</ele>
        <time>2024-01-21T13:33:50.000Z</time>
      </trkpt>
      <trkpt lat="43.56412" lon="6.1862">
        <ele>362.7</ele>
        <time>2024-01-21T13:34:26.000Z</time>
      </trkpt>
      <trkpt lat="43.56412" lon="6.18619">
        <ele>362.8</ele>
        <time>2024-01-21T13:34:27.000Z</time>
      </trkpt>
      <trkpt lat="43.56417" lon="6.1861">
        <ele>364.5</ele>
        <time>2024-01-21T13:34:37.000Z</time>
      </trkpt>
      <trkpt lat="43.5642" lon="6.18606">
        <ele>365.5</ele>
        <time>2024-01-21T13:34:45.000Z</time>
      </trkpt>
      <trkpt lat="43.56424" lon="6.18607">
        <ele>367.7</ele>
        <time>2024-01-21T13:34:58.000Z</time>
      </trkpt>
      <trkpt lat="43.56429" lon="6.18607">
        <ele>368.9</ele>
        <time>2024-01-21T13:35:06.000Z</time>
      </trkpt>
      <trkpt lat="43.56432" lon="6.18611">
        <ele>370.4</ele>
        <time>2024-01-21T13:35:20.000Z</time>
      </trkpt>
      <trkpt lat="43.56436" lon="6.18614">
        <ele>371.1</ele>
        <time>2024-01-21T13:35:26.000Z</time>
      </trkpt>
      <trkpt lat="43.5644" lon="6.18616">
        <ele>371.8</ele>
        <time>2024-01-21T13:35:31.000Z</time>
      </trkpt>
      <trkpt lat="43.5644" lon="6.18615">
        <ele>372</ele>
        <time>2024-01-21T13:35:32.000Z</time>
      </trkpt>
      <trkpt lat="43.56447" lon="6.18617">
        <ele>373.4</ele>
        <time>2024-01-21T13:35:42.000Z</time>
      </trkpt>
      <trkpt lat="43.56451" lon="6.18618">
        <ele>374.1</ele>
        <time>2024-01-21T13:35:47.000Z</time>
      </trkpt>
      <trkpt lat="43.56455" lon="6.1862">
        <ele>374.8</ele>
        <time>2024-01-21T13:35:52.000Z</time>
      </trkpt>
      <trkpt lat="43.56459" lon="6.1862">
        <ele>376</ele>
        <time>2024-01-21T13:36:01.000Z</time>
      </trkpt>
      <trkpt lat="43.56461" lon="6.18614">
        <ele>377.8</ele>
        <time>2024-01-21T13:36:15.000Z</time>
      </trkpt>
      <trkpt lat="43.5646" lon="6.18608">
        <ele>378.7</ele>
        <time>2024-01-21T13:36:22.000Z</time>
      </trkpt>
      <trkpt lat="43.5646" lon="6.18603">
        <ele>379.4</ele>
        <time>2024-01-21T13:36:28.000Z</time>
      </trkpt>
      <trkpt lat="43.56459" lon="6.18597">
        <ele>380.3</ele>
        <time>2024-01-21T13:36:34.000Z</time>
      </trkpt>
      <trkpt lat="43.56459" lon="6.18596">
        <ele>380.4</ele>
        <time>2024-01-21T13:36:35.000Z</time>
      </trkpt>
      <trkpt lat="43.56461" lon="6.18586">
        <ele>381.3</ele>
        <time>2024-01-21T13:36:44.000Z</time>
      </trkpt>
      <trkpt lat="43.56464" lon="6.18583">
        <ele>381.5</ele>
        <time>2024-01-21T13:36:48.000Z</time>
      </trkpt>
      <trkpt lat="43.56467" lon="6.1858">
        <ele>381.8</ele>
        <time>2024-01-21T13:36:54.000Z</time>
      </trkpt>
      <trkpt lat="43.56471" lon="6.18579">
        <ele>382</ele>
        <time>2024-01-21T13:36:59.000Z</time>
      </trkpt>
      <trkpt lat="43.56475" lon="6.18579">
        <ele>382.3</ele>
        <time>2024-01-21T13:37:05.000Z</time>
      </trkpt>
      <trkpt lat="43.56479" lon="6.1858">
        <ele>382.4</ele>
        <time>2024-01-21T13:37:09.000Z</time>
      </trkpt>
      <trkpt lat="43.56483" lon="6.18579">
        <ele>382.5</ele>
        <time>2024-01-21T13:37:12.000Z</time>
      </trkpt>
      <trkpt lat="43.56487" lon="6.1858">
        <ele>382.6</ele>
        <time>2024-01-21T13:37:15.000Z</time>
      </trkpt>
      <trkpt lat="43.56491" lon="6.18582">
        <ele>382.6</ele>
        <time>2024-01-21T13:37:19.000Z</time>
      </trkpt>
      <trkpt lat="43.56495" lon="6.18582">
        <ele>382.6</ele>
        <time>2024-01-21T13:37:23.000Z</time>
      </trkpt>
      <trkpt lat="43.56499" lon="6.18583">
        <ele>382.6</ele>
        <time>2024-01-21T13:37:28.000Z</time>
      </trkpt>
      <trkpt lat="43.56501" lon="6.18578">
        <ele>382.6</ele>
        <time>2024-01-21T13:37:36.000Z</time>
      </trkpt>
      <trkpt lat="43.56502" lon="6.18577">
        <ele>382.7</ele>
        <time>2024-01-21T13:37:37.000Z</time>
      </trkpt>
      <trkpt lat="43.56501" lon="6.18567">
        <ele>382.9</ele>
        <time>2024-01-21T13:37:47.000Z</time>
      </trkpt>
      <trkpt lat="43.565" lon="6.18562">
        <ele>382.9</ele>
        <time>2024-01-21T13:37:50.000Z</time>
      </trkpt>
      <trkpt lat="43.56501" lon="6.18557">
        <ele>383</ele>
        <time>2024-01-21T13:37:53.000Z</time>
      </trkpt>
      <trkpt lat="43.565" lon="6.18552">
        <ele>383</ele>
        <time>2024-01-21T13:37:56.000Z</time>
      </trkpt>
      <trkpt lat="43.565" lon="6.18547">
        <ele>383.1</ele>
        <time>2024-01-21T13:38:00.000Z</time>
      </trkpt>
      <trkpt lat="43.565" lon="6.18541">
        <ele>383.2</ele>
        <time>2024-01-21T13:38:04.000Z</time>
      </trkpt>
      <trkpt lat="43.56498" lon="6.18536">
        <ele>383.3</ele>
        <time>2024-01-21T13:38:08.000Z</time>
      </trkpt>
      <trkpt lat="43.56495" lon="6.18532">
        <ele>383.4</ele>
        <time>2024-01-21T13:38:11.000Z</time>
      </trkpt>
      <trkpt lat="43.56493" lon="6.18528">
        <ele>383.6</ele>
        <time>2024-01-21T13:38:15.000Z</time>
      </trkpt>
      <trkpt lat="43.56491" lon="6.18524">
        <ele>383.9</ele>
        <time>2024-01-21T13:38:19.000Z</time>
      </trkpt>
      <trkpt lat="43.5649" lon="6.18518">
        <ele>384.2</ele>
        <time>2024-01-21T13:38:23.000Z</time>
      </trkpt>
      <trkpt lat="43.5649" lon="6.18513">
        <ele>384.4</ele>
        <time>2024-01-21T13:38:27.000Z</time>
      </trkpt>
      <trkpt lat="43.5649" lon="6.18508">
        <ele>384.5</ele>
        <time>2024-01-21T13:38:30.000Z</time>
      </trkpt>
      <trkpt lat="43.56488" lon="6.18504">
        <ele>384.6</ele>
        <time>2024-01-21T13:38:33.000Z</time>
      </trkpt>
      <trkpt lat="43.56487" lon="6.18499">
        <ele>384.7</ele>
        <time>2024-01-21T13:38:36.000Z</time>
      </trkpt>
      <trkpt lat="43.56487" lon="6.18494">
        <ele>384.8</ele>
        <time>2024-01-21T13:38:39.000Z</time>
      </trkpt>
      <trkpt lat="43.56486" lon="6.18493">
        <ele>384.9</ele>
        <time>2024-01-21T13:38:40.000Z</time>
      </trkpt>
      <trkpt lat="43.56485" lon="6.18483">
        <ele>385.2</ele>
        <time>2024-01-21T13:38:46.000Z</time>
      </trkpt>
      <trkpt lat="43.56483" lon="6.18477">
        <ele>385.3</ele>
        <time>2024-01-21T13:38:50.000Z</time>
      </trkpt>
      <trkpt lat="43.56482" lon="6.18472">
        <ele>385.4</ele>
        <time>2024-01-21T13:38:53.000Z</time>
      </trkpt>
      <trkpt lat="43.56482" lon="6.18467">
        <ele>385.4</ele>
        <time>2024-01-21T13:38:56.000Z</time>
      </trkpt>
      <trkpt lat="43.56482" lon="6.18461">
        <ele>385.5</ele>
        <time>2024-01-21T13:39:02.000Z</time>
      </trkpt>
      <trkpt lat="43.56481" lon="6.18456">
        <ele>385.9</ele>
        <time>2024-01-21T13:39:06.000Z</time>
      </trkpt>
      <trkpt lat="43.56481" lon="6.1845">
        <ele>386.2</ele>
        <time>2024-01-21T13:39:11.000Z</time>
      </trkpt>
      <trkpt lat="43.56485" lon="6.18447">
        <ele>386.3</ele>
        <time>2024-01-21T13:39:16.000Z</time>
      </trkpt>
      <trkpt lat="43.56487" lon="6.18442">
        <ele>386.3</ele>
        <time>2024-01-21T13:39:20.000Z</time>
      </trkpt>
      <trkpt lat="43.56489" lon="6.18437">
        <ele>386.2</ele>
        <time>2024-01-21T13:39:25.000Z</time>
      </trkpt>
      <trkpt lat="43.56491" lon="6.18432">
        <ele>386.1</ele>
        <time>2024-01-21T13:39:30.000Z</time>
      </trkpt>
      <trkpt lat="43.56494" lon="6.18428">
        <ele>386</ele>
        <time>2024-01-21T13:39:34.000Z</time>
      </trkpt>
      <trkpt lat="43.56497" lon="6.18426">
        <ele>385.9</ele>
        <time>2024-01-21T13:39:37.000Z</time>
      </trkpt>
      <trkpt lat="43.56501" lon="6.18425">
        <ele>385.8</ele>
        <time>2024-01-21T13:39:40.000Z</time>
      </trkpt>
      <trkpt lat="43.56503" lon="6.18424">
        <ele>385.7</ele>
        <time>2024-01-21T13:39:41.000Z</time>
      </trkpt>
      <trkpt lat="43.56506" lon="6.1843">
        <ele>385</ele>
        <time>2024-01-21T13:39:56.000Z</time>
      </trkpt>
      <trkpt lat="43.56506" lon="6.18435">
        <ele>384.8</ele>
        <time>2024-01-21T13:40:01.000Z</time>
      </trkpt>
      <trkpt lat="43.56505" lon="6.18441">
        <ele>384.7</ele>
        <time>2024-01-21T13:40:06.000Z</time>
      </trkpt>
      <trkpt lat="43.56506" lon="6.18446">
        <ele>384.7</ele>
        <time>2024-01-21T13:40:10.000Z</time>
      </trkpt>
      <trkpt lat="43.56506" lon="6.18452">
        <ele>384.6</ele>
        <time>2024-01-21T13:40:17.000Z</time>
      </trkpt>
      <trkpt lat="43.56505" lon="6.18457">
        <ele>384.6</ele>
        <time>2024-01-21T13:40:20.000Z</time>
      </trkpt>
      <trkpt lat="43.56504" lon="6.18461">
        <ele>384.6</ele>
        <time>2024-01-21T13:40:24.000Z</time>
      </trkpt>
      <trkpt lat="43.56504" lon="6.18467">
        <ele>384.4</ele>
        <time>2024-01-21T13:40:28.000Z</time>
      </trkpt>
      <trkpt lat="43.56505" lon="6.18472">
        <ele>384.3</ele>
        <time>2024-01-21T13:40:31.000Z</time>
      </trkpt>
      <trkpt lat="43.56505" lon="6.18477">
        <ele>384.1</ele>
        <time>2024-01-21T13:40:34.000Z</time>
      </trkpt>
      <trkpt lat="43.56505" lon="6.18482">
        <ele>384</ele>
        <time>2024-01-21T13:40:37.000Z</time>
      </trkpt>
      <trkpt lat="43.56505" lon="6.18488">
        <ele>383.9</ele>
        <time>2024-01-21T13:40:40.000Z</time>
      </trkpt>
      <trkpt lat="43.56505" lon="6.18494">
        <ele>383.8</ele>
        <time>2024-01-21T13:40:45.000Z</time>
      </trkpt>
      <trkpt lat="43.56505" lon="6.18495">
        <ele>383.8</ele>
        <time>2024-01-21T13:40:46.000Z</time>
      </trkpt>
      <trkpt lat="43.56506" lon="6.18504">
        <ele>383.6</ele>
        <time>2024-01-21T13:40:53.000Z</time>
      </trkpt>
      <trkpt lat="43.56506" lon="6.18509">
        <ele>383.5</ele>
        <time>2024-01-21T13:40:56.000Z</time>
      </trkpt>
      <trkpt lat="43.56507" lon="6.18515">
        <ele>383.3</ele>
        <time>2024-01-21T13:41:00.000Z</time>
      </trkpt>
      <trkpt lat="43.56509" lon="6.18519">
        <ele>383.1</ele>
        <time>2024-01-21T13:41:04.000Z</time>
      </trkpt>
      <trkpt lat="43.56509" lon="6.18525">
        <ele>382.9</ele>
        <time>2024-01-21T13:41:07.000Z</time>
      </trkpt>
      <trkpt lat="43.56511" lon="6.1853">
        <ele>382.7</ele>
        <time>2024-01-21T13:41:11.000Z</time>
      </trkpt>
      <trkpt lat="43.56512" lon="6.18535">
        <ele>382.6</ele>
        <time>2024-01-21T13:41:14.000Z</time>
      </trkpt>
      <trkpt lat="43.56512" lon="6.18541">
        <ele>382.5</ele>
        <time>2024-01-21T13:41:18.000Z</time>
      </trkpt>
      <trkpt lat="43.56513" lon="6.18545">
        <ele>382.3</ele>
        <time>2024-01-21T13:41:21.000Z</time>
      </trkpt>
      <trkpt lat="43.56515" lon="6.18551">
        <ele>382.1</ele>
        <time>2024-01-21T13:41:24.000Z</time>
      </trkpt>
      <trkpt lat="43.56517" lon="6.18555">
        <ele>381.9</ele>
        <time>2024-01-21T13:41:27.000Z</time>
      </trkpt>
      <trkpt lat="43.56518" lon="6.18561">
        <ele>381.8</ele>
        <time>2024-01-21T13:41:30.000Z</time>
      </trkpt>
      <trkpt lat="43.56519" lon="6.18567">
        <ele>381.7</ele>
        <time>2024-01-21T13:41:33.000Z</time>
      </trkpt>
      <trkpt lat="43.56521" lon="6.18571">
        <ele>381.6</ele>
        <time>2024-01-21T13:41:37.000Z</time>
      </trkpt>
      <trkpt lat="43.56522" lon="6.18576">
        <ele>381.5</ele>
        <time>2024-01-21T13:41:40.000Z</time>
      </trkpt>
      <trkpt lat="43.56524" lon="6.18582">
        <ele>381.4</ele>
        <time>2024-01-21T13:41:45.000Z</time>
      </trkpt>
      <trkpt lat="43.56526" lon="6.18587">
        <ele>381.3</ele>
        <time>2024-01-21T13:41:50.000Z</time>
      </trkpt>
      <trkpt lat="43.56526" lon="6.18588">
        <ele>381.3</ele>
        <time>2024-01-21T13:41:51.000Z</time>
      </trkpt>
      <trkpt lat="43.56529" lon="6.18597">
        <ele>381.2</ele>
        <time>2024-01-21T13:41:59.000Z</time>
      </trkpt>
      <trkpt lat="43.5653" lon="6.18602">
        <ele>381.2</ele>
        <time>2024-01-21T13:42:02.000Z</time>
      </trkpt>
      <trkpt lat="43.56531" lon="6.18607">
        <ele>381.1</ele>
        <time>2024-01-21T13:42:05.000Z</time>
      </trkpt>
      <trkpt lat="43.56533" lon="6.18612">
        <ele>380.9</ele>
        <time>2024-01-21T13:42:09.000Z</time>
      </trkpt>
      <trkpt lat="43.56533" lon="6.18617">
        <ele>380.8</ele>
        <time>2024-01-21T13:42:12.000Z</time>
      </trkpt>
      <trkpt lat="43.56534" lon="6.18623">
        <ele>380.5</ele>
        <time>2024-01-21T13:42:16.000Z</time>
      </trkpt>
      <trkpt lat="43.56536" lon="6.18629">
        <ele>380.4</ele>
        <time>2024-01-21T13:42:20.000Z</time>
      </trkpt>
      <trkpt lat="43.56537" lon="6.18634">
        <ele>380.2</ele>
        <time>2024-01-21T13:42:23.000Z</time>
      </trkpt>
      <trkpt lat="43.56538" lon="6.18639">
        <ele>380.2</ele>
        <time>2024-01-21T13:42:26.000Z</time>
      </trkpt>
      <trkpt lat="43.56539" lon="6.18643">
        <ele>380.1</ele>
        <time>2024-01-21T13:42:29.000Z</time>
      </trkpt>
      <trkpt lat="43.5654" lon="6.18648">
        <ele>379.9</ele>
        <time>2024-01-21T13:42:32.000Z</time>
      </trkpt>
      <trkpt lat="43.56541" lon="6.18654">
        <ele>379.7</ele>
        <time>2024-01-21T13:42:37.000Z</time>
      </trkpt>
      <trkpt lat="43.56543" lon="6.18659">
        <ele>379.6</ele>
        <time>2024-01-21T13:42:40.000Z</time>
      </trkpt>
      <trkpt lat="43.56545" lon="6.18663">
        <ele>379.5</ele>
        <time>2024-01-21T13:42:43.000Z</time>
      </trkpt>
      <trkpt lat="43.56547" lon="6.18669">
        <ele>379.3</ele>
        <time>2024-01-21T13:42:47.000Z</time>
      </trkpt>
      <trkpt lat="43.56548" lon="6.18673">
        <ele>379.2</ele>
        <time>2024-01-21T13:42:51.000Z</time>
      </trkpt>
      <trkpt lat="43.56548" lon="6.18675">
        <ele>379.2</ele>
        <time>2024-01-21T13:42:52.000Z</time>
      </trkpt>
      <trkpt lat="43.5655" lon="6.18683">
        <ele>379</ele>
        <time>2024-01-21T13:42:58.000Z</time>
      </trkpt>
      <trkpt lat="43.56552" lon="6.18689">
        <ele>378.9</ele>
        <time>2024-01-21T13:43:03.000Z</time>
      </trkpt>
      <trkpt lat="43.56554" lon="6.18694">
        <ele>378.8</ele>
        <time>2024-01-21T13:43:07.000Z</time>
      </trkpt>
      <trkpt lat="43.56555" lon="6.18699">
        <ele>378.7</ele>
        <time>2024-01-21T13:43:10.000Z</time>
      </trkpt>
      <trkpt lat="43.56555" lon="6.18704">
        <ele>378.5</ele>
        <time>2024-01-21T13:43:13.000Z</time>
      </trkpt>
      <trkpt lat="43.56557" lon="6.18709">
        <ele>378.4</ele>
        <time>2024-01-21T13:43:17.000Z</time>
      </trkpt>
      <trkpt lat="43.56559" lon="6.18714">
        <ele>378.2</ele>
        <time>2024-01-21T13:43:21.000Z</time>
      </trkpt>
      <trkpt lat="43.5656" lon="6.18719">
        <ele>378.1</ele>
        <time>2024-01-21T13:43:24.000Z</time>
      </trkpt>
      <trkpt lat="43.56562" lon="6.18724">
        <ele>378</ele>
        <time>2024-01-21T13:43:28.000Z</time>
      </trkpt>
      <trkpt lat="43.56563" lon="6.18729">
        <ele>377.9</ele>
        <time>2024-01-21T13:43:31.000Z</time>
      </trkpt>
      <trkpt lat="43.56564" lon="6.18735">
        <ele>377.8</ele>
        <time>2024-01-21T13:43:33.900Z</time>
      </trkpt>
      <trkpt lat="43.56566" lon="6.18739">
        <ele>377.8</ele>
        <time>2024-01-21T13:43:37.000Z</time>
      </trkpt>
      <trkpt lat="43.56568" lon="6.18744">
        <ele>377.7</ele>
        <time>2024-01-21T13:43:41.000Z</time>
      </trkpt>
      <trkpt lat="43.5657" lon="6.18749">
        <ele>377.7</ele>
        <time>2024-01-21T13:43:45.000Z</time>
      </trkpt>
      <trkpt lat="43.56571" lon="6.18755">
        <ele>377.6</ele>
        <time>2024-01-21T13:43:49.000Z</time>
      </trkpt>
      <trkpt lat="43.56571" lon="6.1876">
        <ele>377.5</ele>
        <time>2024-01-21T13:43:53.000Z</time>
      </trkpt>
      <trkpt lat="43.56572" lon="6.18762">
        <ele>377.5</ele>
        <time>2024-01-21T13:43:54.000Z</time>
      </trkpt>
      <trkpt lat="43.56575" lon="6.18771">
        <ele>377.4</ele>
        <time>2024-01-21T13:44:02.000Z</time>
      </trkpt>
      <trkpt lat="43.56576" lon="6.18775">
        <ele>377.3</ele>
        <time>2024-01-21T13:44:06.000Z</time>
      </trkpt>
      <trkpt lat="43.56577" lon="6.1878">
        <ele>377.2</ele>
        <time>2024-01-21T13:44:11.000Z</time>
      </trkpt>
      <trkpt lat="43.56579" lon="6.18786">
        <ele>377</ele>
        <time>2024-01-21T13:44:16.000Z</time>
      </trkpt>
      <trkpt lat="43.56581" lon="6.18791">
        <ele>377</ele>
        <time>2024-01-21T13:44:20.000Z</time>
      </trkpt>
      <trkpt lat="43.56582" lon="6.18795">
        <ele>376.9</ele>
        <time>2024-01-21T13:44:23.000Z</time>
      </trkpt>
      <trkpt lat="43.56584" lon="6.188">
        <ele>376.9</ele>
        <time>2024-01-21T13:44:26.000Z</time>
      </trkpt>
      <trkpt lat="43.56585" lon="6.18804">
        <ele>376.8</ele>
        <time>2024-01-21T13:44:28.000Z</time>
      </trkpt>
      <trkpt lat="43.56586" lon="6.18809">
        <ele>376.8</ele>
        <time>2024-01-21T13:44:31.000Z</time>
      </trkpt>
      <trkpt lat="43.56589" lon="6.18814">
        <ele>376.6</ele>
        <time>2024-01-21T13:44:35.000Z</time>
      </trkpt>
      <trkpt lat="43.56591" lon="6.18819">
        <ele>376.4</ele>
        <time>2024-01-21T13:44:39.000Z</time>
      </trkpt>
      <trkpt lat="43.56593" lon="6.18823">
        <ele>376.3</ele>
        <time>2024-01-21T13:44:43.000Z</time>
      </trkpt>
      <trkpt lat="43.56595" lon="6.18829">
        <ele>376.2</ele>
        <time>2024-01-21T13:44:46.000Z</time>
      </trkpt>
      <trkpt lat="43.56597" lon="6.18834">
        <ele>376.1</ele>
        <time>2024-01-21T13:44:50.000Z</time>
      </trkpt>
      <trkpt lat="43.56597" lon="6.1884">
        <ele>375.9</ele>
        <time>2024-01-21T13:44:54.000Z</time>
      </trkpt>
      <trkpt lat="43.56597" lon="6.18841">
        <ele>375.9</ele>
        <time>2024-01-21T13:44:55.000Z</time>
      </trkpt>
      <trkpt lat="43.56599" lon="6.18849">
        <ele>375.7</ele>
        <time>2024-01-21T13:45:01.000Z</time>
      </trkpt>
      <trkpt lat="43.56601" lon="6.18854">
        <ele>375.6</ele>
        <time>2024-01-21T13:45:04.000Z</time>
      </trkpt>
      <trkpt lat="43.56603" lon="6.18859">
        <ele>375.5</ele>
        <time>2024-01-21T13:45:07.000Z</time>
      </trkpt>
      <trkpt lat="43.56605" lon="6.18864">
        <ele>375.4</ele>
        <time>2024-01-21T13:45:10.000Z</time>
      </trkpt>
      <trkpt lat="43.56607" lon="6.18869">
        <ele>375.3</ele>
        <time>2024-01-21T13:45:13.000Z</time>
      </trkpt>
      <trkpt lat="43.56609" lon="6.18874">
        <ele>375.2</ele>
        <time>2024-01-21T13:45:16.000Z</time>
      </trkpt>
      <trkpt lat="43.56611" lon="6.18878">
        <ele>375.1</ele>
        <time>2024-01-21T13:45:19.000Z</time>
      </trkpt>
      <trkpt lat="43.56613" lon="6.18881">
        <ele>375</ele>
        <time>2024-01-21T13:45:21.000Z</time>
      </trkpt>
      <trkpt lat="43.56615" lon="6.18884">
        <ele>374.9</ele>
        <time>2024-01-21T13:45:23.000Z</time>
      </trkpt>
      <trkpt lat="43.56618" lon="6.18887">
        <ele>374.8</ele>
        <time>2024-01-21T13:45:26.000Z</time>
      </trkpt>
      <trkpt lat="43.5662" lon="6.18891">
        <ele>374.7</ele>
        <time>2024-01-21T13:45:29.000Z</time>
      </trkpt>
      <trkpt lat="43.56622" lon="6.18897">
        <ele>374.6</ele>
        <time>2024-01-21T13:45:33.000Z</time>
      </trkpt>
      <trkpt lat="43.56624" lon="6.18901">
        <ele>374.4</ele>
        <time>2024-01-21T13:45:37.000Z</time>
      </trkpt>
      <trkpt lat="43.56626" lon="6.18905">
        <ele>374.3</ele>
        <time>2024-01-21T13:45:40.000Z</time>
      </trkpt>
      <trkpt lat="43.5663" lon="6.18909">
        <ele>374.3</ele>
        <time>2024-01-21T13:45:44.000Z</time>
      </trkpt>
      <trkpt lat="43.56632" lon="6.18913">
        <ele>374.2</ele>
        <time>2024-01-21T13:45:47.000Z</time>
      </trkpt>
      <trkpt lat="43.56635" lon="6.18917">
        <ele>374.1</ele>
        <time>2024-01-21T13:45:51.000Z</time>
      </trkpt>
      <trkpt lat="43.56638" lon="6.18922">
        <ele>373.9</ele>
        <time>2024-01-21T13:45:56.000Z</time>
      </trkpt>
      <trkpt lat="43.56638" lon="6.18922">
        <ele>373.9</ele>
        <time>2024-01-21T13:45:57.000Z</time>
      </trkpt>
      <trkpt lat="43.56644" lon="6.18929">
        <ele>373.6</ele>
        <time>2024-01-21T13:46:08.000Z</time>
      </trkpt>
      <trkpt lat="43.56648" lon="6.18933">
        <ele>373.4</ele>
        <time>2024-01-21T13:46:12.000Z</time>
      </trkpt>
      <trkpt lat="43.5665" lon="6.18936">
        <ele>373.3</ele>
        <time>2024-01-21T13:46:14.000Z</time>
      </trkpt>
      <trkpt lat="43.56651" lon="6.18941">
        <ele>373.1</ele>
        <time>2024-01-21T13:46:17.000Z</time>
      </trkpt>
      <trkpt lat="43.56654" lon="6.18945">
        <ele>373</ele>
        <time>2024-01-21T13:46:20.000Z</time>
      </trkpt>
      <trkpt lat="43.56656" lon="6.18949">
        <ele>372.9</ele>
        <time>2024-01-21T13:46:23.000Z</time>
      </trkpt>
      <trkpt lat="43.56659" lon="6.18953">
        <ele>372.9</ele>
        <time>2024-01-21T13:46:27.000Z</time>
      </trkpt>
      <trkpt lat="43.56662" lon="6.18957">
        <ele>372.7</ele>
        <time>2024-01-21T13:46:31.000Z</time>
      </trkpt>
      <trkpt lat="43.56665" lon="6.18961">
        <ele>372.6</ele>
        <time>2024-01-21T13:46:35.000Z</time>
      </trkpt>
      <trkpt lat="43.56668" lon="6.18965">
        <ele>372.4</ele>
        <time>2024-01-21T13:46:39.000Z</time>
      </trkpt>
      <trkpt lat="43.56671" lon="6.18969">
        <ele>372.3</ele>
        <time>2024-01-21T13:46:43.000Z</time>
      </trkpt>
      <trkpt lat="43.56673" lon="6.18973">
        <ele>372.2</ele>
        <time>2024-01-21T13:46:46.000Z</time>
      </trkpt>
      <trkpt lat="43.56675" lon="6.18978">
        <ele>372.1</ele>
        <time>2024-01-21T13:46:49.000Z</time>
      </trkpt>
      <trkpt lat="43.56677" lon="6.18982">
        <ele>372.1</ele>
        <time>2024-01-21T13:46:52.000Z</time>
      </trkpt>
      <trkpt lat="43.56679" lon="6.18986">
        <ele>372</ele>
        <time>2024-01-21T13:46:55.000Z</time>
      </trkpt>
      <trkpt lat="43.56682" lon="6.18991">
        <ele>372</ele>
        <time>2024-01-21T13:46:59.000Z</time>
      </trkpt>
      <trkpt lat="43.56683" lon="6.18992">
        <ele>372</ele>
        <time>2024-01-21T13:47:00.000Z</time>
      </trkpt>
      <trkpt lat="43.56686" lon="6.19">
        <ele>371.9</ele>
        <time>2024-01-21T13:47:07.000Z</time>
      </trkpt>
      <trkpt lat="43.56688" lon="6.19004">
        <ele>371.8</ele>
        <time>2024-01-21T13:47:10.000Z</time>
      </trkpt>
      <trkpt lat="43.5669" lon="6.19007">
        <ele>371.8</ele>
        <time>2024-01-21T13:47:12.000Z</time>
      </trkpt>
      <trkpt lat="43.56692" lon="6.19011">
        <ele>371.8</ele>
        <time>2024-01-21T13:47:15.000Z</time>
      </trkpt>
      <trkpt lat="43.56695" lon="6.19016">
        <ele>371.8</ele>
        <time>2024-01-21T13:47:19.000Z</time>
      </trkpt>
      <trkpt lat="43.56696" lon="6.19019">
        <ele>371.8</ele>
        <time>2024-01-21T13:47:21.000Z</time>
      </trkpt>
      <trkpt lat="43.56699" lon="6.19023">
        <ele>371.8</ele>
        <time>2024-01-21T13:47:24.000Z</time>
      </trkpt>
      <trkpt lat="43.56701" lon="6.19027">
        <ele>371.7</ele>
        <time>2024-01-21T13:47:27.000Z</time>
      </trkpt>
      <trkpt lat="43.56704" lon="6.19032">
        <ele>371.7</ele>
        <time>2024-01-21T13:47:31.000Z</time>
      </trkpt>
      <trkpt lat="43.56707" lon="6.19036">
        <ele>371.7</ele>
        <time>2024-01-21T13:47:36.000Z</time>
      </trkpt>
      <trkpt lat="43.5671" lon="6.19038">
        <ele>371.7</ele>
        <time>2024-01-21T13:47:41.000Z</time>
      </trkpt>
      <trkpt lat="43.56712" lon="6.19043">
        <ele>371.6</ele>
        <time>2024-01-21T13:47:44.000Z</time>
      </trkpt>
      <trkpt lat="43.56714" lon="6.19048">
        <ele>371.6</ele>
        <time>2024-01-21T13:47:47.000Z</time>
      </trkpt>
      <trkpt lat="43.56716" lon="6.19052">
        <ele>371.5</ele>
        <time>2024-01-21T13:47:50.000Z</time>
      </trkpt>
      <trkpt lat="43.56719" lon="6.19056">
        <ele>371.4</ele>
        <time>2024-01-21T13:47:53.000Z</time>
      </trkpt>
      <trkpt lat="43.56721" lon="6.19059">
        <ele>371.3</ele>
        <time>2024-01-21T13:47:56.000Z</time>
      </trkpt>
      <trkpt lat="43.56723" lon="6.19064">
        <ele>371.2</ele>
        <time>2024-01-21T13:47:58.000Z</time>
      </trkpt>
      <trkpt lat="43.56724" lon="6.19068">
        <ele>371.1</ele>
        <time>2024-01-21T13:48:00.000Z</time>
      </trkpt>
      <trkpt lat="43.56726" lon="6.1907">
        <ele>371.1</ele>
        <time>2024-01-21T13:48:01.000Z</time>
      </trkpt>
      <trkpt lat="43.5673" lon="6.19075">
        <ele>370.9</ele>
        <time>2024-01-21T13:48:05.000Z</time>
      </trkpt>
      <trkpt lat="43.56733" lon="6.19078">
        <ele>370.7</ele>
        <time>2024-01-21T13:48:09.000Z</time>
      </trkpt>
      <trkpt lat="43.56735" lon="6.1908">
        <ele>370.6</ele>
        <time>2024-01-21T13:48:11.000Z</time>
      </trkpt>
      <trkpt lat="43.56739" lon="6.19081">
        <ele>370.6</ele>
        <time>2024-01-21T13:48:13.000Z</time>
      </trkpt>
      <trkpt lat="43.56742" lon="6.19083">
        <ele>370.5</ele>
        <time>2024-01-21T13:48:16.000Z</time>
      </trkpt>
      <trkpt lat="43.56746" lon="6.19086">
        <ele>370.4</ele>
        <time>2024-01-21T13:48:19.000Z</time>
      </trkpt>
      <trkpt lat="43.56749" lon="6.19089">
        <ele>370.4</ele>
        <time>2024-01-21T13:48:22.000Z</time>
      </trkpt>
      <trkpt lat="43.56752" lon="6.19091">
        <ele>370.3</ele>
        <time>2024-01-21T13:48:25.000Z</time>
      </trkpt>
      <trkpt lat="43.56755" lon="6.19094">
        <ele>370.3</ele>
        <time>2024-01-21T13:48:28.000Z</time>
      </trkpt>
      <trkpt lat="43.56758" lon="6.19097">
        <ele>370.2</ele>
        <time>2024-01-21T13:48:31.000Z</time>
      </trkpt>
      <trkpt lat="43.56761" lon="6.19099">
        <ele>370.2</ele>
        <time>2024-01-21T13:48:34.000Z</time>
      </trkpt>
      <trkpt lat="43.56765" lon="6.19102">
        <ele>370.2</ele>
        <time>2024-01-21T13:48:37.000Z</time>
      </trkpt>
      <trkpt lat="43.56768" lon="6.19106">
        <ele>370.1</ele>
        <time>2024-01-21T13:48:40.000Z</time>
      </trkpt>
      <trkpt lat="43.56772" lon="6.19108">
        <ele>370.1</ele>
        <time>2024-01-21T13:48:45.000Z</time>
      </trkpt>
      <trkpt lat="43.56776" lon="6.1911">
        <ele>370.1</ele>
        <time>2024-01-21T13:48:48.000Z</time>
      </trkpt>
      <trkpt lat="43.56779" lon="6.19112">
        <ele>370.1</ele>
        <time>2024-01-21T13:48:51.000Z</time>
      </trkpt>
      <trkpt lat="43.56782" lon="6.19115">
        <ele>370</ele>
        <time>2024-01-21T13:48:54.000Z</time>
      </trkpt>
      <trkpt lat="43.56785" lon="6.19117">
        <ele>369.9</ele>
        <time>2024-01-21T13:48:57.000Z</time>
      </trkpt>
      <trkpt lat="43.56789" lon="6.19119">
        <ele>369.8</ele>
        <time>2024-01-21T13:49:00.000Z</time>
      </trkpt>
      <trkpt lat="43.56792" lon="6.19121">
        <ele>369.7</ele>
        <time>2024-01-21T13:49:03.000Z</time>
      </trkpt>
      <trkpt lat="43.56793" lon="6.19122">
        <ele>369.7</ele>
        <time>2024-01-21T13:49:04.000Z</time>
      </trkpt>
      <trkpt lat="43.56799" lon="6.19126">
        <ele>369.4</ele>
        <time>2024-01-21T13:49:09.000Z</time>
      </trkpt>
      <trkpt lat="43.56803" lon="6.19129">
        <ele>369.3</ele>
        <time>2024-01-21T13:49:13.000Z</time>
      </trkpt>
      <trkpt lat="43.56806" lon="6.19131">
        <ele>369.2</ele>
        <time>2024-01-21T13:49:17.000Z</time>
      </trkpt>
      <trkpt lat="43.56809" lon="6.19133">
        <ele>369</ele>
        <time>2024-01-21T13:49:20.000Z</time>
      </trkpt>
      <trkpt lat="43.56812" lon="6.19135">
        <ele>368.9</ele>
        <time>2024-01-21T13:49:23.000Z</time>
      </trkpt>
      <trkpt lat="43.56815" lon="6.19137">
        <ele>368.7</ele>
        <time>2024-01-21T13:49:26.000Z</time>
      </trkpt>
      <trkpt lat="43.56819" lon="6.19139">
        <ele>368.6</ele>
        <time>2024-01-21T13:49:30.000Z</time>
      </trkpt>
      <trkpt lat="43.56822" lon="6.19142">
        <ele>368.5</ele>
        <time>2024-01-21T13:49:33.000Z</time>
      </trkpt>
      <trkpt lat="43.56825" lon="6.19144">
        <ele>368.4</ele>
        <time>2024-01-21T13:49:36.000Z</time>
      </trkpt>
      <trkpt lat="43.56828" lon="6.19147">
        <ele>368.4</ele>
        <time>2024-01-21T13:49:39.000Z</time>
      </trkpt>
      <trkpt lat="43.56831" lon="6.1915">
        <ele>368.4</ele>
        <time>2024-01-21T13:49:42.000Z</time>
      </trkpt>
      <trkpt lat="43.56834" lon="6.19152">
        <ele>368.4</ele>
        <time>2024-01-21T13:49:45.000Z</time>
      </trkpt>
      <trkpt lat="43.56837" lon="6.19155">
        <ele>368.3</ele>
        <time>2024-01-21T13:49:49.000Z</time>
      </trkpt>
      <trkpt lat="43.56841" lon="6.19158">
        <ele>368.3</ele>
        <time>2024-01-21T13:49:53.000Z</time>
      </trkpt>
      <trkpt lat="43.56845" lon="6.19161">
        <ele>368.2</ele>
        <time>2024-01-21T13:49:57.000Z</time>
      </trkpt>
      <trkpt lat="43.56848" lon="6.19165">
        <ele>368.1</ele>
        <time>2024-01-21T13:50:01.000Z</time>
      </trkpt>
      <trkpt lat="43.56851" lon="6.19168">
        <ele>368</ele>
        <time>2024-01-21T13:50:05.000Z</time>
      </trkpt>
      <trkpt lat="43.56852" lon="6.19168">
        <ele>368</ele>
        <time>2024-01-21T13:50:06.000Z</time>
      </trkpt>
      <trkpt lat="43.56857" lon="6.19171">
        <ele>367.9</ele>
        <time>2024-01-21T13:50:11.000Z</time>
      </trkpt>
      <trkpt lat="43.56859" lon="6.19174">
        <ele>367.9</ele>
        <time>2024-01-21T13:50:13.000Z</time>
      </trkpt>
      <trkpt lat="43.56862" lon="6.19176">
        <ele>367.8</ele>
        <time>2024-01-21T13:50:15.000Z</time>
      </trkpt>
      <trkpt lat="43.56866" lon="6.19178">
        <ele>367.7</ele>
        <time>2024-01-21T13:50:18.000Z</time>
      </trkpt>
      <trkpt lat="43.56869" lon="6.19179">
        <ele>367.7</ele>
        <time>2024-01-21T13:50:21.000Z</time>
      </trkpt>
      <trkpt lat="43.56872" lon="6.19181">
        <ele>367.6</ele>
        <time>2024-01-21T13:50:23.000Z</time>
      </trkpt>
      <trkpt lat="43.56876" lon="6.19182">
        <ele>367.6</ele>
        <time>2024-01-21T13:50:25.000Z</time>
      </trkpt>
      <trkpt lat="43.56879" lon="6.19183">
        <ele>367.5</ele>
        <time>2024-01-21T13:50:27.000Z</time>
      </trkpt>
      <trkpt lat="43.56883" lon="6.19186">
        <ele>367.4</ele>
        <time>2024-01-21T13:50:30.000Z</time>
      </trkpt>
      <trkpt lat="43.56886" lon="6.19188">
        <ele>367.3</ele>
        <time>2024-01-21T13:50:32.000Z</time>
      </trkpt>
      <trkpt lat="43.56888" lon="6.19191">
        <ele>367.3</ele>
        <time>2024-01-21T13:50:35.000Z</time>
      </trkpt>
      <trkpt lat="43.56892" lon="6.19195">
        <ele>367.3</ele>
        <time>2024-01-21T13:50:38.000Z</time>
      </trkpt>
      <trkpt lat="43.56895" lon="6.19199">
        <ele>367.2</ele>
        <time>2024-01-21T13:50:42.000Z</time>
      </trkpt>
      <trkpt lat="43.56898" lon="6.19203">
        <ele>367.2</ele>
        <time>2024-01-21T13:50:46.000Z</time>
      </trkpt>
      <trkpt lat="43.56902" lon="6.19206">
        <ele>367.1</ele>
        <time>2024-01-21T13:50:49.000Z</time>
      </trkpt>
      <trkpt lat="43.56905" lon="6.19208">
        <ele>367.1</ele>
        <time>2024-01-21T13:50:52.000Z</time>
      </trkpt>
      <trkpt lat="43.56908" lon="6.19211">
        <ele>367</ele>
        <time>2024-01-21T13:50:55.000Z</time>
      </trkpt>
      <trkpt lat="43.56911" lon="6.19216">
        <ele>367</ele>
        <time>2024-01-21T13:50:59.000Z</time>
      </trkpt>
      <trkpt lat="43.56914" lon="6.19219">
        <ele>366.8</ele>
        <time>2024-01-21T13:51:03.000Z</time>
      </trkpt>
      <trkpt lat="43.56917" lon="6.19221">
        <ele>366.7</ele>
        <time>2024-01-21T13:51:05.000Z</time>
      </trkpt>
      <trkpt lat="43.5692" lon="6.19224">
        <ele>366.6</ele>
        <time>2024-01-21T13:51:08.000Z</time>
      </trkpt>
      <trkpt lat="43.56922" lon="6.19225">
        <ele>366.6</ele>
        <time>2024-01-21T13:51:09.000Z</time>
      </trkpt>
      <trkpt lat="43.56927" lon="6.19229">
        <ele>366.4</ele>
        <time>2024-01-21T13:51:13.000Z</time>
      </trkpt>
      <trkpt lat="43.5693" lon="6.19231">
        <ele>366.3</ele>
        <time>2024-01-21T13:51:17.000Z</time>
      </trkpt>
      <trkpt lat="43.56933" lon="6.19233">
        <ele>366.2</ele>
        <time>2024-01-21T13:51:19.000Z</time>
      </trkpt>
      <trkpt lat="43.56937" lon="6.19234">
        <ele>366.1</ele>
        <time>2024-01-21T13:51:21.000Z</time>
      </trkpt>
      <trkpt lat="43.56941" lon="6.19236">
        <ele>366</ele>
        <time>2024-01-21T13:51:24.000Z</time>
      </trkpt>
      <trkpt lat="43.56945" lon="6.19236">
        <ele>365.9</ele>
        <time>2024-01-21T13:51:27.000Z</time>
      </trkpt>
      <trkpt lat="43.56948" lon="6.19238">
        <ele>365.8</ele>
        <time>2024-01-21T13:51:30.000Z</time>
      </trkpt>
      <trkpt lat="43.56951" lon="6.1924">
        <ele>365.7</ele>
        <time>2024-01-21T13:51:32.000Z</time>
      </trkpt>
      <trkpt lat="43.56954" lon="6.19242">
        <ele>365.7</ele>
        <time>2024-01-21T13:51:34.000Z</time>
      </trkpt>
      <trkpt lat="43.56958" lon="6.19245">
        <ele>365.6</ele>
        <time>2024-01-21T13:51:37.000Z</time>
      </trkpt>
      <trkpt lat="43.56961" lon="6.19246">
        <ele>365.6</ele>
        <time>2024-01-21T13:51:41.000Z</time>
      </trkpt>
      <trkpt lat="43.56966" lon="6.19246">
        <ele>365.5</ele>
        <time>2024-01-21T13:51:45.000Z</time>
      </trkpt>
      <trkpt lat="43.5697" lon="6.19247">
        <ele>365.5</ele>
        <time>2024-01-21T13:51:48.000Z</time>
      </trkpt>
      <trkpt lat="43.56974" lon="6.19247">
        <ele>365.5</ele>
        <time>2024-01-21T13:51:52.000Z</time>
      </trkpt>
      <trkpt lat="43.56978" lon="6.19249">
        <ele>365.4</ele>
        <time>2024-01-21T13:51:56.000Z</time>
      </trkpt>
      <trkpt lat="43.5698" lon="6.19252">
        <ele>365.3</ele>
        <time>2024-01-21T13:52:00.000Z</time>
      </trkpt>
      <trkpt lat="43.56983" lon="6.19254">
        <ele>365.3</ele>
        <time>2024-01-21T13:52:02.000Z</time>
      </trkpt>
      <trkpt lat="43.56987" lon="6.19256">
        <ele>365.2</ele>
        <time>2024-01-21T13:52:05.000Z</time>
      </trkpt>
      <trkpt lat="43.56991" lon="6.19258">
        <ele>365</ele>
        <time>2024-01-21T13:52:09.000Z</time>
      </trkpt>
      <trkpt lat="43.56992" lon="6.19258">
        <ele>365</ele>
        <time>2024-01-21T13:52:10.000Z</time>
      </trkpt>
      <trkpt lat="43.56998" lon="6.19258">
        <ele>364.8</ele>
        <time>2024-01-21T13:52:15.000Z</time>
      </trkpt>
      <trkpt lat="43.57002" lon="6.1926">
        <ele>364.6</ele>
        <time>2024-01-21T13:52:18.000Z</time>
      </trkpt>
      <trkpt lat="43.57006" lon="6.19261">
        <ele>364.5</ele>
        <time>2024-01-21T13:52:21.000Z</time>
      </trkpt>
      <trkpt lat="43.57009" lon="6.19262">
        <ele>364.3</ele>
        <time>2024-01-21T13:52:24.000Z</time>
      </trkpt>
      <trkpt lat="43.57012" lon="6.19264">
        <ele>364.3</ele>
        <time>2024-01-21T13:52:26.000Z</time>
      </trkpt>
      <trkpt lat="43.57016" lon="6.19266">
        <ele>364.2</ele>
        <time>2024-01-21T13:52:28.000Z</time>
      </trkpt>
      <trkpt lat="43.5702" lon="6.19268">
        <ele>364.1</ele>
        <time>2024-01-21T13:52:31.000Z</time>
      </trkpt>
      <trkpt lat="43.57023" lon="6.1927">
        <ele>364.1</ele>
        <time>2024-01-21T13:52:34.000Z</time>
      </trkpt>
      <trkpt lat="43.57026" lon="6.19273">
        <ele>364</ele>
        <time>2024-01-21T13:52:37.000Z</time>
      </trkpt>
      <trkpt lat="43.5703" lon="6.19275">
        <ele>363.9</ele>
        <time>2024-01-21T13:52:41.000Z</time>
      </trkpt>
      <trkpt lat="43.57035" lon="6.19276">
        <ele>363.9</ele>
        <time>2024-01-21T13:52:45.000Z</time>
      </trkpt>
      <trkpt lat="43.57038" lon="6.19276">
        <ele>363.9</ele>
        <time>2024-01-21T13:52:47.000Z</time>
      </trkpt>
      <trkpt lat="43.57042" lon="6.19278">
        <ele>363.8</ele>
        <time>2024-01-21T13:52:50.000Z</time>
      </trkpt>
      <trkpt lat="43.57046" lon="6.19281">
        <ele>363.7</ele>
        <time>2024-01-21T13:52:53.000Z</time>
      </trkpt>
      <trkpt lat="43.57049" lon="6.19282">
        <ele>363.6</ele>
        <time>2024-01-21T13:52:55.000Z</time>
      </trkpt>
      <trkpt lat="43.57052" lon="6.19284">
        <ele>363.6</ele>
        <time>2024-01-21T13:52:58.000Z</time>
      </trkpt>
      <trkpt lat="43.57056" lon="6.19286">
        <ele>363.5</ele>
        <time>2024-01-21T13:53:01.000Z</time>
      </trkpt>
      <trkpt lat="43.57059" lon="6.19287">
        <ele>363.4</ele>
        <time>2024-01-21T13:53:05.000Z</time>
      </trkpt>
      <trkpt lat="43.57063" lon="6.19288">
        <ele>363.3</ele>
        <time>2024-01-21T13:53:10.000Z</time>
      </trkpt>
      <trkpt lat="43.57064" lon="6.19288">
        <ele>363.3</ele>
        <time>2024-01-21T13:53:11.000Z</time>
      </trkpt>
      <trkpt lat="43.5707" lon="6.19288">
        <ele>363.3</ele>
        <time>2024-01-21T13:53:15.000Z</time>
      </trkpt>
      <trkpt lat="43.57073" lon="6.1929">
        <ele>363.3</ele>
        <time>2024-01-21T13:53:18.000Z</time>
      </trkpt>
      <trkpt lat="43.57076" lon="6.19293">
        <ele>363.2</ele>
        <time>2024-01-21T13:53:21.000Z</time>
      </trkpt>
      <trkpt lat="43.57079" lon="6.19295">
        <ele>363.1</ele>
        <time>2024-01-21T13:53:23.000Z</time>
      </trkpt>
      <trkpt lat="43.57084" lon="6.19296">
        <ele>362.9</ele>
        <time>2024-01-21T13:53:27.000Z</time>
      </trkpt>
      <trkpt lat="43.57087" lon="6.19298">
        <ele>362.7</ele>
        <time>2024-01-21T13:53:30.000Z</time>
      </trkpt>
      <trkpt lat="43.57091" lon="6.193">
        <ele>362.6</ele>
        <time>2024-01-21T13:53:33.000Z</time>
      </trkpt>
      <trkpt lat="43.57094" lon="6.19303">
        <ele>362.5</ele>
        <time>2024-01-21T13:53:36.000Z</time>
      </trkpt>
      <trkpt lat="43.57098" lon="6.19306">
        <ele>362.4</ele>
        <time>2024-01-21T13:53:39.000Z</time>
      </trkpt>
      <trkpt lat="43.57101" lon="6.19308">
        <ele>362.4</ele>
        <time>2024-01-21T13:53:41.000Z</time>
      </trkpt>
      <trkpt lat="43.57105" lon="6.19309">
        <ele>362.3</ele>
        <time>2024-01-21T13:53:44.000Z</time>
      </trkpt>
      <trkpt lat="43.57109" lon="6.19309">
        <ele>362.2</ele>
        <time>2024-01-21T13:53:49.000Z</time>
      </trkpt>
      <trkpt lat="43.57113" lon="6.1931">
        <ele>362.1</ele>
        <time>2024-01-21T13:53:54.000Z</time>
      </trkpt>
      <trkpt lat="43.57117" lon="6.1931">
        <ele>362</ele>
        <time>2024-01-21T13:53:57.000Z</time>
      </trkpt>
      <trkpt lat="43.57121" lon="6.1931">
        <ele>362</ele>
        <time>2024-01-21T13:54:00.000Z</time>
      </trkpt>
      <trkpt lat="43.57124" lon="6.19312">
        <ele>361.9</ele>
        <time>2024-01-21T13:54:03.000Z</time>
      </trkpt>
      <trkpt lat="43.57128" lon="6.19312">
        <ele>361.9</ele>
        <time>2024-01-21T13:54:06.000Z</time>
      </trkpt>
      <trkpt lat="43.57131" lon="6.19315">
        <ele>361.8</ele>
        <time>2024-01-21T13:54:11.000Z</time>
      </trkpt>
      <trkpt lat="43.57132" lon="6.19316">
        <ele>361.8</ele>
        <time>2024-01-21T13:54:12.000Z</time>
      </trkpt>
      <trkpt lat="43.57139" lon="6.19318">
        <ele>361.8</ele>
        <time>2024-01-21T13:54:17.000Z</time>
      </trkpt>
      <trkpt lat="43.57143" lon="6.19318">
        <ele>361.8</ele>
        <time>2024-01-21T13:54:20.000Z</time>
      </trkpt>
      <trkpt lat="43.57147" lon="6.19318">
        <ele>361.7</ele>
        <time>2024-01-21T13:54:22.000Z</time>
      </trkpt>
      <trkpt lat="43.5715" lon="6.19319">
        <ele>361.7</ele>
        <time>2024-01-21T13:54:24.000Z</time>
      </trkpt>
      <trkpt lat="43.57153" lon="6.1932">
        <ele>361.6</ele>
        <time>2024-01-21T13:54:26.000Z</time>
      </trkpt>
      <trkpt lat="43.57157" lon="6.1932">
        <ele>361.5</ele>
        <time>2024-01-21T13:54:29.000Z</time>
      </trkpt>
      <trkpt lat="43.57161" lon="6.19321">
        <ele>361.4</ele>
        <time>2024-01-21T13:54:32.000Z</time>
      </trkpt>
      <trkpt lat="43.57164" lon="6.19322">
        <ele>361.3</ele>
        <time>2024-01-21T13:54:34.000Z</time>
      </trkpt>
      <trkpt lat="43.57168" lon="6.19323">
        <ele>361.2</ele>
        <time>2024-01-21T13:54:37.000Z</time>
      </trkpt>
      <trkpt lat="43.57172" lon="6.19324">
        <ele>361.1</ele>
        <time>2024-01-21T13:54:40.000Z</time>
      </trkpt>
      <trkpt lat="43.57176" lon="6.19326">
        <ele>360.9</ele>
        <time>2024-01-21T13:54:44.000Z</time>
      </trkpt>
      <trkpt lat="43.5718" lon="6.19329">
        <ele>360.8</ele>
        <time>2024-01-21T13:54:47.000Z</time>
      </trkpt>
      <trkpt lat="43.57183" lon="6.19331">
        <ele>360.6</ele>
        <time>2024-01-21T13:54:50.000Z</time>
      </trkpt>
      <trkpt lat="43.57186" lon="6.19333">
        <ele>360.4</ele>
        <time>2024-01-21T13:54:53.000Z</time>
      </trkpt>
      <trkpt lat="43.5719" lon="6.19335">
        <ele>360.3</ele>
        <time>2024-01-21T13:54:56.000Z</time>
      </trkpt>
      <trkpt lat="43.57194" lon="6.19338">
        <ele>360.2</ele>
        <time>2024-01-21T13:54:59.000Z</time>
      </trkpt>
      <trkpt lat="43.57197" lon="6.1934">
        <ele>360.2</ele>
        <time>2024-01-21T13:55:02.000Z</time>
      </trkpt>
      <trkpt lat="43.572" lon="6.19343">
        <ele>360.1</ele>
        <time>2024-01-21T13:55:05.000Z</time>
      </trkpt>
      <trkpt lat="43.57204" lon="6.19346">
        <ele>360</ele>
        <time>2024-01-21T13:55:09.000Z</time>
      </trkpt>
      <trkpt lat="43.57208" lon="6.19345">
        <ele>360</ele>
        <time>2024-01-21T13:55:13.000Z</time>
      </trkpt>
      <trkpt lat="43.57209" lon="6.19345">
        <ele>360</ele>
        <time>2024-01-21T13:55:14.000Z</time>
      </trkpt>
      <trkpt lat="43.57216" lon="6.19349">
        <ele>359.8</ele>
        <time>2024-01-21T13:55:22.000Z</time>
      </trkpt>
      <trkpt lat="43.57219" lon="6.1935">
        <ele>359.7</ele>
        <time>2024-01-21T13:55:25.000Z</time>
      </trkpt>
      <trkpt lat="43.57223" lon="6.1935">
        <ele>359.6</ele>
        <time>2024-01-21T13:55:28.000Z</time>
      </trkpt>
      <trkpt lat="43.57225" lon="6.19352">
        <ele>359.5</ele>
        <time>2024-01-21T13:55:30.000Z</time>
      </trkpt>
      <trkpt lat="43.57228" lon="6.19354">
        <ele>359.4</ele>
        <time>2024-01-21T13:55:32.000Z</time>
      </trkpt>
      <trkpt lat="43.57231" lon="6.19356">
        <ele>359.2</ele>
        <time>2024-01-21T13:55:34.000Z</time>
      </trkpt>
      <trkpt lat="43.57235" lon="6.19358">
        <ele>359.1</ele>
        <time>2024-01-21T13:55:37.000Z</time>
      </trkpt>
      <trkpt lat="43.57239" lon="6.1936">
        <ele>358.9</ele>
        <time>2024-01-21T13:55:40.000Z</time>
      </trkpt>
      <trkpt lat="43.57242" lon="6.19363">
        <ele>358.8</ele>
        <time>2024-01-21T13:55:43.000Z</time>
      </trkpt>
      <trkpt lat="43.57246" lon="6.19363">
        <ele>358.6</ele>
        <time>2024-01-21T13:55:47.000Z</time>
      </trkpt>
      <trkpt lat="43.5725" lon="6.19365">
        <ele>358.5</ele>
        <time>2024-01-21T13:55:51.000Z</time>
      </trkpt>
      <trkpt lat="43.57253" lon="6.19368">
        <ele>358.4</ele>
        <time>2024-01-21T13:55:55.000Z</time>
      </trkpt>
      <trkpt lat="43.57255" lon="6.19372">
        <ele>358.3</ele>
        <time>2024-01-21T13:55:59.000Z</time>
      </trkpt>
      <trkpt lat="43.57259" lon="6.19375">
        <ele>358.2</ele>
        <time>2024-01-21T13:56:03.000Z</time>
      </trkpt>
      <trkpt lat="43.57263" lon="6.19377">
        <ele>358.2</ele>
        <time>2024-01-21T13:56:06.000Z</time>
      </trkpt>
      <trkpt lat="43.57267" lon="6.19379">
        <ele>358.1</ele>
        <time>2024-01-21T13:56:09.000Z</time>
      </trkpt>
      <trkpt lat="43.57269" lon="6.19381">
        <ele>358.1</ele>
        <time>2024-01-21T13:56:11.000Z</time>
      </trkpt>
      <trkpt lat="43.57273" lon="6.19384">
        <ele>358.1</ele>
        <time>2024-01-21T13:56:14.000Z</time>
      </trkpt>
      <trkpt lat="43.57274" lon="6.19385">
        <ele>358</ele>
        <time>2024-01-21T13:56:15.000Z</time>
      </trkpt>
      <trkpt lat="43.57279" lon="6.1939">
        <ele>358</ele>
        <time>2024-01-21T13:56:20.000Z</time>
      </trkpt>
      <trkpt lat="43.57283" lon="6.19392">
        <ele>358</ele>
        <time>2024-01-21T13:56:24.000Z</time>
      </trkpt>
      <trkpt lat="43.57286" lon="6.19396">
        <ele>357.9</ele>
        <time>2024-01-21T13:56:28.000Z</time>
      </trkpt>
      <trkpt lat="43.57289" lon="6.19399">
        <ele>357.8</ele>
        <time>2024-01-21T13:56:31.000Z</time>
      </trkpt>
      <trkpt lat="43.57293" lon="6.19402">
        <ele>357.6</ele>
        <time>2024-01-21T13:56:35.000Z</time>
      </trkpt>
      <trkpt lat="43.57295" lon="6.19405">
        <ele>357.5</ele>
        <time>2024-01-21T13:56:38.000Z</time>
      </trkpt>
      <trkpt lat="43.57298" lon="6.1941">
        <ele>357.4</ele>
        <time>2024-01-21T13:56:41.000Z</time>
      </trkpt>
      <trkpt lat="43.573" lon="6.19414">
        <ele>357.4</ele>
        <time>2024-01-21T13:56:44.000Z</time>
      </trkpt>
      <trkpt lat="43.57302" lon="6.19418">
        <ele>357.3</ele>
        <time>2024-01-21T13:56:47.000Z</time>
      </trkpt>
      <trkpt lat="43.57304" lon="6.19424">
        <ele>357.3</ele>
        <time>2024-01-21T13:56:51.000Z</time>
      </trkpt>
      <trkpt lat="43.57306" lon="6.19428">
        <ele>357.2</ele>
        <time>2024-01-21T13:56:55.000Z</time>
      </trkpt>
      <trkpt lat="43.57309" lon="6.19433">
        <ele>357.2</ele>
        <time>2024-01-21T13:57:01.000Z</time>
      </trkpt>
      <trkpt lat="43.57311" lon="6.19437">
        <ele>357.2</ele>
        <time>2024-01-21T13:57:05.000Z</time>
      </trkpt>
      <trkpt lat="43.57314" lon="6.19441">
        <ele>357.1</ele>
        <time>2024-01-21T13:57:08.000Z</time>
      </trkpt>
      <trkpt lat="43.57316" lon="6.19445">
        <ele>357.1</ele>
        <time>2024-01-21T13:57:11.000Z</time>
      </trkpt>
      <trkpt lat="43.57319" lon="6.1945">
        <ele>357.1</ele>
        <time>2024-01-21T13:57:14.000Z</time>
      </trkpt>
      <trkpt lat="43.57321" lon="6.19455">
        <ele>357.1</ele>
        <time>2024-01-21T13:57:17.000Z</time>
      </trkpt>
      <trkpt lat="43.57321" lon="6.19456">
        <ele>357.1</ele>
        <time>2024-01-21T13:57:18.000Z</time>
      </trkpt>
      <trkpt lat="43.57324" lon="6.19464">
        <ele>357.1</ele>
        <time>2024-01-21T13:57:23.000Z</time>
      </trkpt>
      <trkpt lat="43.57326" lon="6.19468">
        <ele>357.1</ele>
        <time>2024-01-21T13:57:25.000Z</time>
      </trkpt>
      <trkpt lat="43.57328" lon="6.19473">
        <ele>357.1</ele>
        <time>2024-01-21T13:57:28.000Z</time>
      </trkpt>
      <trkpt lat="43.57331" lon="6.19477">
        <ele>357.1</ele>
        <time>2024-01-21T13:57:31.000Z</time>
      </trkpt>
      <trkpt lat="43.57334" lon="6.19482">
        <ele>357</ele>
        <time>2024-01-21T13:57:36.000Z</time>
      </trkpt>
      <trkpt lat="43.57336" lon="6.19486">
        <ele>356.7</ele>
        <time>2024-01-21T13:57:41.000Z</time>
      </trkpt>
      <trkpt lat="43.57338" lon="6.19489">
        <ele>356.5</ele>
        <time>2024-01-21T13:57:43.000Z</time>
      </trkpt>
      <trkpt lat="43.57341" lon="6.19494">
        <ele>356.1</ele>
        <time>2024-01-21T13:57:47.000Z</time>
      </trkpt>
      <trkpt lat="43.57343" lon="6.19498">
        <ele>355.8</ele>
        <time>2024-01-21T13:57:50.000Z</time>
      </trkpt>
      <trkpt lat="43.57346" lon="6.19502">
        <ele>355.4</ele>
        <time>2024-01-21T13:57:55.000Z</time>
      </trkpt>
      <trkpt lat="43.57348" lon="6.19506">
        <ele>354.9</ele>
        <time>2024-01-21T13:58:00.000Z</time>
      </trkpt>
      <trkpt lat="43.5735" lon="6.19511">
        <ele>354.3</ele>
        <time>2024-01-21T13:58:05.000Z</time>
      </trkpt>
      <trkpt lat="43.57352" lon="6.19515">
        <ele>353.9</ele>
        <time>2024-01-21T13:58:10.000Z</time>
      </trkpt>
      <trkpt lat="43.57355" lon="6.19519">
        <ele>353.3</ele>
        <time>2024-01-21T13:58:35.000Z</time>
      </trkpt>
      <trkpt lat="43.57356" lon="6.19519">
        <ele>353.3</ele>
        <time>2024-01-21T13:58:36.000Z</time>
      </trkpt>
      <trkpt lat="43.57356" lon="6.19525">
        <ele>353.4</ele>
        <time>2024-01-21T13:59:34.000Z</time>
      </trkpt>
      <trkpt lat="43.57358" lon="6.1953">
        <ele>353.4</ele>
        <time>2024-01-21T13:59:44.000Z</time>
      </trkpt>
      <trkpt lat="43.57358" lon="6.1953">
        <ele>353.4</ele>
        <time>2024-01-21T13:59:45.000Z</time>
      </trkpt>
      <trkpt lat="43.57361" lon="6.19539">
        <ele>353.4</ele>
        <time>2024-01-21T13:59:56.000Z</time>
      </trkpt>
      <trkpt lat="43.57362" lon="6.19545">
        <ele>353.4</ele>
        <time>2024-01-21T14:00:02.000Z</time>
      </trkpt>
      <trkpt lat="43.57362" lon="6.1955">
        <ele>353.7</ele>
        <time>2024-01-21T14:00:06.000Z</time>
      </trkpt>
      <trkpt lat="43.57362" lon="6.19555">
        <ele>353.9</ele>
        <time>2024-01-21T14:00:09.000Z</time>
      </trkpt>
      <trkpt lat="43.57361" lon="6.1956">
        <ele>354.1</ele>
        <time>2024-01-21T14:00:12.000Z</time>
      </trkpt>
      <trkpt lat="43.5736" lon="6.19566">
        <ele>354.4</ele>
        <time>2024-01-21T14:00:16.000Z</time>
      </trkpt>
      <trkpt lat="43.5736" lon="6.19571">
        <ele>354.8</ele>
        <time>2024-01-21T14:00:20.000Z</time>
      </trkpt>
      <trkpt lat="43.57358" lon="6.19576">
        <ele>355.2</ele>
        <time>2024-01-21T14:00:24.000Z</time>
      </trkpt>
      <trkpt lat="43.57358" lon="6.19582">
        <ele>355.5</ele>
        <time>2024-01-21T14:00:28.000Z</time>
      </trkpt>
      <trkpt lat="43.57358" lon="6.19587">
        <ele>355.9</ele>
        <time>2024-01-21T14:00:31.000Z</time>
      </trkpt>
      <trkpt lat="43.57358" lon="6.19592">
        <ele>356.4</ele>
        <time>2024-01-21T14:00:36.000Z</time>
      </trkpt>
      <trkpt lat="43.57357" lon="6.19597">
        <ele>356.6</ele>
        <time>2024-01-21T14:00:39.000Z</time>
      </trkpt>
      <trkpt lat="43.57356" lon="6.19602">
        <ele>356.9</ele>
        <time>2024-01-21T14:00:42.000Z</time>
      </trkpt>
      <trkpt lat="43.57354" lon="6.19608">
        <ele>357.4</ele>
        <time>2024-01-21T14:00:46.000Z</time>
      </trkpt>
      <trkpt lat="43.57354" lon="6.19609">
        <ele>357.4</ele>
        <time>2024-01-21T14:00:47.000Z</time>
      </trkpt>
      <trkpt lat="43.57353" lon="6.19618">
        <ele>357.9</ele>
        <time>2024-01-21T14:00:54.000Z</time>
      </trkpt>
      <trkpt lat="43.57353" lon="6.19624">
        <ele>358.1</ele>
        <time>2024-01-21T14:00:59.000Z</time>
      </trkpt>
      <trkpt lat="43.57353" lon="6.19631">
        <ele>358.3</ele>
        <time>2024-01-21T14:01:04.000Z</time>
      </trkpt>
      <trkpt lat="43.57354" lon="6.19636">
        <ele>358.4</ele>
        <time>2024-01-21T14:01:08.000Z</time>
      </trkpt>
      <trkpt lat="43.57353" lon="6.19642">
        <ele>358.5</ele>
        <time>2024-01-21T14:01:13.000Z</time>
      </trkpt>
      <trkpt lat="43.57352" lon="6.19648">
        <ele>358.5</ele>
        <time>2024-01-21T14:01:17.000Z</time>
      </trkpt>
      <trkpt lat="43.57351" lon="6.19653">
        <ele>358.5</ele>
        <time>2024-01-21T14:01:20.000Z</time>
      </trkpt>
      <trkpt lat="43.57351" lon="6.19658">
        <ele>358.5</ele>
        <time>2024-01-21T14:01:23.000Z</time>
      </trkpt>
      <trkpt lat="43.57351" lon="6.19664">
        <ele>358.6</ele>
        <time>2024-01-21T14:01:27.000Z</time>
      </trkpt>
      <trkpt lat="43.57349" lon="6.19667">
        <ele>358.6</ele>
        <time>2024-01-21T14:01:29.000Z</time>
      </trkpt>
      <trkpt lat="43.57346" lon="6.19671">
        <ele>358.7</ele>
        <time>2024-01-21T14:01:32.000Z</time>
      </trkpt>
      <trkpt lat="43.57345" lon="6.19677">
        <ele>358.7</ele>
        <time>2024-01-21T14:01:35.000Z</time>
      </trkpt>
      <trkpt lat="43.57344" lon="6.19682">
        <ele>358.8</ele>
        <time>2024-01-21T14:01:39.000Z</time>
      </trkpt>
      <trkpt lat="43.57343" lon="6.19688">
        <ele>359</ele>
        <time>2024-01-21T14:01:43.000Z</time>
      </trkpt>
      <trkpt lat="43.57342" lon="6.19693">
        <ele>359</ele>
        <time>2024-01-21T14:01:47.000Z</time>
      </trkpt>
      <trkpt lat="43.57341" lon="6.19694">
        <ele>359.1</ele>
        <time>2024-01-21T14:01:48.000Z</time>
      </trkpt>
      <trkpt lat="43.57339" lon="6.19703">
        <ele>359.2</ele>
        <time>2024-01-21T14:01:54.000Z</time>
      </trkpt>
      <trkpt lat="43.57337" lon="6.19708">
        <ele>359.2</ele>
        <time>2024-01-21T14:01:59.000Z</time>
      </trkpt>
      <trkpt lat="43.57334" lon="6.19714">
        <ele>359.2</ele>
        <time>2024-01-21T14:02:04.000Z</time>
      </trkpt>
      <trkpt lat="43.57333" lon="6.19719">
        <ele>359.1</ele>
        <time>2024-01-21T14:02:09.000Z</time>
      </trkpt>
      <trkpt lat="43.57331" lon="6.19723">
        <ele>359.1</ele>
        <time>2024-01-21T14:02:13.000Z</time>
      </trkpt>
      <trkpt lat="43.5733" lon="6.19727">
        <ele>359.1</ele>
        <time>2024-01-21T14:02:16.000Z</time>
      </trkpt>
      <trkpt lat="43.57328" lon="6.19732">
        <ele>359</ele>
        <time>2024-01-21T14:02:19.000Z</time>
      </trkpt>
      <trkpt lat="43.57328" lon="6.19737">
        <ele>359</ele>
        <time>2024-01-21T14:02:21.000Z</time>
      </trkpt>
      <trkpt lat="43.57327" lon="6.19742">
        <ele>359</ele>
        <time>2024-01-21T14:02:24.000Z</time>
      </trkpt>
      <trkpt lat="43.57326" lon="6.19747">
        <ele>359</ele>
        <time>2024-01-21T14:02:26.000Z</time>
      </trkpt>
      <trkpt lat="43.57325" lon="6.19753">
        <ele>359</ele>
        <time>2024-01-21T14:02:29.000Z</time>
      </trkpt>
      <trkpt lat="43.57323" lon="6.19758">
        <ele>358.8</ele>
        <time>2024-01-21T14:02:33.000Z</time>
      </trkpt>
      <trkpt lat="43.57322" lon="6.19762">
        <ele>358.8</ele>
        <time>2024-01-21T14:02:35.000Z</time>
      </trkpt>
      <trkpt lat="43.5732" lon="6.19767">
        <ele>358.7</ele>
        <time>2024-01-21T14:02:38.000Z</time>
      </trkpt>
      <trkpt lat="43.57319" lon="6.19773">
        <ele>358.6</ele>
        <time>2024-01-21T14:02:42.000Z</time>
      </trkpt>
      <trkpt lat="43.57317" lon="6.19778">
        <ele>358.5</ele>
        <time>2024-01-21T14:02:46.000Z</time>
      </trkpt>
      <trkpt lat="43.57316" lon="6.19784">
        <ele>358.5</ele>
        <time>2024-01-21T14:02:50.000Z</time>
      </trkpt>
      <trkpt lat="43.57316" lon="6.19785">
        <ele>358.5</ele>
        <time>2024-01-21T14:02:51.000Z</time>
      </trkpt>
      <trkpt lat="43.57314" lon="6.19794">
        <ele>358.4</ele>
        <time>2024-01-21T14:02:56.000Z</time>
      </trkpt>
      <trkpt lat="43.57313" lon="6.19798">
        <ele>358.4</ele>
        <time>2024-01-21T14:02:58.000Z</time>
      </trkpt>
      <trkpt lat="43.57312" lon="6.19802">
        <ele>358.4</ele>
        <time>2024-01-21T14:03:00.000Z</time>
      </trkpt>
      <trkpt lat="43.57311" lon="6.19806">
        <ele>358.4</ele>
        <time>2024-01-21T14:03:02.000Z</time>
      </trkpt>
      <trkpt lat="43.57309" lon="6.19811">
        <ele>358.4</ele>
        <time>2024-01-21T14:03:04.000Z</time>
      </trkpt>
      <trkpt lat="43.57307" lon="6.19817">
        <ele>358.4</ele>
        <time>2024-01-21T14:03:07.000Z</time>
      </trkpt>
      <trkpt lat="43.57306" lon="6.19822">
        <ele>358.4</ele>
        <time>2024-01-21T14:03:10.000Z</time>
      </trkpt>
      <trkpt lat="43.57305" lon="6.19826">
        <ele>358.4</ele>
        <time>2024-01-21T14:03:12.000Z</time>
      </trkpt>
      <trkpt lat="43.57305" lon="6.19832">
        <ele>358.4</ele>
        <time>2024-01-21T14:03:15.000Z</time>
      </trkpt>
      <trkpt lat="43.57304" lon="6.19837">
        <ele>358.3</ele>
        <time>2024-01-21T14:03:19.000Z</time>
      </trkpt>
      <trkpt lat="43.57302" lon="6.19843">
        <ele>358.3</ele>
        <time>2024-01-21T14:03:23.000Z</time>
      </trkpt>
      <trkpt lat="43.573" lon="6.19848">
        <ele>358.3</ele>
        <time>2024-01-21T14:03:27.000Z</time>
      </trkpt>
      <trkpt lat="43.573" lon="6.19854">
        <ele>358.2</ele>
        <time>2024-01-21T14:03:30.000Z</time>
      </trkpt>
      <trkpt lat="43.57299" lon="6.19858">
        <ele>358.2</ele>
        <time>2024-01-21T14:03:33.000Z</time>
      </trkpt>
      <trkpt lat="43.57299" lon="6.19864">
        <ele>358.1</ele>
        <time>2024-01-21T14:03:37.000Z</time>
      </trkpt>
      <trkpt lat="43.57297" lon="6.19869">
        <ele>358.1</ele>
        <time>2024-01-21T14:03:40.000Z</time>
      </trkpt>
      <trkpt lat="43.57296" lon="6.19874">
        <ele>358.1</ele>
        <time>2024-01-21T14:03:44.000Z</time>
      </trkpt>
      <trkpt lat="43.57294" lon="6.19879">
        <ele>358.1</ele>
        <time>2024-01-21T14:03:47.000Z</time>
      </trkpt>
      <trkpt lat="43.57293" lon="6.19883">
        <ele>358.1</ele>
        <time>2024-01-21T14:03:50.000Z</time>
      </trkpt>
      <trkpt lat="43.57293" lon="6.19889">
        <ele>358.2</ele>
        <time>2024-01-21T14:03:53.000Z</time>
      </trkpt>
      <trkpt lat="43.57293" lon="6.19891">
        <ele>358.2</ele>
        <time>2024-01-21T14:03:54.000Z</time>
      </trkpt>
      <trkpt lat="43.57291" lon="6.19899">
        <ele>358.3</ele>
        <time>2024-01-21T14:03:59.000Z</time>
      </trkpt>
      <trkpt lat="43.5729" lon="6.19905">
        <ele>358.4</ele>
        <time>2024-01-21T14:04:03.000Z</time>
      </trkpt>
      <trkpt lat="43.57289" lon="6.19911">
        <ele>358.4</ele>
        <time>2024-01-21T14:04:08.000Z</time>
      </trkpt>
      <trkpt lat="43.57289" lon="6.19916">
        <ele>358.3</ele>
        <time>2024-01-21T14:04:11.000Z</time>
      </trkpt>
      <trkpt lat="43.57289" lon="6.19921">
        <ele>358.3</ele>
        <time>2024-01-21T14:04:14.000Z</time>
      </trkpt>
      <trkpt lat="43.57288" lon="6.19926">
        <ele>358.2</ele>
        <time>2024-01-21T14:04:17.000Z</time>
      </trkpt>
      <trkpt lat="43.57288" lon="6.19932">
        <ele>358.2</ele>
        <time>2024-01-21T14:04:21.000Z</time>
      </trkpt>
      <trkpt lat="43.57287" lon="6.19938">
        <ele>358.2</ele>
        <time>2024-01-21T14:04:25.000Z</time>
      </trkpt>
      <trkpt lat="43.57288" lon="6.19942">
        <ele>358.2</ele>
        <time>2024-01-21T14:04:28.000Z</time>
      </trkpt>
      <trkpt lat="43.57289" lon="6.19948">
        <ele>358.2</ele>
        <time>2024-01-21T14:04:32.000Z</time>
      </trkpt>
      <trkpt lat="43.57289" lon="6.19954">
        <ele>358.1</ele>
        <time>2024-01-21T14:04:36.000Z</time>
      </trkpt>
      <trkpt lat="43.57288" lon="6.19959">
        <ele>358.1</ele>
        <time>2024-01-21T14:04:41.000Z</time>
      </trkpt>
      <trkpt lat="43.57286" lon="6.19963">
        <ele>358.1</ele>
        <time>2024-01-21T14:04:44.000Z</time>
      </trkpt>
      <trkpt lat="43.57285" lon="6.19969">
        <ele>358.1</ele>
        <time>2024-01-21T14:04:47.000Z</time>
      </trkpt>
      <trkpt lat="43.57286" lon="6.19973">
        <ele>358.1</ele>
        <time>2024-01-21T14:04:49.000Z</time>
      </trkpt>
      <trkpt lat="43.57286" lon="6.19978">
        <ele>358.1</ele>
        <time>2024-01-21T14:04:52.000Z</time>
      </trkpt>
      <trkpt lat="43.57287" lon="6.19984">
        <ele>358.1</ele>
        <time>2024-01-21T14:04:56.000Z</time>
      </trkpt>
      <trkpt lat="43.57287" lon="6.19986">
        <ele>358.1</ele>
        <time>2024-01-21T14:04:57.000Z</time>
      </trkpt>
      <trkpt lat="43.57286" lon="6.19995">
        <ele>358.1</ele>
        <time>2024-01-21T14:05:04.000Z</time>
      </trkpt>
      <trkpt lat="43.57287" lon="6.2">
        <ele>358.1</ele>
        <time>2024-01-21T14:05:08.000Z</time>
      </trkpt>
      <trkpt lat="43.57286" lon="6.20006">
        <ele>358</ele>
        <time>2024-01-21T14:05:12.000Z</time>
      </trkpt>
      <trkpt lat="43.57287" lon="6.20012">
        <ele>358</ele>
        <time>2024-01-21T14:05:15.000Z</time>
      </trkpt>
      <trkpt lat="43.57287" lon="6.20018">
        <ele>358</ele>
        <time>2024-01-21T14:05:19.000Z</time>
      </trkpt>
      <trkpt lat="43.57287" lon="6.20022">
        <ele>358</ele>
        <time>2024-01-21T14:05:21.000Z</time>
      </trkpt>
      <trkpt lat="43.57287" lon="6.20027">
        <ele>358</ele>
        <time>2024-01-21T14:05:24.000Z</time>
      </trkpt>
      <trkpt lat="43.57287" lon="6.20033">
        <ele>358</ele>
        <time>2024-01-21T14:05:27.000Z</time>
      </trkpt>
      <trkpt lat="43.57287" lon="6.20038">
        <ele>358</ele>
        <time>2024-01-21T14:05:30.000Z</time>
      </trkpt>
      <trkpt lat="43.57287" lon="6.20043">
        <ele>358</ele>
        <time>2024-01-21T14:05:32.000Z</time>
      </trkpt>
      <trkpt lat="43.57287" lon="6.20048">
        <ele>358</ele>
        <time>2024-01-21T14:05:35.000Z</time>
      </trkpt>
      <trkpt lat="43.57288" lon="6.20054">
        <ele>358</ele>
        <time>2024-01-21T14:05:40.000Z</time>
      </trkpt>
      <trkpt lat="43.57289" lon="6.20059">
        <ele>358</ele>
        <time>2024-01-21T14:05:43.000Z</time>
      </trkpt>
      <trkpt lat="43.57289" lon="6.20065">
        <ele>358</ele>
        <time>2024-01-21T14:05:46.000Z</time>
      </trkpt>
      <trkpt lat="43.57288" lon="6.20069">
        <ele>358</ele>
        <time>2024-01-21T14:05:48.000Z</time>
      </trkpt>
      <trkpt lat="43.57288" lon="6.20074">
        <ele>358</ele>
        <time>2024-01-21T14:05:50.000Z</time>
      </trkpt>
      <trkpt lat="43.57287" lon="6.2008">
        <ele>358</ele>
        <time>2024-01-21T14:05:53.000Z</time>
      </trkpt>
      <trkpt lat="43.57287" lon="6.20084">
        <ele>358</ele>
        <time>2024-01-21T14:05:56.000Z</time>
      </trkpt>
      <trkpt lat="43.57287" lon="6.20089">
        <ele>358</ele>
        <time>2024-01-21T14:05:58.000Z</time>
      </trkpt>
      <trkpt lat="43.57287" lon="6.20091">
        <ele>358</ele>
        <time>2024-01-21T14:05:59.000Z</time>
      </trkpt>
      <trkpt lat="43.57286" lon="6.20099">
        <ele>358</ele>
        <time>2024-01-21T14:06:05.000Z</time>
      </trkpt>
      <trkpt lat="43.57286" lon="6.20105">
        <ele>358</ele>
        <time>2024-01-21T14:06:09.000Z</time>
      </trkpt>
      <trkpt lat="43.57287" lon="6.20111">
        <ele>358</ele>
        <time>2024-01-21T14:06:13.000Z</time>
      </trkpt>
      <trkpt lat="43.57286" lon="6.20117">
        <ele>358</ele>
        <time>2024-01-21T14:06:17.000Z</time>
      </trkpt>
      <trkpt lat="43.57286" lon="6.20123">
        <ele>358</ele>
        <time>2024-01-21T14:06:20.000Z</time>
      </trkpt>
      <trkpt lat="43.57285" lon="6.20128">
        <ele>358</ele>
        <time>2024-01-21T14:06:24.000Z</time>
      </trkpt>
      <trkpt lat="43.57285" lon="6.20133">
        <ele>358</ele>
        <time>2024-01-21T14:06:26.000Z</time>
      </trkpt>
      <trkpt lat="43.57284" lon="6.20138">
        <ele>358</ele>
        <time>2024-01-21T14:06:30.000Z</time>
      </trkpt>
      <trkpt lat="43.57284" lon="6.20143">
        <ele>358</ele>
        <time>2024-01-21T14:06:33.000Z</time>
      </trkpt>
      <trkpt lat="43.57285" lon="6.20148">
        <ele>358</ele>
        <time>2024-01-21T14:06:36.000Z</time>
      </trkpt>
      <trkpt lat="43.57284" lon="6.20154">
        <ele>357.9</ele>
        <time>2024-01-21T14:06:39.000Z</time>
      </trkpt>
      <trkpt lat="43.57284" lon="6.2016">
        <ele>357.8</ele>
        <time>2024-01-21T14:06:43.000Z</time>
      </trkpt>
      <trkpt lat="43.57284" lon="6.20165">
        <ele>357.7</ele>
        <time>2024-01-21T14:06:46.000Z</time>
      </trkpt>
      <trkpt lat="43.57285" lon="6.20171">
        <ele>357.7</ele>
        <time>2024-01-21T14:06:49.000Z</time>
      </trkpt>
      <trkpt lat="43.57285" lon="6.20177">
        <ele>357.6</ele>
        <time>2024-01-21T14:06:53.000Z</time>
      </trkpt>
      <trkpt lat="43.57285" lon="6.20182">
        <ele>357.6</ele>
        <time>2024-01-21T14:06:56.000Z</time>
      </trkpt>
      <trkpt lat="43.57286" lon="6.20187">
        <ele>357.6</ele>
        <time>2024-01-21T14:06:59.000Z</time>
      </trkpt>
      <trkpt lat="43.57286" lon="6.20189">
        <ele>357.6</ele>
        <time>2024-01-21T14:07:00.000Z</time>
      </trkpt>
      <trkpt lat="43.57287" lon="6.20198">
        <ele>357.6</ele>
        <time>2024-01-21T14:07:06.000Z</time>
      </trkpt>
      <trkpt lat="43.57286" lon="6.20204">
        <ele>357.5</ele>
        <time>2024-01-21T14:07:10.000Z</time>
      </trkpt>
      <trkpt lat="43.57284" lon="6.20209">
        <ele>357.5</ele>
        <time>2024-01-21T14:07:17.000Z</time>
      </trkpt>
      <trkpt lat="43.57283" lon="6.20214">
        <ele>357.5</ele>
        <time>2024-01-21T14:07:21.000Z</time>
      </trkpt>
      <trkpt lat="43.57284" lon="6.2022">
        <ele>357.5</ele>
        <time>2024-01-21T14:07:26.000Z</time>
      </trkpt>
      <trkpt lat="43.57284" lon="6.20226">
        <ele>357.5</ele>
        <time>2024-01-21T14:07:31.000Z</time>
      </trkpt>
      <trkpt lat="43.57283" lon="6.20231">
        <ele>357.6</ele>
        <time>2024-01-21T14:07:34.000Z</time>
      </trkpt>
      <trkpt lat="43.57283" lon="6.20237">
        <ele>357.6</ele>
        <time>2024-01-21T14:07:39.000Z</time>
      </trkpt>
      <trkpt lat="43.57286" lon="6.20242">
        <ele>357.6</ele>
        <time>2024-01-21T14:07:51.000Z</time>
      </trkpt>
      <trkpt lat="43.57285" lon="6.20248">
        <ele>357.7</ele>
        <time>2024-01-21T14:08:33.000Z</time>
      </trkpt>
      <trkpt lat="43.57285" lon="6.20249">
        <ele>357.7</ele>
        <time>2024-01-21T14:08:34.000Z</time>
      </trkpt>
      <trkpt lat="43.57285" lon="6.2026">
        <ele>357.6</ele>
        <time>2024-01-21T14:08:43.000Z</time>
      </trkpt>
      <trkpt lat="43.57285" lon="6.20264">
        <ele>357.6</ele>
        <time>2024-01-21T14:08:46.000Z</time>
      </trkpt>
      <trkpt lat="43.57284" lon="6.2027">
        <ele>357.5</ele>
        <time>2024-01-21T14:08:50.000Z</time>
      </trkpt>
      <trkpt lat="43.57284" lon="6.20275">
        <ele>357.4</ele>
        <time>2024-01-21T14:08:53.000Z</time>
      </trkpt>
      <trkpt lat="43.57285" lon="6.20279">
        <ele>357.4</ele>
        <time>2024-01-21T14:08:56.000Z</time>
      </trkpt>
      <trkpt lat="43.57286" lon="6.20285">
        <ele>357.3</ele>
        <time>2024-01-21T14:08:59.000Z</time>
      </trkpt>
      <trkpt lat="43.57287" lon="6.2029">
        <ele>357.3</ele>
        <time>2024-01-21T14:09:02.000Z</time>
      </trkpt>
      <trkpt lat="43.57287" lon="6.20295">
        <ele>357.3</ele>
        <time>2024-01-21T14:09:05.000Z</time>
      </trkpt>
      <trkpt lat="43.57284" lon="6.20299">
        <ele>357.2</ele>
        <time>2024-01-21T14:09:15.000Z</time>
      </trkpt>
      <trkpt lat="43.57284" lon="6.20305">
        <ele>357.1</ele>
        <time>2024-01-21T14:09:29.000Z</time>
      </trkpt>
      <trkpt lat="43.57284" lon="6.2031">
        <ele>357.1</ele>
        <time>2024-01-21T14:09:34.000Z</time>
      </trkpt>
      <trkpt lat="43.57284" lon="6.20311">
        <ele>357.1</ele>
        <time>2024-01-21T14:09:35.000Z</time>
      </trkpt>
      <trkpt lat="43.57281" lon="6.20319">
        <ele>357</ele>
        <time>2024-01-21T14:09:57.000Z</time>
      </trkpt>
      <trkpt lat="43.57283" lon="6.20323">
        <ele>356.9</ele>
        <time>2024-01-21T14:10:04.000Z</time>
      </trkpt>
      <trkpt lat="43.57285" lon="6.20328">
        <ele>356.9</ele>
        <time>2024-01-21T14:10:09.000Z</time>
      </trkpt>
      <trkpt lat="43.57287" lon="6.20333">
        <ele>356.9</ele>
        <time>2024-01-21T14:10:15.000Z</time>
      </trkpt>
      <trkpt lat="43.57288" lon="6.20339">
        <ele>356.9</ele>
        <time>2024-01-21T14:10:23.000Z</time>
      </trkpt>
      <trkpt lat="43.57287" lon="6.20345">
        <ele>356.9</ele>
        <time>2024-01-21T14:10:28.000Z</time>
      </trkpt>
      <trkpt lat="43.57287" lon="6.20351">
        <ele>356.8</ele>
        <time>2024-01-21T14:10:36.000Z</time>
      </trkpt>
      <trkpt lat="43.57287" lon="6.20351">
        <ele>356.8</ele>
        <time>2024-01-21T14:10:37.000Z</time>
      </trkpt>
      <trkpt lat="43.57286" lon="6.20362">
        <ele>356.4</ele>
        <time>2024-01-21T14:10:51.000Z</time>
      </trkpt>
      <trkpt lat="43.57285" lon="6.20368">
        <ele>356.2</ele>
        <time>2024-01-21T14:10:56.000Z</time>
      </trkpt>
      <trkpt lat="43.57285" lon="6.20373">
        <ele>356</ele>
        <time>2024-01-21T14:11:00.000Z</time>
      </trkpt>
      <trkpt lat="43.57284" lon="6.20379">
        <ele>355.9</ele>
        <time>2024-01-21T14:11:05.000Z</time>
      </trkpt>
      <trkpt lat="43.57283" lon="6.20385">
        <ele>355.7</ele>
        <time>2024-01-21T14:11:10.000Z</time>
      </trkpt>
      <trkpt lat="43.57284" lon="6.20389">
        <ele>355.5</ele>
        <time>2024-01-21T14:11:14.000Z</time>
      </trkpt>
      <trkpt lat="43.57284" lon="6.20395">
        <ele>355.1</ele>
        <time>2024-01-21T14:11:18.000Z</time>
      </trkpt>
      <trkpt lat="43.57285" lon="6.20401">
        <ele>354.6</ele>
        <time>2024-01-21T14:11:24.000Z</time>
      </trkpt>
      <trkpt lat="43.57285" lon="6.20407">
        <ele>354.1</ele>
        <time>2024-01-21T14:11:32.000Z</time>
      </trkpt>
      <trkpt lat="43.57286" lon="6.20411">
        <ele>353.9</ele>
        <time>2024-01-21T14:11:37.000Z</time>
      </trkpt>
      <trkpt lat="43.57286" lon="6.20413">
        <ele>353.8</ele>
        <time>2024-01-21T14:11:38.000Z</time>
      </trkpt>
      <trkpt lat="43.57286" lon="6.20422">
        <ele>353.6</ele>
        <time>2024-01-21T14:11:45.000Z</time>
      </trkpt>
      <trkpt lat="43.57285" lon="6.20428">
        <ele>353.4</ele>
        <time>2024-01-21T14:11:51.000Z</time>
      </trkpt>
      <trkpt lat="43.57288" lon="6.20432">
        <ele>353.3</ele>
        <time>2024-01-21T14:11:57.000Z</time>
      </trkpt>
      <trkpt lat="43.57292" lon="6.20434">
        <ele>353.3</ele>
        <time>2024-01-21T14:12:12.000Z</time>
      </trkpt>
      <trkpt lat="43.57289" lon="6.20438">
        <ele>353.8</ele>
        <time>2024-01-21T14:12:47.000Z</time>
      </trkpt>
      <trkpt lat="43.57288" lon="6.20438">
        <ele>353.8</ele>
        <time>2024-01-21T14:12:48.000Z</time>
      </trkpt>
      <trkpt lat="43.57284" lon="6.20447">
        <ele>353.6</ele>
        <time>2024-01-21T14:13:03.000Z</time>
      </trkpt>
      <trkpt lat="43.57283" lon="6.20453">
        <ele>353.6</ele>
        <time>2024-01-21T14:13:08.000Z</time>
      </trkpt>
      <trkpt lat="43.57284" lon="6.20458">
        <ele>353.8</ele>
        <time>2024-01-21T14:13:15.000Z</time>
      </trkpt>
      <trkpt lat="43.57285" lon="6.20464">
        <ele>353.9</ele>
        <time>2024-01-21T14:13:19.000Z</time>
      </trkpt>
      <trkpt lat="43.57285" lon="6.20469">
        <ele>354</ele>
        <time>2024-01-21T14:13:23.000Z</time>
      </trkpt>
      <trkpt lat="43.57286" lon="6.20475">
        <ele>354</ele>
        <time>2024-01-21T14:13:27.000Z</time>
      </trkpt>
      <trkpt lat="43.57286" lon="6.2048">
        <ele>354.1</ele>
        <time>2024-01-21T14:13:30.000Z</time>
      </trkpt>
      <trkpt lat="43.57287" lon="6.20484">
        <ele>354.1</ele>
        <time>2024-01-21T14:13:33.000Z</time>
      </trkpt>
      <trkpt lat="43.57287" lon="6.20489">
        <ele>354.2</ele>
        <time>2024-01-21T14:13:36.000Z</time>
      </trkpt>
      <trkpt lat="43.57287" lon="6.20494">
        <ele>354.2</ele>
        <time>2024-01-21T14:13:39.000Z</time>
      </trkpt>
      <trkpt lat="43.57287" lon="6.20499">
        <ele>354.2</ele>
        <time>2024-01-21T14:13:42.000Z</time>
      </trkpt>
      <trkpt lat="43.57288" lon="6.20503">
        <ele>354.2</ele>
        <time>2024-01-21T14:13:45.000Z</time>
      </trkpt>
      <trkpt lat="43.57288" lon="6.20508">
        <ele>354.3</ele>
        <time>2024-01-21T14:13:48.000Z</time>
      </trkpt>
      <trkpt lat="43.57288" lon="6.2051">
        <ele>354.3</ele>
        <time>2024-01-21T14:13:49.000Z</time>
      </trkpt>
      <trkpt lat="43.57289" lon="6.2052">
        <ele>354.2</ele>
        <time>2024-01-21T14:13:56.000Z</time>
      </trkpt>
      <trkpt lat="43.57291" lon="6.20525">
        <ele>354.2</ele>
        <time>2024-01-21T14:14:00.000Z</time>
      </trkpt>
      <trkpt lat="43.57292" lon="6.20531">
        <ele>354.2</ele>
        <time>2024-01-21T14:14:04.000Z</time>
      </trkpt>
      <trkpt lat="43.57292" lon="6.20536">
        <ele>354.2</ele>
        <time>2024-01-21T14:14:07.000Z</time>
      </trkpt>
      <trkpt lat="43.57293" lon="6.20542">
        <ele>354.1</ele>
        <time>2024-01-21T14:14:11.000Z</time>
      </trkpt>
      <trkpt lat="43.57294" lon="6.20547">
        <ele>354</ele>
        <time>2024-01-21T14:14:16.000Z</time>
      </trkpt>
      <trkpt lat="43.57294" lon="6.20552">
        <ele>354</ele>
        <time>2024-01-21T14:14:20.000Z</time>
      </trkpt>
      <trkpt lat="43.57295" lon="6.20557">
        <ele>353.9</ele>
        <time>2024-01-21T14:14:24.000Z</time>
      </trkpt>
      <trkpt lat="43.57296" lon="6.20563">
        <ele>353.7</ele>
        <time>2024-01-21T14:14:29.000Z</time>
      </trkpt>
      <trkpt lat="43.57298" lon="6.20568">
        <ele>353.4</ele>
        <time>2024-01-21T14:14:32.000Z</time>
      </trkpt>
      <trkpt lat="43.57299" lon="6.20573">
        <ele>353.2</ele>
        <time>2024-01-21T14:14:35.000Z</time>
      </trkpt>
      <trkpt lat="43.57301" lon="6.20578">
        <ele>353</ele>
        <time>2024-01-21T14:14:38.000Z</time>
      </trkpt>
      <trkpt lat="43.57302" lon="6.20584">
        <ele>352.8</ele>
        <time>2024-01-21T14:14:41.000Z</time>
      </trkpt>
      <trkpt lat="43.57302" lon="6.20588">
        <ele>352.7</ele>
        <time>2024-01-21T14:14:43.000Z</time>
      </trkpt>
      <trkpt lat="43.57303" lon="6.20593">
        <ele>352.7</ele>
        <time>2024-01-21T14:14:46.000Z</time>
      </trkpt>
      <trkpt lat="43.57303" lon="6.20599">
        <ele>352.6</ele>
        <time>2024-01-21T14:14:50.000Z</time>
      </trkpt>
      <trkpt lat="43.57304" lon="6.206">
        <ele>352.6</ele>
        <time>2024-01-21T14:14:51.000Z</time>
      </trkpt>
      <trkpt lat="43.57305" lon="6.20609">
        <ele>352.5</ele>
        <time>2024-01-21T14:14:57.000Z</time>
      </trkpt>
      <trkpt lat="43.57306" lon="6.20614">
        <ele>352.5</ele>
        <time>2024-01-21T14:15:00.000Z</time>
      </trkpt>
      <trkpt lat="43.57308" lon="6.20619">
        <ele>352.4</ele>
        <time>2024-01-21T14:15:03.000Z</time>
      </trkpt>
      <trkpt lat="43.57309" lon="6.20624">
        <ele>352.3</ele>
        <time>2024-01-21T14:15:06.000Z</time>
      </trkpt>
      <trkpt lat="43.5731" lon="6.20629">
        <ele>352.2</ele>
        <time>2024-01-21T14:15:09.000Z</time>
      </trkpt>
      <trkpt lat="43.57311" lon="6.20635">
        <ele>352.1</ele>
        <time>2024-01-21T14:15:12.000Z</time>
      </trkpt>
      <trkpt lat="43.57312" lon="6.2064">
        <ele>352</ele>
        <time>2024-01-21T14:15:16.000Z</time>
      </trkpt>
      <trkpt lat="43.57313" lon="6.20646">
        <ele>351.9</ele>
        <time>2024-01-21T14:15:20.000Z</time>
      </trkpt>
      <trkpt lat="43.57315" lon="6.20651">
        <ele>351.9</ele>
        <time>2024-01-21T14:15:24.000Z</time>
      </trkpt>
      <trkpt lat="43.57316" lon="6.20656">
        <ele>351.8</ele>
        <time>2024-01-21T14:15:27.000Z</time>
      </trkpt>
      <trkpt lat="43.57317" lon="6.20661">
        <ele>351.8</ele>
        <time>2024-01-21T14:15:30.000Z</time>
      </trkpt>
      <trkpt lat="43.57319" lon="6.20666">
        <ele>351.8</ele>
        <time>2024-01-21T14:15:33.000Z</time>
      </trkpt>
      <trkpt lat="43.57319" lon="6.20672">
        <ele>351.8</ele>
        <time>2024-01-21T14:15:36.000Z</time>
      </trkpt>
      <trkpt lat="43.57321" lon="6.20677">
        <ele>351.7</ele>
        <time>2024-01-21T14:15:39.000Z</time>
      </trkpt>
      <trkpt lat="43.57322" lon="6.20683">
        <ele>351.7</ele>
        <time>2024-01-21T14:15:43.000Z</time>
      </trkpt>
      <trkpt lat="43.57323" lon="6.20689">
        <ele>351.7</ele>
        <time>2024-01-21T14:15:47.000Z</time>
      </trkpt>
      <trkpt lat="43.57323" lon="6.20694">
        <ele>351.6</ele>
        <time>2024-01-21T14:15:50.000Z</time>
      </trkpt>
      <trkpt lat="43.57325" lon="6.20699">
        <ele>351.6</ele>
        <time>2024-01-21T14:15:53.000Z</time>
      </trkpt>
      <trkpt lat="43.57325" lon="6.207">
        <ele>351.6</ele>
        <time>2024-01-21T14:15:54.000Z</time>
      </trkpt>
      <trkpt lat="43.57326" lon="6.2071">
        <ele>351.5</ele>
        <time>2024-01-21T14:16:01.000Z</time>
      </trkpt>
      <trkpt lat="43.57327" lon="6.20716">
        <ele>351.5</ele>
        <time>2024-01-21T14:16:05.000Z</time>
      </trkpt>
      <trkpt lat="43.57329" lon="6.2072">
        <ele>351.3</ele>
        <time>2024-01-21T14:16:09.000Z</time>
      </trkpt>
      <trkpt lat="43.5733" lon="6.20726">
        <ele>351.2</ele>
        <time>2024-01-21T14:16:13.000Z</time>
      </trkpt>
      <trkpt lat="43.5733" lon="6.20731">
        <ele>351.1</ele>
        <time>2024-01-21T14:16:16.000Z</time>
      </trkpt>
      <trkpt lat="43.5733" lon="6.20737">
        <ele>351.1</ele>
        <time>2024-01-21T14:16:19.000Z</time>
      </trkpt>
      <trkpt lat="43.57331" lon="6.20742">
        <ele>351</ele>
        <time>2024-01-21T14:16:23.000Z</time>
      </trkpt>
      <trkpt lat="43.5733" lon="6.20747">
        <ele>351</ele>
        <time>2024-01-21T14:16:26.000Z</time>
      </trkpt>
      <trkpt lat="43.5733" lon="6.20752">
        <ele>350.9</ele>
        <time>2024-01-21T14:16:29.000Z</time>
      </trkpt>
      <trkpt lat="43.5733" lon="6.20758">
        <ele>351</ele>
        <time>2024-01-21T14:16:32.000Z</time>
      </trkpt>
      <trkpt lat="43.57329" lon="6.20763">
        <ele>351</ele>
        <time>2024-01-21T14:16:35.000Z</time>
      </trkpt>
      <trkpt lat="43.5733" lon="6.20768">
        <ele>351</ele>
        <time>2024-01-21T14:16:39.000Z</time>
      </trkpt>
      <trkpt lat="43.57328" lon="6.20773">
        <ele>351</ele>
        <time>2024-01-21T14:16:42.000Z</time>
      </trkpt>
      <trkpt lat="43.57328" lon="6.20778">
        <ele>350.9</ele>
        <time>2024-01-21T14:16:45.000Z</time>
      </trkpt>
      <trkpt lat="43.57329" lon="6.20783">
        <ele>350.9</ele>
        <time>2024-01-21T14:16:48.000Z</time>
      </trkpt>
      <trkpt lat="43.5733" lon="6.20788">
        <ele>350.8</ele>
        <time>2024-01-21T14:16:52.000Z</time>
      </trkpt>
      <trkpt lat="43.57331" lon="6.20793">
        <ele>350.8</ele>
        <time>2024-01-21T14:16:56.000Z</time>
      </trkpt>
      <trkpt lat="43.57331" lon="6.20795">
        <ele>350.7</ele>
        <time>2024-01-21T14:16:57.000Z</time>
      </trkpt>
      <trkpt lat="43.5733" lon="6.20802">
        <ele>350.7</ele>
        <time>2024-01-21T14:17:00.000Z</time>
      </trkpt>
      <trkpt lat="43.57331" lon="6.20807">
        <ele>350.7</ele>
        <time>2024-01-21T14:17:03.000Z</time>
      </trkpt>
      <trkpt lat="43.57331" lon="6.20812">
        <ele>350.6</ele>
        <time>2024-01-21T14:17:06.000Z</time>
      </trkpt>
      <trkpt lat="43.57331" lon="6.20817">
        <ele>350.6</ele>
        <time>2024-01-21T14:17:09.000Z</time>
      </trkpt>
      <trkpt lat="43.57331" lon="6.20822">
        <ele>350.6</ele>
        <time>2024-01-21T14:17:12.000Z</time>
      </trkpt>
      <trkpt lat="43.5733" lon="6.20826">
        <ele>350.6</ele>
        <time>2024-01-21T14:17:14.000Z</time>
      </trkpt>
      <trkpt lat="43.57329" lon="6.20832">
        <ele>350.6</ele>
        <time>2024-01-21T14:17:17.000Z</time>
      </trkpt>
      <trkpt lat="43.57328" lon="6.20838">
        <ele>350.6</ele>
        <time>2024-01-21T14:17:20.000Z</time>
      </trkpt>
      <trkpt lat="43.57328" lon="6.20843">
        <ele>350.6</ele>
        <time>2024-01-21T14:17:22.000Z</time>
      </trkpt>
      <trkpt lat="43.57327" lon="6.20848">
        <ele>350.6</ele>
        <time>2024-01-21T14:17:25.000Z</time>
      </trkpt>
      <trkpt lat="43.57327" lon="6.20854">
        <ele>350.6</ele>
        <time>2024-01-21T14:17:28.000Z</time>
      </trkpt>
      <trkpt lat="43.57327" lon="6.20858">
        <ele>350.6</ele>
        <time>2024-01-21T14:17:30.000Z</time>
      </trkpt>
      <trkpt lat="43.57328" lon="6.20862">
        <ele>350.6</ele>
        <time>2024-01-21T14:17:32.000Z</time>
      </trkpt>
      <trkpt lat="43.57327" lon="6.20867">
        <ele>350.6</ele>
        <time>2024-01-21T14:17:34.000Z</time>
      </trkpt>
      <trkpt lat="43.57327" lon="6.20872">
        <ele>350.6</ele>
        <time>2024-01-21T14:17:37.000Z</time>
      </trkpt>
      <trkpt lat="43.57327" lon="6.20878">
        <ele>350.6</ele>
        <time>2024-01-21T14:17:40.000Z</time>
      </trkpt>
      <trkpt lat="43.57327" lon="6.20883">
        <ele>350.6</ele>
        <time>2024-01-21T14:17:43.000Z</time>
      </trkpt>
      <trkpt lat="43.57327" lon="6.20888">
        <ele>350.6</ele>
        <time>2024-01-21T14:17:45.000Z</time>
      </trkpt>
      <trkpt lat="43.57327" lon="6.20892">
        <ele>350.6</ele>
        <time>2024-01-21T14:17:47.000Z</time>
      </trkpt>
      <trkpt lat="43.57327" lon="6.20898">
        <ele>350.6</ele>
        <time>2024-01-21T14:17:50.000Z</time>
      </trkpt>
      <trkpt lat="43.57327" lon="6.20904">
        <ele>350.5</ele>
        <time>2024-01-21T14:17:53.000Z</time>
      </trkpt>
      <trkpt lat="43.57328" lon="6.2091">
        <ele>350.4</ele>
        <time>2024-01-21T14:17:56.000Z</time>
      </trkpt>
      <trkpt lat="43.57328" lon="6.20915">
        <ele>350.4</ele>
        <time>2024-01-21T14:17:59.000Z</time>
      </trkpt>
      <trkpt lat="43.57329" lon="6.20917">
        <ele>350.3</ele>
        <time>2024-01-21T14:18:00.000Z</time>
      </trkpt>
      <trkpt lat="43.5733" lon="6.20927">
        <ele>350.3</ele>
        <time>2024-01-21T14:18:06.000Z</time>
      </trkpt>
      <trkpt lat="43.57332" lon="6.20932">
        <ele>350.2</ele>
        <time>2024-01-21T14:18:09.000Z</time>
      </trkpt>
      <trkpt lat="43.57332" lon="6.20936">
        <ele>350.2</ele>
        <time>2024-01-21T14:18:11.000Z</time>
      </trkpt>
      <trkpt lat="43.57334" lon="6.20941">
        <ele>350.1</ele>
        <time>2024-01-21T14:18:14.000Z</time>
      </trkpt>
      <trkpt lat="43.57336" lon="6.20946">
        <ele>350</ele>
        <time>2024-01-21T14:18:18.000Z</time>
      </trkpt>
      <trkpt lat="43.57337" lon="6.20951">
        <ele>350</ele>
        <time>2024-01-21T14:18:21.000Z</time>
      </trkpt>
      <trkpt lat="43.57338" lon="6.20955">
        <ele>349.9</ele>
        <time>2024-01-21T14:18:24.000Z</time>
      </trkpt>
      <trkpt lat="43.5734" lon="6.2096">
        <ele>349.9</ele>
        <time>2024-01-21T14:18:27.000Z</time>
      </trkpt>
      <trkpt lat="43.57341" lon="6.20964">
        <ele>349.9</ele>
        <time>2024-01-21T14:18:30.000Z</time>
      </trkpt>
      <trkpt lat="43.57343" lon="6.2097">
        <ele>349.9</ele>
        <time>2024-01-21T14:18:36.000Z</time>
      </trkpt>
      <trkpt lat="43.57345" lon="6.20975">
        <ele>349.9</ele>
        <time>2024-01-21T14:18:41.000Z</time>
      </trkpt>
      <trkpt lat="43.57348" lon="6.2098">
        <ele>349.9</ele>
        <time>2024-01-21T14:18:45.000Z</time>
      </trkpt>
      <trkpt lat="43.5735" lon="6.20985">
        <ele>349.9</ele>
        <time>2024-01-21T14:18:48.000Z</time>
      </trkpt>
      <trkpt lat="43.5735" lon="6.20991">
        <ele>349.9</ele>
        <time>2024-01-21T14:18:51.000Z</time>
      </trkpt>
      <trkpt lat="43.57352" lon="6.20995">
        <ele>349.9</ele>
        <time>2024-01-21T14:18:54.000Z</time>
      </trkpt>
      <trkpt lat="43.57355" lon="6.20998">
        <ele>349.9</ele>
        <time>2024-01-21T14:18:57.000Z</time>
      </trkpt>
      <trkpt lat="43.57357" lon="6.21002">
        <ele>349.9</ele>
        <time>2024-01-21T14:19:01.000Z</time>
      </trkpt>
      <trkpt lat="43.57358" lon="6.21003">
        <ele>349.9</ele>
        <time>2024-01-21T14:19:02.000Z</time>
      </trkpt>
      <trkpt lat="43.57363" lon="6.2101">
        <ele>349.8</ele>
        <time>2024-01-21T14:19:09.000Z</time>
      </trkpt>
      <trkpt lat="43.57366" lon="6.21013">
        <ele>349.7</ele>
        <time>2024-01-21T14:19:12.000Z</time>
      </trkpt>
      <trkpt lat="43.5737" lon="6.21016">
        <ele>349.6</ele>
        <time>2024-01-21T14:19:16.000Z</time>
      </trkpt>
      <trkpt lat="43.57373" lon="6.21019">
        <ele>349.6</ele>
        <time>2024-01-21T14:19:19.000Z</time>
      </trkpt>
      <trkpt lat="43.57375" lon="6.21023">
        <ele>349.5</ele>
        <time>2024-01-21T14:19:22.000Z</time>
      </trkpt>
      <trkpt lat="43.57378" lon="6.21027">
        <ele>349.5</ele>
        <time>2024-01-21T14:19:25.000Z</time>
      </trkpt>
      <trkpt lat="43.57382" lon="6.2103">
        <ele>349.5</ele>
        <time>2024-01-21T14:19:28.000Z</time>
      </trkpt>
      <trkpt lat="43.57385" lon="6.21033">
        <ele>349.4</ele>
        <time>2024-01-21T14:19:31.000Z</time>
      </trkpt>
      <trkpt lat="43.57388" lon="6.21037">
        <ele>349.4</ele>
        <time>2024-01-21T14:19:35.000Z</time>
      </trkpt>
      <trkpt lat="43.57391" lon="6.21041">
        <ele>349.4</ele>
        <time>2024-01-21T14:19:39.000Z</time>
      </trkpt>
      <trkpt lat="43.57394" lon="6.21044">
        <ele>349.4</ele>
        <time>2024-01-21T14:19:44.000Z</time>
      </trkpt>
      <trkpt lat="43.57397" lon="6.21045">
        <ele>349.4</ele>
        <time>2024-01-21T14:19:47.000Z</time>
      </trkpt>
      <trkpt lat="43.57401" lon="6.21047">
        <ele>349.4</ele>
        <time>2024-01-21T14:19:50.000Z</time>
      </trkpt>
      <trkpt lat="43.57404" lon="6.2105">
        <ele>349.4</ele>
        <time>2024-01-21T14:19:53.000Z</time>
      </trkpt>
      <trkpt lat="43.57407" lon="6.21052">
        <ele>349.4</ele>
        <time>2024-01-21T14:19:56.000Z</time>
      </trkpt>
      <trkpt lat="43.5741" lon="6.21056">
        <ele>349.4</ele>
        <time>2024-01-21T14:19:59.000Z</time>
      </trkpt>
      <trkpt lat="43.57414" lon="6.21059">
        <ele>349.4</ele>
        <time>2024-01-21T14:20:02.000Z</time>
      </trkpt>
      <trkpt lat="43.57416" lon="6.2106">
        <ele>349.4</ele>
        <time>2024-01-21T14:20:03.000Z</time>
      </trkpt>
      <trkpt lat="43.57421" lon="6.21063">
        <ele>349.3</ele>
        <time>2024-01-21T14:20:06.000Z</time>
      </trkpt>
      <trkpt lat="43.57425" lon="6.21063">
        <ele>349.3</ele>
        <time>2024-01-21T14:20:09.000Z</time>
      </trkpt>
      <trkpt lat="43.57429" lon="6.21064">
        <ele>349.2</ele>
        <time>2024-01-21T14:20:12.000Z</time>
      </trkpt>
      <trkpt lat="43.57433" lon="6.21064">
        <ele>349.1</ele>
        <time>2024-01-21T14:20:15.000Z</time>
      </trkpt>
      <trkpt lat="43.57436" lon="6.21064">
        <ele>349</ele>
        <time>2024-01-21T14:20:18.000Z</time>
      </trkpt>
      <trkpt lat="43.5744" lon="6.21065">
        <ele>349</ele>
        <time>2024-01-21T14:20:21.000Z</time>
      </trkpt>
      <trkpt lat="43.57444" lon="6.21067">
        <ele>349.1</ele>
        <time>2024-01-21T14:20:24.000Z</time>
      </trkpt>
      <trkpt lat="43.57447" lon="6.2107">
        <ele>349.1</ele>
        <time>2024-01-21T14:20:27.000Z</time>
      </trkpt>
      <trkpt lat="43.57451" lon="6.21072">
        <ele>349.2</ele>
        <time>2024-01-21T14:20:30.000Z</time>
      </trkpt>
      <trkpt lat="43.57455" lon="6.21073">
        <ele>349.1</ele>
        <time>2024-01-21T14:20:34.000Z</time>
      </trkpt>
      <trkpt lat="43.57458" lon="6.21076">
        <ele>348.9</ele>
        <time>2024-01-21T14:20:38.000Z</time>
      </trkpt>
      <trkpt lat="43.57462" lon="6.21079">
        <ele>348.7</ele>
        <time>2024-01-21T14:20:42.000Z</time>
      </trkpt>
      <trkpt lat="43.57465" lon="6.21083">
        <ele>348.6</ele>
        <time>2024-01-21T14:20:46.000Z</time>
      </trkpt>
      <trkpt lat="43.57467" lon="6.21088">
        <ele>348.4</ele>
        <time>2024-01-21T14:20:51.000Z</time>
      </trkpt>
      <trkpt lat="43.5747" lon="6.21089">
        <ele>348.3</ele>
        <time>2024-01-21T14:20:53.000Z</time>
      </trkpt>
      <trkpt lat="43.57474" lon="6.2109">
        <ele>348.2</ele>
        <time>2024-01-21T14:20:56.000Z</time>
      </trkpt>
      <trkpt lat="43.57478" lon="6.21091">
        <ele>348.1</ele>
        <time>2024-01-21T14:21:00.000Z</time>
      </trkpt>
      <trkpt lat="43.57482" lon="6.21093">
        <ele>348</ele>
        <time>2024-01-21T14:21:08.000Z</time>
      </trkpt>
      <trkpt lat="43.57482" lon="6.21093">
        <ele>348</ele>
        <time>2024-01-21T14:21:09.000Z</time>
      </trkpt>
      <trkpt lat="43.57488" lon="6.21099">
        <ele>347.6</ele>
        <time>2024-01-21T14:21:57.000Z</time>
      </trkpt>
      <trkpt lat="43.57485" lon="6.21096">
        <ele>347.6</ele>
        <time>2024-01-21T14:22:07.000Z</time>
      </trkpt>
      <trkpt lat="43.57484" lon="6.21101">
        <ele>347.1</ele>
        <time>2024-01-21T14:22:51.000Z</time>
      </trkpt>
      <trkpt lat="43.57484" lon="6.21102">
        <ele>347.1</ele>
        <time>2024-01-21T14:22:52.000Z</time>
      </trkpt>
      <trkpt lat="43.57482" lon="6.21111">
        <ele>346.9</ele>
        <time>2024-01-21T14:23:03.000Z</time>
      </trkpt>
      <trkpt lat="43.57479" lon="6.21116">
        <ele>346.8</ele>
        <time>2024-01-21T14:23:07.000Z</time>
      </trkpt>
      <trkpt lat="43.57477" lon="6.2112">
        <ele>346.6</ele>
        <time>2024-01-21T14:23:10.000Z</time>
      </trkpt>
      <trkpt lat="43.57475" lon="6.21125">
        <ele>346.2</ele>
        <time>2024-01-21T14:23:16.000Z</time>
      </trkpt>
      <trkpt lat="43.57474" lon="6.2113">
        <ele>345.9</ele>
        <time>2024-01-21T14:23:21.000Z</time>
      </trkpt>
      <trkpt lat="43.57472" lon="6.21135">
        <ele>345.7</ele>
        <time>2024-01-21T14:23:25.000Z</time>
      </trkpt>
      <trkpt lat="43.57469" lon="6.21139">
        <ele>345.5</ele>
        <time>2024-01-21T14:23:29.000Z</time>
      </trkpt>
      <trkpt lat="43.57468" lon="6.21144">
        <ele>344.9</ele>
        <time>2024-01-21T14:23:33.000Z</time>
      </trkpt>
      <trkpt lat="43.57466" lon="6.21149">
        <ele>344.4</ele>
        <time>2024-01-21T14:23:37.000Z</time>
      </trkpt>
      <trkpt lat="43.57465" lon="6.21154">
        <ele>344.1</ele>
        <time>2024-01-21T14:23:40.000Z</time>
      </trkpt>
      <trkpt lat="43.57465" lon="6.21158">
        <ele>343.8</ele>
        <time>2024-01-21T14:23:43.000Z</time>
      </trkpt>
      <trkpt lat="43.57464" lon="6.21163">
        <ele>343.6</ele>
        <time>2024-01-21T14:23:46.000Z</time>
      </trkpt>
      <trkpt lat="43.57463" lon="6.21168">
        <ele>343.2</ele>
        <time>2024-01-21T14:23:50.000Z</time>
      </trkpt>
      <trkpt lat="43.57461" lon="6.21173">
        <ele>342.9</ele>
        <time>2024-01-21T14:23:53.000Z</time>
      </trkpt>
      <trkpt lat="43.57461" lon="6.21174">
        <ele>342.8</ele>
        <time>2024-01-21T14:23:54.000Z</time>
      </trkpt>
      <trkpt lat="43.57457" lon="6.21183">
        <ele>341.8</ele>
        <time>2024-01-21T14:24:02.000Z</time>
      </trkpt>
      <trkpt lat="43.57456" lon="6.21188">
        <ele>341.3</ele>
        <time>2024-01-21T14:24:07.000Z</time>
      </trkpt>
      <trkpt lat="43.57455" lon="6.21194">
        <ele>340.8</ele>
        <time>2024-01-21T14:24:12.000Z</time>
      </trkpt>
      <trkpt lat="43.57452" lon="6.21198">
        <ele>340.3</ele>
        <time>2024-01-21T14:24:17.000Z</time>
      </trkpt>
      <trkpt lat="43.5745" lon="6.21202">
        <ele>339.8</ele>
        <time>2024-01-21T14:24:22.000Z</time>
      </trkpt>
      <trkpt lat="43.57446" lon="6.21204">
        <ele>339.1</ele>
        <time>2024-01-21T14:24:29.000Z</time>
      </trkpt>
      <trkpt lat="43.57444" lon="6.21209">
        <ele>338.4</ele>
        <time>2024-01-21T14:24:34.000Z</time>
      </trkpt>
      <trkpt lat="43.57441" lon="6.21213">
        <ele>337.7</ele>
        <time>2024-01-21T14:24:38.000Z</time>
      </trkpt>
      <trkpt lat="43.57439" lon="6.21218">
        <ele>336.7</ele>
        <time>2024-01-21T14:24:43.000Z</time>
      </trkpt>
      <trkpt lat="43.57437" lon="6.21223">
        <ele>336</ele>
        <time>2024-01-21T14:24:47.000Z</time>
      </trkpt>
      <trkpt lat="43.57435" lon="6.21227">
        <ele>335.5</ele>
        <time>2024-01-21T14:24:50.000Z</time>
      </trkpt>
      <trkpt lat="43.57433" lon="6.21231">
        <ele>335.1</ele>
        <time>2024-01-21T14:24:53.000Z</time>
      </trkpt>
      <trkpt lat="43.57431" lon="6.21236">
        <ele>334.6</ele>
        <time>2024-01-21T14:24:57.000Z</time>
      </trkpt>
      <trkpt lat="43.5743" lon="6.21237">
        <ele>334.4</ele>
        <time>2024-01-21T14:24:58.000Z</time>
      </trkpt>
      <trkpt lat="43.57426" lon="6.21245">
        <ele>333.4</ele>
        <time>2024-01-21T14:25:04.000Z</time>
      </trkpt>
      <trkpt lat="43.57425" lon="6.2125">
        <ele>332.7</ele>
        <time>2024-01-21T14:25:08.000Z</time>
      </trkpt>
      <trkpt lat="43.57423" lon="6.21255">
        <ele>332.2</ele>
        <time>2024-01-21T14:25:12.000Z</time>
      </trkpt>
      <trkpt lat="43.5742" lon="6.2126">
        <ele>331.8</ele>
        <time>2024-01-21T14:25:16.000Z</time>
      </trkpt>
      <trkpt lat="43.57417" lon="6.21264">
        <ele>331.4</ele>
        <time>2024-01-21T14:25:20.000Z</time>
      </trkpt>
      <trkpt lat="43.57415" lon="6.21268">
        <ele>330.9</ele>
        <time>2024-01-21T14:25:24.000Z</time>
      </trkpt>
      <trkpt lat="43.57412" lon="6.21272">
        <ele>330.4</ele>
        <time>2024-01-21T14:25:28.000Z</time>
      </trkpt>
      <trkpt lat="43.57409" lon="6.21276">
        <ele>329.3</ele>
        <time>2024-01-21T14:25:33.000Z</time>
      </trkpt>
      <trkpt lat="43.57406" lon="6.2128">
        <ele>328.7</ele>
        <time>2024-01-21T14:25:37.000Z</time>
      </trkpt>
      <trkpt lat="43.57403" lon="6.21283">
        <ele>328.3</ele>
        <time>2024-01-21T14:25:40.000Z</time>
      </trkpt>
      <trkpt lat="43.574" lon="6.21286">
        <ele>327.9</ele>
        <time>2024-01-21T14:25:43.000Z</time>
      </trkpt>
      <trkpt lat="43.57397" lon="6.2129">
        <ele>327.4</ele>
        <time>2024-01-21T14:25:48.000Z</time>
      </trkpt>
      <trkpt lat="43.57394" lon="6.21293">
        <ele>326.9</ele>
        <time>2024-01-21T14:25:52.000Z</time>
      </trkpt>
      <trkpt lat="43.57391" lon="6.21295">
        <ele>326.4</ele>
        <time>2024-01-21T14:25:55.000Z</time>
      </trkpt>
      <trkpt lat="43.57387" lon="6.21297">
        <ele>325.9</ele>
        <time>2024-01-21T14:25:58.000Z</time>
      </trkpt>
      <trkpt lat="43.57386" lon="6.21297">
        <ele>325.7</ele>
        <time>2024-01-21T14:25:59.000Z</time>
      </trkpt>
      <trkpt lat="43.5738" lon="6.213">
        <ele>325</ele>
        <time>2024-01-21T14:26:03.000Z</time>
      </trkpt>
      <trkpt lat="43.57377" lon="6.21302">
        <ele>324.6</ele>
        <time>2024-01-21T14:26:06.000Z</time>
      </trkpt>
      <trkpt lat="43.57373" lon="6.21304">
        <ele>323.8</ele>
        <time>2024-01-21T14:26:10.000Z</time>
      </trkpt>
      <trkpt lat="43.5737" lon="6.21306">
        <ele>323.3</ele>
        <time>2024-01-21T14:26:13.000Z</time>
      </trkpt>
      <trkpt lat="43.57367" lon="6.21309">
        <ele>322.8</ele>
        <time>2024-01-21T14:26:16.000Z</time>
      </trkpt>
      <trkpt lat="43.57363" lon="6.21311">
        <ele>322.2</ele>
        <time>2024-01-21T14:26:20.000Z</time>
      </trkpt>
      <trkpt lat="43.5736" lon="6.21315">
        <ele>321.6</ele>
        <time>2024-01-21T14:26:24.000Z</time>
      </trkpt>
      <trkpt lat="43.57356" lon="6.21318">
        <ele>321</ele>
        <time>2024-01-21T14:26:28.000Z</time>
      </trkpt>
      <trkpt lat="43.57353" lon="6.21321">
        <ele>320.7</ele>
        <time>2024-01-21T14:26:31.000Z</time>
      </trkpt>
      <trkpt lat="43.5735" lon="6.21324">
        <ele>320</ele>
        <time>2024-01-21T14:26:35.000Z</time>
      </trkpt>
      <trkpt lat="43.57346" lon="6.21327">
        <ele>319.4</ele>
        <time>2024-01-21T14:26:39.000Z</time>
      </trkpt>
      <trkpt lat="43.57343" lon="6.2133">
        <ele>318.9</ele>
        <time>2024-01-21T14:26:43.000Z</time>
      </trkpt>
      <trkpt lat="43.57339" lon="6.21332">
        <ele>318.4</ele>
        <time>2024-01-21T14:26:47.000Z</time>
      </trkpt>
      <trkpt lat="43.57336" lon="6.21335">
        <ele>317.7</ele>
        <time>2024-01-21T14:26:52.000Z</time>
      </trkpt>
      <trkpt lat="43.57333" lon="6.21338">
        <ele>317.2</ele>
        <time>2024-01-21T14:26:56.000Z</time>
      </trkpt>
      <trkpt lat="43.57329" lon="6.2134">
        <ele>316.8</ele>
        <time>2024-01-21T14:27:00.000Z</time>
      </trkpt>
      <trkpt lat="43.57328" lon="6.21341">
        <ele>316.7</ele>
        <time>2024-01-21T14:27:01.000Z</time>
      </trkpt>
      <trkpt lat="43.57321" lon="6.21345">
        <ele>316.1</ele>
        <time>2024-01-21T14:27:07.000Z</time>
      </trkpt>
      <trkpt lat="43.57317" lon="6.21347">
        <ele>315.7</ele>
        <time>2024-01-21T14:27:10.000Z</time>
      </trkpt>
      <trkpt lat="43.57313" lon="6.2135">
        <ele>315.1</ele>
        <time>2024-01-21T14:27:14.000Z</time>
      </trkpt>
      <trkpt lat="43.5731" lon="6.21352">
        <ele>314.8</ele>
        <time>2024-01-21T14:27:17.000Z</time>
      </trkpt>
      <trkpt lat="43.57307" lon="6.21354">
        <ele>314.4</ele>
        <time>2024-01-21T14:27:20.000Z</time>
      </trkpt>
      <trkpt lat="43.57304" lon="6.21356">
        <ele>314.2</ele>
        <time>2024-01-21T14:27:22.000Z</time>
      </trkpt>
      <trkpt lat="43.57301" lon="6.21357">
        <ele>314</ele>
        <time>2024-01-21T14:27:25.000Z</time>
      </trkpt>
      <trkpt lat="43.57297" lon="6.21358">
        <ele>313.7</ele>
        <time>2024-01-21T14:27:28.000Z</time>
      </trkpt>
      <trkpt lat="43.57293" lon="6.21357">
        <ele>313.4</ele>
        <time>2024-01-21T14:27:32.000Z</time>
      </trkpt>
      <trkpt lat="43.57289" lon="6.21355">
        <ele>313</ele>
        <time>2024-01-21T14:27:36.000Z</time>
      </trkpt>
      <trkpt lat="43.57286" lon="6.21352">
        <ele>312.6</ele>
        <time>2024-01-21T14:27:41.000Z</time>
      </trkpt>
      <trkpt lat="43.57283" lon="6.21349">
        <ele>312.3</ele>
        <time>2024-01-21T14:27:46.000Z</time>
      </trkpt>
      <trkpt lat="43.57279" lon="6.21346">
        <ele>311.9</ele>
        <time>2024-01-21T14:27:53.000Z</time>
      </trkpt>
      <trkpt lat="43.57276" lon="6.21348">
        <ele>311.7</ele>
        <time>2024-01-21T14:28:02.000Z</time>
      </trkpt>
      <trkpt lat="43.57275" lon="6.21348">
        <ele>311.7</ele>
        <time>2024-01-21T14:28:03.000Z</time>
      </trkpt>
      <trkpt lat="43.57269" lon="6.21347">
        <ele>311.4</ele>
        <time>2024-01-21T14:28:38.000Z</time>
      </trkpt>
      <trkpt lat="43.57265" lon="6.21348">
        <ele>311.3</ele>
        <time>2024-01-21T14:28:45.000Z</time>
      </trkpt>
      <trkpt lat="43.57261" lon="6.2135">
        <ele>311.1</ele>
        <time>2024-01-21T14:29:18.000Z</time>
      </trkpt>
      <trkpt lat="43.5726" lon="6.21351">
        <ele>311.1</ele>
        <time>2024-01-21T14:29:19.000Z</time>
      </trkpt>
      <trkpt lat="43.57254" lon="6.21356">
        <ele>309.8</ele>
        <time>2024-01-21T14:30:11.000Z</time>
      </trkpt>
      <trkpt lat="43.57253" lon="6.21362">
        <ele>309.7</ele>
        <time>2024-01-21T14:30:18.000Z</time>
      </trkpt>
      <trkpt lat="43.57251" lon="6.21367">
        <ele>309.6</ele>
        <time>2024-01-21T14:30:23.000Z</time>
      </trkpt>
      <trkpt lat="43.5725" lon="6.21368">
        <ele>309.5</ele>
        <time>2024-01-21T14:30:24.000Z</time>
      </trkpt>
      <trkpt lat="43.57248" lon="6.21377">
        <ele>309.3</ele>
        <time>2024-01-21T14:30:31.000Z</time>
      </trkpt>
      <trkpt lat="43.57246" lon="6.21383">
        <ele>309.3</ele>
        <time>2024-01-21T14:30:35.000Z</time>
      </trkpt>
      <trkpt lat="43.57245" lon="6.21388">
        <ele>309.1</ele>
        <time>2024-01-21T14:30:39.000Z</time>
      </trkpt>
      <trkpt lat="43.57243" lon="6.21394">
        <ele>309</ele>
        <time>2024-01-21T14:30:43.000Z</time>
      </trkpt>
      <trkpt lat="43.57241" lon="6.214">
        <ele>308.9</ele>
        <time>2024-01-21T14:30:47.000Z</time>
      </trkpt>
      <trkpt lat="43.5724" lon="6.21405">
        <ele>308.8</ele>
        <time>2024-01-21T14:30:51.000Z</time>
      </trkpt>
      <trkpt lat="43.57238" lon="6.21409">
        <ele>308.7</ele>
        <time>2024-01-21T14:30:54.000Z</time>
      </trkpt>
      <trkpt lat="43.57237" lon="6.21415">
        <ele>308.5</ele>
        <time>2024-01-21T14:30:58.000Z</time>
      </trkpt>
      <trkpt lat="43.57236" lon="6.2142">
        <ele>308.2</ele>
        <time>2024-01-21T14:31:02.000Z</time>
      </trkpt>
      <trkpt lat="43.57234" lon="6.21426">
        <ele>308</ele>
        <time>2024-01-21T14:31:06.000Z</time>
      </trkpt>
      <trkpt lat="43.57233" lon="6.21431">
        <ele>307.9</ele>
        <time>2024-01-21T14:31:10.000Z</time>
      </trkpt>
      <trkpt lat="43.57232" lon="6.21437">
        <ele>307.7</ele>
        <time>2024-01-21T14:31:14.000Z</time>
      </trkpt>
      <trkpt lat="43.57231" lon="6.21442">
        <ele>307.6</ele>
        <time>2024-01-21T14:31:18.000Z</time>
      </trkpt>
      <trkpt lat="43.5723" lon="6.21448">
        <ele>307.1</ele>
        <time>2024-01-21T14:31:32.000Z</time>
      </trkpt>
      <trkpt lat="43.5723" lon="6.21449">
        <ele>307.1</ele>
        <time>2024-01-21T14:31:33.000Z</time>
      </trkpt>
      <trkpt lat="43.57226" lon="6.21458">
        <ele>306.7</ele>
        <time>2024-01-21T14:31:49.000Z</time>
      </trkpt>
      <trkpt lat="43.57224" lon="6.21462">
        <ele>306.4</ele>
        <time>2024-01-21T14:31:53.000Z</time>
      </trkpt>
      <trkpt lat="43.57221" lon="6.21465">
        <ele>306.2</ele>
        <time>2024-01-21T14:31:56.000Z</time>
      </trkpt>
      <trkpt lat="43.57219" lon="6.21469">
        <ele>305.9</ele>
        <time>2024-01-21T14:31:59.000Z</time>
      </trkpt>
      <trkpt lat="43.57217" lon="6.21474">
        <ele>305.6</ele>
        <time>2024-01-21T14:32:03.000Z</time>
      </trkpt>
      <trkpt lat="43.57215" lon="6.21478">
        <ele>305.3</ele>
        <time>2024-01-21T14:32:06.000Z</time>
      </trkpt>
      <trkpt lat="43.57214" lon="6.21482">
        <ele>305</ele>
        <time>2024-01-21T14:32:09.000Z</time>
      </trkpt>
      <trkpt lat="43.57212" lon="6.21488">
        <ele>304.6</ele>
        <time>2024-01-21T14:32:13.000Z</time>
      </trkpt>
      <trkpt lat="43.57209" lon="6.21492">
        <ele>304.1</ele>
        <time>2024-01-21T14:32:17.000Z</time>
      </trkpt>
      <trkpt lat="43.57207" lon="6.21496">
        <ele>303.7</ele>
        <time>2024-01-21T14:32:21.000Z</time>
      </trkpt>
      <trkpt lat="43.57205" lon="6.215">
        <ele>303.3</ele>
        <time>2024-01-21T14:32:24.000Z</time>
      </trkpt>
      <trkpt lat="43.57203" lon="6.21504">
        <ele>303</ele>
        <time>2024-01-21T14:32:27.000Z</time>
      </trkpt>
      <trkpt lat="43.57201" lon="6.21508">
        <ele>302.7</ele>
        <time>2024-01-21T14:32:30.000Z</time>
      </trkpt>
      <trkpt lat="43.57199" lon="6.21513">
        <ele>302.3</ele>
        <time>2024-01-21T14:32:33.000Z</time>
      </trkpt>
      <trkpt lat="43.57199" lon="6.21514">
        <ele>302.2</ele>
        <time>2024-01-21T14:32:34.000Z</time>
      </trkpt>
      <trkpt lat="43.57196" lon="6.21522">
        <ele>301.4</ele>
        <time>2024-01-21T14:32:40.000Z</time>
      </trkpt>
      <trkpt lat="43.57194" lon="6.21526">
        <ele>301.1</ele>
        <time>2024-01-21T14:32:43.000Z</time>
      </trkpt>
      <trkpt lat="43.57192" lon="6.2153">
        <ele>300.8</ele>
        <time>2024-01-21T14:32:46.000Z</time>
      </trkpt>
      <trkpt lat="43.5719" lon="6.21535">
        <ele>300.5</ele>
        <time>2024-01-21T14:32:49.000Z</time>
      </trkpt>
      <trkpt lat="43.57188" lon="6.2154">
        <ele>300.2</ele>
        <time>2024-01-21T14:32:53.000Z</time>
      </trkpt>
      <trkpt lat="43.57186" lon="6.21545">
        <ele>299.9</ele>
        <time>2024-01-21T14:32:57.000Z</time>
      </trkpt>
      <trkpt lat="43.57184" lon="6.21549">
        <ele>299.5</ele>
        <time>2024-01-21T14:33:00.000Z</time>
      </trkpt>
      <trkpt lat="43.57181" lon="6.21552">
        <ele>299.2</ele>
        <time>2024-01-21T14:33:03.000Z</time>
      </trkpt>
      <trkpt lat="43.57179" lon="6.21557">
        <ele>298.9</ele>
        <time>2024-01-21T14:33:07.000Z</time>
      </trkpt>
      <trkpt lat="43.57177" lon="6.2156">
        <ele>298.7</ele>
        <time>2024-01-21T14:33:10.000Z</time>
      </trkpt>
      <trkpt lat="43.57174" lon="6.21565">
        <ele>298.5</ele>
        <time>2024-01-21T14:33:13.000Z</time>
      </trkpt>
      <trkpt lat="43.57172" lon="6.21569">
        <ele>298.4</ele>
        <time>2024-01-21T14:33:16.000Z</time>
      </trkpt>
      <trkpt lat="43.5717" lon="6.21574">
        <ele>298.1</ele>
        <time>2024-01-21T14:33:19.000Z</time>
      </trkpt>
      <trkpt lat="43.57168" lon="6.21578">
        <ele>297.9</ele>
        <time>2024-01-21T14:33:22.000Z</time>
      </trkpt>
      <trkpt lat="43.57165" lon="6.21581">
        <ele>297.7</ele>
        <time>2024-01-21T14:33:25.000Z</time>
      </trkpt>
      <trkpt lat="43.57163" lon="6.21585">
        <ele>297.6</ele>
        <time>2024-01-21T14:33:28.000Z</time>
      </trkpt>
      <trkpt lat="43.57161" lon="6.2159">
        <ele>297.5</ele>
        <time>2024-01-21T14:33:32.000Z</time>
      </trkpt>
      <trkpt lat="43.57159" lon="6.21595">
        <ele>297.3</ele>
        <time>2024-01-21T14:33:37.000Z</time>
      </trkpt>
      <trkpt lat="43.57158" lon="6.21596">
        <ele>297.3</ele>
        <time>2024-01-21T14:33:38.000Z</time>
      </trkpt>
      <trkpt lat="43.57155" lon="6.21605">
        <ele>296.8</ele>
        <time>2024-01-21T14:33:45.000Z</time>
      </trkpt>
      <trkpt lat="43.57153" lon="6.21609">
        <ele>296.2</ele>
        <time>2024-01-21T14:33:50.000Z</time>
      </trkpt>
      <trkpt lat="43.5715" lon="6.21613">
        <ele>295.7</ele>
        <time>2024-01-21T14:33:54.000Z</time>
      </trkpt>
      <trkpt lat="43.57149" lon="6.21618">
        <ele>295.1</ele>
        <time>2024-01-21T14:33:58.000Z</time>
      </trkpt>
      <trkpt lat="43.57147" lon="6.21623">
        <ele>294.4</ele>
        <time>2024-01-21T14:34:02.000Z</time>
      </trkpt>
      <trkpt lat="43.57145" lon="6.21627">
        <ele>294</ele>
        <time>2024-01-21T14:34:05.000Z</time>
      </trkpt>
      <trkpt lat="43.57144" lon="6.21632">
        <ele>293.6</ele>
        <time>2024-01-21T14:34:08.000Z</time>
      </trkpt>
      <trkpt lat="43.57142" lon="6.21637">
        <ele>292.7</ele>
        <time>2024-01-21T14:34:13.000Z</time>
      </trkpt>
      <trkpt lat="43.57139" lon="6.21642">
        <ele>291.7</ele>
        <time>2024-01-21T14:34:20.000Z</time>
      </trkpt>
      <trkpt lat="43.57137" lon="6.21647">
        <ele>291.2</ele>
        <time>2024-01-21T14:34:25.000Z</time>
      </trkpt>
      <trkpt lat="43.57135" lon="6.21652">
        <ele>290.5</ele>
        <time>2024-01-21T14:34:33.000Z</time>
      </trkpt>
      <trkpt lat="43.57132" lon="6.21656">
        <ele>290.1</ele>
        <time>2024-01-21T14:34:37.000Z</time>
      </trkpt>
      <trkpt lat="43.5713" lon="6.21661">
        <ele>289.7</ele>
        <time>2024-01-21T14:34:41.000Z</time>
      </trkpt>
      <trkpt lat="43.57129" lon="6.21662">
        <ele>289.6</ele>
        <time>2024-01-21T14:34:42.000Z</time>
      </trkpt>
      <trkpt lat="43.57125" lon="6.21671">
        <ele>288.9</ele>
        <time>2024-01-21T14:34:52.000Z</time>
      </trkpt>
      <trkpt lat="43.57123" lon="6.21676">
        <ele>288.7</ele>
        <time>2024-01-21T14:34:56.000Z</time>
      </trkpt>
      <trkpt lat="43.57121" lon="6.21681">
        <ele>288.3</ele>
        <time>2024-01-21T14:35:02.000Z</time>
      </trkpt>
      <trkpt lat="43.57121" lon="6.21687">
        <ele>288.1</ele>
        <time>2024-01-21T14:35:05.000Z</time>
      </trkpt>
      <trkpt lat="43.57119" lon="6.21693">
        <ele>287.9</ele>
        <time>2024-01-21T14:35:08.000Z</time>
      </trkpt>
      <trkpt lat="43.57118" lon="6.21697">
        <ele>287.5</ele>
        <time>2024-01-21T14:35:13.000Z</time>
      </trkpt>
      <trkpt lat="43.57115" lon="6.21702">
        <ele>287.1</ele>
        <time>2024-01-21T14:35:19.000Z</time>
      </trkpt>
      <trkpt lat="43.57113" lon="6.21706">
        <ele>286.9</ele>
        <time>2024-01-21T14:35:22.000Z</time>
      </trkpt>
      <trkpt lat="43.57113" lon="6.2171">
        <ele>286.8</ele>
        <time>2024-01-21T14:35:24.000Z</time>
      </trkpt>
      <trkpt lat="43.57112" lon="6.21716">
        <ele>286.8</ele>
        <time>2024-01-21T14:35:26.000Z</time>
      </trkpt>
      <trkpt lat="43.57111" lon="6.2172">
        <ele>286.7</ele>
        <time>2024-01-21T14:35:28.000Z</time>
      </trkpt>
      <trkpt lat="43.57109" lon="6.21725">
        <ele>286.4</ele>
        <time>2024-01-21T14:35:31.000Z</time>
      </trkpt>
      <trkpt lat="43.57107" lon="6.2173">
        <ele>286</ele>
        <time>2024-01-21T14:35:35.000Z</time>
      </trkpt>
      <trkpt lat="43.57106" lon="6.21735">
        <ele>285.6</ele>
        <time>2024-01-21T14:35:39.000Z</time>
      </trkpt>
      <trkpt lat="43.57106" lon="6.21741">
        <ele>285.3</ele>
        <time>2024-01-21T14:35:44.000Z</time>
      </trkpt>
      <trkpt lat="43.57106" lon="6.21742">
        <ele>285.2</ele>
        <time>2024-01-21T14:35:45.000Z</time>
      </trkpt>
      <trkpt lat="43.57103" lon="6.21752">
        <ele>284.7</ele>
        <time>2024-01-21T14:35:53.000Z</time>
      </trkpt>
      <trkpt lat="43.57102" lon="6.21758">
        <ele>284.4</ele>
        <time>2024-01-21T14:35:57.000Z</time>
      </trkpt>
      <trkpt lat="43.57102" lon="6.21764">
        <ele>284.3</ele>
        <time>2024-01-21T14:36:00.000Z</time>
      </trkpt>
      <trkpt lat="43.57101" lon="6.21769">
        <ele>284.1</ele>
        <time>2024-01-21T14:36:03.000Z</time>
      </trkpt>
      <trkpt lat="43.57099" lon="6.21774">
        <ele>284</ele>
        <time>2024-01-21T14:36:05.000Z</time>
      </trkpt>
      <trkpt lat="43.57098" lon="6.21779">
        <ele>283.9</ele>
        <time>2024-01-21T14:36:07.000Z</time>
      </trkpt>
      <trkpt lat="43.57098" lon="6.21784">
        <ele>283.8</ele>
        <time>2024-01-21T14:36:09.000Z</time>
      </trkpt>
      <trkpt lat="43.57098" lon="6.2179">
        <ele>283.6</ele>
        <time>2024-01-21T14:36:13.000Z</time>
      </trkpt>
      <trkpt lat="43.57097" lon="6.21795">
        <ele>283.5</ele>
        <time>2024-01-21T14:36:16.000Z</time>
      </trkpt>
      <trkpt lat="43.57096" lon="6.21799">
        <ele>283.3</ele>
        <time>2024-01-21T14:36:18.000Z</time>
      </trkpt>
      <trkpt lat="43.57095" lon="6.21803">
        <ele>283.2</ele>
        <time>2024-01-21T14:36:20.000Z</time>
      </trkpt>
      <trkpt lat="43.57095" lon="6.21809">
        <ele>283.1</ele>
        <time>2024-01-21T14:36:23.000Z</time>
      </trkpt>
      <trkpt lat="43.57094" lon="6.21813">
        <ele>283</ele>
        <time>2024-01-21T14:36:26.000Z</time>
      </trkpt>
      <trkpt lat="43.57093" lon="6.21818">
        <ele>282.9</ele>
        <time>2024-01-21T14:36:29.000Z</time>
      </trkpt>
      <trkpt lat="43.57092" lon="6.21824">
        <ele>282.8</ele>
        <time>2024-01-21T14:36:33.000Z</time>
      </trkpt>
      <trkpt lat="43.57091" lon="6.2183">
        <ele>282.7</ele>
        <time>2024-01-21T14:36:37.000Z</time>
      </trkpt>
      <trkpt lat="43.5709" lon="6.21835">
        <ele>282.6</ele>
        <time>2024-01-21T14:36:41.000Z</time>
      </trkpt>
      <trkpt lat="43.57089" lon="6.2184">
        <ele>282.5</ele>
        <time>2024-01-21T14:36:45.000Z</time>
      </trkpt>
      <trkpt lat="43.57089" lon="6.21842">
        <ele>282.5</ele>
        <time>2024-01-21T14:36:46.000Z</time>
      </trkpt>
      <trkpt lat="43.57088" lon="6.21852">
        <ele>282.4</ele>
        <time>2024-01-21T14:36:53.000Z</time>
      </trkpt>
      <trkpt lat="43.57088" lon="6.21857">
        <ele>282.4</ele>
        <time>2024-01-21T14:36:57.000Z</time>
      </trkpt>
      <trkpt lat="43.57087" lon="6.21863">
        <ele>282.4</ele>
        <time>2024-01-21T14:37:04.000Z</time>
      </trkpt>
      <trkpt lat="43.57085" lon="6.21868">
        <ele>282.3</ele>
        <time>2024-01-21T14:37:22.000Z</time>
      </trkpt>
      <trkpt lat="43.57081" lon="6.21871">
        <ele>282.3</ele>
        <time>2024-01-21T14:37:47.000Z</time>
      </trkpt>
      <trkpt lat="43.57081" lon="6.21872">
        <ele>282.2</ele>
        <time>2024-01-21T14:37:48.000Z</time>
      </trkpt>
      <trkpt lat="43.57073" lon="6.21869">
        <ele>281.9</ele>
        <time>2024-01-21T14:38:02.000Z</time>
      </trkpt>
      <trkpt lat="43.57069" lon="6.21869">
        <ele>281.7</ele>
        <time>2024-01-21T14:38:06.000Z</time>
      </trkpt>
      <trkpt lat="43.57066" lon="6.21869">
        <ele>281.5</ele>
        <time>2024-01-21T14:38:09.000Z</time>
      </trkpt>
      <trkpt lat="43.57061" lon="6.21868">
        <ele>281.1</ele>
        <time>2024-01-21T14:38:14.000Z</time>
      </trkpt>
      <trkpt lat="43.57057" lon="6.21868">
        <ele>280.5</ele>
        <time>2024-01-21T14:38:18.000Z</time>
      </trkpt>
      <trkpt lat="43.57054" lon="6.21867">
        <ele>280</ele>
        <time>2024-01-21T14:38:22.000Z</time>
      </trkpt>
      <trkpt lat="43.5705" lon="6.21867">
        <ele>279.5</ele>
        <time>2024-01-21T14:38:26.000Z</time>
      </trkpt>
      <trkpt lat="43.57046" lon="6.21866">
        <ele>279</ele>
        <time>2024-01-21T14:38:30.000Z</time>
      </trkpt>
      <trkpt lat="43.57042" lon="6.21866">
        <ele>278.6</ele>
        <time>2024-01-21T14:38:34.000Z</time>
      </trkpt>
      <trkpt lat="43.57038" lon="6.21866">
        <ele>278.3</ele>
        <time>2024-01-21T14:38:37.000Z</time>
      </trkpt>
      <trkpt lat="43.57034" lon="6.21866">
        <ele>278</ele>
        <time>2024-01-21T14:38:40.000Z</time>
      </trkpt>
      <trkpt lat="43.57031" lon="6.21866">
        <ele>277.7</ele>
        <time>2024-01-21T14:38:42.000Z</time>
      </trkpt>
      <trkpt lat="43.57028" lon="6.21867">
        <ele>277.4</ele>
        <time>2024-01-21T14:38:44.000Z</time>
      </trkpt>
      <trkpt lat="43.57025" lon="6.21867">
        <ele>277.1</ele>
        <time>2024-01-21T14:38:46.000Z</time>
      </trkpt>
      <trkpt lat="43.57021" lon="6.21869">
        <ele>276.8</ele>
        <time>2024-01-21T14:38:49.000Z</time>
      </trkpt>
      <trkpt lat="43.57019" lon="6.21869">
        <ele>276.7</ele>
        <time>2024-01-21T14:38:50.000Z</time>
      </trkpt>
      <trkpt lat="43.57013" lon="6.21874">
        <ele>276.2</ele>
        <time>2024-01-21T14:38:56.000Z</time>
      </trkpt>
      <trkpt lat="43.5701" lon="6.21877">
        <ele>276</ele>
        <time>2024-01-21T14:39:00.000Z</time>
      </trkpt>
      <trkpt lat="43.57007" lon="6.2188">
        <ele>275.8</ele>
        <time>2024-01-21T14:39:03.000Z</time>
      </trkpt>
      <trkpt lat="43.57004" lon="6.21883">
        <ele>275.6</ele>
        <time>2024-01-21T14:39:06.000Z</time>
      </trkpt>
      <trkpt lat="43.57001" lon="6.21886">
        <ele>275.4</ele>
        <time>2024-01-21T14:39:09.000Z</time>
      </trkpt>
      <trkpt lat="43.56998" lon="6.21889">
        <ele>275.1</ele>
        <time>2024-01-21T14:39:12.000Z</time>
      </trkpt>
      <trkpt lat="43.56994" lon="6.21891">
        <ele>274.9</ele>
        <time>2024-01-21T14:39:15.000Z</time>
      </trkpt>
      <trkpt lat="43.56991" lon="6.21893">
        <ele>274.6</ele>
        <time>2024-01-21T14:39:18.000Z</time>
      </trkpt>
      <trkpt lat="43.56988" lon="6.21894">
        <ele>274.6</ele>
        <time>2024-01-21T14:39:21.000Z</time>
      </trkpt>
      <trkpt lat="43.56984" lon="6.21894">
        <ele>274.5</ele>
        <time>2024-01-21T14:39:24.000Z</time>
      </trkpt>
      <trkpt lat="43.56981" lon="6.21894">
        <ele>274.4</ele>
        <time>2024-01-21T14:39:27.000Z</time>
      </trkpt>
      <trkpt lat="43.56977" lon="6.21894">
        <ele>274.4</ele>
        <time>2024-01-21T14:39:31.000Z</time>
      </trkpt>
      <trkpt lat="43.56972" lon="6.21894">
        <ele>274.3</ele>
        <time>2024-01-21T14:39:35.000Z</time>
      </trkpt>
      <trkpt lat="43.56968" lon="6.21895">
        <ele>274.4</ele>
        <time>2024-01-21T14:39:39.000Z</time>
      </trkpt>
      <trkpt lat="43.56964" lon="6.21896">
        <ele>274.4</ele>
        <time>2024-01-21T14:39:43.000Z</time>
      </trkpt>
      <trkpt lat="43.5696" lon="6.21898">
        <ele>274.5</ele>
        <time>2024-01-21T14:39:47.000Z</time>
      </trkpt>
      <trkpt lat="43.56957" lon="6.21901">
        <ele>274.4</ele>
        <time>2024-01-21T14:39:50.000Z</time>
      </trkpt>
      <trkpt lat="43.56956" lon="6.21902">
        <ele>274.3</ele>
        <time>2024-01-21T14:39:51.000Z</time>
      </trkpt>
      <trkpt lat="43.56951" lon="6.21909">
        <ele>274.1</ele>
        <time>2024-01-21T14:39:58.000Z</time>
      </trkpt>
      <trkpt lat="43.56948" lon="6.21913">
        <ele>273.9</ele>
        <time>2024-01-21T14:40:02.000Z</time>
      </trkpt>
      <trkpt lat="43.56945" lon="6.21917">
        <ele>273.7</ele>
        <time>2024-01-21T14:40:06.000Z</time>
      </trkpt>
      <trkpt lat="43.56942" lon="6.21921">
        <ele>273.3</ele>
        <time>2024-01-21T14:40:10.000Z</time>
      </trkpt>
      <trkpt lat="43.56939" lon="6.21925">
        <ele>272.7</ele>
        <time>2024-01-21T14:40:15.000Z</time>
      </trkpt>
      <trkpt lat="43.56936" lon="6.21928">
        <ele>272.2</ele>
        <time>2024-01-21T14:40:19.000Z</time>
      </trkpt>
      <trkpt lat="43.56932" lon="6.2193">
        <ele>271.5</ele>
        <time>2024-01-21T14:40:24.000Z</time>
      </trkpt>
      <trkpt lat="43.56929" lon="6.21932">
        <ele>270.7</ele>
        <time>2024-01-21T14:40:30.000Z</time>
      </trkpt>
      <trkpt lat="43.56926" lon="6.21936">
        <ele>269.9</ele>
        <time>2024-01-21T14:40:36.000Z</time>
      </trkpt>
      <trkpt lat="43.56922" lon="6.21939">
        <ele>268.9</ele>
        <time>2024-01-21T14:40:42.000Z</time>
      </trkpt>
      <trkpt lat="43.56919" lon="6.21942">
        <ele>268.4</ele>
        <time>2024-01-21T14:40:45.000Z</time>
      </trkpt>
      <trkpt lat="43.56916" lon="6.21945">
        <ele>267.9</ele>
        <time>2024-01-21T14:40:48.000Z</time>
      </trkpt>
      <trkpt lat="43.56912" lon="6.21948">
        <ele>267.3</ele>
        <time>2024-01-21T14:40:51.000Z</time>
      </trkpt>
      <trkpt lat="43.56911" lon="6.21948">
        <ele>267.1</ele>
        <time>2024-01-21T14:40:52.000Z</time>
      </trkpt>
      <trkpt lat="43.56906" lon="6.21953">
        <ele>265.4</ele>
        <time>2024-01-21T14:41:03.000Z</time>
      </trkpt>
      <trkpt lat="43.56903" lon="6.21958">
        <ele>263.8</ele>
        <time>2024-01-21T14:41:18.000Z</time>
      </trkpt>
      <trkpt lat="43.569" lon="6.21963">
        <ele>263.2</ele>
        <time>2024-01-21T14:41:27.000Z</time>
      </trkpt>
      <trkpt lat="43.56897" lon="6.21965">
        <ele>263.1</ele>
        <time>2024-01-21T14:41:30.000Z</time>
      </trkpt>
      <trkpt lat="43.56894" lon="6.21968">
        <ele>263</ele>
        <time>2024-01-21T14:41:32.000Z</time>
      </trkpt>
      <trkpt lat="43.5689" lon="6.21971">
        <ele>262.8</ele>
        <time>2024-01-21T14:41:35.000Z</time>
      </trkpt>
      <trkpt lat="43.56886" lon="6.21973">
        <ele>262.7</ele>
        <time>2024-01-21T14:41:38.000Z</time>
      </trkpt>
      <trkpt lat="43.56883" lon="6.21975">
        <ele>262.7</ele>
        <time>2024-01-21T14:41:43.000Z</time>
      </trkpt>
      <trkpt lat="43.56879" lon="6.21978">
        <ele>262.9</ele>
        <time>2024-01-21T14:41:48.000Z</time>
      </trkpt>
      <trkpt lat="43.56876" lon="6.2198">
        <ele>263.3</ele>
        <time>2024-01-21T14:41:55.000Z</time>
      </trkpt>
      <trkpt lat="43.56875" lon="6.21981">
        <ele>263.4</ele>
        <time>2024-01-21T14:41:56.000Z</time>
      </trkpt>
      <trkpt lat="43.56869" lon="6.21988">
        <ele>264.4</ele>
        <time>2024-01-21T14:42:08.000Z</time>
      </trkpt>
      <trkpt lat="43.56866" lon="6.21992">
        <ele>265</ele>
        <time>2024-01-21T14:42:14.000Z</time>
      </trkpt>
      <trkpt lat="43.56863" lon="6.21995">
        <ele>265.8</ele>
        <time>2024-01-21T14:42:22.000Z</time>
      </trkpt>
      <trkpt lat="43.56859" lon="6.21997">
        <ele>266.5</ele>
        <time>2024-01-21T14:42:27.000Z</time>
      </trkpt>
      <trkpt lat="43.56856" lon="6.22001">
        <ele>267</ele>
        <time>2024-01-21T14:42:32.000Z</time>
      </trkpt>
      <trkpt lat="43.56853" lon="6.22003">
        <ele>267.4</ele>
        <time>2024-01-21T14:42:36.000Z</time>
      </trkpt>
      <trkpt lat="43.56849" lon="6.22006">
        <ele>268</ele>
        <time>2024-01-21T14:42:40.000Z</time>
      </trkpt>
      <trkpt lat="43.56845" lon="6.22009">
        <ele>268.6</ele>
        <time>2024-01-21T14:42:44.000Z</time>
      </trkpt>
      <trkpt lat="43.56842" lon="6.22012">
        <ele>269.3</ele>
        <time>2024-01-21T14:42:49.000Z</time>
      </trkpt>
      <trkpt lat="43.56838" lon="6.22014">
        <ele>269.8</ele>
        <time>2024-01-21T14:42:54.000Z</time>
      </trkpt>
      <trkpt lat="43.56834" lon="6.22015">
        <ele>270.3</ele>
        <time>2024-01-21T14:42:59.000Z</time>
      </trkpt>
      <trkpt lat="43.56833" lon="6.22015">
        <ele>270.4</ele>
        <time>2024-01-21T14:43:00.000Z</time>
      </trkpt>
      <trkpt lat="43.56827" lon="6.2202">
        <ele>271.3</ele>
        <time>2024-01-21T14:43:09.000Z</time>
      </trkpt>
      <trkpt lat="43.56823" lon="6.22022">
        <ele>272</ele>
        <time>2024-01-21T14:43:15.000Z</time>
      </trkpt>
      <trkpt lat="43.56819" lon="6.22024">
        <ele>272.8</ele>
        <time>2024-01-21T14:43:22.000Z</time>
      </trkpt>
      <trkpt lat="43.56814" lon="6.22025">
        <ele>273.6</ele>
        <time>2024-01-21T14:43:31.000Z</time>
      </trkpt>
      <trkpt lat="43.5681" lon="6.22027">
        <ele>274.3</ele>
        <time>2024-01-21T14:43:38.000Z</time>
      </trkpt>
      <trkpt lat="43.56807" lon="6.22031">
        <ele>274.9</ele>
        <time>2024-01-21T14:43:43.000Z</time>
      </trkpt>
      <trkpt lat="43.56803" lon="6.22034">
        <ele>275.6</ele>
        <time>2024-01-21T14:43:50.000Z</time>
      </trkpt>
      <trkpt lat="43.56799" lon="6.22035">
        <ele>276.3</ele>
        <time>2024-01-21T14:43:57.000Z</time>
      </trkpt>
      <trkpt lat="43.56795" lon="6.22036">
        <ele>276.8</ele>
        <time>2024-01-21T14:44:02.000Z</time>
      </trkpt>
      <trkpt lat="43.56794" lon="6.22036">
        <ele>277</ele>
        <time>2024-01-21T14:44:03.000Z</time>
      </trkpt>
      <trkpt lat="43.56787" lon="6.22041">
        <ele>278.6</ele>
        <time>2024-01-21T14:44:14.000Z</time>
      </trkpt>
      <trkpt lat="43.56784" lon="6.22044">
        <ele>279.3</ele>
        <time>2024-01-21T14:44:19.000Z</time>
      </trkpt>
      <trkpt lat="43.56781" lon="6.22047">
        <ele>279.6</ele>
        <time>2024-01-21T14:44:22.000Z</time>
      </trkpt>
      <trkpt lat="43.56778" lon="6.2205">
        <ele>280.1</ele>
        <time>2024-01-21T14:44:26.000Z</time>
      </trkpt>
      <trkpt lat="43.56774" lon="6.22053">
        <ele>280.7</ele>
        <time>2024-01-21T14:44:32.000Z</time>
      </trkpt>
      <trkpt lat="43.5677" lon="6.22055">
        <ele>281.2</ele>
        <time>2024-01-21T14:44:37.000Z</time>
      </trkpt>
      <trkpt lat="43.56766" lon="6.22057">
        <ele>281.7</ele>
        <time>2024-01-21T14:44:43.000Z</time>
      </trkpt>
      <trkpt lat="43.56763" lon="6.22058">
        <ele>282</ele>
        <time>2024-01-21T14:44:47.000Z</time>
      </trkpt>
      <trkpt lat="43.56759" lon="6.22059">
        <ele>282.3</ele>
        <time>2024-01-21T14:44:51.000Z</time>
      </trkpt>
      <trkpt lat="43.56756" lon="6.22062">
        <ele>282.7</ele>
        <time>2024-01-21T14:44:55.000Z</time>
      </trkpt>
      <trkpt lat="43.56752" lon="6.22064">
        <ele>283.2</ele>
        <time>2024-01-21T14:45:00.000Z</time>
      </trkpt>
      <trkpt lat="43.56748" lon="6.22066">
        <ele>283.6</ele>
        <time>2024-01-21T14:45:05.000Z</time>
      </trkpt>
      <trkpt lat="43.56747" lon="6.22066">
        <ele>283.6</ele>
        <time>2024-01-21T14:45:06.000Z</time>
      </trkpt>
      <trkpt lat="43.56741" lon="6.22071">
        <ele>284.6</ele>
        <time>2024-01-21T14:45:19.000Z</time>
      </trkpt>
      <trkpt lat="43.56736" lon="6.22071">
        <ele>284.9</ele>
        <time>2024-01-21T14:45:24.000Z</time>
      </trkpt>
      <trkpt lat="43.56732" lon="6.22072">
        <ele>285.5</ele>
        <time>2024-01-21T14:45:29.000Z</time>
      </trkpt>
      <trkpt lat="43.56729" lon="6.22076">
        <ele>286</ele>
        <time>2024-01-21T14:45:34.000Z</time>
      </trkpt>
      <trkpt lat="43.56727" lon="6.22081">
        <ele>286.6</ele>
        <time>2024-01-21T14:45:39.000Z</time>
      </trkpt>
      <trkpt lat="43.56724" lon="6.22085">
        <ele>287.1</ele>
        <time>2024-01-21T14:45:44.000Z</time>
      </trkpt>
      <trkpt lat="43.56723" lon="6.2209">
        <ele>287.4</ele>
        <time>2024-01-21T14:45:47.000Z</time>
      </trkpt>
      <trkpt lat="43.5672" lon="6.22095">
        <ele>287.9</ele>
        <time>2024-01-21T14:45:51.000Z</time>
      </trkpt>
      <trkpt lat="43.56718" lon="6.22098">
        <ele>288.2</ele>
        <time>2024-01-21T14:45:54.000Z</time>
      </trkpt>
      <trkpt lat="43.56715" lon="6.22102">
        <ele>288.7</ele>
        <time>2024-01-21T14:45:58.000Z</time>
      </trkpt>
      <trkpt lat="43.56713" lon="6.22107">
        <ele>289.3</ele>
        <time>2024-01-21T14:46:02.000Z</time>
      </trkpt>
      <trkpt lat="43.5671" lon="6.22111">
        <ele>289.7</ele>
        <time>2024-01-21T14:46:06.000Z</time>
      </trkpt>
      <trkpt lat="43.5671" lon="6.22112">
        <ele>289.8</ele>
        <time>2024-01-21T14:46:07.000Z</time>
      </trkpt>
      <trkpt lat="43.56704" lon="6.22118">
        <ele>291.1</ele>
        <time>2024-01-21T14:46:17.000Z</time>
      </trkpt>
      <trkpt lat="43.567" lon="6.22123">
        <ele>291.8</ele>
        <time>2024-01-21T14:46:23.000Z</time>
      </trkpt>
      <trkpt lat="43.56698" lon="6.22126">
        <ele>292.1</ele>
        <time>2024-01-21T14:46:26.000Z</time>
      </trkpt>
      <trkpt lat="43.56695" lon="6.2213">
        <ele>292.6</ele>
        <time>2024-01-21T14:46:30.000Z</time>
      </trkpt>
      <trkpt lat="43.56694" lon="6.22136">
        <ele>293</ele>
        <time>2024-01-21T14:46:34.000Z</time>
      </trkpt>
      <trkpt lat="43.56692" lon="6.22141">
        <ele>293.4</ele>
        <time>2024-01-21T14:46:38.000Z</time>
      </trkpt>
      <trkpt lat="43.56691" lon="6.22146">
        <ele>293.6</ele>
        <time>2024-01-21T14:46:42.000Z</time>
      </trkpt>
      <trkpt lat="43.56689" lon="6.22151">
        <ele>293.9</ele>
        <time>2024-01-21T14:46:47.000Z</time>
      </trkpt>
      <trkpt lat="43.56687" lon="6.22157">
        <ele>294</ele>
        <time>2024-01-21T14:46:52.000Z</time>
      </trkpt>
      <trkpt lat="43.56684" lon="6.22161">
        <ele>294.1</ele>
        <time>2024-01-21T14:46:57.000Z</time>
      </trkpt>
      <trkpt lat="43.56682" lon="6.22165">
        <ele>294.1</ele>
        <time>2024-01-21T14:47:01.000Z</time>
      </trkpt>
      <trkpt lat="43.56679" lon="6.2217">
        <ele>293.9</ele>
        <time>2024-01-21T14:47:06.000Z</time>
      </trkpt>
      <trkpt lat="43.56677" lon="6.22174">
        <ele>293.7</ele>
        <time>2024-01-21T14:47:10.000Z</time>
      </trkpt>
      <trkpt lat="43.56677" lon="6.22176">
        <ele>293.7</ele>
        <time>2024-01-21T14:47:11.000Z</time>
      </trkpt>
      <trkpt lat="43.56674" lon="6.22184">
        <ele>293.3</ele>
        <time>2024-01-21T14:47:17.000Z</time>
      </trkpt>
      <trkpt lat="43.56673" lon="6.22189">
        <ele>292.8</ele>
        <time>2024-01-21T14:47:21.000Z</time>
      </trkpt>
      <trkpt lat="43.56671" lon="6.22195">
        <ele>292.4</ele>
        <time>2024-01-21T14:47:25.000Z</time>
      </trkpt>
      <trkpt lat="43.56669" lon="6.22199">
        <ele>292</ele>
        <time>2024-01-21T14:47:29.000Z</time>
      </trkpt>
      <trkpt lat="43.56667" lon="6.22204">
        <ele>291.4</ele>
        <time>2024-01-21T14:47:34.000Z</time>
      </trkpt>
      <trkpt lat="43.56666" lon="6.22209">
        <ele>290.8</ele>
        <time>2024-01-21T14:47:38.000Z</time>
      </trkpt>
      <trkpt lat="43.56663" lon="6.22213">
        <ele>290</ele>
        <time>2024-01-21T14:47:42.000Z</time>
      </trkpt>
      <trkpt lat="43.56662" lon="6.22218">
        <ele>289</ele>
        <time>2024-01-21T14:47:47.000Z</time>
      </trkpt>
      <trkpt lat="43.56659" lon="6.22223">
        <ele>288</ele>
        <time>2024-01-21T14:47:52.000Z</time>
      </trkpt>
      <trkpt lat="43.56657" lon="6.22227">
        <ele>287.2</ele>
        <time>2024-01-21T14:47:56.000Z</time>
      </trkpt>
      <trkpt lat="43.56656" lon="6.22232">
        <ele>286.4</ele>
        <time>2024-01-21T14:48:00.000Z</time>
      </trkpt>
      <trkpt lat="43.56654" lon="6.22236">
        <ele>285.7</ele>
        <time>2024-01-21T14:48:04.000Z</time>
      </trkpt>
      <trkpt lat="43.56651" lon="6.2224">
        <ele>285.2</ele>
        <time>2024-01-21T14:48:07.000Z</time>
      </trkpt>
      <trkpt lat="43.56649" lon="6.22244">
        <ele>284.2</ele>
        <time>2024-01-21T14:48:12.000Z</time>
      </trkpt>
      <trkpt lat="43.56648" lon="6.22245">
        <ele>284</ele>
        <time>2024-01-21T14:48:13.000Z</time>
      </trkpt>
      <trkpt lat="43.56645" lon="6.22254">
        <ele>282.7</ele>
        <time>2024-01-21T14:48:21.000Z</time>
      </trkpt>
      <trkpt lat="43.56645" lon="6.2226">
        <ele>282</ele>
        <time>2024-01-21T14:48:26.000Z</time>
      </trkpt>
      <trkpt lat="43.56644" lon="6.22265">
        <ele>281.4</ele>
        <time>2024-01-21T14:48:30.000Z</time>
      </trkpt>
      <trkpt lat="43.56641" lon="6.22269">
        <ele>280.7</ele>
        <time>2024-01-21T14:48:35.000Z</time>
      </trkpt>
      <trkpt lat="43.56639" lon="6.22274">
        <ele>280.1</ele>
        <time>2024-01-21T14:48:39.000Z</time>
      </trkpt>
      <trkpt lat="43.56637" lon="6.22279">
        <ele>279.7</ele>
        <time>2024-01-21T14:48:42.000Z</time>
      </trkpt>
      <trkpt lat="43.56635" lon="6.22285">
        <ele>278.9</ele>
        <time>2024-01-21T14:48:48.000Z</time>
      </trkpt>
      <trkpt lat="43.56634" lon="6.2229">
        <ele>278.6</ele>
        <time>2024-01-21T14:48:51.000Z</time>
      </trkpt>
      <trkpt lat="43.56632" lon="6.22295">
        <ele>278.3</ele>
        <time>2024-01-21T14:48:54.000Z</time>
      </trkpt>
      <trkpt lat="43.56631" lon="6.223">
        <ele>277.4</ele>
        <time>2024-01-21T14:48:59.000Z</time>
      </trkpt>
      <trkpt lat="43.56629" lon="6.22305">
        <ele>276.9</ele>
        <time>2024-01-21T14:49:03.000Z</time>
      </trkpt>
      <trkpt lat="43.56627" lon="6.22311">
        <ele>276.4</ele>
        <time>2024-01-21T14:49:07.000Z</time>
      </trkpt>
      <trkpt lat="43.56626" lon="6.22316">
        <ele>276.1</ele>
        <time>2024-01-21T14:49:11.000Z</time>
      </trkpt>
      <trkpt lat="43.56626" lon="6.22321">
        <ele>275.9</ele>
        <time>2024-01-21T14:49:14.000Z</time>
      </trkpt>
      <trkpt lat="43.56626" lon="6.22323">
        <ele>275.8</ele>
        <time>2024-01-21T14:49:15.000Z</time>
      </trkpt>
      <trkpt lat="43.56626" lon="6.22333">
        <ele>275.2</ele>
        <time>2024-01-21T14:49:21.000Z</time>
      </trkpt>
      <trkpt lat="43.56625" lon="6.22338">
        <ele>274.9</ele>
        <time>2024-01-21T14:49:24.000Z</time>
      </trkpt>
      <trkpt lat="43.56627" lon="6.22342">
        <ele>274.6</ele>
        <time>2024-01-21T14:49:27.000Z</time>
      </trkpt>
      <trkpt lat="43.56629" lon="6.22347">
        <ele>274.3</ele>
        <time>2024-01-21T14:49:30.000Z</time>
      </trkpt>
      <trkpt lat="43.56629" lon="6.22353">
        <ele>273.9</ele>
        <time>2024-01-21T14:49:35.000Z</time>
      </trkpt>
      <trkpt lat="43.56629" lon="6.22358">
        <ele>273.6</ele>
        <time>2024-01-21T14:49:39.000Z</time>
      </trkpt>
      <trkpt lat="43.56628" lon="6.22363">
        <ele>273.4</ele>
        <time>2024-01-21T14:49:42.000Z</time>
      </trkpt>
      <trkpt lat="43.56628" lon="6.22369">
        <ele>273.2</ele>
        <time>2024-01-21T14:49:45.000Z</time>
      </trkpt>
      <trkpt lat="43.56627" lon="6.22373">
        <ele>272.9</ele>
        <time>2024-01-21T14:49:48.000Z</time>
      </trkpt>
      <trkpt lat="43.56627" lon="6.22378">
        <ele>272.8</ele>
        <time>2024-01-21T14:49:51.000Z</time>
      </trkpt>
      <trkpt lat="43.56626" lon="6.22383">
        <ele>272.6</ele>
        <time>2024-01-21T14:49:53.000Z</time>
      </trkpt>
      <trkpt lat="43.56624" lon="6.22387">
        <ele>272.5</ele>
        <time>2024-01-21T14:49:55.000Z</time>
      </trkpt>
      <trkpt lat="43.56624" lon="6.22392">
        <ele>272.3</ele>
        <time>2024-01-21T14:49:57.000Z</time>
      </trkpt>
      <trkpt lat="43.56623" lon="6.22397">
        <ele>272.1</ele>
        <time>2024-01-21T14:49:59.000Z</time>
      </trkpt>
      <trkpt lat="43.56622" lon="6.22402">
        <ele>271.7</ele>
        <time>2024-01-21T14:50:02.000Z</time>
      </trkpt>
      <trkpt lat="43.56622" lon="6.22407">
        <ele>271.3</ele>
        <time>2024-01-21T14:50:06.000Z</time>
      </trkpt>
      <trkpt lat="43.5662" lon="6.22412">
        <ele>270.9</ele>
        <time>2024-01-21T14:50:09.000Z</time>
      </trkpt>
      <trkpt lat="43.56621" lon="6.22417">
        <ele>270.5</ele>
        <time>2024-01-21T14:50:12.000Z</time>
      </trkpt>
      <trkpt lat="43.56621" lon="6.22422">
        <ele>270.2</ele>
        <time>2024-01-21T14:50:15.000Z</time>
      </trkpt>
      <trkpt lat="43.56621" lon="6.22423">
        <ele>270.1</ele>
        <time>2024-01-21T14:50:16.000Z</time>
      </trkpt>
      <trkpt lat="43.56621" lon="6.22432">
        <ele>269.2</ele>
        <time>2024-01-21T14:50:22.000Z</time>
      </trkpt>
      <trkpt lat="43.56622" lon="6.22438">
        <ele>268.7</ele>
        <time>2024-01-21T14:50:26.000Z</time>
      </trkpt>
      <trkpt lat="43.56624" lon="6.22442">
        <ele>268.2</ele>
        <time>2024-01-21T14:50:29.000Z</time>
      </trkpt>
      <trkpt lat="43.56624" lon="6.22447">
        <ele>268</ele>
        <time>2024-01-21T14:50:31.000Z</time>
      </trkpt>
      <trkpt lat="43.56625" lon="6.22453">
        <ele>267.6</ele>
        <time>2024-01-21T14:50:34.000Z</time>
      </trkpt>
      <trkpt lat="43.56625" lon="6.22457">
        <ele>267.2</ele>
        <time>2024-01-21T14:50:37.000Z</time>
      </trkpt>
      <trkpt lat="43.56626" lon="6.22462">
        <ele>266.8</ele>
        <time>2024-01-21T14:50:40.000Z</time>
      </trkpt>
      <trkpt lat="43.56625" lon="6.22468">
        <ele>266</ele>
        <time>2024-01-21T14:50:47.000Z</time>
      </trkpt>
      <trkpt lat="43.56625" lon="6.22474">
        <ele>265.3</ele>
        <time>2024-01-21T14:50:56.000Z</time>
      </trkpt>
      <trkpt lat="43.56628" lon="6.22478">
        <ele>264.9</ele>
        <time>2024-01-21T14:51:03.000Z</time>
      </trkpt>
      <trkpt lat="43.56631" lon="6.22482">
        <ele>264.7</ele>
        <time>2024-01-21T14:51:13.000Z</time>
      </trkpt>
      <trkpt lat="43.56634" lon="6.22486">
        <ele>264.6</ele>
        <time>2024-01-21T14:51:17.000Z</time>
      </trkpt>
      <trkpt lat="43.56635" lon="6.22487">
        <ele>264.5</ele>
        <time>2024-01-21T14:51:18.000Z</time>
      </trkpt>
      <trkpt lat="43.56637" lon="6.22497">
        <ele>264.1</ele>
        <time>2024-01-21T14:51:30.000Z</time>
      </trkpt>
      <trkpt lat="43.5664" lon="6.22501">
        <ele>264</ele>
        <time>2024-01-21T14:51:36.000Z</time>
      </trkpt>
      <trkpt lat="43.56641" lon="6.22506">
        <ele>263.9</ele>
        <time>2024-01-21T14:51:41.000Z</time>
      </trkpt>
      <trkpt lat="43.56643" lon="6.2251">
        <ele>263.8</ele>
        <time>2024-01-21T14:51:44.000Z</time>
      </trkpt>
      <trkpt lat="43.56645" lon="6.22516">
        <ele>263.4</ele>
        <time>2024-01-21T14:51:49.000Z</time>
      </trkpt>
      <trkpt lat="43.56647" lon="6.22521">
        <ele>263</ele>
        <time>2024-01-21T14:51:54.000Z</time>
      </trkpt>
      <trkpt lat="43.56647" lon="6.22527">
        <ele>262.7</ele>
        <time>2024-01-21T14:51:58.000Z</time>
      </trkpt>
      <trkpt lat="43.56649" lon="6.22533">
        <ele>262.3</ele>
        <time>2024-01-21T14:52:02.000Z</time>
      </trkpt>
      <trkpt lat="43.5665" lon="6.22537">
        <ele>262</ele>
        <time>2024-01-21T14:52:05.000Z</time>
      </trkpt>
      <trkpt lat="43.56652" lon="6.22542">
        <ele>261.7</ele>
        <time>2024-01-21T14:52:08.000Z</time>
      </trkpt>
      <trkpt lat="43.56653" lon="6.22548">
        <ele>261.5</ele>
        <time>2024-01-21T14:52:11.000Z</time>
      </trkpt>
      <trkpt lat="43.56655" lon="6.22552">
        <ele>261.2</ele>
        <time>2024-01-21T14:52:14.000Z</time>
      </trkpt>
      <trkpt lat="43.56657" lon="6.22557">
        <ele>260.7</ele>
        <time>2024-01-21T14:52:19.000Z</time>
      </trkpt>
      <trkpt lat="43.56657" lon="6.22558">
        <ele>260.7</ele>
        <time>2024-01-21T14:52:20.000Z</time>
      </trkpt>
      <trkpt lat="43.56659" lon="6.22568">
        <ele>260</ele>
        <time>2024-01-21T14:52:31.000Z</time>
      </trkpt>
      <trkpt lat="43.5666" lon="6.22573">
        <ele>259.8</ele>
        <time>2024-01-21T14:52:35.000Z</time>
      </trkpt>
      <trkpt lat="43.56661" lon="6.22579">
        <ele>259.6</ele>
        <time>2024-01-21T14:52:39.000Z</time>
      </trkpt>
      <trkpt lat="43.56662" lon="6.22584">
        <ele>259.4</ele>
        <time>2024-01-21T14:52:43.000Z</time>
      </trkpt>
      <trkpt lat="43.56662" lon="6.2259">
        <ele>259</ele>
        <time>2024-01-21T14:52:46.000Z</time>
      </trkpt>
      <trkpt lat="43.56663" lon="6.22594">
        <ele>258.8</ele>
        <time>2024-01-21T14:52:48.000Z</time>
      </trkpt>
      <trkpt lat="43.56663" lon="6.22599">
        <ele>258.7</ele>
        <time>2024-01-21T14:52:50.000Z</time>
      </trkpt>
      <trkpt lat="43.56663" lon="6.22605">
        <ele>258.5</ele>
        <time>2024-01-21T14:52:53.000Z</time>
      </trkpt>
      <trkpt lat="43.56664" lon="6.22611">
        <ele>258.3</ele>
        <time>2024-01-21T14:52:56.000Z</time>
      </trkpt>
      <trkpt lat="43.56665" lon="6.22616">
        <ele>258.1</ele>
        <time>2024-01-21T14:52:59.000Z</time>
      </trkpt>
      <trkpt lat="43.56666" lon="6.22621">
        <ele>257.9</ele>
        <time>2024-01-21T14:53:02.000Z</time>
      </trkpt>
      <trkpt lat="43.56667" lon="6.22626">
        <ele>257.6</ele>
        <time>2024-01-21T14:53:05.000Z</time>
      </trkpt>
      <trkpt lat="43.56667" lon="6.22632">
        <ele>257.4</ele>
        <time>2024-01-21T14:53:08.000Z</time>
      </trkpt>
      <trkpt lat="43.56667" lon="6.22637">
        <ele>257.2</ele>
        <time>2024-01-21T14:53:11.000Z</time>
      </trkpt>
      <trkpt lat="43.56667" lon="6.22642">
        <ele>257.1</ele>
        <time>2024-01-21T14:53:14.000Z</time>
      </trkpt>
      <trkpt lat="43.56668" lon="6.22647">
        <ele>256.9</ele>
        <time>2024-01-21T14:53:17.000Z</time>
      </trkpt>
      <trkpt lat="43.56669" lon="6.22652">
        <ele>256.7</ele>
        <time>2024-01-21T14:53:20.000Z</time>
      </trkpt>
      <trkpt lat="43.56669" lon="6.22654">
        <ele>256.7</ele>
        <time>2024-01-21T14:53:21.000Z</time>
      </trkpt>
      <trkpt lat="43.5667" lon="6.22663">
        <ele>256.1</ele>
        <time>2024-01-21T14:53:26.000Z</time>
      </trkpt>
      <trkpt lat="43.5667" lon="6.22668">
        <ele>255.8</ele>
        <time>2024-01-21T14:53:29.000Z</time>
      </trkpt>
      <trkpt lat="43.56671" lon="6.22674">
        <ele>255.5</ele>
        <time>2024-01-21T14:53:32.000Z</time>
      </trkpt>
      <trkpt lat="43.56671" lon="6.2268">
        <ele>255</ele>
        <time>2024-01-21T14:53:40.000Z</time>
      </trkpt>
      <trkpt lat="43.56675" lon="6.22683">
        <ele>254.6</ele>
        <time>2024-01-21T14:53:53.000Z</time>
      </trkpt>
      <trkpt lat="43.56674" lon="6.22689">
        <ele>254.6</ele>
        <time>2024-01-21T14:55:37.000Z</time>
      </trkpt>
      <trkpt lat="43.56674" lon="6.2269">
        <ele>254.6</ele>
        <time>2024-01-21T14:55:38.000Z</time>
      </trkpt>
      <trkpt lat="43.56676" lon="6.227">
        <ele>254.2</ele>
        <time>2024-01-21T14:56:13.000Z</time>
      </trkpt>
      <trkpt lat="43.56674" lon="6.22705">
        <ele>254.1</ele>
        <time>2024-01-21T14:56:20.000Z</time>
      </trkpt>
      <trkpt lat="43.56671" lon="6.22708">
        <ele>254</ele>
        <time>2024-01-21T14:56:24.000Z</time>
      </trkpt>
      <trkpt lat="43.5667" lon="6.22713">
        <ele>253.9</ele>
        <time>2024-01-21T14:56:28.000Z</time>
      </trkpt>
      <trkpt lat="43.56667" lon="6.22718">
        <ele>253.5</ele>
        <time>2024-01-21T14:56:36.000Z</time>
      </trkpt>
      <trkpt lat="43.56664" lon="6.22722">
        <ele>253</ele>
        <time>2024-01-21T14:56:47.000Z</time>
      </trkpt>
      <trkpt lat="43.56664" lon="6.22723">
        <ele>253</ele>
        <time>2024-01-21T14:56:48.000Z</time>
      </trkpt>
      <trkpt lat="43.56665" lon="6.22733">
        <ele>252.6</ele>
        <time>2024-01-21T14:56:56.000Z</time>
      </trkpt>
      <trkpt lat="43.56665" lon="6.22738">
        <ele>252.3</ele>
        <time>2024-01-21T14:57:00.000Z</time>
      </trkpt>
      <trkpt lat="43.56663" lon="6.22743">
        <ele>252.1</ele>
        <time>2024-01-21T14:57:04.000Z</time>
      </trkpt>
      <trkpt lat="43.56661" lon="6.22748">
        <ele>252</ele>
        <time>2024-01-21T14:57:07.000Z</time>
      </trkpt>
      <trkpt lat="43.56659" lon="6.22753">
        <ele>251.9</ele>
        <time>2024-01-21T14:57:10.000Z</time>
      </trkpt>
      <trkpt lat="43.56657" lon="6.22757">
        <ele>251.7</ele>
        <time>2024-01-21T14:57:14.000Z</time>
      </trkpt>
      <trkpt lat="43.56655" lon="6.22762">
        <ele>251.6</ele>
        <time>2024-01-21T14:57:17.000Z</time>
      </trkpt>
      <trkpt lat="43.56654" lon="6.22766">
        <ele>251.4</ele>
        <time>2024-01-21T14:57:20.000Z</time>
      </trkpt>
      <trkpt lat="43.56654" lon="6.22772">
        <ele>251.2</ele>
        <time>2024-01-21T14:57:24.000Z</time>
      </trkpt>
      <trkpt lat="43.56653" lon="6.22778">
        <ele>251</ele>
        <time>2024-01-21T14:57:28.000Z</time>
      </trkpt>
      <trkpt lat="43.56652" lon="6.22783">
        <ele>250.7</ele>
        <time>2024-01-21T14:57:32.000Z</time>
      </trkpt>
      <trkpt lat="43.5665" lon="6.22788">
        <ele>250.4</ele>
        <time>2024-01-21T14:57:36.000Z</time>
      </trkpt>
      <trkpt lat="43.56649" lon="6.22792">
        <ele>250</ele>
        <time>2024-01-21T14:57:39.000Z</time>
      </trkpt>
      <trkpt lat="43.56646" lon="6.22796">
        <ele>249.8</ele>
        <time>2024-01-21T14:57:42.000Z</time>
      </trkpt>
      <trkpt lat="43.56643" lon="6.228">
        <ele>249.5</ele>
        <time>2024-01-21T14:57:45.000Z</time>
      </trkpt>
      <trkpt lat="43.5664" lon="6.22802">
        <ele>249.1</ele>
        <time>2024-01-21T14:57:48.000Z</time>
      </trkpt>
      <trkpt lat="43.56638" lon="6.22803">
        <ele>249</ele>
        <time>2024-01-21T14:57:49.000Z</time>
      </trkpt>
      <trkpt lat="43.56633" lon="6.22806">
        <ele>248.8</ele>
        <time>2024-01-21T14:57:52.000Z</time>
      </trkpt>
      <trkpt lat="43.56629" lon="6.22808">
        <ele>248.6</ele>
        <time>2024-01-21T14:57:54.000Z</time>
      </trkpt>
      <trkpt lat="43.56625" lon="6.2281">
        <ele>248.5</ele>
        <time>2024-01-21T14:57:56.000Z</time>
      </trkpt>
      <trkpt lat="43.56622" lon="6.22811">
        <ele>248.4</ele>
        <time>2024-01-21T14:57:58.000Z</time>
      </trkpt>
      <trkpt lat="43.56619" lon="6.22812">
        <ele>248.3</ele>
        <time>2024-01-21T14:58:00.000Z</time>
      </trkpt>
      <trkpt lat="43.56616" lon="6.22814">
        <ele>248.2</ele>
        <time>2024-01-21T14:58:02.000Z</time>
      </trkpt>
      <trkpt lat="43.56613" lon="6.22815">
        <ele>248.1</ele>
        <time>2024-01-21T14:58:04.000Z</time>
      </trkpt>
      <trkpt lat="43.56609" lon="6.22817">
        <ele>247.9</ele>
        <time>2024-01-21T14:58:07.000Z</time>
      </trkpt>
      <trkpt lat="43.56606" lon="6.22818">
        <ele>247.7</ele>
        <time>2024-01-21T14:58:09.000Z</time>
      </trkpt>
      <trkpt lat="43.56601" lon="6.22819">
        <ele>247.6</ele>
        <time>2024-01-21T14:58:12.000Z</time>
      </trkpt>
      <trkpt lat="43.56597" lon="6.2282">
        <ele>247.4</ele>
        <time>2024-01-21T14:58:15.000Z</time>
      </trkpt>
      <trkpt lat="43.56593" lon="6.22821">
        <ele>247.2</ele>
        <time>2024-01-21T14:58:18.000Z</time>
      </trkpt>
      <trkpt lat="43.56589" lon="6.22822">
        <ele>246.9</ele>
        <time>2024-01-21T14:58:21.000Z</time>
      </trkpt>
      <trkpt lat="43.56585" lon="6.22822">
        <ele>246.7</ele>
        <time>2024-01-21T14:58:24.000Z</time>
      </trkpt>
      <trkpt lat="43.56582" lon="6.22823">
        <ele>246.4</ele>
        <time>2024-01-21T14:58:27.000Z</time>
      </trkpt>
      <trkpt lat="43.56578" lon="6.22823">
        <ele>246.1</ele>
        <time>2024-01-21T14:58:30.000Z</time>
      </trkpt>
      <trkpt lat="43.56574" lon="6.22824">
        <ele>245.7</ele>
        <time>2024-01-21T14:58:34.000Z</time>
      </trkpt>
      <trkpt lat="43.5657" lon="6.22824">
        <ele>245.1</ele>
        <time>2024-01-21T14:58:39.000Z</time>
      </trkpt>
      <trkpt lat="43.56566" lon="6.22825">
        <ele>244.7</ele>
        <time>2024-01-21T14:58:42.000Z</time>
      </trkpt>
      <trkpt lat="43.56562" lon="6.22825">
        <ele>244.4</ele>
        <time>2024-01-21T14:58:45.000Z</time>
      </trkpt>
      <trkpt lat="43.56558" lon="6.22825">
        <ele>244</ele>
        <time>2024-01-21T14:58:49.000Z</time>
      </trkpt>
      <trkpt lat="43.56557" lon="6.22825">
        <ele>243.9</ele>
        <time>2024-01-21T14:58:50.000Z</time>
      </trkpt>
      <trkpt lat="43.5655" lon="6.22821">
        <ele>243.1</ele>
        <time>2024-01-21T14:58:57.000Z</time>
      </trkpt>
      <trkpt lat="43.56547" lon="6.22817">
        <ele>242.7</ele>
        <time>2024-01-21T14:59:00.000Z</time>
      </trkpt>
      <trkpt lat="43.56544" lon="6.22812">
        <ele>242.3</ele>
        <time>2024-01-21T14:59:03.000Z</time>
      </trkpt>
      <trkpt lat="43.56542" lon="6.22809">
        <ele>242</ele>
        <time>2024-01-21T14:59:06.000Z</time>
      </trkpt>
      <trkpt lat="43.5654" lon="6.22804">
        <ele>241.7</ele>
        <time>2024-01-21T14:59:09.000Z</time>
      </trkpt>
      <trkpt lat="43.56538" lon="6.22799">
        <ele>241.5</ele>
        <time>2024-01-21T14:59:13.000Z</time>
      </trkpt>
      <trkpt lat="43.56536" lon="6.22794">
        <ele>241.2</ele>
        <time>2024-01-21T14:59:17.000Z</time>
      </trkpt>
      <trkpt lat="43.56536" lon="6.22788">
        <ele>240.8</ele>
        <time>2024-01-21T14:59:22.000Z</time>
      </trkpt>
      <trkpt lat="43.56535" lon="6.22782">
        <ele>240.6</ele>
        <time>2024-01-21T14:59:26.000Z</time>
      </trkpt>
      <trkpt lat="43.56533" lon="6.22778">
        <ele>240.4</ele>
        <time>2024-01-21T14:59:29.000Z</time>
      </trkpt>
      <trkpt lat="43.56532" lon="6.22773">
        <ele>240.3</ele>
        <time>2024-01-21T14:59:32.000Z</time>
      </trkpt>
      <trkpt lat="43.56531" lon="6.22768">
        <ele>240.2</ele>
        <time>2024-01-21T14:59:36.000Z</time>
      </trkpt>
      <trkpt lat="43.5653" lon="6.22762">
        <ele>240.1</ele>
        <time>2024-01-21T14:59:40.000Z</time>
      </trkpt>
      <trkpt lat="43.5653" lon="6.22758">
        <ele>240</ele>
        <time>2024-01-21T14:59:43.000Z</time>
      </trkpt>
      <trkpt lat="43.5653" lon="6.22752">
        <ele>240</ele>
        <time>2024-01-21T14:59:46.000Z</time>
      </trkpt>
      <trkpt lat="43.5653" lon="6.22747">
        <ele>239.9</ele>
        <time>2024-01-21T14:59:49.000Z</time>
      </trkpt>
      <trkpt lat="43.56529" lon="6.22742">
        <ele>239.9</ele>
        <time>2024-01-21T14:59:53.000Z</time>
      </trkpt>
      <trkpt lat="43.56529" lon="6.22741">
        <ele>239.9</ele>
        <time>2024-01-21T14:59:54.000Z</time>
      </trkpt>
      <trkpt lat="43.56528" lon="6.22732">
        <ele>239.8</ele>
        <time>2024-01-21T15:00:01.000Z</time>
      </trkpt>
      <trkpt lat="43.56528" lon="6.22726">
        <ele>239.8</ele>
        <time>2024-01-21T15:00:06.000Z</time>
      </trkpt>
      <trkpt lat="43.56527" lon="6.2272">
        <ele>239.9</ele>
        <time>2024-01-21T15:00:11.000Z</time>
      </trkpt>
      <trkpt lat="43.56526" lon="6.22714">
        <ele>239.9</ele>
        <time>2024-01-21T15:00:16.000Z</time>
      </trkpt>
      <trkpt lat="43.56526" lon="6.22709">
        <ele>239.9</ele>
        <time>2024-01-21T15:00:20.000Z</time>
      </trkpt>
      <trkpt lat="43.56522" lon="6.22706">
        <ele>239.9</ele>
        <time>2024-01-21T15:00:36.000Z</time>
      </trkpt>
      <trkpt lat="43.5652" lon="6.227">
        <ele>240.4</ele>
        <time>2024-01-21T15:01:23.000Z</time>
      </trkpt>
    </trkseg>
  </trk>
</gpx>